<?xml version='1.0' encoding='UTF-8'?><gpx version="1.1" creator="JPX - https://github.com/jenetics/jpx" xmlns="http://www.topografix.com/GPX/1/1"><trk><trkseg><trkpt lat="43.1689155" lon="11.7755296"><ele>280.0</ele><time>2026-04-04T06:30:10.753Z</time></trkpt><trkpt lat="43.1689054" lon="11.7754157"><ele>280.0</ele><time>2026-04-04T06:31:42.86Z</time></trkpt><trkpt lat="43.1689893" lon="11.7753532"><ele>280.0</ele><time>2026-04-04T06:31:46.754Z</time></trkpt><trkpt lat="43.1690184" lon="11.7752202"><ele>280.0</ele><time>2026-04-04T06:32:24.754Z</time></trkpt><trkpt lat="43.1690066" lon="11.7750645"><ele>280.0</ele><time>2026-04-04T06:32:26.754Z</time></trkpt><trkpt lat="43.1689978" lon="11.7749328"><ele>279.8</ele><time>2026-04-04T06:32:28.754Z</time></trkpt><trkpt lat="43.1690166" lon="11.7747806"><ele>279.6</ele><time>2026-04-04T06:32:30.754Z</time></trkpt><trkpt lat="43.1690745" lon="11.7747157"><ele>279.4</ele><time>2026-04-04T06:32:31.754Z</time></trkpt><trkpt lat="43.1691724" lon="11.7746939"><ele>279.2</ele><time>2026-04-04T06:32:32.754Z</time></trkpt><trkpt lat="43.1692684" lon="11.7746594"><ele>279.0</ele><time>2026-04-04T06:32:33.754Z</time></trkpt><trkpt lat="43.1693589" lon="11.774634"><ele>278.99999999999994</ele><time>2026-04-04T06:32:34.754Z</time></trkpt><trkpt lat="43.169448" lon="11.7746154"><ele>279.0</ele><time>2026-04-04T06:32:35.754Z</time></trkpt><trkpt lat="43.1695215" lon="11.7745839"><ele>279.0</ele><time>2026-04-04T06:32:36.754Z</time></trkpt><trkpt lat="43.1695825" lon="11.7745342"><ele>279.0</ele><time>2026-04-04T06:32:37.754Z</time></trkpt><trkpt lat="43.1696237" lon="11.7744553"><ele>279.0</ele><time>2026-04-04T06:32:38.754Z</time></trkpt><trkpt lat="43.1696415" lon="11.7743641"><ele>278.99999999999994</ele><time>2026-04-04T06:32:39.754Z</time></trkpt><trkpt lat="43.1696555" lon="11.7742776"><ele>279.0</ele><time>2026-04-04T06:32:40.754Z</time></trkpt><trkpt lat="43.169687" lon="11.7741863"><ele>278.59999999999997</ele><time>2026-04-04T06:32:41.754Z</time></trkpt><trkpt lat="43.1697205" lon="11.7740734"><ele>278.2</ele><time>2026-04-04T06:32:42.755Z</time></trkpt><trkpt lat="43.1697531" lon="11.7739611"><ele>277.79999999999995</ele><time>2026-04-04T06:32:43.755Z</time></trkpt><trkpt lat="43.1697897" lon="11.7738372"><ele>277.4</ele><time>2026-04-04T06:32:44.754Z</time></trkpt><trkpt lat="43.1698282" lon="11.7737099"><ele>277.0</ele><time>2026-04-04T06:32:45.754Z</time></trkpt><trkpt lat="43.1698659" lon="11.7735851"><ele>276.8</ele><time>2026-04-04T06:32:46.754Z</time></trkpt><trkpt lat="43.169892" lon="11.7734519"><ele>276.6</ele><time>2026-04-04T06:32:47.754Z</time></trkpt><trkpt lat="43.1698997" lon="11.7733137"><ele>276.40000000000003</ele><time>2026-04-04T06:32:48.754Z</time></trkpt><trkpt lat="43.1698728" lon="11.7731698"><ele>276.2</ele><time>2026-04-04T06:32:49.754Z</time></trkpt><trkpt lat="43.1698373" lon="11.7730148"><ele>276.0</ele><time>2026-04-04T06:32:50.754Z</time></trkpt><trkpt lat="43.1697961" lon="11.7728671"><ele>277.2</ele><time>2026-04-04T06:32:51.754Z</time></trkpt><trkpt lat="43.169751" lon="11.7727154"><ele>278.40000000000003</ele><time>2026-04-04T06:32:52.754Z</time></trkpt><trkpt lat="43.1697107" lon="11.7725622"><ele>279.6</ele><time>2026-04-04T06:32:53.754Z</time></trkpt><trkpt lat="43.16968" lon="11.7724246"><ele>280.8</ele><time>2026-04-04T06:32:54.754Z</time></trkpt><trkpt lat="43.1696473" lon="11.7723021"><ele>282.0</ele><time>2026-04-04T06:32:55.754Z</time></trkpt><trkpt lat="43.1696189" lon="11.7721992"><ele>282.0</ele><time>2026-04-04T06:32:56.754Z</time></trkpt><trkpt lat="43.1695983" lon="11.7720994"><ele>282.0</ele><time>2026-04-04T06:32:57.754Z</time></trkpt><trkpt lat="43.1696034" lon="11.7719994"><ele>282.0</ele><time>2026-04-04T06:32:58.754Z</time></trkpt><trkpt lat="43.1696486" lon="11.7718989"><ele>282.0</ele><time>2026-04-04T06:32:59.754Z</time></trkpt><trkpt lat="43.1697138" lon="11.7717914"><ele>282.0</ele><time>2026-04-04T06:33:00.754Z</time></trkpt><trkpt lat="43.169771" lon="11.771672"><ele>282.0</ele><time>2026-04-04T06:33:01.754Z</time></trkpt><trkpt lat="43.1698178" lon="11.7715319"><ele>281.75</ele><time>2026-04-04T06:33:02.755Z</time></trkpt><trkpt lat="43.1698637" lon="11.7713963"><ele>281.5</ele><time>2026-04-04T06:33:03.754Z</time></trkpt><trkpt lat="43.1699126" lon="11.7712512"><ele>281.25</ele><time>2026-04-04T06:33:04.754Z</time></trkpt><trkpt lat="43.1699617" lon="11.7711069"><ele>281.0</ele><time>2026-04-04T06:33:05.754Z</time></trkpt><trkpt lat="43.1700057" lon="11.7709557"><ele>281.0</ele><time>2026-04-04T06:33:06.754Z</time></trkpt><trkpt lat="43.1700458" lon="11.7708106"><ele>281.0</ele><time>2026-04-04T06:33:07.754Z</time></trkpt><trkpt lat="43.1700958" lon="11.7706839"><ele>281.0</ele><time>2026-04-04T06:33:08.754Z</time></trkpt><trkpt lat="43.1701352" lon="11.7705571"><ele>281.0</ele><time>2026-04-04T06:33:09.754Z</time></trkpt><trkpt lat="43.1701733" lon="11.7704325"><ele>281.0</ele><time>2026-04-04T06:33:10.754Z</time></trkpt><trkpt lat="43.1702167" lon="11.7703019"><ele>281.6</ele><time>2026-04-04T06:33:11.754Z</time></trkpt><trkpt lat="43.1702661" lon="11.7701718"><ele>282.20000000000005</ele><time>2026-04-04T06:33:12.754Z</time></trkpt><trkpt lat="43.170328" lon="11.7700407"><ele>282.79999999999995</ele><time>2026-04-04T06:33:13.754Z</time></trkpt><trkpt lat="43.170392" lon="11.7699185"><ele>283.4</ele><time>2026-04-04T06:33:14.754Z</time></trkpt><trkpt lat="43.1704608" lon="11.7698027"><ele>284.0</ele><time>2026-04-04T06:33:15.754Z</time></trkpt><trkpt lat="43.1705392" lon="11.7696927"><ele>284.0</ele><time>2026-04-04T06:33:16.754Z</time></trkpt><trkpt lat="43.1706235" lon="11.7696031"><ele>284.0</ele><time>2026-04-04T06:33:17.754Z</time></trkpt><trkpt lat="43.1707165" lon="11.7695782"><ele>284.0</ele><time>2026-04-04T06:33:18.755Z</time></trkpt><trkpt lat="43.1708152" lon="11.7696302"><ele>284.0</ele><time>2026-04-04T06:33:19.754Z</time></trkpt><trkpt lat="43.1709045" lon="11.7696951"><ele>284.0</ele><time>2026-04-04T06:33:20.754Z</time></trkpt><trkpt lat="43.1709936" lon="11.7697622"><ele>285.8</ele><time>2026-04-04T06:33:21.754Z</time></trkpt><trkpt lat="43.1710863" lon="11.7697938"><ele>287.59999999999997</ele><time>2026-04-04T06:33:22.754Z</time></trkpt><trkpt lat="43.1711666" lon="11.7697603"><ele>289.4</ele><time>2026-04-04T06:33:23.754Z</time></trkpt><trkpt lat="43.1712538" lon="11.769679"><ele>291.2</ele><time>2026-04-04T06:33:24.754Z</time></trkpt><trkpt lat="43.1713475" lon="11.7695995"><ele>293.0</ele><time>2026-04-04T06:33:25.754Z</time></trkpt><trkpt lat="43.1714447" lon="11.7695419"><ele>293.6</ele><time>2026-04-04T06:33:26.754Z</time></trkpt><trkpt lat="43.1715501" lon="11.7695026"><ele>294.20000000000005</ele><time>2026-04-04T06:33:27.754Z</time></trkpt><trkpt lat="43.1716611" lon="11.7694759"><ele>294.8</ele><time>2026-04-04T06:33:28.754Z</time></trkpt><trkpt lat="43.1717659" lon="11.769452"><ele>295.40000000000003</ele><time>2026-04-04T06:33:29.754Z</time></trkpt><trkpt lat="43.1718421" lon="11.7693911"><ele>296.0</ele><time>2026-04-04T06:33:30.755Z</time></trkpt><trkpt lat="43.1718835" lon="11.769295"><ele>298.0</ele><time>2026-04-04T06:33:31.754Z</time></trkpt><trkpt lat="43.1719158" lon="11.7692088"><ele>300.0</ele><time>2026-04-04T06:33:32.754Z</time></trkpt><trkpt lat="43.17206" lon="11.7691742"><ele>302.0</ele><time>2026-04-04T06:33:34.754Z</time></trkpt><trkpt lat="43.1721709" lon="11.7691633"><ele>304.0</ele><time>2026-04-04T06:33:35.754Z</time></trkpt><trkpt lat="43.1722771" lon="11.7691664"><ele>306.0</ele><time>2026-04-04T06:33:36.754Z</time></trkpt><trkpt lat="43.1723722" lon="11.769172"><ele>306.8333333333333</ele><time>2026-04-04T06:33:37.755Z</time></trkpt><trkpt lat="43.1724635" lon="11.7691773"><ele>307.6666666666667</ele><time>2026-04-04T06:33:38.754Z</time></trkpt><trkpt lat="43.1725436" lon="11.7691889"><ele>308.5</ele><time>2026-04-04T06:33:39.754Z</time></trkpt><trkpt lat="43.1726097" lon="11.7692"><ele>309.33333333333337</ele><time>2026-04-04T06:33:40.754Z</time></trkpt><trkpt lat="43.1726966" lon="11.7692035"><ele>310.1666666666667</ele><time>2026-04-04T06:33:42.754Z</time></trkpt><trkpt lat="43.1727226" lon="11.769123"><ele>311.0</ele><time>2026-04-04T06:33:44.754Z</time></trkpt><trkpt lat="43.1727116" lon="11.7690252"><ele>311.0</ele><time>2026-04-04T06:33:45.754Z</time></trkpt><trkpt lat="43.1726994" lon="11.7689131"><ele>311.0</ele><time>2026-04-04T06:33:46.754Z</time></trkpt><trkpt lat="43.1727008" lon="11.7687717"><ele>311.0</ele><time>2026-04-04T06:33:47.755Z</time></trkpt><trkpt lat="43.1727071" lon="11.7686264"><ele>311.0</ele><time>2026-04-04T06:33:48.754Z</time></trkpt><trkpt lat="43.172715" lon="11.768481"><ele>311.0</ele><time>2026-04-04T06:33:49.754Z</time></trkpt><trkpt lat="43.1727218" lon="11.768329"><ele>312.2</ele><time>2026-04-04T06:33:50.754Z</time></trkpt><trkpt lat="43.1727172" lon="11.7681925"><ele>313.40000000000003</ele><time>2026-04-04T06:33:51.754Z</time></trkpt><trkpt lat="43.1727014" lon="11.7680693"><ele>314.6</ele><time>2026-04-04T06:33:52.754Z</time></trkpt><trkpt lat="43.172651" lon="11.767947"><ele>315.8</ele><time>2026-04-04T06:33:53.754Z</time></trkpt><trkpt lat="43.1725852" lon="11.7678352"><ele>317.0</ele><time>2026-04-04T06:33:54.754Z</time></trkpt><trkpt lat="43.1725037" lon="11.7677185"><ele>317.5</ele><time>2026-04-04T06:33:55.754Z</time></trkpt><trkpt lat="43.1724185" lon="11.7676019"><ele>318.0</ele><time>2026-04-04T06:33:56.754Z</time></trkpt><trkpt lat="43.1723331" lon="11.7674639"><ele>318.5</ele><time>2026-04-04T06:33:57.754Z</time></trkpt><trkpt lat="43.1722627" lon="11.7673279"><ele>319.0</ele><time>2026-04-04T06:33:58.754Z</time></trkpt><trkpt lat="43.1721913" lon="11.7671998"><ele>319.25</ele><time>2026-04-04T06:33:59.755Z</time></trkpt><trkpt lat="43.1721183" lon="11.7670712"><ele>319.5</ele><time>2026-04-04T06:34:00.754Z</time></trkpt><trkpt lat="43.1720466" lon="11.7669417"><ele>319.75</ele><time>2026-04-04T06:34:01.754Z</time></trkpt><trkpt lat="43.1719661" lon="11.766814"><ele>320.0</ele><time>2026-04-04T06:34:02.755Z</time></trkpt><trkpt lat="43.1718729" lon="11.7666964"><ele>320.0</ele><time>2026-04-04T06:34:03.754Z</time></trkpt><trkpt lat="43.1717748" lon="11.7665861"><ele>320.0</ele><time>2026-04-04T06:34:04.755Z</time></trkpt><trkpt lat="43.1716733" lon="11.7664858"><ele>320.0</ele><time>2026-04-04T06:34:05.754Z</time></trkpt><trkpt lat="43.1715796" lon="11.7663981"><ele>320.0</ele><time>2026-04-04T06:34:06.754Z</time></trkpt><trkpt lat="43.1714914" lon="11.7663119"><ele>320.2</ele><time>2026-04-04T06:34:07.754Z</time></trkpt><trkpt lat="43.1714048" lon="11.7662202"><ele>320.4</ele><time>2026-04-04T06:34:08.754Z</time></trkpt><trkpt lat="43.1713262" lon="11.7661261"><ele>320.6</ele><time>2026-04-04T06:34:09.754Z</time></trkpt><trkpt lat="43.1712462" lon="11.7660229"><ele>320.8</ele><time>2026-04-04T06:34:10.755Z</time></trkpt><trkpt lat="43.1711585" lon="11.7659097"><ele>321.0</ele><time>2026-04-04T06:34:11.754Z</time></trkpt><trkpt lat="43.1710567" lon="11.7657971"><ele>321.0</ele><time>2026-04-04T06:34:12.754Z</time></trkpt><trkpt lat="43.170947" lon="11.7656932"><ele>321.0</ele><time>2026-04-04T06:34:13.754Z</time></trkpt><trkpt lat="43.170832" lon="11.7655886"><ele>321.0</ele><time>2026-04-04T06:34:14.754Z</time></trkpt><trkpt lat="43.1707195" lon="11.7654907"><ele>321.0</ele><time>2026-04-04T06:34:15.754Z</time></trkpt><trkpt lat="43.170603" lon="11.7653976"><ele>320.5</ele><time>2026-04-04T06:34:16.754Z</time></trkpt><trkpt lat="43.1704941" lon="11.7653187"><ele>320.0</ele><time>2026-04-04T06:34:17.754Z</time></trkpt><trkpt lat="43.1703934" lon="11.7652369"><ele>319.5</ele><time>2026-04-04T06:34:18.754Z</time></trkpt><trkpt lat="43.1703028" lon="11.7651655"><ele>319.0</ele><time>2026-04-04T06:34:19.754Z</time></trkpt><trkpt lat="43.1702183" lon="11.7650795"><ele>321.75</ele><time>2026-04-04T06:34:20.754Z</time></trkpt><trkpt lat="43.170133" lon="11.7649659"><ele>324.5</ele><time>2026-04-04T06:34:21.754Z</time></trkpt><trkpt lat="43.1700549" lon="11.7648521"><ele>327.25</ele><time>2026-04-04T06:34:22.754Z</time></trkpt><trkpt lat="43.1699757" lon="11.764732"><ele>330.0</ele><time>2026-04-04T06:34:23.754Z</time></trkpt><trkpt lat="43.169895" lon="11.7646214"><ele>330.25</ele><time>2026-04-04T06:34:24.754Z</time></trkpt><trkpt lat="43.1698126" lon="11.7645113"><ele>330.5</ele><time>2026-04-04T06:34:25.754Z</time></trkpt><trkpt lat="43.1697303" lon="11.764403"><ele>330.75</ele><time>2026-04-04T06:34:26.755Z</time></trkpt><trkpt lat="43.1696444" lon="11.7642997"><ele>331.0</ele><time>2026-04-04T06:34:27.754Z</time></trkpt><trkpt lat="43.1695597" lon="11.7641961"><ele>331.8</ele><time>2026-04-04T06:34:28.755Z</time></trkpt><trkpt lat="43.1694783" lon="11.7640989"><ele>332.6</ele><time>2026-04-04T06:34:29.755Z</time></trkpt><trkpt lat="43.1694027" lon="11.7640152"><ele>333.4</ele><time>2026-04-04T06:34:30.754Z</time></trkpt><trkpt lat="43.1693161" lon="11.7639511"><ele>334.2</ele><time>2026-04-04T06:34:31.754Z</time></trkpt><trkpt lat="43.1692147" lon="11.7639045"><ele>335.0</ele><time>2026-04-04T06:34:32.754Z</time></trkpt><trkpt lat="43.169116" lon="11.7638709"><ele>334.4</ele><time>2026-04-04T06:34:33.754Z</time></trkpt><trkpt lat="43.1690186" lon="11.7638641"><ele>333.8</ele><time>2026-04-04T06:34:34.754Z</time></trkpt><trkpt lat="43.1689174" lon="11.7638784"><ele>333.20000000000005</ele><time>2026-04-04T06:34:35.754Z</time></trkpt><trkpt lat="43.1688132" lon="11.7638715"><ele>332.6</ele><time>2026-04-04T06:34:36.754Z</time></trkpt><trkpt lat="43.1687166" lon="11.7638175"><ele>332.0</ele><time>2026-04-04T06:34:37.754Z</time></trkpt><trkpt lat="43.1686256" lon="11.7637314"><ele>332.0</ele><time>2026-04-04T06:34:38.754Z</time></trkpt><trkpt lat="43.1685385" lon="11.7636259"><ele>332.0</ele><time>2026-04-04T06:34:39.754Z</time></trkpt><trkpt lat="43.1684537" lon="11.7635147"><ele>332.0</ele><time>2026-04-04T06:34:40.754Z</time></trkpt><trkpt lat="43.1683663" lon="11.7634103"><ele>332.0</ele><time>2026-04-04T06:34:41.755Z</time></trkpt><trkpt lat="43.16829" lon="11.7633054"><ele>332.20000000000005</ele><time>2026-04-04T06:34:42.754Z</time></trkpt><trkpt lat="43.1682234" lon="11.7632026"><ele>332.4</ele><time>2026-04-04T06:34:43.754Z</time></trkpt><trkpt lat="43.1681656" lon="11.7630855"><ele>332.6</ele><time>2026-04-04T06:34:44.754Z</time></trkpt><trkpt lat="43.1681093" lon="11.7629665"><ele>332.79999999999995</ele><time>2026-04-04T06:34:45.754Z</time></trkpt><trkpt lat="43.1680445" lon="11.7628501"><ele>333.0</ele><time>2026-04-04T06:34:46.754Z</time></trkpt><trkpt lat="43.1679892" lon="11.7627371"><ele>333.2</ele><time>2026-04-04T06:34:47.754Z</time></trkpt><trkpt lat="43.1679326" lon="11.7626214"><ele>333.4</ele><time>2026-04-04T06:34:48.754Z</time></trkpt><trkpt lat="43.1678683" lon="11.7625021"><ele>333.59999999999997</ele><time>2026-04-04T06:34:49.754Z</time></trkpt><trkpt lat="43.1678047" lon="11.7623805"><ele>333.79999999999995</ele><time>2026-04-04T06:34:50.754Z</time></trkpt><trkpt lat="43.1677419" lon="11.7622613"><ele>334.0</ele><time>2026-04-04T06:34:51.754Z</time></trkpt><trkpt lat="43.1676779" lon="11.7621446"><ele>334.0</ele><time>2026-04-04T06:34:52.754Z</time></trkpt><trkpt lat="43.1676141" lon="11.7620255"><ele>334.0</ele><time>2026-04-04T06:34:53.754Z</time></trkpt><trkpt lat="43.1675501" lon="11.7619042"><ele>334.0</ele><time>2026-04-04T06:34:54.754Z</time></trkpt><trkpt lat="43.1674712" lon="11.7617883"><ele>334.0</ele><time>2026-04-04T06:34:55.754Z</time></trkpt><trkpt lat="43.1673951" lon="11.7616739"><ele>334.0</ele><time>2026-04-04T06:34:56.754Z</time></trkpt><trkpt lat="43.1673302" lon="11.761576"><ele>333.2857142857143</ele><time>2026-04-04T06:34:57.754Z</time></trkpt><trkpt lat="43.1672748" lon="11.7614872"><ele>332.57142857142856</ele><time>2026-04-04T06:34:58.754Z</time></trkpt><trkpt lat="43.1672275" lon="11.7614173"><ele>331.8571428571429</ele><time>2026-04-04T06:34:59.754Z</time></trkpt><trkpt lat="43.1671787" lon="11.7613501"><ele>331.1428571428571</ele><time>2026-04-04T06:35:00.754Z</time></trkpt><trkpt lat="43.1671295" lon="11.7612834"><ele>330.42857142857144</ele><time>2026-04-04T06:35:01.754Z</time></trkpt><trkpt lat="43.1670736" lon="11.7612129"><ele>329.7142857142857</ele><time>2026-04-04T06:35:02.754Z</time></trkpt><trkpt lat="43.1670152" lon="11.7611421"><ele>329.0</ele><time>2026-04-04T06:35:03.754Z</time></trkpt><trkpt lat="43.1669542" lon="11.7610825"><ele>329.0</ele><time>2026-04-04T06:35:04.754Z</time></trkpt><trkpt lat="43.1668884" lon="11.7610426"><ele>329.0</ele><time>2026-04-04T06:35:05.754Z</time></trkpt><trkpt lat="43.1668094" lon="11.7610085"><ele>329.0</ele><time>2026-04-04T06:35:06.754Z</time></trkpt><trkpt lat="43.1667198" lon="11.7609777"><ele>329.0</ele><time>2026-04-04T06:35:07.754Z</time></trkpt><trkpt lat="43.1666215" lon="11.7609431"><ele>329.0</ele><time>2026-04-04T06:35:08.754Z</time></trkpt><trkpt lat="43.1665186" lon="11.7609023"><ele>328.2</ele><time>2026-04-04T06:35:09.754Z</time></trkpt><trkpt lat="43.1664286" lon="11.7608547"><ele>327.4</ele><time>2026-04-04T06:35:10.754Z</time></trkpt><trkpt lat="43.1663524" lon="11.7607748"><ele>326.6</ele><time>2026-04-04T06:35:11.754Z</time></trkpt><trkpt lat="43.1662838" lon="11.7606763"><ele>325.8</ele><time>2026-04-04T06:35:12.754Z</time></trkpt><trkpt lat="43.1662124" lon="11.7605711"><ele>325.0</ele><time>2026-04-04T06:35:13.754Z</time></trkpt><trkpt lat="43.166145" lon="11.7604698"><ele>325.0</ele><time>2026-04-04T06:35:14.754Z</time></trkpt><trkpt lat="43.166086" lon="11.7603742"><ele>325.0</ele><time>2026-04-04T06:35:15.754Z</time></trkpt><trkpt lat="43.166027" lon="11.7602844"><ele>325.0</ele><time>2026-04-04T06:35:16.754Z</time></trkpt><trkpt lat="43.1659717" lon="11.7602014"><ele>325.0</ele><time>2026-04-04T06:35:17.755Z</time></trkpt><trkpt lat="43.1659289" lon="11.760132"><ele>325.0</ele><time>2026-04-04T06:35:18.754Z</time></trkpt><trkpt lat="43.1658821" lon="11.7600562"><ele>325.0</ele><time>2026-04-04T06:35:19.754Z</time></trkpt><trkpt lat="43.1658323" lon="11.7599789"><ele>325.8333333333333</ele><time>2026-04-04T06:35:20.754Z</time></trkpt><trkpt lat="43.1657864" lon="11.7599119"><ele>326.66666666666663</ele><time>2026-04-04T06:35:21.754Z</time></trkpt><trkpt lat="43.165708" lon="11.7598024"><ele>327.5</ele><time>2026-04-04T06:35:23.754Z</time></trkpt><trkpt lat="43.1656678" lon="11.7597042"><ele>328.3333333333333</ele><time>2026-04-04T06:35:25.754Z</time></trkpt><trkpt lat="43.1657192" lon="11.7596059"><ele>329.1666666666667</ele><time>2026-04-04T06:35:27.754Z</time></trkpt><trkpt lat="43.1657616" lon="11.7595287"><ele>330.0</ele><time>2026-04-04T06:35:28.754Z</time></trkpt><trkpt lat="43.165799" lon="11.7594386"><ele>329.4</ele><time>2026-04-04T06:35:29.754Z</time></trkpt><trkpt lat="43.1658381" lon="11.7593242"><ele>328.8</ele><time>2026-04-04T06:35:30.754Z</time></trkpt><trkpt lat="43.1658665" lon="11.7592014"><ele>328.20000000000005</ele><time>2026-04-04T06:35:31.754Z</time></trkpt><trkpt lat="43.1658859" lon="11.7590714"><ele>327.6</ele><time>2026-04-04T06:35:32.754Z</time></trkpt><trkpt lat="43.1658812" lon="11.7589482"><ele>327.0</ele><time>2026-04-04T06:35:33.754Z</time></trkpt><trkpt lat="43.1658524" lon="11.7588218"><ele>327.0</ele><time>2026-04-04T06:35:34.754Z</time></trkpt><trkpt lat="43.1658065" lon="11.7587041"><ele>327.0</ele><time>2026-04-04T06:35:35.755Z</time></trkpt><trkpt lat="43.1657419" lon="11.7585978"><ele>327.0</ele><time>2026-04-04T06:35:36.754Z</time></trkpt><trkpt lat="43.1656632" lon="11.7584817"><ele>327.0</ele><time>2026-04-04T06:35:37.754Z</time></trkpt><trkpt lat="43.1655832" lon="11.7583507"><ele>327.0</ele><time>2026-04-04T06:35:38.754Z</time></trkpt><trkpt lat="43.1655223" lon="11.7582159"><ele>326.75</ele><time>2026-04-04T06:35:39.754Z</time></trkpt><trkpt lat="43.165487" lon="11.7580624"><ele>326.5</ele><time>2026-04-04T06:35:40.755Z</time></trkpt><trkpt lat="43.1654913" lon="11.7579051"><ele>326.25</ele><time>2026-04-04T06:35:41.754Z</time></trkpt><trkpt lat="43.1655243" lon="11.7577423"><ele>326.0</ele><time>2026-04-04T06:35:42.754Z</time></trkpt><trkpt lat="43.1655598" lon="11.7575821"><ele>325.20000000000005</ele><time>2026-04-04T06:35:43.754Z</time></trkpt><trkpt lat="43.1655743" lon="11.7574385"><ele>324.40000000000003</ele><time>2026-04-04T06:35:44.754Z</time></trkpt><trkpt lat="43.1655801" lon="11.7573005"><ele>323.6</ele><time>2026-04-04T06:35:45.754Z</time></trkpt><trkpt lat="43.1655753" lon="11.7571662"><ele>322.8</ele><time>2026-04-04T06:35:46.754Z</time></trkpt><trkpt lat="43.1655602" lon="11.7570333"><ele>322.0</ele><time>2026-04-04T06:35:47.754Z</time></trkpt><trkpt lat="43.1655248" lon="11.7569184"><ele>320.8</ele><time>2026-04-04T06:35:48.755Z</time></trkpt><trkpt lat="43.1654691" lon="11.7568088"><ele>319.6</ele><time>2026-04-04T06:35:49.754Z</time></trkpt><trkpt lat="43.1654148" lon="11.7566898"><ele>318.40000000000003</ele><time>2026-04-04T06:35:50.754Z</time></trkpt><trkpt lat="43.1653588" lon="11.7565605"><ele>317.20000000000005</ele><time>2026-04-04T06:35:51.754Z</time></trkpt><trkpt lat="43.1653045" lon="11.7564275"><ele>316.0</ele><time>2026-04-04T06:35:52.755Z</time></trkpt><trkpt lat="43.1652458" lon="11.7562918"><ele>316.0</ele><time>2026-04-04T06:35:53.755Z</time></trkpt><trkpt lat="43.1651857" lon="11.7561494"><ele>316.0</ele><time>2026-04-04T06:35:54.756Z</time></trkpt><trkpt lat="43.1651237" lon="11.756008"><ele>316.0</ele><time>2026-04-04T06:35:55.755Z</time></trkpt><trkpt lat="43.1650693" lon="11.7558613"><ele>316.0</ele><time>2026-04-04T06:35:56.755Z</time></trkpt><trkpt lat="43.1650201" lon="11.7557054"><ele>315.0</ele><time>2026-04-04T06:35:57.755Z</time></trkpt><trkpt lat="43.1649848" lon="11.7555358"><ele>314.0</ele><time>2026-04-04T06:35:58.755Z</time></trkpt><trkpt lat="43.1649574" lon="11.755348"><ele>313.0</ele><time>2026-04-04T06:35:59.755Z</time></trkpt><trkpt lat="43.1649149" lon="11.7551358"><ele>312.0</ele><time>2026-04-04T06:36:00.755Z</time></trkpt><trkpt lat="43.1648551" lon="11.7549015"><ele>312.0</ele><time>2026-04-04T06:36:01.755Z</time></trkpt><trkpt lat="43.1647958" lon="11.7546787"><ele>312.0</ele><time>2026-04-04T06:36:02.755Z</time></trkpt><trkpt lat="43.1647212" lon="11.7544575"><ele>312.0</ele><time>2026-04-04T06:36:03.755Z</time></trkpt><trkpt lat="43.1646534" lon="11.7542498"><ele>310.0</ele><time>2026-04-04T06:36:04.756Z</time></trkpt><trkpt lat="43.1645872" lon="11.7540381"><ele>308.0</ele><time>2026-04-04T06:36:05.755Z</time></trkpt><trkpt lat="43.1645212" lon="11.753813"><ele>306.0</ele><time>2026-04-04T06:36:06.755Z</time></trkpt><trkpt lat="43.1644598" lon="11.753583"><ele>304.6666666666667</ele><time>2026-04-04T06:36:07.755Z</time></trkpt><trkpt lat="43.1643994" lon="11.7533528"><ele>303.33333333333337</ele><time>2026-04-04T06:36:08.755Z</time></trkpt><trkpt lat="43.1643449" lon="11.7531229"><ele>302.0</ele><time>2026-04-04T06:36:09.755Z</time></trkpt><trkpt lat="43.1642865" lon="11.7529042"><ele>300.33333333333337</ele><time>2026-04-04T06:36:10.756Z</time></trkpt><trkpt lat="43.1642369" lon="11.7526936"><ele>298.6666666666667</ele><time>2026-04-04T06:36:11.755Z</time></trkpt><trkpt lat="43.1641913" lon="11.7524834"><ele>297.0</ele><time>2026-04-04T06:36:12.755Z</time></trkpt><trkpt lat="43.1641454" lon="11.7522838"><ele>297.0</ele><time>2026-04-04T06:36:13.756Z</time></trkpt><trkpt lat="43.1641041" lon="11.7520954"><ele>297.0</ele><time>2026-04-04T06:36:14.755Z</time></trkpt><trkpt lat="43.1640949" lon="11.7519126"><ele>297.0</ele><time>2026-04-04T06:36:15.756Z</time></trkpt><trkpt lat="43.1641113" lon="11.7517246"><ele>297.0</ele><time>2026-04-04T06:36:16.755Z</time></trkpt><trkpt lat="43.1641445" lon="11.7515215"><ele>296.6666666666667</ele><time>2026-04-04T06:36:17.755Z</time></trkpt><trkpt lat="43.164183" lon="11.7513101"><ele>296.33333333333337</ele><time>2026-04-04T06:36:18.755Z</time></trkpt><trkpt lat="43.1642166" lon="11.7511027"><ele>296.0</ele><time>2026-04-04T06:36:19.755Z</time></trkpt><trkpt lat="43.1642529" lon="11.7509033"><ele>296.0</ele><time>2026-04-04T06:36:20.755Z</time></trkpt><trkpt lat="43.1642886" lon="11.7506849"><ele>296.0</ele><time>2026-04-04T06:36:21.755Z</time></trkpt><trkpt lat="43.1643394" lon="11.7504601"><ele>296.0</ele><time>2026-04-04T06:36:22.755Z</time></trkpt><trkpt lat="43.1644074" lon="11.7502376"><ele>295.6666666666667</ele><time>2026-04-04T06:36:23.755Z</time></trkpt><trkpt lat="43.1645105" lon="11.7500218"><ele>295.3333333333333</ele><time>2026-04-04T06:36:24.755Z</time></trkpt><trkpt lat="43.1645942" lon="11.7498308"><ele>295.0</ele><time>2026-04-04T06:36:25.755Z</time></trkpt><trkpt lat="43.1646457" lon="11.7496576"><ele>295.0</ele><time>2026-04-04T06:36:26.755Z</time></trkpt><trkpt lat="43.1646826" lon="11.7494681"><ele>295.0</ele><time>2026-04-04T06:36:27.755Z</time></trkpt><trkpt lat="43.1647332" lon="11.7492863"><ele>295.0</ele><time>2026-04-04T06:36:28.755Z</time></trkpt><trkpt lat="43.1648154" lon="11.7491328"><ele>295.0</ele><time>2026-04-04T06:36:29.755Z</time></trkpt><trkpt lat="43.1649109" lon="11.7489736"><ele>293.0</ele><time>2026-04-04T06:36:30.755Z</time></trkpt><trkpt lat="43.165" lon="11.7487985"><ele>291.0</ele><time>2026-04-04T06:36:31.755Z</time></trkpt><trkpt lat="43.165084" lon="11.7486065"><ele>289.0</ele><time>2026-04-04T06:36:32.755Z</time></trkpt><trkpt lat="43.1651643" lon="11.7484207"><ele>289.0</ele><time>2026-04-04T06:36:33.755Z</time></trkpt><trkpt lat="43.1652344" lon="11.7482561"><ele>289.0</ele><time>2026-04-04T06:36:34.755Z</time></trkpt><trkpt lat="43.1652957" lon="11.748115"><ele>289.0</ele><time>2026-04-04T06:36:35.755Z</time></trkpt><trkpt lat="43.1653632" lon="11.7479876"><ele>289.0</ele><time>2026-04-04T06:36:36.755Z</time></trkpt><trkpt lat="43.1654358" lon="11.7478735"><ele>289.0</ele><time>2026-04-04T06:36:37.755Z</time></trkpt><trkpt lat="43.1655206" lon="11.7477975"><ele>289.0</ele><time>2026-04-04T06:36:38.755Z</time></trkpt><trkpt lat="43.1656099" lon="11.7477551"><ele>289.0</ele><time>2026-04-04T06:36:39.755Z</time></trkpt><trkpt lat="43.1657022" lon="11.7477665"><ele>289.0</ele><time>2026-04-04T06:36:40.755Z</time></trkpt><trkpt lat="43.1657999" lon="11.747786"><ele>289.0</ele><time>2026-04-04T06:36:41.755Z</time></trkpt><trkpt lat="43.1659004" lon="11.7477954"><ele>289.16666666666663</ele><time>2026-04-04T06:36:42.755Z</time></trkpt><trkpt lat="43.1659881" lon="11.7477674"><ele>289.3333333333333</ele><time>2026-04-04T06:36:43.755Z</time></trkpt><trkpt lat="43.1660601" lon="11.7477001"><ele>289.5</ele><time>2026-04-04T06:36:44.755Z</time></trkpt><trkpt lat="43.1661291" lon="11.7476244"><ele>289.6666666666667</ele><time>2026-04-04T06:36:45.755Z</time></trkpt><trkpt lat="43.1661785" lon="11.7475436"><ele>289.83333333333337</ele><time>2026-04-04T06:36:46.755Z</time></trkpt><trkpt lat="43.1662177" lon="11.747444"><ele>290.0</ele><time>2026-04-04T06:36:47.755Z</time></trkpt><trkpt lat="43.1662546" lon="11.7473401"><ele>291.2</ele><time>2026-04-04T06:36:48.755Z</time></trkpt><trkpt lat="43.1662942" lon="11.7472384"><ele>292.4</ele><time>2026-04-04T06:36:49.755Z</time></trkpt><trkpt lat="43.1663312" lon="11.7471262"><ele>293.6</ele><time>2026-04-04T06:36:50.755Z</time></trkpt><trkpt lat="43.166371" lon="11.7470091"><ele>294.8</ele><time>2026-04-04T06:36:51.755Z</time></trkpt><trkpt lat="43.1664029" lon="11.7468868"><ele>296.0</ele><time>2026-04-04T06:36:52.755Z</time></trkpt><trkpt lat="43.1664354" lon="11.7467708"><ele>297.1666666666667</ele><time>2026-04-04T06:36:53.755Z</time></trkpt><trkpt lat="43.1664706" lon="11.7466621"><ele>298.33333333333337</ele><time>2026-04-04T06:36:54.755Z</time></trkpt><trkpt lat="43.1665114" lon="11.7465647"><ele>299.5</ele><time>2026-04-04T06:36:55.755Z</time></trkpt><trkpt lat="43.1665507" lon="11.7464699"><ele>300.6666666666667</ele><time>2026-04-04T06:36:56.756Z</time></trkpt><trkpt lat="43.1665816" lon="11.7463867"><ele>301.8333333333333</ele><time>2026-04-04T06:36:57.755Z</time></trkpt><trkpt lat="43.1666171" lon="11.7463033"><ele>303.0</ele><time>2026-04-04T06:36:58.755Z</time></trkpt><trkpt lat="43.1666554" lon="11.7462149"><ele>304.5</ele><time>2026-04-04T06:36:59.755Z</time></trkpt><trkpt lat="43.1666929" lon="11.7461126"><ele>306.0</ele><time>2026-04-04T06:37:00.755Z</time></trkpt><trkpt lat="43.1667292" lon="11.7460101"><ele>307.5</ele><time>2026-04-04T06:37:01.755Z</time></trkpt><trkpt lat="43.1667646" lon="11.74591"><ele>309.0</ele><time>2026-04-04T06:37:02.755Z</time></trkpt><trkpt lat="43.166806" lon="11.7458073"><ele>310.5</ele><time>2026-04-04T06:37:03.756Z</time></trkpt><trkpt lat="43.1668468" lon="11.7457058"><ele>312.0</ele><time>2026-04-04T06:37:04.755Z</time></trkpt><trkpt lat="43.1668878" lon="11.7455972"><ele>312.6</ele><time>2026-04-04T06:37:05.756Z</time></trkpt><trkpt lat="43.1669269" lon="11.7454859"><ele>313.2</ele><time>2026-04-04T06:37:06.755Z</time></trkpt><trkpt lat="43.1669669" lon="11.7453616"><ele>313.8</ele><time>2026-04-04T06:37:07.755Z</time></trkpt><trkpt lat="43.1670136" lon="11.7452246"><ele>314.4</ele><time>2026-04-04T06:37:08.755Z</time></trkpt><trkpt lat="43.1670667" lon="11.7450856"><ele>315.0</ele><time>2026-04-04T06:37:09.755Z</time></trkpt><trkpt lat="43.1671172" lon="11.744939"><ele>317.5</ele><time>2026-04-04T06:37:10.755Z</time></trkpt><trkpt lat="43.1671662" lon="11.7447728"><ele>320.0</ele><time>2026-04-04T06:37:11.755Z</time></trkpt><trkpt lat="43.1672232" lon="11.7445976"><ele>322.5</ele><time>2026-04-04T06:37:12.756Z</time></trkpt><trkpt lat="43.1672827" lon="11.7444107"><ele>325.0</ele><time>2026-04-04T06:37:13.755Z</time></trkpt><trkpt lat="43.167339" lon="11.7442382"><ele>326.4</ele><time>2026-04-04T06:37:14.755Z</time></trkpt><trkpt lat="43.1673895" lon="11.7440864"><ele>327.8</ele><time>2026-04-04T06:37:15.755Z</time></trkpt><trkpt lat="43.1674323" lon="11.7439594"><ele>329.20000000000005</ele><time>2026-04-04T06:37:16.755Z</time></trkpt><trkpt lat="43.1674594" lon="11.7438608"><ele>330.6</ele><time>2026-04-04T06:37:17.755Z</time></trkpt><trkpt lat="43.1674912" lon="11.7437822"><ele>332.0</ele><time>2026-04-04T06:37:18.755Z</time></trkpt><trkpt lat="43.1675853" lon="11.7436917"><ele>332.0</ele><time>2026-04-04T06:37:20.756Z</time></trkpt><trkpt lat="43.1676533" lon="11.7437071"><ele>332.0</ele><time>2026-04-04T06:37:21.755Z</time></trkpt><trkpt lat="43.1677267" lon="11.7437566"><ele>332.0</ele><time>2026-04-04T06:37:22.755Z</time></trkpt><trkpt lat="43.1678134" lon="11.7438253"><ele>332.0</ele><time>2026-04-04T06:37:23.755Z</time></trkpt><trkpt lat="43.1679147" lon="11.743893"><ele>332.0</ele><time>2026-04-04T06:37:24.755Z</time></trkpt><trkpt lat="43.1680219" lon="11.7439487"><ele>332.0</ele><time>2026-04-04T06:37:25.755Z</time></trkpt><trkpt lat="43.1681406" lon="11.7440132"><ele>332.0</ele><time>2026-04-04T06:37:26.755Z</time></trkpt><trkpt lat="43.1682667" lon="11.7440917"><ele>332.0</ele><time>2026-04-04T06:37:27.755Z</time></trkpt><trkpt lat="43.1683894" lon="11.7441773"><ele>332.0</ele><time>2026-04-04T06:37:28.755Z</time></trkpt><trkpt lat="43.168514" lon="11.7442574"><ele>330.75</ele><time>2026-04-04T06:37:29.755Z</time></trkpt><trkpt lat="43.1686337" lon="11.7443352"><ele>329.5</ele><time>2026-04-04T06:37:30.755Z</time></trkpt><trkpt lat="43.1687489" lon="11.7444151"><ele>328.25</ele><time>2026-04-04T06:37:31.755Z</time></trkpt><trkpt lat="43.1688677" lon="11.7444915"><ele>327.0</ele><time>2026-04-04T06:37:32.755Z</time></trkpt><trkpt lat="43.168984" lon="11.7445634"><ele>325.0</ele><time>2026-04-04T06:37:33.756Z</time></trkpt><trkpt lat="43.1691015" lon="11.7446308"><ele>323.0</ele><time>2026-04-04T06:37:34.755Z</time></trkpt><trkpt lat="43.1692156" lon="11.7447003"><ele>321.0</ele><time>2026-04-04T06:37:35.755Z</time></trkpt><trkpt lat="43.1693167" lon="11.744762"><ele>319.0</ele><time>2026-04-04T06:37:36.755Z</time></trkpt><trkpt lat="43.16941" lon="11.7448203"><ele>319.0</ele><time>2026-04-04T06:37:37.755Z</time></trkpt><trkpt lat="43.1694986" lon="11.7448737"><ele>319.0</ele><time>2026-04-04T06:37:38.755Z</time></trkpt><trkpt lat="43.1695868" lon="11.7449282"><ele>319.0</ele><time>2026-04-04T06:37:39.755Z</time></trkpt><trkpt lat="43.1696796" lon="11.7449829"><ele>319.0</ele><time>2026-04-04T06:37:40.756Z</time></trkpt><trkpt lat="43.169772" lon="11.745041"><ele>319.0</ele><time>2026-04-04T06:37:41.755Z</time></trkpt><trkpt lat="43.1698733" lon="11.7451031"><ele>318.8</ele><time>2026-04-04T06:37:42.755Z</time></trkpt><trkpt lat="43.169977" lon="11.7451676"><ele>318.59999999999997</ele><time>2026-04-04T06:37:43.755Z</time></trkpt><trkpt lat="43.1700833" lon="11.7452294"><ele>318.4</ele><time>2026-04-04T06:37:44.755Z</time></trkpt><trkpt lat="43.1701854" lon="11.7452945"><ele>318.2</ele><time>2026-04-04T06:37:45.755Z</time></trkpt><trkpt lat="43.1702796" lon="11.7453519"><ele>318.0</ele><time>2026-04-04T06:37:46.755Z</time></trkpt><trkpt lat="43.1703737" lon="11.7454081"><ele>318.0</ele><time>2026-04-04T06:37:47.755Z</time></trkpt><trkpt lat="43.1704691" lon="11.7454657"><ele>318.0</ele><time>2026-04-04T06:37:48.755Z</time></trkpt><trkpt lat="43.1705672" lon="11.7455295"><ele>318.0</ele><time>2026-04-04T06:37:49.755Z</time></trkpt><trkpt lat="43.1706725" lon="11.7455922"><ele>318.0</ele><time>2026-04-04T06:37:50.756Z</time></trkpt><trkpt lat="43.1707811" lon="11.7456535"><ele>318.0</ele><time>2026-04-04T06:37:51.755Z</time></trkpt><trkpt lat="43.1708806" lon="11.7457127"><ele>318.0</ele><time>2026-04-04T06:37:52.755Z</time></trkpt><trkpt lat="43.1709688" lon="11.7457685"><ele>318.0</ele><time>2026-04-04T06:37:53.755Z</time></trkpt><trkpt lat="43.1710535" lon="11.745814"><ele>318.0</ele><time>2026-04-04T06:37:54.756Z</time></trkpt><trkpt lat="43.1711352" lon="11.7458582"><ele>318.0</ele><time>2026-04-04T06:37:55.755Z</time></trkpt><trkpt lat="43.1712118" lon="11.7458987"><ele>318.0</ele><time>2026-04-04T06:37:56.755Z</time></trkpt><trkpt lat="43.1712956" lon="11.7459487"><ele>318.0</ele><time>2026-04-04T06:37:57.755Z</time></trkpt><trkpt lat="43.1713816" lon="11.7460027"><ele>317.0</ele><time>2026-04-04T06:37:58.755Z</time></trkpt><trkpt lat="43.1714692" lon="11.7460584"><ele>316.0</ele><time>2026-04-04T06:37:59.755Z</time></trkpt><trkpt lat="43.1715509" lon="11.7461083"><ele>315.0</ele><time>2026-04-04T06:38:00.755Z</time></trkpt><trkpt lat="43.1716268" lon="11.7461549"><ele>314.0</ele><time>2026-04-04T06:38:01.755Z</time></trkpt><trkpt lat="43.1717015" lon="11.746206"><ele>313.0</ele><time>2026-04-04T06:38:02.755Z</time></trkpt><trkpt lat="43.171783" lon="11.7462571"><ele>312.0</ele><time>2026-04-04T06:38:03.755Z</time></trkpt><trkpt lat="43.1718634" lon="11.7463108"><ele>312.0</ele><time>2026-04-04T06:38:04.755Z</time></trkpt><trkpt lat="43.1719449" lon="11.7463715"><ele>312.0</ele><time>2026-04-04T06:38:05.755Z</time></trkpt><trkpt lat="43.1720292" lon="11.7464365"><ele>312.0</ele><time>2026-04-04T06:38:06.755Z</time></trkpt><trkpt lat="43.1721175" lon="11.7465118"><ele>312.0</ele><time>2026-04-04T06:38:07.755Z</time></trkpt><trkpt lat="43.1722119" lon="11.746595"><ele>312.0</ele><time>2026-04-04T06:38:08.755Z</time></trkpt><trkpt lat="43.1723144" lon="11.746678"><ele>312.6</ele><time>2026-04-04T06:38:09.755Z</time></trkpt><trkpt lat="43.1724249" lon="11.7467567"><ele>313.2</ele><time>2026-04-04T06:38:10.755Z</time></trkpt><trkpt lat="43.1725225" lon="11.7468292"><ele>313.8</ele><time>2026-04-04T06:38:11.755Z</time></trkpt><trkpt lat="43.172614" lon="11.7468875"><ele>314.4</ele><time>2026-04-04T06:38:12.755Z</time></trkpt><trkpt lat="43.172709" lon="11.7469443"><ele>315.0</ele><time>2026-04-04T06:38:13.755Z</time></trkpt><trkpt lat="43.1727981" lon="11.7470076"><ele>315.0</ele><time>2026-04-04T06:38:14.755Z</time></trkpt><trkpt lat="43.1728835" lon="11.7470765"><ele>315.0</ele><time>2026-04-04T06:38:15.755Z</time></trkpt><trkpt lat="43.1729689" lon="11.7471657"><ele>315.0</ele><time>2026-04-04T06:38:16.755Z</time></trkpt><trkpt lat="43.1730535" lon="11.7472665"><ele>315.0</ele><time>2026-04-04T06:38:17.755Z</time></trkpt><trkpt lat="43.1731383" lon="11.7473722"><ele>315.0</ele><time>2026-04-04T06:38:18.755Z</time></trkpt><trkpt lat="43.1732212" lon="11.7474849"><ele>314.25</ele><time>2026-04-04T06:38:19.755Z</time></trkpt><trkpt lat="43.1733033" lon="11.7475895"><ele>313.5</ele><time>2026-04-04T06:38:20.756Z</time></trkpt><trkpt lat="43.173389" lon="11.7476932"><ele>312.75</ele><time>2026-04-04T06:38:21.755Z</time></trkpt><trkpt lat="43.1734722" lon="11.7478032"><ele>312.0</ele><time>2026-04-04T06:38:22.755Z</time></trkpt><trkpt lat="43.1735572" lon="11.7479119"><ele>310.5</ele><time>2026-04-04T06:38:23.755Z</time></trkpt><trkpt lat="43.1736426" lon="11.7480257"><ele>309.0</ele><time>2026-04-04T06:38:24.755Z</time></trkpt><trkpt lat="43.1737345" lon="11.7481441"><ele>307.5</ele><time>2026-04-04T06:38:25.755Z</time></trkpt><trkpt lat="43.1738304" lon="11.7482639"><ele>306.0</ele><time>2026-04-04T06:38:26.755Z</time></trkpt><trkpt lat="43.1739278" lon="11.748381"><ele>306.0</ele><time>2026-04-04T06:38:27.755Z</time></trkpt><trkpt lat="43.1740209" lon="11.7484953"><ele>306.0</ele><time>2026-04-04T06:38:28.755Z</time></trkpt><trkpt lat="43.1741052" lon="11.7486035"><ele>306.0</ele><time>2026-04-04T06:38:29.756Z</time></trkpt><trkpt lat="43.1741865" lon="11.7487122"><ele>306.0</ele><time>2026-04-04T06:38:30.755Z</time></trkpt><trkpt lat="43.1742715" lon="11.748814"><ele>305.6</ele><time>2026-04-04T06:38:31.755Z</time></trkpt><trkpt lat="43.1743549" lon="11.7489202"><ele>305.20000000000005</ele><time>2026-04-04T06:38:32.755Z</time></trkpt><trkpt lat="43.1744414" lon="11.7490226"><ele>304.79999999999995</ele><time>2026-04-04T06:38:33.755Z</time></trkpt><trkpt lat="43.1745225" lon="11.7491235"><ele>304.4</ele><time>2026-04-04T06:38:34.755Z</time></trkpt><trkpt lat="43.1746056" lon="11.7492241"><ele>304.0</ele><time>2026-04-04T06:38:35.755Z</time></trkpt><trkpt lat="43.1746955" lon="11.749313"><ele>303.2</ele><time>2026-04-04T06:38:36.755Z</time></trkpt><trkpt lat="43.1747864" lon="11.7493924"><ele>302.4</ele><time>2026-04-04T06:38:37.755Z</time></trkpt><trkpt lat="43.1748838" lon="11.7494789"><ele>301.6</ele><time>2026-04-04T06:38:38.755Z</time></trkpt><trkpt lat="43.174977" lon="11.7495587"><ele>300.8</ele><time>2026-04-04T06:38:39.756Z</time></trkpt><trkpt lat="43.1750719" lon="11.7496402"><ele>300.0</ele><time>2026-04-04T06:38:40.756Z</time></trkpt><trkpt lat="43.175164" lon="11.749717"><ele>300.0</ele><time>2026-04-04T06:38:41.755Z</time></trkpt><trkpt lat="43.1752578" lon="11.749797"><ele>300.0</ele><time>2026-04-04T06:38:42.755Z</time></trkpt><trkpt lat="43.1753482" lon="11.7498767"><ele>300.0</ele><time>2026-04-04T06:38:43.755Z</time></trkpt><trkpt lat="43.1754369" lon="11.7499503"><ele>300.0</ele><time>2026-04-04T06:38:44.755Z</time></trkpt><trkpt lat="43.1755164" lon="11.7500235"><ele>300.0</ele><time>2026-04-04T06:38:45.755Z</time></trkpt><trkpt lat="43.1755973" lon="11.7500993"><ele>300.0</ele><time>2026-04-04T06:38:46.755Z</time></trkpt><trkpt lat="43.1756814" lon="11.7501755"><ele>300.0</ele><time>2026-04-04T06:38:47.755Z</time></trkpt><trkpt lat="43.1757641" lon="11.7502484"><ele>300.0</ele><time>2026-04-04T06:38:48.755Z</time></trkpt><trkpt lat="43.1758486" lon="11.7503212"><ele>300.0</ele><time>2026-04-04T06:38:49.755Z</time></trkpt><trkpt lat="43.1759338" lon="11.7504018"><ele>300.0</ele><time>2026-04-04T06:38:50.755Z</time></trkpt><trkpt lat="43.1760232" lon="11.7504758"><ele>298.8</ele><time>2026-04-04T06:38:51.755Z</time></trkpt><trkpt lat="43.1761121" lon="11.7505529"><ele>297.6</ele><time>2026-04-04T06:38:52.755Z</time></trkpt><trkpt lat="43.1761996" lon="11.7506405"><ele>296.4</ele><time>2026-04-04T06:38:53.755Z</time></trkpt><trkpt lat="43.1762935" lon="11.7507255"><ele>295.2</ele><time>2026-04-04T06:38:54.755Z</time></trkpt><trkpt lat="43.1763846" lon="11.7508087"><ele>294.0</ele><time>2026-04-04T06:38:55.756Z</time></trkpt><trkpt lat="43.1764696" lon="11.7508843"><ele>294.2</ele><time>2026-04-04T06:38:56.755Z</time></trkpt><trkpt lat="43.1765515" lon="11.7509598"><ele>294.4</ele><time>2026-04-04T06:38:57.755Z</time></trkpt><trkpt lat="43.1766311" lon="11.7510318"><ele>294.6</ele><time>2026-04-04T06:38:58.755Z</time></trkpt><trkpt lat="43.1767073" lon="11.7510943"><ele>294.8</ele><time>2026-04-04T06:38:59.755Z</time></trkpt><trkpt lat="43.176776" lon="11.7511521"><ele>295.0</ele><time>2026-04-04T06:39:00.755Z</time></trkpt><trkpt lat="43.1768634" lon="11.7512245"><ele>295.0</ele><time>2026-04-04T06:39:02.755Z</time></trkpt><trkpt lat="43.1769535" lon="11.7511407"><ele>295.0</ele><time>2026-04-04T06:39:05.755Z</time></trkpt><trkpt lat="43.1769836" lon="11.7510351"><ele>295.0</ele><time>2026-04-04T06:39:06.755Z</time></trkpt><trkpt lat="43.1770295" lon="11.7509159"><ele>295.0</ele><time>2026-04-04T06:39:07.755Z</time></trkpt><trkpt lat="43.1771023" lon="11.7507605"><ele>295.0</ele><time>2026-04-04T06:39:08.755Z</time></trkpt><trkpt lat="43.1771793" lon="11.7505977"><ele>295.0</ele><time>2026-04-04T06:39:09.755Z</time></trkpt><trkpt lat="43.1772524" lon="11.7504518"><ele>295.0</ele><time>2026-04-04T06:39:10.755Z</time></trkpt><trkpt lat="43.1773174" lon="11.7503121"><ele>295.0</ele><time>2026-04-04T06:39:11.755Z</time></trkpt><trkpt lat="43.17738" lon="11.7501832"><ele>295.0</ele><time>2026-04-04T06:39:12.755Z</time></trkpt><trkpt lat="43.1774451" lon="11.7500499"><ele>294.75</ele><time>2026-04-04T06:39:13.755Z</time></trkpt><trkpt lat="43.1775096" lon="11.7499288"><ele>294.5</ele><time>2026-04-04T06:39:14.755Z</time></trkpt><trkpt lat="43.1775754" lon="11.749797"><ele>294.25</ele><time>2026-04-04T06:39:15.755Z</time></trkpt><trkpt lat="43.1776425" lon="11.7496483"><ele>294.0</ele><time>2026-04-04T06:39:16.755Z</time></trkpt><trkpt lat="43.1777171" lon="11.7494949"><ele>294.5</ele><time>2026-04-04T06:39:17.755Z</time></trkpt><trkpt lat="43.1777851" lon="11.7493457"><ele>295.0</ele><time>2026-04-04T06:39:18.755Z</time></trkpt><trkpt lat="43.1778573" lon="11.7491946"><ele>295.5</ele><time>2026-04-04T06:39:19.755Z</time></trkpt><trkpt lat="43.1779244" lon="11.7490574"><ele>296.0</ele><time>2026-04-04T06:39:20.755Z</time></trkpt><trkpt lat="43.1779815" lon="11.7489263"><ele>296.0</ele><time>2026-04-04T06:39:21.755Z</time></trkpt><trkpt lat="43.1780278" lon="11.7488166"><ele>296.0</ele><time>2026-04-04T06:39:22.755Z</time></trkpt><trkpt lat="43.1780572" lon="11.7487214"><ele>296.0</ele><time>2026-04-04T06:39:23.755Z</time></trkpt><trkpt lat="43.1780266" lon="11.7485616"><ele>296.0</ele><time>2026-04-04T06:39:25.755Z</time></trkpt><trkpt lat="43.1779466" lon="11.7484753"><ele>296.0</ele><time>2026-04-04T06:39:26.755Z</time></trkpt><trkpt lat="43.1778412" lon="11.7483689"><ele>294.2</ele><time>2026-04-04T06:39:27.755Z</time></trkpt><trkpt lat="43.1777393" lon="11.7482585"><ele>292.40000000000003</ele><time>2026-04-04T06:39:28.755Z</time></trkpt><trkpt lat="43.1776538" lon="11.7481533"><ele>290.6</ele><time>2026-04-04T06:39:29.755Z</time></trkpt><trkpt lat="43.1775823" lon="11.748062"><ele>288.8</ele><time>2026-04-04T06:39:30.755Z</time></trkpt><trkpt lat="43.1775273" lon="11.747972"><ele>287.0</ele><time>2026-04-04T06:39:31.755Z</time></trkpt><trkpt lat="43.1775053" lon="11.747864"><ele>287.0</ele><time>2026-04-04T06:39:32.755Z</time></trkpt><trkpt lat="43.1775168" lon="11.7477239"><ele>287.0</ele><time>2026-04-04T06:39:33.756Z</time></trkpt><trkpt lat="43.1775465" lon="11.7475544"><ele>287.0</ele><time>2026-04-04T06:39:34.755Z</time></trkpt><trkpt lat="43.1775959" lon="11.7473793"><ele>287.0</ele><time>2026-04-04T06:39:35.756Z</time></trkpt><trkpt lat="43.1776348" lon="11.7472537"><ele>285.0</ele><time>2026-04-04T06:39:36.755Z</time></trkpt><trkpt lat="43.1776782" lon="11.7471593"><ele>283.0</ele><time>2026-04-04T06:39:37.755Z</time></trkpt><trkpt lat="43.1777088" lon="11.7470736"><ele>281.0</ele><time>2026-04-04T06:39:38.756Z</time></trkpt><trkpt lat="43.1777216" lon="11.74693"><ele>279.0</ele><time>2026-04-04T06:39:40.755Z</time></trkpt><trkpt lat="43.1776754" lon="11.7468288"><ele>277.0</ele><time>2026-04-04T06:39:41.755Z</time></trkpt><trkpt lat="43.1776122" lon="11.7467079"><ele>277.0</ele><time>2026-04-04T06:39:42.755Z</time></trkpt><trkpt lat="43.1775508" lon="11.7465802"><ele>277.0</ele><time>2026-04-04T06:39:43.755Z</time></trkpt><trkpt lat="43.1775123" lon="11.746461"><ele>277.0</ele><time>2026-04-04T06:39:44.755Z</time></trkpt><trkpt lat="43.1775241" lon="11.7463474"><ele>277.0</ele><time>2026-04-04T06:39:45.755Z</time></trkpt><trkpt lat="43.1775642" lon="11.7462564"><ele>277.0</ele><time>2026-04-04T06:39:46.756Z</time></trkpt><trkpt lat="43.1776217" lon="11.7461735"><ele>277.0</ele><time>2026-04-04T06:39:47.755Z</time></trkpt><trkpt lat="43.1776978" lon="11.7460761"><ele>277.0</ele><time>2026-04-04T06:39:48.755Z</time></trkpt><trkpt lat="43.177781" lon="11.7459619"><ele>277.0</ele><time>2026-04-04T06:39:49.755Z</time></trkpt><trkpt lat="43.1778705" lon="11.7458459"><ele>277.0</ele><time>2026-04-04T06:39:50.755Z</time></trkpt><trkpt lat="43.1779518" lon="11.7457474"><ele>277.6</ele><time>2026-04-04T06:39:51.755Z</time></trkpt><trkpt lat="43.1780311" lon="11.7456462"><ele>278.2</ele><time>2026-04-04T06:39:52.755Z</time></trkpt><trkpt lat="43.1781039" lon="11.745551"><ele>278.8</ele><time>2026-04-04T06:39:53.755Z</time></trkpt><trkpt lat="43.1781708" lon="11.7454634"><ele>279.4</ele><time>2026-04-04T06:39:54.756Z</time></trkpt><trkpt lat="43.178242" lon="11.745365"><ele>280.0</ele><time>2026-04-04T06:39:55.756Z</time></trkpt><trkpt lat="43.1783159" lon="11.7452592"><ele>282.4</ele><time>2026-04-04T06:39:56.755Z</time></trkpt><trkpt lat="43.1783993" lon="11.7451544"><ele>284.8</ele><time>2026-04-04T06:39:57.756Z</time></trkpt><trkpt lat="43.1784808" lon="11.7450505"><ele>287.2</ele><time>2026-04-04T06:39:58.755Z</time></trkpt><trkpt lat="43.1785599" lon="11.7449495"><ele>289.6</ele><time>2026-04-04T06:39:59.755Z</time></trkpt><trkpt lat="43.1786387" lon="11.7448474"><ele>292.0</ele><time>2026-04-04T06:40:00.755Z</time></trkpt><trkpt lat="43.1787213" lon="11.7447457"><ele>292.0</ele><time>2026-04-04T06:40:01.755Z</time></trkpt><trkpt lat="43.1787978" lon="11.7446375"><ele>292.0</ele><time>2026-04-04T06:40:02.755Z</time></trkpt><trkpt lat="43.1788684" lon="11.7445371"><ele>292.0</ele><time>2026-04-04T06:40:03.755Z</time></trkpt><trkpt lat="43.1789378" lon="11.7444355"><ele>292.0</ele><time>2026-04-04T06:40:04.755Z</time></trkpt><trkpt lat="43.179007" lon="11.7443444"><ele>292.0</ele><time>2026-04-04T06:40:05.755Z</time></trkpt><trkpt lat="43.1790764" lon="11.7442513"><ele>293.66666666666663</ele><time>2026-04-04T06:40:06.755Z</time></trkpt><trkpt lat="43.179141" lon="11.7441718"><ele>295.3333333333333</ele><time>2026-04-04T06:40:07.756Z</time></trkpt><trkpt lat="43.1791871" lon="11.7441025"><ele>297.0</ele><time>2026-04-04T06:40:08.755Z</time></trkpt><trkpt lat="43.179223" lon="11.7439935"><ele>298.6666666666667</ele><time>2026-04-04T06:40:10.755Z</time></trkpt><trkpt lat="43.1791901" lon="11.7439026"><ele>300.33333333333337</ele><time>2026-04-04T06:40:12.755Z</time></trkpt><trkpt lat="43.1791289" lon="11.7438587"><ele>302.0</ele><time>2026-04-04T06:40:15.755Z</time></trkpt><trkpt lat="43.1790439" lon="11.7437705"><ele>302.1666666666667</ele><time>2026-04-04T06:40:26.756Z</time></trkpt><trkpt lat="43.1789803" lon="11.7437202"><ele>302.33333333333337</ele><time>2026-04-04T06:40:27.757Z</time></trkpt><trkpt lat="43.1789086" lon="11.7436666"><ele>302.5</ele><time>2026-04-04T06:40:28.756Z</time></trkpt><trkpt lat="43.1788327" lon="11.7436075"><ele>302.6666666666667</ele><time>2026-04-04T06:40:29.756Z</time></trkpt><trkpt lat="43.1787536" lon="11.743551"><ele>302.8333333333333</ele><time>2026-04-04T06:40:30.756Z</time></trkpt><trkpt lat="43.178681" lon="11.7434865"><ele>303.0</ele><time>2026-04-04T06:40:31.756Z</time></trkpt><trkpt lat="43.1786065" lon="11.7434013"><ele>304.4</ele><time>2026-04-04T06:40:32.756Z</time></trkpt><trkpt lat="43.1785235" lon="11.7433104"><ele>305.8</ele><time>2026-04-04T06:40:33.756Z</time></trkpt><trkpt lat="43.1784389" lon="11.7432184"><ele>307.2</ele><time>2026-04-04T06:40:34.756Z</time></trkpt><trkpt lat="43.178365" lon="11.7431353"><ele>308.6</ele><time>2026-04-04T06:40:35.756Z</time></trkpt><trkpt lat="43.1783067" lon="11.743053"><ele>310.0</ele><time>2026-04-04T06:40:36.756Z</time></trkpt><trkpt lat="43.1782649" lon="11.7429592"><ele>310.0</ele><time>2026-04-04T06:40:37.757Z</time></trkpt><trkpt lat="43.1782407" lon="11.7428607"><ele>310.0</ele><time>2026-04-04T06:40:38.756Z</time></trkpt><trkpt lat="43.178224" lon="11.7427388"><ele>310.0</ele><time>2026-04-04T06:40:39.756Z</time></trkpt><trkpt lat="43.1781801" lon="11.742634"><ele>310.0</ele><time>2026-04-04T06:40:40.756Z</time></trkpt><trkpt lat="43.1780913" lon="11.7424962"><ele>310.0</ele><time>2026-04-04T06:40:41.756Z</time></trkpt><trkpt lat="43.1779773" lon="11.742348"><ele>311.66666666666663</ele><time>2026-04-04T06:40:42.756Z</time></trkpt><trkpt lat="43.1778763" lon="11.7421816"><ele>313.3333333333333</ele><time>2026-04-04T06:40:43.756Z</time></trkpt><trkpt lat="43.177784" lon="11.7420027"><ele>315.0</ele><time>2026-04-04T06:40:44.756Z</time></trkpt><trkpt lat="43.1777042" lon="11.7418218"><ele>315.0</ele><time>2026-04-04T06:40:45.756Z</time></trkpt><trkpt lat="43.177636" lon="11.7416541"><ele>315.0</ele><time>2026-04-04T06:40:46.757Z</time></trkpt><trkpt lat="43.1775532" lon="11.7415027"><ele>315.0</ele><time>2026-04-04T06:40:47.756Z</time></trkpt><trkpt lat="43.1774484" lon="11.741352"><ele>315.0</ele><time>2026-04-04T06:40:48.756Z</time></trkpt><trkpt lat="43.1773236" lon="11.7412024"><ele>316.0</ele><time>2026-04-04T06:40:49.757Z</time></trkpt><trkpt lat="43.1772035" lon="11.7410494"><ele>317.0</ele><time>2026-04-04T06:40:50.756Z</time></trkpt><trkpt lat="43.1770926" lon="11.7409043"><ele>318.0</ele><time>2026-04-04T06:40:51.756Z</time></trkpt><trkpt lat="43.1769918" lon="11.7407622"><ele>318.8</ele><time>2026-04-04T06:40:52.756Z</time></trkpt><trkpt lat="43.1769236" lon="11.7406419"><ele>319.6</ele><time>2026-04-04T06:40:53.756Z</time></trkpt><trkpt lat="43.1768882" lon="11.7405189"><ele>320.40000000000003</ele><time>2026-04-04T06:40:54.756Z</time></trkpt><trkpt lat="43.1768708" lon="11.7403587"><ele>321.20000000000005</ele><time>2026-04-04T06:40:55.756Z</time></trkpt><trkpt lat="43.1768699" lon="11.7401905"><ele>322.0</ele><time>2026-04-04T06:40:56.756Z</time></trkpt><trkpt lat="43.1768659" lon="11.7400364"><ele>322.0</ele><time>2026-04-04T06:40:57.756Z</time></trkpt><trkpt lat="43.1768332" lon="11.7399232"><ele>322.0</ele><time>2026-04-04T06:40:58.757Z</time></trkpt><trkpt lat="43.1767677" lon="11.739849"><ele>322.0</ele><time>2026-04-04T06:40:59.756Z</time></trkpt><trkpt lat="43.1766782" lon="11.7397929"><ele>322.0</ele><time>2026-04-04T06:41:00.756Z</time></trkpt><trkpt lat="43.1765706" lon="11.7397553"><ele>322.0</ele><time>2026-04-04T06:41:01.756Z</time></trkpt><trkpt lat="43.1764494" lon="11.7397423"><ele>323.3333333333333</ele><time>2026-04-04T06:41:02.756Z</time></trkpt><trkpt lat="43.1763442" lon="11.7397346"><ele>324.66666666666663</ele><time>2026-04-04T06:41:03.756Z</time></trkpt><trkpt lat="43.1762815" lon="11.7397235"><ele>326.0</ele><time>2026-04-04T06:41:04.756Z</time></trkpt><trkpt lat="43.1762462" lon="11.7396425"><ele>327.3333333333333</ele><time>2026-04-04T06:41:07.756Z</time></trkpt><trkpt lat="43.1763001" lon="11.7395935"><ele>328.6666666666667</ele><time>2026-04-04T06:41:08.756Z</time></trkpt><trkpt lat="43.1763951" lon="11.7395212"><ele>330.0</ele><time>2026-04-04T06:41:09.756Z</time></trkpt><trkpt lat="43.1765148" lon="11.7394463"><ele>327.0</ele><time>2026-04-04T06:41:10.756Z</time></trkpt><trkpt lat="43.1766348" lon="11.7393647"><ele>324.0</ele><time>2026-04-04T06:41:11.756Z</time></trkpt><trkpt lat="43.1767706" lon="11.7392862"><ele>321.0</ele><time>2026-04-04T06:41:12.757Z</time></trkpt><trkpt lat="43.1769044" lon="11.7392281"><ele>318.0</ele><time>2026-04-04T06:41:13.756Z</time></trkpt><trkpt lat="43.1770361" lon="11.7391641"><ele>318.0</ele><time>2026-04-04T06:41:14.757Z</time></trkpt><trkpt lat="43.1771601" lon="11.7391115"><ele>318.0</ele><time>2026-04-04T06:41:15.756Z</time></trkpt><trkpt lat="43.1772781" lon="11.7390655"><ele>318.0</ele><time>2026-04-04T06:41:16.757Z</time></trkpt><trkpt lat="43.1773969" lon="11.7390165"><ele>318.0</ele><time>2026-04-04T06:41:17.757Z</time></trkpt><trkpt lat="43.177513" lon="11.7389572"><ele>317.2</ele><time>2026-04-04T06:41:18.756Z</time></trkpt><trkpt lat="43.1776182" lon="11.7389025"><ele>316.4</ele><time>2026-04-04T06:41:19.756Z</time></trkpt><trkpt lat="43.1777243" lon="11.7388442"><ele>315.59999999999997</ele><time>2026-04-04T06:41:20.756Z</time></trkpt><trkpt lat="43.1778324" lon="11.7387889"><ele>314.8</ele><time>2026-04-04T06:41:21.756Z</time></trkpt><trkpt lat="43.1779328" lon="11.7387394"><ele>314.0</ele><time>2026-04-04T06:41:22.756Z</time></trkpt><trkpt lat="43.1780357" lon="11.738694"><ele>314.0</ele><time>2026-04-04T06:41:23.756Z</time></trkpt><trkpt lat="43.1781526" lon="11.7386477"><ele>314.0</ele><time>2026-04-04T06:41:24.756Z</time></trkpt><trkpt lat="43.1782826" lon="11.7385869"><ele>314.0</ele><time>2026-04-04T06:41:25.756Z</time></trkpt><trkpt lat="43.1784165" lon="11.7385283"><ele>314.0</ele><time>2026-04-04T06:41:26.756Z</time></trkpt><trkpt lat="43.1785473" lon="11.7384645"><ele>311.75</ele><time>2026-04-04T06:41:27.756Z</time></trkpt><trkpt lat="43.1786713" lon="11.7384052"><ele>309.5</ele><time>2026-04-04T06:41:28.756Z</time></trkpt><trkpt lat="43.1787908" lon="11.7383596"><ele>307.25</ele><time>2026-04-04T06:41:29.757Z</time></trkpt><trkpt lat="43.1788908" lon="11.7383153"><ele>305.0</ele><time>2026-04-04T06:41:30.756Z</time></trkpt><trkpt lat="43.1789839" lon="11.7382709"><ele>303.2</ele><time>2026-04-04T06:41:31.756Z</time></trkpt><trkpt lat="43.1790786" lon="11.738219"><ele>301.4</ele><time>2026-04-04T06:41:32.756Z</time></trkpt><trkpt lat="43.1791613" lon="11.7381686"><ele>299.6</ele><time>2026-04-04T06:41:33.756Z</time></trkpt><trkpt lat="43.1792483" lon="11.7381202"><ele>297.8</ele><time>2026-04-04T06:41:34.756Z</time></trkpt><trkpt lat="43.1793358" lon="11.7380856"><ele>296.0</ele><time>2026-04-04T06:41:35.756Z</time></trkpt><trkpt lat="43.1794337" lon="11.7380482"><ele>296.0</ele><time>2026-04-04T06:41:36.756Z</time></trkpt><trkpt lat="43.1795522" lon="11.7379846"><ele>296.0</ele><time>2026-04-04T06:41:37.756Z</time></trkpt><trkpt lat="43.1796954" lon="11.7379171"><ele>296.0</ele><time>2026-04-04T06:41:38.756Z</time></trkpt><trkpt lat="43.1798277" lon="11.7378371"><ele>296.0</ele><time>2026-04-04T06:41:39.756Z</time></trkpt><trkpt lat="43.1799701" lon="11.7377553"><ele>295.0</ele><time>2026-04-04T06:41:40.757Z</time></trkpt><trkpt lat="43.1800999" lon="11.7376973"><ele>294.0</ele><time>2026-04-04T06:41:41.756Z</time></trkpt><trkpt lat="43.180224" lon="11.7376343"><ele>293.0</ele><time>2026-04-04T06:41:42.756Z</time></trkpt><trkpt lat="43.180341" lon="11.7375828"><ele>292.0</ele><time>2026-04-04T06:41:43.756Z</time></trkpt><trkpt lat="43.1804614" lon="11.7375385"><ele>292.0</ele><time>2026-04-04T06:41:44.756Z</time></trkpt><trkpt lat="43.1805726" lon="11.7375041"><ele>292.0</ele><time>2026-04-04T06:41:45.756Z</time></trkpt><trkpt lat="43.1806771" lon="11.7374715"><ele>292.0</ele><time>2026-04-04T06:41:46.756Z</time></trkpt><trkpt lat="43.18077" lon="11.7374496"><ele>292.0</ele><time>2026-04-04T06:41:47.756Z</time></trkpt><trkpt lat="43.1808441" lon="11.7374288"><ele>292.0</ele><time>2026-04-04T06:41:48.757Z</time></trkpt><trkpt lat="43.1809063" lon="11.7373825"><ele>290.3333333333333</ele><time>2026-04-04T06:41:49.756Z</time></trkpt><trkpt lat="43.1809654" lon="11.7373233"><ele>288.66666666666663</ele><time>2026-04-04T06:41:50.756Z</time></trkpt><trkpt lat="43.181029" lon="11.7372794"><ele>287.0</ele><time>2026-04-04T06:41:51.757Z</time></trkpt><trkpt lat="43.1811105" lon="11.7372489"><ele>285.3333333333333</ele><time>2026-04-04T06:41:52.756Z</time></trkpt><trkpt lat="43.181214" lon="11.7372187"><ele>283.6666666666667</ele><time>2026-04-04T06:41:53.756Z</time></trkpt><trkpt lat="43.1813154" lon="11.7371876"><ele>282.0</ele><time>2026-04-04T06:41:54.757Z</time></trkpt><trkpt lat="43.1814152" lon="11.7371576"><ele>280.5</ele><time>2026-04-04T06:41:55.756Z</time></trkpt><trkpt lat="43.18152" lon="11.7371368"><ele>279.0</ele><time>2026-04-04T06:41:56.757Z</time></trkpt><trkpt lat="43.1816371" lon="11.7371075"><ele>277.5</ele><time>2026-04-04T06:41:57.756Z</time></trkpt><trkpt lat="43.1817706" lon="11.7370728"><ele>276.0</ele><time>2026-04-04T06:41:58.756Z</time></trkpt><trkpt lat="43.1819122" lon="11.7370377"><ele>276.0</ele><time>2026-04-04T06:41:59.756Z</time></trkpt><trkpt lat="43.1820526" lon="11.7370045"><ele>276.0</ele><time>2026-04-04T06:42:00.756Z</time></trkpt><trkpt lat="43.1822065" lon="11.7369747"><ele>276.0</ele><time>2026-04-04T06:42:01.756Z</time></trkpt><trkpt lat="43.182358" lon="11.7369414"><ele>276.0</ele><time>2026-04-04T06:42:02.756Z</time></trkpt><trkpt lat="43.1825063" lon="11.7369053"><ele>276.0</ele><time>2026-04-04T06:42:03.757Z</time></trkpt><trkpt lat="43.182651" lon="11.7368705"><ele>276.0</ele><time>2026-04-04T06:42:04.756Z</time></trkpt><trkpt lat="43.1827862" lon="11.7368367"><ele>276.0</ele><time>2026-04-04T06:42:05.756Z</time></trkpt><trkpt lat="43.1829057" lon="11.7367958"><ele>276.25</ele><time>2026-04-04T06:42:06.756Z</time></trkpt><trkpt lat="43.1830212" lon="11.7367349"><ele>276.5</ele><time>2026-04-04T06:42:07.756Z</time></trkpt><trkpt lat="43.1831396" lon="11.7366506"><ele>276.75</ele><time>2026-04-04T06:42:08.756Z</time></trkpt><trkpt lat="43.1832531" lon="11.7365432"><ele>277.0</ele><time>2026-04-04T06:42:09.756Z</time></trkpt><trkpt lat="43.1833595" lon="11.7364363"><ele>277.0</ele><time>2026-04-04T06:42:10.757Z</time></trkpt><trkpt lat="43.1834561" lon="11.7363458"><ele>277.0</ele><time>2026-04-04T06:42:11.756Z</time></trkpt><trkpt lat="43.1835548" lon="11.7362741"><ele>277.0</ele><time>2026-04-04T06:42:12.757Z</time></trkpt><trkpt lat="43.1836507" lon="11.7362269"><ele>277.0</ele><time>2026-04-04T06:42:13.757Z</time></trkpt><trkpt lat="43.1837387" lon="11.7362083"><ele>277.0</ele><time>2026-04-04T06:42:14.756Z</time></trkpt><trkpt lat="43.1838291" lon="11.7362156"><ele>277.0</ele><time>2026-04-04T06:42:15.757Z</time></trkpt><trkpt lat="43.1839145" lon="11.7362529"><ele>277.0</ele><time>2026-04-04T06:42:16.756Z</time></trkpt><trkpt lat="43.1839928" lon="11.7363267"><ele>277.0</ele><time>2026-04-04T06:42:17.756Z</time></trkpt><trkpt lat="43.1840598" lon="11.7364136"><ele>277.0</ele><time>2026-04-04T06:42:18.756Z</time></trkpt><trkpt lat="43.1841248" lon="11.7365258"><ele>277.0</ele><time>2026-04-04T06:42:19.757Z</time></trkpt><trkpt lat="43.1841933" lon="11.7366383"><ele>277.0</ele><time>2026-04-04T06:42:20.756Z</time></trkpt><trkpt lat="43.1842667" lon="11.7367656"><ele>277.0</ele><time>2026-04-04T06:42:21.756Z</time></trkpt><trkpt lat="43.1843532" lon="11.736914"><ele>277.0</ele><time>2026-04-04T06:42:22.756Z</time></trkpt><trkpt lat="43.1844484" lon="11.7370846"><ele>277.0</ele><time>2026-04-04T06:42:23.756Z</time></trkpt><trkpt lat="43.1845395" lon="11.7372378"><ele>277.0</ele><time>2026-04-04T06:42:24.756Z</time></trkpt><trkpt lat="43.1846263" lon="11.7373775"><ele>277.0</ele><time>2026-04-04T06:42:25.756Z</time></trkpt><trkpt lat="43.1847057" lon="11.7375054"><ele>277.0</ele><time>2026-04-04T06:42:26.756Z</time></trkpt><trkpt lat="43.1847801" lon="11.7376343"><ele>277.0</ele><time>2026-04-04T06:42:27.756Z</time></trkpt><trkpt lat="43.1848574" lon="11.7377508"><ele>277.6</ele><time>2026-04-04T06:42:28.756Z</time></trkpt><trkpt lat="43.1849384" lon="11.7378677"><ele>278.2</ele><time>2026-04-04T06:42:29.756Z</time></trkpt><trkpt lat="43.1850126" lon="11.7379873"><ele>278.8</ele><time>2026-04-04T06:42:30.756Z</time></trkpt><trkpt lat="43.1850846" lon="11.7380926"><ele>279.4</ele><time>2026-04-04T06:42:31.756Z</time></trkpt><trkpt lat="43.1851631" lon="11.738196"><ele>280.0</ele><time>2026-04-04T06:42:32.757Z</time></trkpt><trkpt lat="43.185246" lon="11.7382864"><ele>280.0</ele><time>2026-04-04T06:42:33.756Z</time></trkpt><trkpt lat="43.1853384" lon="11.7383638"><ele>280.0</ele><time>2026-04-04T06:42:34.756Z</time></trkpt><trkpt lat="43.1854424" lon="11.7384362"><ele>280.0</ele><time>2026-04-04T06:42:35.756Z</time></trkpt><trkpt lat="43.1855333" lon="11.7385023"><ele>280.0</ele><time>2026-04-04T06:42:36.756Z</time></trkpt><trkpt lat="43.1856307" lon="11.7385671"><ele>280.0</ele><time>2026-04-04T06:42:37.756Z</time></trkpt><trkpt lat="43.1857185" lon="11.7386311"><ele>279.2</ele><time>2026-04-04T06:42:38.756Z</time></trkpt><trkpt lat="43.1858007" lon="11.7387031"><ele>278.4</ele><time>2026-04-04T06:42:39.756Z</time></trkpt><trkpt lat="43.1858785" lon="11.7387748"><ele>277.6</ele><time>2026-04-04T06:42:40.756Z</time></trkpt><trkpt lat="43.1859567" lon="11.7388507"><ele>276.8</ele><time>2026-04-04T06:42:41.756Z</time></trkpt><trkpt lat="43.1860398" lon="11.738939"><ele>276.0</ele><time>2026-04-04T06:42:42.756Z</time></trkpt><trkpt lat="43.1861235" lon="11.7390268"><ele>276.0</ele><time>2026-04-04T06:42:43.756Z</time></trkpt><trkpt lat="43.1862101" lon="11.7390948"><ele>276.0</ele><time>2026-04-04T06:42:44.756Z</time></trkpt><trkpt lat="43.1863035" lon="11.7391466"><ele>276.0</ele><time>2026-04-04T06:42:45.756Z</time></trkpt><trkpt lat="43.1863985" lon="11.7391685"><ele>276.0</ele><time>2026-04-04T06:42:46.756Z</time></trkpt><trkpt lat="43.1864879" lon="11.7391655"><ele>276.0</ele><time>2026-04-04T06:42:47.756Z</time></trkpt><trkpt lat="43.1865658" lon="11.7391605"><ele>277.40000000000003</ele><time>2026-04-04T06:42:48.756Z</time></trkpt><trkpt lat="43.1866737" lon="11.739155"><ele>278.8</ele><time>2026-04-04T06:42:50.756Z</time></trkpt><trkpt lat="43.1867442" lon="11.7391471"><ele>280.20000000000005</ele><time>2026-04-04T06:42:53.756Z</time></trkpt><trkpt lat="43.1868097" lon="11.7390794"><ele>281.6</ele><time>2026-04-04T06:43:07.756Z</time></trkpt><trkpt lat="43.1868853" lon="11.7389802"><ele>283.0</ele><time>2026-04-04T06:43:09.757Z</time></trkpt><trkpt lat="43.1869921" lon="11.7388887"><ele>283.0</ele><time>2026-04-04T06:43:11.756Z</time></trkpt><trkpt lat="43.1870624" lon="11.738831"><ele>283.0</ele><time>2026-04-04T06:43:12.757Z</time></trkpt><trkpt lat="43.1871316" lon="11.7387848"><ele>283.0</ele><time>2026-04-04T06:43:13.757Z</time></trkpt><trkpt lat="43.1871849" lon="11.738734"><ele>283.0</ele><time>2026-04-04T06:43:14.756Z</time></trkpt><trkpt lat="43.1872619" lon="11.7386045"><ele>283.0</ele><time>2026-04-04T06:43:16.756Z</time></trkpt><trkpt lat="43.1873068" lon="11.7385387"><ele>283.0</ele><time>2026-04-04T06:43:17.756Z</time></trkpt><trkpt lat="43.1873714" lon="11.7384765"><ele>285.5</ele><time>2026-04-04T06:43:18.756Z</time></trkpt><trkpt lat="43.1874446" lon="11.7383971"><ele>288.0</ele><time>2026-04-04T06:43:19.756Z</time></trkpt><trkpt lat="43.1875221" lon="11.7383127"><ele>290.5</ele><time>2026-04-04T06:43:20.756Z</time></trkpt><trkpt lat="43.1875953" lon="11.7382418"><ele>293.0</ele><time>2026-04-04T06:43:21.756Z</time></trkpt><trkpt lat="43.187662" lon="11.738187"><ele>295.5</ele><time>2026-04-04T06:43:22.756Z</time></trkpt><trkpt lat="43.18774" lon="11.7381404"><ele>298.0</ele><time>2026-04-04T06:43:23.756Z</time></trkpt><trkpt lat="43.1878161" lon="11.7380894"><ele>298.0</ele><time>2026-04-04T06:43:24.756Z</time></trkpt><trkpt lat="43.1878883" lon="11.7379782"><ele>298.0</ele><time>2026-04-04T06:43:26.756Z</time></trkpt><trkpt lat="43.1879187" lon="11.7378281"><ele>298.0</ele><time>2026-04-04T06:43:47.757Z</time></trkpt><trkpt lat="43.1879775" lon="11.7377305"><ele>298.0</ele><time>2026-04-04T06:43:53.757Z</time></trkpt><trkpt lat="43.1880193" lon="11.7376157"><ele>298.0</ele><time>2026-04-04T06:43:55.758Z</time></trkpt><trkpt lat="43.1880609" lon="11.7375382"><ele>299.16666666666663</ele><time>2026-04-04T06:43:58.757Z</time></trkpt><trkpt lat="43.1881233" lon="11.7374907"><ele>300.3333333333333</ele><time>2026-04-04T06:44:09.757Z</time></trkpt><trkpt lat="43.1881257" lon="11.7373997"><ele>301.5</ele><time>2026-04-04T06:44:16.757Z</time></trkpt><trkpt lat="43.1881191" lon="11.7372894"><ele>302.6666666666667</ele><time>2026-04-04T06:44:22.757Z</time></trkpt><trkpt lat="43.1881406" lon="11.737164"><ele>303.83333333333337</ele><time>2026-04-04T06:44:24.757Z</time></trkpt><trkpt lat="43.1881267" lon="11.7370283"><ele>305.0</ele><time>2026-04-04T06:44:26.758Z</time></trkpt><trkpt lat="43.1881078" lon="11.73694"><ele>305.42857142857144</ele><time>2026-04-04T06:44:29.757Z</time></trkpt><trkpt lat="43.1881422" lon="11.7368633"><ele>305.85714285714283</ele><time>2026-04-04T06:44:31.757Z</time></trkpt><trkpt lat="43.1881984" lon="11.7367846"><ele>306.2857142857143</ele><time>2026-04-04T06:44:33.757Z</time></trkpt><trkpt lat="43.1882439" lon="11.7367183"><ele>306.7142857142857</ele><time>2026-04-04T06:44:34.757Z</time></trkpt><trkpt lat="43.1882741" lon="11.7366343"><ele>307.1428571428571</ele><time>2026-04-04T06:44:35.757Z</time></trkpt><trkpt lat="43.1882981" lon="11.7365541"><ele>307.57142857142856</ele><time>2026-04-04T06:44:36.757Z</time></trkpt><trkpt lat="43.1883444" lon="11.7364814"><ele>308.0</ele><time>2026-04-04T06:44:38.758Z</time></trkpt><trkpt lat="43.1884564" lon="11.7366181"><ele>308.25</ele><time>2026-04-04T06:44:40.757Z</time></trkpt><trkpt lat="43.1885542" lon="11.7367231"><ele>308.5</ele><time>2026-04-04T06:44:41.757Z</time></trkpt><trkpt lat="43.1886552" lon="11.7368041"><ele>308.75</ele><time>2026-04-04T06:44:42.757Z</time></trkpt><trkpt lat="43.1887627" lon="11.736872"><ele>309.0</ele><time>2026-04-04T06:44:43.757Z</time></trkpt><trkpt lat="43.1888666" lon="11.7369182"><ele>309.0</ele><time>2026-04-04T06:44:44.757Z</time></trkpt><trkpt lat="43.1889909" lon="11.7369431"><ele>309.0</ele><time>2026-04-04T06:44:45.757Z</time></trkpt><trkpt lat="43.1891285" lon="11.7369532"><ele>309.0</ele><time>2026-04-04T06:44:46.758Z</time></trkpt><trkpt lat="43.1892606" lon="11.7369654"><ele>309.0</ele><time>2026-04-04T06:44:47.757Z</time></trkpt><trkpt lat="43.1893904" lon="11.7369938"><ele>308.25</ele><time>2026-04-04T06:44:48.757Z</time></trkpt><trkpt lat="43.1895311" lon="11.7370402"><ele>307.5</ele><time>2026-04-04T06:44:49.757Z</time></trkpt><trkpt lat="43.1896594" lon="11.7371001"><ele>306.75</ele><time>2026-04-04T06:44:50.757Z</time></trkpt><trkpt lat="43.1897704" lon="11.7371695"><ele>306.0</ele><time>2026-04-04T06:44:51.757Z</time></trkpt><trkpt lat="43.1898827" lon="11.7372522"><ele>306.0</ele><time>2026-04-04T06:44:52.757Z</time></trkpt><trkpt lat="43.1899969" lon="11.7373328"><ele>306.0</ele><time>2026-04-04T06:44:53.757Z</time></trkpt><trkpt lat="43.1900935" lon="11.7374145"><ele>306.0</ele><time>2026-04-04T06:44:54.757Z</time></trkpt><trkpt lat="43.1901682" lon="11.737476"><ele>306.0</ele><time>2026-04-04T06:44:55.757Z</time></trkpt><trkpt lat="43.1902583" lon="11.7375442"><ele>306.0</ele><time>2026-04-04T06:44:57.757Z</time></trkpt><trkpt lat="43.1903129" lon="11.7375952"><ele>306.0</ele><time>2026-04-04T06:45:01.757Z</time></trkpt><trkpt lat="43.1903776" lon="11.7375597"><ele>306.0</ele><time>2026-04-04T06:45:04.757Z</time></trkpt><trkpt lat="43.1904479" lon="11.7376067"><ele>306.0</ele><time>2026-04-04T06:45:07.757Z</time></trkpt><trkpt lat="43.1904652" lon="11.7376985"><ele>306.0</ele><time>2026-04-04T06:45:10.757Z</time></trkpt><trkpt lat="43.1904462" lon="11.7377856"><ele>306.0</ele><time>2026-04-04T06:45:14.757Z</time></trkpt><trkpt lat="43.1905052" lon="11.7378833"><ele>306.0</ele><time>2026-04-04T06:45:18.758Z</time></trkpt><trkpt lat="43.1905715" lon="11.737959"><ele>305.6666666666667</ele><time>2026-04-04T06:45:20.757Z</time></trkpt><trkpt lat="43.1906725" lon="11.7380014"><ele>305.3333333333333</ele><time>2026-04-04T06:45:22.757Z</time></trkpt><trkpt lat="43.1907445" lon="11.7379993"><ele>305.0</ele><time>2026-04-04T06:45:23.757Z</time></trkpt><trkpt lat="43.1908247" lon="11.7379802"><ele>304.66666666666663</ele><time>2026-04-04T06:45:24.757Z</time></trkpt><trkpt lat="43.1909119" lon="11.7379594"><ele>304.3333333333333</ele><time>2026-04-04T06:45:25.758Z</time></trkpt><trkpt lat="43.190989" lon="11.7379292"><ele>304.0</ele><time>2026-04-04T06:45:26.757Z</time></trkpt><trkpt lat="43.1910687" lon="11.7378872"><ele>304.0</ele><time>2026-04-04T06:45:27.757Z</time></trkpt><trkpt lat="43.1911392" lon="11.7378342"><ele>304.0</ele><time>2026-04-04T06:45:28.757Z</time></trkpt><trkpt lat="43.1911913" lon="11.7377719"><ele>304.0</ele><time>2026-04-04T06:45:29.757Z</time></trkpt><trkpt lat="43.1912306" lon="11.7376927"><ele>304.0</ele><time>2026-04-04T06:45:30.757Z</time></trkpt><trkpt lat="43.1912585" lon="11.7376098"><ele>304.0</ele><time>2026-04-04T06:45:31.757Z</time></trkpt><trkpt lat="43.1912767" lon="11.737521"><ele>304.0</ele><time>2026-04-04T06:45:32.758Z</time></trkpt><trkpt lat="43.1912965" lon="11.7374322"><ele>304.0</ele><time>2026-04-04T06:45:33.757Z</time></trkpt><trkpt lat="43.1913102" lon="11.7373165"><ele>303.8</ele><time>2026-04-04T06:45:34.757Z</time></trkpt><trkpt lat="43.1913143" lon="11.7371875"><ele>303.59999999999997</ele><time>2026-04-04T06:45:35.757Z</time></trkpt><trkpt lat="43.1913072" lon="11.7370601"><ele>303.4</ele><time>2026-04-04T06:45:36.757Z</time></trkpt><trkpt lat="43.1912875" lon="11.7369338"><ele>303.2</ele><time>2026-04-04T06:45:37.757Z</time></trkpt><trkpt lat="43.1912698" lon="11.7367964"><ele>303.0</ele><time>2026-04-04T06:45:38.757Z</time></trkpt><trkpt lat="43.1912584" lon="11.7366706"><ele>301.8333333333333</ele><time>2026-04-04T06:45:39.758Z</time></trkpt><trkpt lat="43.1912603" lon="11.7365556"><ele>300.6666666666667</ele><time>2026-04-04T06:45:40.757Z</time></trkpt><trkpt lat="43.1912754" lon="11.7364412"><ele>299.5</ele><time>2026-04-04T06:45:41.757Z</time></trkpt><trkpt lat="43.1912826" lon="11.7363241"><ele>298.33333333333337</ele><time>2026-04-04T06:45:42.757Z</time></trkpt><trkpt lat="43.1912754" lon="11.7362007"><ele>297.1666666666667</ele><time>2026-04-04T06:45:43.757Z</time></trkpt><trkpt lat="43.1912493" lon="11.7360771"><ele>296.0</ele><time>2026-04-04T06:45:44.757Z</time></trkpt><trkpt lat="43.1912044" lon="11.7359491"><ele>294.2</ele><time>2026-04-04T06:45:45.757Z</time></trkpt><trkpt lat="43.1911399" lon="11.7357966"><ele>292.40000000000003</ele><time>2026-04-04T06:45:46.757Z</time></trkpt><trkpt lat="43.1910808" lon="11.7356522"><ele>290.6</ele><time>2026-04-04T06:45:47.758Z</time></trkpt><trkpt lat="43.1910244" lon="11.7355284"><ele>288.8</ele><time>2026-04-04T06:45:48.757Z</time></trkpt><trkpt lat="43.1909777" lon="11.7354256"><ele>287.0</ele><time>2026-04-04T06:45:49.757Z</time></trkpt><trkpt lat="43.1909366" lon="11.7353418"><ele>287.0</ele><time>2026-04-04T06:45:50.757Z</time></trkpt><trkpt lat="43.1909263" lon="11.7352513"><ele>287.0</ele><time>2026-04-04T06:45:51.757Z</time></trkpt><trkpt lat="43.1909524" lon="11.7351556"><ele>287.0</ele><time>2026-04-04T06:45:52.757Z</time></trkpt><trkpt lat="43.1910121" lon="11.7350531"><ele>287.0</ele><time>2026-04-04T06:45:53.757Z</time></trkpt><trkpt lat="43.1910804" lon="11.7349507"><ele>287.0</ele><time>2026-04-04T06:45:54.757Z</time></trkpt><trkpt lat="43.1911502" lon="11.7348403"><ele>287.0</ele><time>2026-04-04T06:45:55.757Z</time></trkpt><trkpt lat="43.1912162" lon="11.7347098"><ele>287.0</ele><time>2026-04-04T06:45:56.757Z</time></trkpt><trkpt lat="43.1912814" lon="11.7345671"><ele>287.0</ele><time>2026-04-04T06:45:57.757Z</time></trkpt><trkpt lat="43.1913385" lon="11.7344245"><ele>287.0</ele><time>2026-04-04T06:45:58.758Z</time></trkpt><trkpt lat="43.1913917" lon="11.7342852"><ele>287.0</ele><time>2026-04-04T06:45:59.757Z</time></trkpt><trkpt lat="43.191451" lon="11.7341485"><ele>288.0</ele><time>2026-04-04T06:46:00.758Z</time></trkpt><trkpt lat="43.1915043" lon="11.7340143"><ele>289.0</ele><time>2026-04-04T06:46:01.758Z</time></trkpt><trkpt lat="43.1915496" lon="11.7338957"><ele>290.0</ele><time>2026-04-04T06:46:02.757Z</time></trkpt><trkpt lat="43.1915972" lon="11.7337975"><ele>291.0</ele><time>2026-04-04T06:46:03.757Z</time></trkpt><trkpt lat="43.1916585" lon="11.7337126"><ele>292.0</ele><time>2026-04-04T06:46:04.757Z</time></trkpt><trkpt lat="43.1917203" lon="11.7336416"><ele>290.4</ele><time>2026-04-04T06:46:05.757Z</time></trkpt><trkpt lat="43.1918413" lon="11.7335882"><ele>288.79999999999995</ele><time>2026-04-04T06:46:07.757Z</time></trkpt><trkpt lat="43.1919304" lon="11.7335662"><ele>287.2</ele><time>2026-04-04T06:46:08.757Z</time></trkpt><trkpt lat="43.192046" lon="11.7335398"><ele>285.59999999999997</ele><time>2026-04-04T06:46:09.757Z</time></trkpt><trkpt lat="43.1921433" lon="11.7335124"><ele>284.0</ele><time>2026-04-04T06:46:10.757Z</time></trkpt><trkpt lat="43.1922121" lon="11.7334968"><ele>284.0</ele><time>2026-04-04T06:46:11.757Z</time></trkpt><trkpt lat="43.1922575" lon="11.7334135"><ele>284.0</ele><time>2026-04-04T06:46:13.757Z</time></trkpt><trkpt lat="43.1923079" lon="11.7333279"><ele>284.0</ele><time>2026-04-04T06:46:16.758Z</time></trkpt><trkpt lat="43.1923745" lon="11.7333406"><ele>284.0</ele><time>2026-04-04T06:46:17.757Z</time></trkpt><trkpt lat="43.1924793" lon="11.7333688"><ele>284.0</ele><time>2026-04-04T06:46:18.757Z</time></trkpt><trkpt lat="43.1925763" lon="11.7333925"><ele>284.0</ele><time>2026-04-04T06:46:19.757Z</time></trkpt><trkpt lat="43.1926598" lon="11.7334102"><ele>283.59999999999997</ele><time>2026-04-04T06:46:20.757Z</time></trkpt><trkpt lat="43.1927334" lon="11.7334319"><ele>283.2</ele><time>2026-04-04T06:46:21.757Z</time></trkpt><trkpt lat="43.1928139" lon="11.7334968"><ele>282.79999999999995</ele><time>2026-04-04T06:46:22.757Z</time></trkpt><trkpt lat="43.1929095" lon="11.7335962"><ele>282.4</ele><time>2026-04-04T06:46:23.757Z</time></trkpt><trkpt lat="43.193011" lon="11.7337211"><ele>282.0</ele><time>2026-04-04T06:46:24.757Z</time></trkpt><trkpt lat="43.1931016" lon="11.7338579"><ele>280.0</ele><time>2026-04-04T06:46:25.757Z</time></trkpt><trkpt lat="43.1931823" lon="11.7339838"><ele>278.0</ele><time>2026-04-04T06:46:26.757Z</time></trkpt><trkpt lat="43.1932649" lon="11.7341057"><ele>276.0</ele><time>2026-04-04T06:46:27.757Z</time></trkpt><trkpt lat="43.1933338" lon="11.7342213"><ele>274.0</ele><time>2026-04-04T06:46:28.757Z</time></trkpt><trkpt lat="43.1933989" lon="11.7343334"><ele>274.8</ele><time>2026-04-04T06:46:29.757Z</time></trkpt><trkpt lat="43.1934537" lon="11.7344335"><ele>275.59999999999997</ele><time>2026-04-04T06:46:30.757Z</time></trkpt><trkpt lat="43.1935023" lon="11.7345282"><ele>276.4</ele><time>2026-04-04T06:46:31.757Z</time></trkpt><trkpt lat="43.1935499" lon="11.734624"><ele>277.2</ele><time>2026-04-04T06:46:32.757Z</time></trkpt><trkpt lat="43.1936074" lon="11.734735"><ele>278.0</ele><time>2026-04-04T06:46:33.757Z</time></trkpt><trkpt lat="43.1936759" lon="11.7348545"><ele>278.0</ele><time>2026-04-04T06:46:34.757Z</time></trkpt><trkpt lat="43.1937383" lon="11.734968"><ele>278.0</ele><time>2026-04-04T06:46:35.757Z</time></trkpt><trkpt lat="43.1938005" lon="11.7350804"><ele>278.0</ele><time>2026-04-04T06:46:36.757Z</time></trkpt><trkpt lat="43.1938555" lon="11.7351942"><ele>278.0</ele><time>2026-04-04T06:46:37.757Z</time></trkpt><trkpt lat="43.1939152" lon="11.735318"><ele>278.0</ele><time>2026-04-04T06:46:38.757Z</time></trkpt><trkpt lat="43.1939726" lon="11.7354318"><ele>277.1666666666667</ele><time>2026-04-04T06:46:39.757Z</time></trkpt><trkpt lat="43.1940231" lon="11.7355352"><ele>276.33333333333337</ele><time>2026-04-04T06:46:40.758Z</time></trkpt><trkpt lat="43.1940644" lon="11.7356264"><ele>275.5</ele><time>2026-04-04T06:46:41.757Z</time></trkpt><trkpt lat="43.1941023" lon="11.7356982"><ele>274.6666666666667</ele><time>2026-04-04T06:46:42.757Z</time></trkpt><trkpt lat="43.1942064" lon="11.7356854"><ele>273.8333333333333</ele><time>2026-04-04T06:46:44.757Z</time></trkpt><trkpt lat="43.1942912" lon="11.7356101"><ele>273.0</ele><time>2026-04-04T06:46:45.757Z</time></trkpt><trkpt lat="43.1943964" lon="11.7355222"><ele>273.0</ele><time>2026-04-04T06:46:46.757Z</time></trkpt><trkpt lat="43.194513" lon="11.7354212"><ele>273.0</ele><time>2026-04-04T06:46:47.757Z</time></trkpt><trkpt lat="43.1946411" lon="11.7353211"><ele>273.0</ele><time>2026-04-04T06:46:48.757Z</time></trkpt><trkpt lat="43.1947579" lon="11.7352316"><ele>273.0</ele><time>2026-04-04T06:46:49.757Z</time></trkpt><trkpt lat="43.1948678" lon="11.7351504"><ele>272.6</ele><time>2026-04-04T06:46:50.757Z</time></trkpt><trkpt lat="43.194961" lon="11.7350928"><ele>272.20000000000005</ele><time>2026-04-04T06:46:51.758Z</time></trkpt><trkpt lat="43.1950401" lon="11.7350416"><ele>271.8</ele><time>2026-04-04T06:46:52.757Z</time></trkpt><trkpt lat="43.1951052" lon="11.7349974"><ele>271.40000000000003</ele><time>2026-04-04T06:46:53.757Z</time></trkpt><trkpt lat="43.195206" lon="11.7349186"><ele>271.0</ele><time>2026-04-04T06:46:55.757Z</time></trkpt><trkpt lat="43.1953139" lon="11.7348712"><ele>271.0</ele><time>2026-04-04T06:46:57.757Z</time></trkpt><trkpt lat="43.195402" lon="11.7349082"><ele>271.0</ele><time>2026-04-04T06:46:59.757Z</time></trkpt><trkpt lat="43.1955046" lon="11.7349689"><ele>271.0</ele><time>2026-04-04T06:47:01.757Z</time></trkpt><trkpt lat="43.1955973" lon="11.7350966"><ele>271.0</ele><time>2026-04-04T06:47:03.757Z</time></trkpt><trkpt lat="43.1956526" lon="11.7351558"><ele>271.0</ele><time>2026-04-04T06:47:04.757Z</time></trkpt><trkpt lat="43.1957081" lon="11.7352054"><ele>270.66666666666663</ele><time>2026-04-04T06:47:05.757Z</time></trkpt><trkpt lat="43.1957839" lon="11.7352674"><ele>270.3333333333333</ele><time>2026-04-04T06:47:07.756Z</time></trkpt><trkpt lat="43.1958419" lon="11.7353259"><ele>270.0</ele><time>2026-04-04T06:47:17.756Z</time></trkpt><trkpt lat="43.1959079" lon="11.7353475"><ele>269.6666666666667</ele><time>2026-04-04T06:47:26.757Z</time></trkpt><trkpt lat="43.1960072" lon="11.7353549"><ele>269.33333333333337</ele><time>2026-04-04T06:47:31.757Z</time></trkpt><trkpt lat="43.1960879" lon="11.7353513"><ele>269.0</ele><time>2026-04-04T06:47:33.757Z</time></trkpt><trkpt lat="43.1961128" lon="11.7352425"><ele>269.59999999999997</ele><time>2026-04-04T06:47:36.757Z</time></trkpt><trkpt lat="43.1961531" lon="11.7351484"><ele>270.2</ele><time>2026-04-04T06:47:38.757Z</time></trkpt><trkpt lat="43.1962553" lon="11.7350688"><ele>270.79999999999995</ele><time>2026-04-04T06:47:57.757Z</time></trkpt><trkpt lat="43.1963585" lon="11.7350069"><ele>271.4</ele><time>2026-04-04T06:47:59.757Z</time></trkpt><trkpt lat="43.1964591" lon="11.7349492"><ele>272.0</ele><time>2026-04-04T06:48:01.757Z</time></trkpt><trkpt lat="43.1965706" lon="11.7348721"><ele>272.0</ele><time>2026-04-04T06:48:03.757Z</time></trkpt><trkpt lat="43.196625" lon="11.7348201"><ele>272.0</ele><time>2026-04-04T06:48:04.757Z</time></trkpt><trkpt lat="43.1966748" lon="11.7347535"><ele>272.0</ele><time>2026-04-04T06:48:05.757Z</time></trkpt><trkpt lat="43.1967236" lon="11.7346773"><ele>272.0</ele><time>2026-04-04T06:48:06.757Z</time></trkpt><trkpt lat="43.1967658" lon="11.7345956"><ele>272.0</ele><time>2026-04-04T06:48:07.757Z</time></trkpt><trkpt lat="43.1968109" lon="11.7345248"><ele>272.0</ele><time>2026-04-04T06:48:08.758Z</time></trkpt><trkpt lat="43.1968951" lon="11.7343994"><ele>272.4285714285714</ele><time>2026-04-04T06:48:10.757Z</time></trkpt><trkpt lat="43.1969321" lon="11.7343153"><ele>272.85714285714283</ele><time>2026-04-04T06:48:12.757Z</time></trkpt><trkpt lat="43.1968832" lon="11.7342305"><ele>273.2857142857143</ele><time>2026-04-04T06:48:14.757Z</time></trkpt><trkpt lat="43.1968126" lon="11.734187"><ele>273.71428571428567</ele><time>2026-04-04T06:48:15.757Z</time></trkpt><trkpt lat="43.1967474" lon="11.7341396"><ele>274.1428571428571</ele><time>2026-04-04T06:48:16.758Z</time></trkpt><trkpt lat="43.1966798" lon="11.7340836"><ele>274.57142857142856</ele><time>2026-04-04T06:48:17.757Z</time></trkpt><trkpt lat="43.1966404" lon="11.7340087"><ele>275.0</ele><time>2026-04-04T06:48:18.757Z</time></trkpt><trkpt lat="43.1966195" lon="11.7339226"><ele>275.0</ele><time>2026-04-04T06:48:21.757Z</time></trkpt><trkpt lat="43.1965486" lon="11.7337879"><ele>275.0</ele><time>2026-04-04T06:48:26.757Z</time></trkpt><trkpt lat="43.196516" lon="11.7336899"><ele>275.0</ele><time>2026-04-04T06:48:27.757Z</time></trkpt><trkpt lat="43.1964807" lon="11.7335989"><ele>275.0</ele><time>2026-04-04T06:48:28.757Z</time></trkpt><trkpt lat="43.1964359" lon="11.7335169"><ele>275.0</ele><time>2026-04-04T06:48:29.757Z</time></trkpt><trkpt lat="43.1963744" lon="11.7334367"><ele>275.0</ele><time>2026-04-04T06:48:30.757Z</time></trkpt><trkpt lat="43.1963127" lon="11.7333554"><ele>275.6</ele><time>2026-04-04T06:48:31.757Z</time></trkpt><trkpt lat="43.1962434" lon="11.7332664"><ele>276.2</ele><time>2026-04-04T06:48:32.758Z</time></trkpt><trkpt lat="43.1961779" lon="11.7331797"><ele>276.8</ele><time>2026-04-04T06:48:33.757Z</time></trkpt><trkpt lat="43.1961018" lon="11.7330974"><ele>277.4</ele><time>2026-04-04T06:48:34.758Z</time></trkpt><trkpt lat="43.196022" lon="11.7330114"><ele>278.0</ele><time>2026-04-04T06:48:35.758Z</time></trkpt><trkpt lat="43.1959447" lon="11.732929"><ele>278.0</ele><time>2026-04-04T06:48:36.757Z</time></trkpt><trkpt lat="43.1958764" lon="11.7328218"><ele>278.0</ele><time>2026-04-04T06:48:37.757Z</time></trkpt><trkpt lat="43.1958178" lon="11.7327148"><ele>278.0</ele><time>2026-04-04T06:48:38.758Z</time></trkpt><trkpt lat="43.1957649" lon="11.7326006"><ele>278.0</ele><time>2026-04-04T06:48:39.757Z</time></trkpt><trkpt lat="43.1957148" lon="11.7324798"><ele>278.0</ele><time>2026-04-04T06:48:40.757Z</time></trkpt><trkpt lat="43.1956835" lon="11.7323463"><ele>277.5</ele><time>2026-04-04T06:48:41.757Z</time></trkpt><trkpt lat="43.1956543" lon="11.7321918"><ele>277.0</ele><time>2026-04-04T06:48:42.757Z</time></trkpt><trkpt lat="43.1956183" lon="11.7320303"><ele>276.5</ele><time>2026-04-04T06:48:43.757Z</time></trkpt><trkpt lat="43.1955656" lon="11.7318837"><ele>276.0</ele><time>2026-04-04T06:48:44.757Z</time></trkpt><trkpt lat="43.195483" lon="11.731746"><ele>277.75</ele><time>2026-04-04T06:48:45.757Z</time></trkpt><trkpt lat="43.1953878" lon="11.7316174"><ele>279.5</ele><time>2026-04-04T06:48:46.757Z</time></trkpt><trkpt lat="43.1952954" lon="11.7314784"><ele>281.25</ele><time>2026-04-04T06:48:47.757Z</time></trkpt><trkpt lat="43.1952268" lon="11.7313408"><ele>283.0</ele><time>2026-04-04T06:48:48.757Z</time></trkpt><trkpt lat="43.1951739" lon="11.7311945"><ele>285.5</ele><time>2026-04-04T06:48:49.758Z</time></trkpt><trkpt lat="43.19514" lon="11.7310356"><ele>288.0</ele><time>2026-04-04T06:48:50.757Z</time></trkpt><trkpt lat="43.1951047" lon="11.7308597"><ele>290.5</ele><time>2026-04-04T06:48:51.758Z</time></trkpt><trkpt lat="43.1950667" lon="11.7306769"><ele>293.0</ele><time>2026-04-04T06:48:52.757Z</time></trkpt><trkpt lat="43.1950305" lon="11.7304987"><ele>293.0</ele><time>2026-04-04T06:48:53.758Z</time></trkpt><trkpt lat="43.1949978" lon="11.7303296"><ele>293.0</ele><time>2026-04-04T06:48:54.757Z</time></trkpt><trkpt lat="43.1949657" lon="11.7301601"><ele>293.0</ele><time>2026-04-04T06:48:55.757Z</time></trkpt><trkpt lat="43.1949343" lon="11.7300051"><ele>293.0</ele><time>2026-04-04T06:48:56.757Z</time></trkpt><trkpt lat="43.1949017" lon="11.7298682"><ele>293.6</ele><time>2026-04-04T06:48:57.757Z</time></trkpt><trkpt lat="43.1948743" lon="11.7297392"><ele>294.20000000000005</ele><time>2026-04-04T06:48:58.758Z</time></trkpt><trkpt lat="43.1948382" lon="11.7296101"><ele>294.8</ele><time>2026-04-04T06:48:59.757Z</time></trkpt><trkpt lat="43.1947837" lon="11.7294799"><ele>295.40000000000003</ele><time>2026-04-04T06:49:00.757Z</time></trkpt><trkpt lat="43.1947173" lon="11.7293655"><ele>296.0</ele><time>2026-04-04T06:49:01.757Z</time></trkpt><trkpt lat="43.1946524" lon="11.7292595"><ele>296.0</ele><time>2026-04-04T06:49:02.757Z</time></trkpt><trkpt lat="43.1945939" lon="11.7291479"><ele>296.0</ele><time>2026-04-04T06:49:03.757Z</time></trkpt><trkpt lat="43.1945358" lon="11.7290339"><ele>296.0</ele><time>2026-04-04T06:49:04.757Z</time></trkpt><trkpt lat="43.1944813" lon="11.7289126"><ele>296.0</ele><time>2026-04-04T06:49:05.757Z</time></trkpt><trkpt lat="43.1944285" lon="11.7287998"><ele>296.0</ele><time>2026-04-04T06:49:06.757Z</time></trkpt><trkpt lat="43.194367" lon="11.7286854"><ele>296.0</ele><time>2026-04-04T06:49:07.758Z</time></trkpt><trkpt lat="43.1942898" lon="11.7285624"><ele>296.0</ele><time>2026-04-04T06:49:08.757Z</time></trkpt><trkpt lat="43.1942076" lon="11.7284305"><ele>296.0</ele><time>2026-04-04T06:49:09.757Z</time></trkpt><trkpt lat="43.1941296" lon="11.7282975"><ele>296.0</ele><time>2026-04-04T06:49:10.757Z</time></trkpt><trkpt lat="43.194062" lon="11.7281664"><ele>295.75</ele><time>2026-04-04T06:49:11.758Z</time></trkpt><trkpt lat="43.1939892" lon="11.7280401"><ele>295.5</ele><time>2026-04-04T06:49:12.757Z</time></trkpt><trkpt lat="43.1939153" lon="11.7279083"><ele>295.25</ele><time>2026-04-04T06:49:13.757Z</time></trkpt><trkpt lat="43.1938409" lon="11.7277817"><ele>295.0</ele><time>2026-04-04T06:49:14.757Z</time></trkpt><trkpt lat="43.1937718" lon="11.7276673"><ele>296.6</ele><time>2026-04-04T06:49:15.758Z</time></trkpt><trkpt lat="43.1937005" lon="11.7275563"><ele>298.2</ele><time>2026-04-04T06:49:16.758Z</time></trkpt><trkpt lat="43.1936247" lon="11.7274401"><ele>299.8</ele><time>2026-04-04T06:49:17.757Z</time></trkpt><trkpt lat="43.1935534" lon="11.7273169"><ele>301.4</ele><time>2026-04-04T06:49:18.757Z</time></trkpt><trkpt lat="43.1934959" lon="11.7271947"><ele>303.0</ele><time>2026-04-04T06:49:19.757Z</time></trkpt><trkpt lat="43.1934489" lon="11.7270539"><ele>303.0</ele><time>2026-04-04T06:49:20.757Z</time></trkpt><trkpt lat="43.193416" lon="11.7269111"><ele>303.0</ele><time>2026-04-04T06:49:21.757Z</time></trkpt><trkpt lat="43.1933917" lon="11.726763"><ele>303.0</ele><time>2026-04-04T06:49:22.757Z</time></trkpt><trkpt lat="43.1933691" lon="11.7265875"><ele>303.0</ele><time>2026-04-04T06:49:23.757Z</time></trkpt><trkpt lat="43.1933407" lon="11.7264048"><ele>305.0</ele><time>2026-04-04T06:49:24.757Z</time></trkpt><trkpt lat="43.1933054" lon="11.7262377"><ele>307.0</ele><time>2026-04-04T06:49:25.757Z</time></trkpt><trkpt lat="43.1932622" lon="11.7260626"><ele>309.0</ele><time>2026-04-04T06:49:26.757Z</time></trkpt><trkpt lat="43.1932151" lon="11.7258732"><ele>311.0</ele><time>2026-04-04T06:49:27.757Z</time></trkpt><trkpt lat="43.1931545" lon="11.7256896"><ele>312.25</ele><time>2026-04-04T06:49:28.757Z</time></trkpt><trkpt lat="43.1930884" lon="11.7255402"><ele>313.5</ele><time>2026-04-04T06:49:29.757Z</time></trkpt><trkpt lat="43.1930065" lon="11.7254008"><ele>314.75</ele><time>2026-04-04T06:49:30.757Z</time></trkpt><trkpt lat="43.1929245" lon="11.7252374"><ele>316.0</ele><time>2026-04-04T06:49:31.758Z</time></trkpt><trkpt lat="43.1928443" lon="11.7250622"><ele>317.0</ele><time>2026-04-04T06:49:32.757Z</time></trkpt><trkpt lat="43.1927727" lon="11.7248992"><ele>318.0</ele><time>2026-04-04T06:49:33.758Z</time></trkpt><trkpt lat="43.1927161" lon="11.724761"><ele>319.0</ele><time>2026-04-04T06:49:34.757Z</time></trkpt><trkpt lat="43.1926617" lon="11.7246384"><ele>320.0</ele><time>2026-04-04T06:49:35.757Z</time></trkpt><trkpt lat="43.1926059" lon="11.7245276"><ele>320.0</ele><time>2026-04-04T06:49:36.757Z</time></trkpt><trkpt lat="43.1925434" lon="11.7244248"><ele>320.0</ele><time>2026-04-04T06:49:37.757Z</time></trkpt><trkpt lat="43.1924811" lon="11.7243257"><ele>320.0</ele><time>2026-04-04T06:49:38.757Z</time></trkpt><trkpt lat="43.1924161" lon="11.7242312"><ele>320.0</ele><time>2026-04-04T06:49:39.758Z</time></trkpt><trkpt lat="43.1923472" lon="11.7241404"><ele>320.0</ele><time>2026-04-04T06:49:40.757Z</time></trkpt><trkpt lat="43.1922749" lon="11.7240382"><ele>320.4</ele><time>2026-04-04T06:49:41.757Z</time></trkpt><trkpt lat="43.1922143" lon="11.7239476"><ele>320.8</ele><time>2026-04-04T06:49:42.758Z</time></trkpt><trkpt lat="43.1921616" lon="11.7238592"><ele>321.20000000000005</ele><time>2026-04-04T06:49:43.757Z</time></trkpt><trkpt lat="43.192092" lon="11.7237545"><ele>321.6</ele><time>2026-04-04T06:49:44.757Z</time></trkpt><trkpt lat="43.1920193" lon="11.7236399"><ele>322.0</ele><time>2026-04-04T06:49:45.758Z</time></trkpt><trkpt lat="43.1919522" lon="11.7235362"><ele>322.25</ele><time>2026-04-04T06:49:46.757Z</time></trkpt><trkpt lat="43.1918815" lon="11.7234284"><ele>322.5</ele><time>2026-04-04T06:49:47.757Z</time></trkpt><trkpt lat="43.1918005" lon="11.7233002"><ele>322.75</ele><time>2026-04-04T06:49:48.757Z</time></trkpt><trkpt lat="43.1917152" lon="11.7231702"><ele>323.0</ele><time>2026-04-04T06:49:49.757Z</time></trkpt><trkpt lat="43.1916346" lon="11.7230473"><ele>323.0</ele><time>2026-04-04T06:49:50.757Z</time></trkpt><trkpt lat="43.191562" lon="11.7229309"><ele>323.0</ele><time>2026-04-04T06:49:51.757Z</time></trkpt><trkpt lat="43.1914966" lon="11.7228276"><ele>323.0</ele><time>2026-04-04T06:49:52.757Z</time></trkpt><trkpt lat="43.1914322" lon="11.7227361"><ele>323.0</ele><time>2026-04-04T06:49:53.757Z</time></trkpt><trkpt lat="43.1913675" lon="11.7226467"><ele>323.0</ele><time>2026-04-04T06:49:54.757Z</time></trkpt><trkpt lat="43.1913083" lon="11.7225753"><ele>323.4</ele><time>2026-04-04T06:49:55.757Z</time></trkpt><trkpt lat="43.1912504" lon="11.7225345"><ele>323.79999999999995</ele><time>2026-04-04T06:49:56.757Z</time></trkpt><trkpt lat="43.191138" lon="11.7224826"><ele>324.2</ele><time>2026-04-04T06:49:58.758Z</time></trkpt><trkpt lat="43.1910647" lon="11.7224085"><ele>324.6</ele><time>2026-04-04T06:49:59.757Z</time></trkpt><trkpt lat="43.1909544" lon="11.7222858"><ele>325.0</ele><time>2026-04-04T06:50:00.758Z</time></trkpt><trkpt lat="43.1908447" lon="11.7221582"><ele>325.0</ele><time>2026-04-04T06:50:01.757Z</time></trkpt><trkpt lat="43.1907191" lon="11.7220374"><ele>325.0</ele><time>2026-04-04T06:50:02.757Z</time></trkpt><trkpt lat="43.1905902" lon="11.7219219"><ele>325.0</ele><time>2026-04-04T06:50:03.757Z</time></trkpt><trkpt lat="43.1904689" lon="11.721821"><ele>325.0</ele><time>2026-04-04T06:50:04.757Z</time></trkpt><trkpt lat="43.1903507" lon="11.7217166"><ele>327.25</ele><time>2026-04-04T06:50:05.757Z</time></trkpt><trkpt lat="43.1902242" lon="11.7216193"><ele>329.5</ele><time>2026-04-04T06:50:06.758Z</time></trkpt><trkpt lat="43.1901205" lon="11.7215375"><ele>331.75</ele><time>2026-04-04T06:50:07.757Z</time></trkpt><trkpt lat="43.1900345" lon="11.721445"><ele>334.0</ele><time>2026-04-04T06:50:08.757Z</time></trkpt><trkpt lat="43.1899635" lon="11.7213538"><ele>334.0</ele><time>2026-04-04T06:50:09.757Z</time></trkpt><trkpt lat="43.1899179" lon="11.7212164"><ele>334.0</ele><time>2026-04-04T06:50:10.758Z</time></trkpt><trkpt lat="43.1898859" lon="11.7210206"><ele>334.0</ele><time>2026-04-04T06:50:11.757Z</time></trkpt><trkpt lat="43.1898511" lon="11.7208042"><ele>334.0</ele><time>2026-04-04T06:50:12.757Z</time></trkpt><trkpt lat="43.1898317" lon="11.7205988"><ele>333.5</ele><time>2026-04-04T06:50:13.757Z</time></trkpt><trkpt lat="43.1898277" lon="11.7203936"><ele>333.0</ele><time>2026-04-04T06:50:14.757Z</time></trkpt><trkpt lat="43.189828" lon="11.7202047"><ele>332.5</ele><time>2026-04-04T06:50:15.757Z</time></trkpt><trkpt lat="43.1898587" lon="11.7200168"><ele>332.0</ele><time>2026-04-04T06:50:16.757Z</time></trkpt><trkpt lat="43.1899048" lon="11.7198429"><ele>332.0</ele><time>2026-04-04T06:50:17.757Z</time></trkpt><trkpt lat="43.189933" lon="11.7196906"><ele>332.0</ele><time>2026-04-04T06:50:18.758Z</time></trkpt><trkpt lat="43.1899497" lon="11.7195556"><ele>332.0</ele><time>2026-04-04T06:50:19.757Z</time></trkpt><trkpt lat="43.1899319" lon="11.7194179"><ele>332.0</ele><time>2026-04-04T06:50:20.758Z</time></trkpt><trkpt lat="43.1898971" lon="11.719285"><ele>332.0</ele><time>2026-04-04T06:50:21.757Z</time></trkpt><trkpt lat="43.1898467" lon="11.719152"><ele>335.25</ele><time>2026-04-04T06:50:22.757Z</time></trkpt><trkpt lat="43.1897839" lon="11.719021"><ele>338.5</ele><time>2026-04-04T06:50:23.757Z</time></trkpt><trkpt lat="43.1897028" lon="11.7188858"><ele>341.75</ele><time>2026-04-04T06:50:24.757Z</time></trkpt><trkpt lat="43.1896271" lon="11.7187275"><ele>345.0</ele><time>2026-04-04T06:50:25.757Z</time></trkpt><trkpt lat="43.1895633" lon="11.7185461"><ele>345.0</ele><time>2026-04-04T06:50:26.757Z</time></trkpt><trkpt lat="43.1894897" lon="11.7183678"><ele>345.0</ele><time>2026-04-04T06:50:27.757Z</time></trkpt><trkpt lat="43.1894043" lon="11.7182212"><ele>345.0</ele><time>2026-04-04T06:50:28.757Z</time></trkpt><trkpt lat="43.1893081" lon="11.7181021"><ele>345.0</ele><time>2026-04-04T06:50:29.757Z</time></trkpt><trkpt lat="43.1892247" lon="11.7179953"><ele>345.0</ele><time>2026-04-04T06:50:30.757Z</time></trkpt><trkpt lat="43.1891516" lon="11.7178829"><ele>345.0</ele><time>2026-04-04T06:50:31.757Z</time></trkpt><trkpt lat="43.1890863" lon="11.7177398"><ele>345.0</ele><time>2026-04-04T06:50:32.757Z</time></trkpt><trkpt lat="43.1890208" lon="11.7175763"><ele>345.0</ele><time>2026-04-04T06:50:33.757Z</time></trkpt><trkpt lat="43.188941" lon="11.7174582"><ele>344.2</ele><time>2026-04-04T06:50:34.758Z</time></trkpt><trkpt lat="43.1888529" lon="11.7173652"><ele>343.4</ele><time>2026-04-04T06:50:35.757Z</time></trkpt><trkpt lat="43.1887522" lon="11.7173041"><ele>342.6</ele><time>2026-04-04T06:50:36.757Z</time></trkpt><trkpt lat="43.1886415" lon="11.7172692"><ele>341.8</ele><time>2026-04-04T06:50:37.757Z</time></trkpt><trkpt lat="43.1885419" lon="11.7172551"><ele>341.0</ele><time>2026-04-04T06:50:38.758Z</time></trkpt><trkpt lat="43.1884633" lon="11.7172483"><ele>341.0</ele><time>2026-04-04T06:50:39.757Z</time></trkpt><trkpt lat="43.1883748" lon="11.7172049"><ele>341.0</ele><time>2026-04-04T06:50:41.758Z</time></trkpt><trkpt lat="43.1883208" lon="11.7171177"><ele>341.0</ele><time>2026-04-04T06:50:45.757Z</time></trkpt><trkpt lat="43.1882789" lon="11.7170404"><ele>341.0</ele><time>2026-04-04T06:50:47.757Z</time></trkpt><trkpt lat="43.1882486" lon="11.7169583"><ele>341.0</ele><time>2026-04-04T06:50:48.757Z</time></trkpt><trkpt lat="43.1882305" lon="11.716813"><ele>341.0</ele><time>2026-04-04T06:50:49.757Z</time></trkpt><trkpt lat="43.1882396" lon="11.7166757"><ele>340.8</ele><time>2026-04-04T06:50:50.757Z</time></trkpt><trkpt lat="43.1882754" lon="11.7165344"><ele>340.6</ele><time>2026-04-04T06:50:51.758Z</time></trkpt><trkpt lat="43.1883153" lon="11.7164139"><ele>340.4</ele><time>2026-04-04T06:50:52.757Z</time></trkpt><trkpt lat="43.1883607" lon="11.7162979"><ele>340.2</ele><time>2026-04-04T06:50:53.757Z</time></trkpt><trkpt lat="43.1883973" lon="11.7162004"><ele>340.0</ele><time>2026-04-04T06:50:54.757Z</time></trkpt><trkpt lat="43.1884153" lon="11.7161082"><ele>340.0</ele><time>2026-04-04T06:50:55.757Z</time></trkpt><trkpt lat="43.1883779" lon="11.7160076"><ele>340.0</ele><time>2026-04-04T06:50:56.757Z</time></trkpt><trkpt lat="43.1882968" lon="11.7159078"><ele>340.0</ele><time>2026-04-04T06:50:57.757Z</time></trkpt><trkpt lat="43.1882273" lon="11.7158119"><ele>340.0</ele><time>2026-04-04T06:50:58.757Z</time></trkpt><trkpt lat="43.1881864" lon="11.7157443"><ele>340.0</ele><time>2026-04-04T06:50:59.757Z</time></trkpt><trkpt lat="43.1881674" lon="11.7156547"><ele>340.0</ele><time>2026-04-04T06:51:00.757Z</time></trkpt><trkpt lat="43.1881679" lon="11.7155604"><ele>339.2</ele><time>2026-04-04T06:51:01.757Z</time></trkpt><trkpt lat="43.1881907" lon="11.7154757"><ele>338.4</ele><time>2026-04-04T06:51:02.757Z</time></trkpt><trkpt lat="43.1883166" lon="11.7153897"><ele>337.6</ele><time>2026-04-04T06:51:04.757Z</time></trkpt><trkpt lat="43.1884239" lon="11.7153391"><ele>336.8</ele><time>2026-04-04T06:51:05.757Z</time></trkpt><trkpt lat="43.1885357" lon="11.715297"><ele>336.0</ele><time>2026-04-04T06:51:06.758Z</time></trkpt><trkpt lat="43.1886398" lon="11.7152763"><ele>336.0</ele><time>2026-04-04T06:51:07.757Z</time></trkpt><trkpt lat="43.1887348" lon="11.7152497"><ele>336.0</ele><time>2026-04-04T06:51:08.757Z</time></trkpt><trkpt lat="43.1888307" lon="11.7152214"><ele>336.0</ele><time>2026-04-04T06:51:09.757Z</time></trkpt><trkpt lat="43.1889335" lon="11.7151818"><ele>336.0</ele><time>2026-04-04T06:51:10.757Z</time></trkpt><trkpt lat="43.1890437" lon="11.7151489"><ele>336.0</ele><time>2026-04-04T06:51:11.758Z</time></trkpt><trkpt lat="43.1891611" lon="11.7151312"><ele>334.8333333333333</ele><time>2026-04-04T06:51:12.757Z</time></trkpt><trkpt lat="43.1892635" lon="11.7151214"><ele>333.6666666666667</ele><time>2026-04-04T06:51:13.757Z</time></trkpt><trkpt lat="43.1893453" lon="11.7150826"><ele>332.5</ele><time>2026-04-04T06:51:14.757Z</time></trkpt><trkpt lat="43.1894163" lon="11.7150342"><ele>331.33333333333337</ele><time>2026-04-04T06:51:15.757Z</time></trkpt><trkpt lat="43.1894729" lon="11.71496"><ele>330.1666666666667</ele><time>2026-04-04T06:51:16.758Z</time></trkpt><trkpt lat="43.1895085" lon="11.7148699"><ele>329.0</ele><time>2026-04-04T06:51:17.757Z</time></trkpt><trkpt lat="43.1895216" lon="11.7147714"><ele>329.0</ele><time>2026-04-04T06:51:18.758Z</time></trkpt><trkpt lat="43.1894995" lon="11.7146533"><ele>329.0</ele><time>2026-04-04T06:51:19.757Z</time></trkpt><trkpt lat="43.1894504" lon="11.7145216"><ele>329.0</ele><time>2026-04-04T06:51:20.758Z</time></trkpt><trkpt lat="43.1894029" lon="11.7143921"><ele>329.0</ele><time>2026-04-04T06:51:21.757Z</time></trkpt><trkpt lat="43.1893679" lon="11.7142633"><ele>329.0</ele><time>2026-04-04T06:51:22.757Z</time></trkpt><trkpt lat="43.1893362" lon="11.7141418"><ele>329.0</ele><time>2026-04-04T06:51:23.757Z</time></trkpt><trkpt lat="43.1892921" lon="11.7140665"><ele>329.0</ele><time>2026-04-04T06:51:24.758Z</time></trkpt><trkpt lat="43.1892222" lon="11.71401"><ele>329.0</ele><time>2026-04-04T06:51:25.757Z</time></trkpt><trkpt lat="43.189141" lon="11.7139499"><ele>329.0</ele><time>2026-04-04T06:51:26.757Z</time></trkpt><trkpt lat="43.1890778" lon="11.7138434"><ele>329.0</ele><time>2026-04-04T06:51:28.757Z</time></trkpt><trkpt lat="43.1891459" lon="11.7136798"><ele>329.0</ele><time>2026-04-04T06:51:30.757Z</time></trkpt><trkpt lat="43.1892114" lon="11.7135751"><ele>329.0</ele><time>2026-04-04T06:51:31.757Z</time></trkpt><trkpt lat="43.1892508" lon="11.7134629"><ele>329.0</ele><time>2026-04-04T06:51:32.758Z</time></trkpt><trkpt lat="43.1892751" lon="11.7133619"><ele>329.0</ele><time>2026-04-04T06:51:33.757Z</time></trkpt><trkpt lat="43.1893011" lon="11.7132659"><ele>329.0</ele><time>2026-04-04T06:51:34.757Z</time></trkpt><trkpt lat="43.1893617" lon="11.7131527"><ele>329.0</ele><time>2026-04-04T06:51:36.758Z</time></trkpt><trkpt lat="43.1894701" lon="11.7132167"><ele>327.33333333333337</ele><time>2026-04-04T06:51:38.757Z</time></trkpt><trkpt lat="43.1895941" lon="11.7132116"><ele>325.6666666666667</ele><time>2026-04-04T06:51:40.757Z</time></trkpt><trkpt lat="43.189675" lon="11.7131587"><ele>324.0</ele><time>2026-04-04T06:51:41.757Z</time></trkpt><trkpt lat="43.1897528" lon="11.713116"><ele>322.3333333333333</ele><time>2026-04-04T06:51:42.757Z</time></trkpt><trkpt lat="43.1898179" lon="11.7130804"><ele>320.66666666666663</ele><time>2026-04-04T06:51:43.758Z</time></trkpt><trkpt lat="43.1898831" lon="11.7130411"><ele>319.0</ele><time>2026-04-04T06:51:44.757Z</time></trkpt><trkpt lat="43.1899524" lon="11.7129995"><ele>317.4</ele><time>2026-04-04T06:51:45.758Z</time></trkpt><trkpt lat="43.1900247" lon="11.7129585"><ele>315.79999999999995</ele><time>2026-04-04T06:51:46.757Z</time></trkpt><trkpt lat="43.1901085" lon="11.7129015"><ele>314.20000000000005</ele><time>2026-04-04T06:51:47.757Z</time></trkpt><trkpt lat="43.1902014" lon="11.7128474"><ele>312.6</ele><time>2026-04-04T06:51:48.758Z</time></trkpt><trkpt lat="43.1902927" lon="11.712752"><ele>311.0</ele><time>2026-04-04T06:51:49.757Z</time></trkpt><trkpt lat="43.1903626" lon="11.7126484"><ele>310.6666666666667</ele><time>2026-04-04T06:51:50.757Z</time></trkpt><trkpt lat="43.1904144" lon="11.7125563"><ele>310.33333333333337</ele><time>2026-04-04T06:51:51.758Z</time></trkpt><trkpt lat="43.1904547" lon="11.7124809"><ele>310.0</ele><time>2026-04-04T06:51:52.757Z</time></trkpt><trkpt lat="43.1905149" lon="11.712438"><ele>309.6666666666667</ele><time>2026-04-04T06:51:53.757Z</time></trkpt><trkpt lat="43.1905829" lon="11.7124238"><ele>309.3333333333333</ele><time>2026-04-04T06:51:54.757Z</time></trkpt><trkpt lat="43.1906762" lon="11.712437"><ele>309.0</ele><time>2026-04-04T06:51:56.757Z</time></trkpt><trkpt lat="43.1907689" lon="11.7123542"><ele>307.6666666666667</ele><time>2026-04-04T06:51:58.757Z</time></trkpt><trkpt lat="43.1908428" lon="11.7123032"><ele>306.3333333333333</ele><time>2026-04-04T06:51:59.757Z</time></trkpt><trkpt lat="43.1909037" lon="11.7122452"><ele>305.0</ele><time>2026-04-04T06:52:00.757Z</time></trkpt><trkpt lat="43.1909424" lon="11.7121527"><ele>303.66666666666663</ele><time>2026-04-04T06:52:01.757Z</time></trkpt><trkpt lat="43.1909765" lon="11.7120382"><ele>302.3333333333333</ele><time>2026-04-04T06:52:02.757Z</time></trkpt><trkpt lat="43.1910159" lon="11.7119516"><ele>301.0</ele><time>2026-04-04T06:52:03.757Z</time></trkpt><trkpt lat="43.1910907" lon="11.7118926"><ele>301.0</ele><time>2026-04-04T06:52:04.757Z</time></trkpt><trkpt lat="43.1911912" lon="11.7118862"><ele>301.0</ele><time>2026-04-04T06:52:05.757Z</time></trkpt><trkpt lat="43.19131" lon="11.7119047"><ele>301.0</ele><time>2026-04-04T06:52:06.757Z</time></trkpt><trkpt lat="43.1914449" lon="11.7119134"><ele>301.0</ele><time>2026-04-04T06:52:07.757Z</time></trkpt><trkpt lat="43.1915792" lon="11.7119225"><ele>299.0</ele><time>2026-04-04T06:52:08.757Z</time></trkpt><trkpt lat="43.1917107" lon="11.7119331"><ele>297.0</ele><time>2026-04-04T06:52:09.757Z</time></trkpt><trkpt lat="43.1918406" lon="11.7119363"><ele>295.0</ele><time>2026-04-04T06:52:10.757Z</time></trkpt><trkpt lat="43.1919458" lon="11.7119418"><ele>293.0</ele><time>2026-04-04T06:52:11.758Z</time></trkpt><trkpt lat="43.1920335" lon="11.7119513"><ele>293.0</ele><time>2026-04-04T06:52:12.758Z</time></trkpt><trkpt lat="43.192117" lon="11.7119652"><ele>293.0</ele><time>2026-04-04T06:52:13.757Z</time></trkpt><trkpt lat="43.1921895" lon="11.7120059"><ele>293.0</ele><time>2026-04-04T06:52:14.757Z</time></trkpt><trkpt lat="43.1922382" lon="11.7120792"><ele>293.0</ele><time>2026-04-04T06:52:15.757Z</time></trkpt><trkpt lat="43.1922855" lon="11.712184"><ele>293.0</ele><time>2026-04-04T06:52:17.757Z</time></trkpt><trkpt lat="43.1922803" lon="11.7120274"><ele>293.0</ele><time>2026-04-04T06:52:21.757Z</time></trkpt><trkpt lat="43.1922477" lon="11.7119377"><ele>293.33333333333337</ele><time>2026-04-04T06:52:22.757Z</time></trkpt><trkpt lat="43.1921922" lon="11.7118123"><ele>293.6666666666667</ele><time>2026-04-04T06:52:24.757Z</time></trkpt><trkpt lat="43.1921472" lon="11.7116783"><ele>294.0</ele><time>2026-04-04T06:52:26.757Z</time></trkpt><trkpt lat="43.1921426" lon="11.7115843"><ele>294.3333333333333</ele><time>2026-04-04T06:52:27.757Z</time></trkpt><trkpt lat="43.1921438" lon="11.71147"><ele>294.66666666666663</ele><time>2026-04-04T06:52:28.757Z</time></trkpt><trkpt lat="43.1921317" lon="11.7113609"><ele>295.0</ele><time>2026-04-04T06:52:29.757Z</time></trkpt><trkpt lat="43.1921187" lon="11.711256"><ele>295.0</ele><time>2026-04-04T06:52:30.757Z</time></trkpt><trkpt lat="43.1921055" lon="11.711153"><ele>295.0</ele><time>2026-04-04T06:52:31.757Z</time></trkpt><trkpt lat="43.1920987" lon="11.7110437"><ele>295.0</ele><time>2026-04-04T06:52:32.758Z</time></trkpt><trkpt lat="43.1920964" lon="11.7109234"><ele>295.0</ele><time>2026-04-04T06:52:33.757Z</time></trkpt><trkpt lat="43.1921032" lon="11.7108044"><ele>295.0</ele><time>2026-04-04T06:52:34.757Z</time></trkpt><trkpt lat="43.1921334" lon="11.7106795"><ele>295.0</ele><time>2026-04-04T06:52:35.757Z</time></trkpt><trkpt lat="43.1921738" lon="11.7105572"><ele>295.6</ele><time>2026-04-04T06:52:36.757Z</time></trkpt><trkpt lat="43.1922064" lon="11.7104171"><ele>296.2</ele><time>2026-04-04T06:52:37.757Z</time></trkpt><trkpt lat="43.1922317" lon="11.7102765"><ele>296.8</ele><time>2026-04-04T06:52:38.757Z</time></trkpt><trkpt lat="43.1922612" lon="11.7101403"><ele>297.4</ele><time>2026-04-04T06:52:39.758Z</time></trkpt><trkpt lat="43.1922886" lon="11.7100135"><ele>298.0</ele><time>2026-04-04T06:52:40.757Z</time></trkpt><trkpt lat="43.1923303" lon="11.7098891"><ele>299.2</ele><time>2026-04-04T06:52:41.758Z</time></trkpt><trkpt lat="43.1923729" lon="11.709763"><ele>300.4</ele><time>2026-04-04T06:52:42.757Z</time></trkpt><trkpt lat="43.1924239" lon="11.7096499"><ele>301.59999999999997</ele><time>2026-04-04T06:52:43.757Z</time></trkpt><trkpt lat="43.1924934" lon="11.7095479"><ele>302.8</ele><time>2026-04-04T06:52:44.757Z</time></trkpt><trkpt lat="43.1925766" lon="11.7094575"><ele>304.0</ele><time>2026-04-04T06:52:45.757Z</time></trkpt><trkpt lat="43.1926681" lon="11.7093921"><ele>306.0</ele><time>2026-04-04T06:52:46.757Z</time></trkpt><trkpt lat="43.1927738" lon="11.7093388"><ele>308.0</ele><time>2026-04-04T06:52:47.757Z</time></trkpt><trkpt lat="43.1928908" lon="11.7092899"><ele>310.0</ele><time>2026-04-04T06:52:48.757Z</time></trkpt><trkpt lat="43.1930053" lon="11.7092453"><ele>312.0</ele><time>2026-04-04T06:52:49.757Z</time></trkpt><trkpt lat="43.1931161" lon="11.7092096"><ele>313.0</ele><time>2026-04-04T06:52:50.758Z</time></trkpt><trkpt lat="43.1932195" lon="11.7091809"><ele>314.0</ele><time>2026-04-04T06:52:51.757Z</time></trkpt><trkpt lat="43.1933223" lon="11.7091544"><ele>315.0</ele><time>2026-04-04T06:52:52.757Z</time></trkpt><trkpt lat="43.1934283" lon="11.7091297"><ele>316.0</ele><time>2026-04-04T06:52:53.757Z</time></trkpt><trkpt lat="43.1935322" lon="11.7091027"><ele>317.0</ele><time>2026-04-04T06:52:54.757Z</time></trkpt><trkpt lat="43.1936439" lon="11.7090652"><ele>317.0</ele><time>2026-04-04T06:52:55.757Z</time></trkpt><trkpt lat="43.193759" lon="11.7090205"><ele>317.0</ele><time>2026-04-04T06:52:56.757Z</time></trkpt><trkpt lat="43.1938651" lon="11.708962"><ele>317.0</ele><time>2026-04-04T06:52:57.757Z</time></trkpt><trkpt lat="43.1939615" lon="11.7089027"><ele>317.0</ele><time>2026-04-04T06:52:58.757Z</time></trkpt><trkpt lat="43.1940485" lon="11.7088381"><ele>317.0</ele><time>2026-04-04T06:52:59.757Z</time></trkpt><trkpt lat="43.1941178" lon="11.7087711"><ele>319.0</ele><time>2026-04-04T06:53:00.757Z</time></trkpt><trkpt lat="43.194188" lon="11.7087034"><ele>321.0</ele><time>2026-04-04T06:53:01.757Z</time></trkpt><trkpt lat="43.1942363" lon="11.7086413"><ele>323.0</ele><time>2026-04-04T06:53:02.757Z</time></trkpt><trkpt lat="43.1942502" lon="11.7084676"><ele>325.0</ele><time>2026-04-04T06:53:04.757Z</time></trkpt><trkpt lat="43.1942239" lon="11.7083253"><ele>327.0</ele><time>2026-04-04T06:53:05.757Z</time></trkpt><trkpt lat="43.1941911" lon="11.708183"><ele>328.75</ele><time>2026-04-04T06:53:06.757Z</time></trkpt><trkpt lat="43.1941678" lon="11.7080428"><ele>330.5</ele><time>2026-04-04T06:53:07.757Z</time></trkpt><trkpt lat="43.1941425" lon="11.7078655"><ele>332.25</ele><time>2026-04-04T06:53:08.758Z</time></trkpt><trkpt lat="43.1941164" lon="11.7076878"><ele>334.0</ele><time>2026-04-04T06:53:09.758Z</time></trkpt><trkpt lat="43.1940945" lon="11.7075411"><ele>335.66666666666663</ele><time>2026-04-04T06:53:10.757Z</time></trkpt><trkpt lat="43.1940708" lon="11.7074062"><ele>337.3333333333333</ele><time>2026-04-04T06:53:11.757Z</time></trkpt><trkpt lat="43.1940679" lon="11.7072958"><ele>339.0</ele><time>2026-04-04T06:53:12.757Z</time></trkpt><trkpt lat="43.1940897" lon="11.7071941"><ele>340.6666666666667</ele><time>2026-04-04T06:53:13.757Z</time></trkpt><trkpt lat="43.1941429" lon="11.7071"><ele>342.33333333333337</ele><time>2026-04-04T06:53:14.757Z</time></trkpt><trkpt lat="43.1942097" lon="11.7070181"><ele>344.0</ele><time>2026-04-04T06:53:15.757Z</time></trkpt><trkpt lat="43.1942803" lon="11.7069363"><ele>344.83333333333337</ele><time>2026-04-04T06:53:16.757Z</time></trkpt><trkpt lat="43.1943349" lon="11.7068425"><ele>345.6666666666667</ele><time>2026-04-04T06:53:17.757Z</time></trkpt><trkpt lat="43.1943765" lon="11.7067488"><ele>346.5</ele><time>2026-04-04T06:53:18.757Z</time></trkpt><trkpt lat="43.1944324" lon="11.7066794"><ele>347.3333333333333</ele><time>2026-04-04T06:53:19.757Z</time></trkpt><trkpt lat="43.1945011" lon="11.7066344"><ele>348.16666666666663</ele><time>2026-04-04T06:53:20.757Z</time></trkpt><trkpt lat="43.1945622" lon="11.7065053"><ele>349.0</ele><time>2026-04-04T06:53:22.758Z</time></trkpt><trkpt lat="43.1945885" lon="11.70638"><ele>349.0</ele><time>2026-04-04T06:53:23.758Z</time></trkpt><trkpt lat="43.1946313" lon="11.7062427"><ele>349.0</ele><time>2026-04-04T06:53:24.758Z</time></trkpt><trkpt lat="43.1946828" lon="11.706098"><ele>349.0</ele><time>2026-04-04T06:53:25.758Z</time></trkpt><trkpt lat="43.1947143" lon="11.7059676"><ele>349.0</ele><time>2026-04-04T06:53:26.758Z</time></trkpt><trkpt lat="43.1947228" lon="11.7058565"><ele>349.0</ele><time>2026-04-04T06:53:27.758Z</time></trkpt><trkpt lat="43.1947339" lon="11.7057383"><ele>350.0</ele><time>2026-04-04T06:53:28.758Z</time></trkpt><trkpt lat="43.1947634" lon="11.7056249"><ele>351.0</ele><time>2026-04-04T06:53:29.758Z</time></trkpt><trkpt lat="43.1948082" lon="11.7054989"><ele>352.0</ele><time>2026-04-04T06:53:30.759Z</time></trkpt><trkpt lat="43.1948458" lon="11.7053819"><ele>353.0</ele><time>2026-04-04T06:53:31.758Z</time></trkpt><trkpt lat="43.1948567" lon="11.7052397"><ele>354.0</ele><time>2026-04-04T06:53:32.758Z</time></trkpt><trkpt lat="43.1948275" lon="11.7050816"><ele>354.5</ele><time>2026-04-04T06:53:33.758Z</time></trkpt><trkpt lat="43.1948148" lon="11.7049302"><ele>355.0</ele><time>2026-04-04T06:53:34.758Z</time></trkpt><trkpt lat="43.1948366" lon="11.7048154"><ele>355.5</ele><time>2026-04-04T06:53:35.758Z</time></trkpt><trkpt lat="43.1948653" lon="11.7047182"><ele>356.0</ele><time>2026-04-04T06:53:36.758Z</time></trkpt><trkpt lat="43.1949033" lon="11.7046249"><ele>356.5</ele><time>2026-04-04T06:53:37.758Z</time></trkpt><trkpt lat="43.1949651" lon="11.7045527"><ele>357.0</ele><time>2026-04-04T06:53:38.759Z</time></trkpt><trkpt lat="43.195064" lon="11.704509"><ele>362.75</ele><time>2026-04-04T06:53:39.758Z</time></trkpt><trkpt lat="43.1952079" lon="11.7044981"><ele>368.5</ele><time>2026-04-04T06:53:40.758Z</time></trkpt><trkpt lat="43.195354" lon="11.7045172"><ele>374.25</ele><time>2026-04-04T06:53:41.758Z</time></trkpt><trkpt lat="43.1954589" lon="11.7045437"><ele>380.0</ele><time>2026-04-04T06:53:42.758Z</time></trkpt><trkpt lat="43.1955526" lon="11.7045522"><ele>380.0</ele><time>2026-04-04T06:53:43.758Z</time></trkpt><trkpt lat="43.195651" lon="11.7045239"><ele>380.0</ele><time>2026-04-04T06:53:44.758Z</time></trkpt><trkpt lat="43.1957369" lon="11.7044924"><ele>380.0</ele><time>2026-04-04T06:53:45.758Z</time></trkpt><trkpt lat="43.1958158" lon="11.7044952"><ele>380.0</ele><time>2026-04-04T06:53:46.758Z</time></trkpt><trkpt lat="43.1958933" lon="11.7045152"><ele>380.0</ele><time>2026-04-04T06:53:47.758Z</time></trkpt><trkpt lat="43.1960134" lon="11.7045238"><ele>382.0</ele><time>2026-04-04T06:53:48.758Z</time></trkpt><trkpt lat="43.1961372" lon="11.7045156"><ele>384.0</ele><time>2026-04-04T06:53:49.758Z</time></trkpt><trkpt lat="43.1962492" lon="11.7045102"><ele>386.0</ele><time>2026-04-04T06:53:50.758Z</time></trkpt><trkpt lat="43.1963195" lon="11.7045042"><ele>388.0</ele><time>2026-04-04T06:53:51.758Z</time></trkpt><trkpt lat="43.1964044" lon="11.7044323"><ele>390.0</ele><time>2026-04-04T06:53:53.758Z</time></trkpt><trkpt lat="43.196416" lon="11.7043416"><ele>390.0</ele><time>2026-04-04T06:53:54.758Z</time></trkpt><trkpt lat="43.1964173" lon="11.7042023"><ele>390.0</ele><time>2026-04-04T06:53:55.758Z</time></trkpt><trkpt lat="43.1964221" lon="11.7040729"><ele>390.0</ele><time>2026-04-04T06:53:56.758Z</time></trkpt><trkpt lat="43.1964203" lon="11.7039322"><ele>390.0</ele><time>2026-04-04T06:53:57.759Z</time></trkpt><trkpt lat="43.1964132" lon="11.7037892"><ele>390.0</ele><time>2026-04-04T06:53:58.758Z</time></trkpt><trkpt lat="43.1964172" lon="11.7036245"><ele>390.0</ele><time>2026-04-04T06:53:59.759Z</time></trkpt><trkpt lat="43.1964306" lon="11.7034416"><ele>390.0</ele><time>2026-04-04T06:54:00.759Z</time></trkpt><trkpt lat="43.196458" lon="11.7032815"><ele>390.0</ele><time>2026-04-04T06:54:01.759Z</time></trkpt><trkpt lat="43.196505" lon="11.703124"><ele>390.0</ele><time>2026-04-04T06:54:02.758Z</time></trkpt><trkpt lat="43.1965722" lon="11.7029549"><ele>391.0</ele><time>2026-04-04T06:54:03.758Z</time></trkpt><trkpt lat="43.1966463" lon="11.7027985"><ele>392.0</ele><time>2026-04-04T06:54:04.758Z</time></trkpt><trkpt lat="43.196714" lon="11.7026549"><ele>393.0</ele><time>2026-04-04T06:54:05.758Z</time></trkpt><trkpt lat="43.1967716" lon="11.7025332"><ele>394.0</ele><time>2026-04-04T06:54:06.758Z</time></trkpt><trkpt lat="43.19683" lon="11.7024206"><ele>396.25</ele><time>2026-04-04T06:54:07.758Z</time></trkpt><trkpt lat="43.196907" lon="11.7023235"><ele>398.5</ele><time>2026-04-04T06:54:08.758Z</time></trkpt><trkpt lat="43.1970107" lon="11.7022175"><ele>400.75</ele><time>2026-04-04T06:54:09.758Z</time></trkpt><trkpt lat="43.1971181" lon="11.7021171"><ele>403.0</ele><time>2026-04-04T06:54:10.758Z</time></trkpt><trkpt lat="43.1972052" lon="11.7020177"><ele>405.25</ele><time>2026-04-04T06:54:11.758Z</time></trkpt><trkpt lat="43.1972732" lon="11.7019065"><ele>407.5</ele><time>2026-04-04T06:54:12.758Z</time></trkpt><trkpt lat="43.1973476" lon="11.7017749"><ele>409.75</ele><time>2026-04-04T06:54:13.758Z</time></trkpt><trkpt lat="43.1974241" lon="11.7016478"><ele>412.0</ele><time>2026-04-04T06:54:14.758Z</time></trkpt><trkpt lat="43.1974828" lon="11.7015237"><ele>412.25</ele><time>2026-04-04T06:54:15.758Z</time></trkpt><trkpt lat="43.1975457" lon="11.7014193"><ele>412.5</ele><time>2026-04-04T06:54:16.758Z</time></trkpt><trkpt lat="43.1976273" lon="11.7013066"><ele>412.75</ele><time>2026-04-04T06:54:17.758Z</time></trkpt><trkpt lat="43.1977178" lon="11.7011853"><ele>413.0</ele><time>2026-04-04T06:54:18.758Z</time></trkpt><trkpt lat="43.197812" lon="11.7010865"><ele>413.59999999999997</ele><time>2026-04-04T06:54:19.758Z</time></trkpt><trkpt lat="43.1979058" lon="11.701007"><ele>414.2</ele><time>2026-04-04T06:54:20.758Z</time></trkpt><trkpt lat="43.197988" lon="11.7009534"><ele>414.8</ele><time>2026-04-04T06:54:21.758Z</time></trkpt><trkpt lat="43.1980717" lon="11.7009055"><ele>415.4</ele><time>2026-04-04T06:54:22.758Z</time></trkpt><trkpt lat="43.1981565" lon="11.7008479"><ele>416.0</ele><time>2026-04-04T06:54:23.759Z</time></trkpt><trkpt lat="43.1982367" lon="11.7007758"><ele>416.0</ele><time>2026-04-04T06:54:24.758Z</time></trkpt><trkpt lat="43.1982862" lon="11.7007068"><ele>416.0</ele><time>2026-04-04T06:54:25.758Z</time></trkpt><trkpt lat="43.1983172" lon="11.7005307"><ele>416.0</ele><time>2026-04-04T06:54:27.758Z</time></trkpt><trkpt lat="43.1982674" lon="11.7003821"><ele>416.0</ele><time>2026-04-04T06:54:28.758Z</time></trkpt><trkpt lat="43.1982019" lon="11.7002291"><ele>416.20000000000005</ele><time>2026-04-04T06:54:29.758Z</time></trkpt><trkpt lat="43.1981479" lon="11.7000891"><ele>416.40000000000003</ele><time>2026-04-04T06:54:30.758Z</time></trkpt><trkpt lat="43.1981072" lon="11.6999609"><ele>416.6</ele><time>2026-04-04T06:54:31.758Z</time></trkpt><trkpt lat="43.1981481" lon="11.6998303"><ele>416.8</ele><time>2026-04-04T06:54:33.758Z</time></trkpt><trkpt lat="43.1981994" lon="11.6997764"><ele>417.0</ele><time>2026-04-04T06:54:34.759Z</time></trkpt><trkpt lat="43.198268" lon="11.6997539"><ele>417.0</ele><time>2026-04-04T06:54:35.758Z</time></trkpt><trkpt lat="43.1983418" lon="11.6997421"><ele>417.0</ele><time>2026-04-04T06:54:36.759Z</time></trkpt><trkpt lat="43.198426" lon="11.6997655"><ele>417.0</ele><time>2026-04-04T06:54:37.758Z</time></trkpt><trkpt lat="43.1985262" lon="11.6997978"><ele>417.0</ele><time>2026-04-04T06:54:38.758Z</time></trkpt><trkpt lat="43.1986306" lon="11.6998251"><ele>417.0</ele><time>2026-04-04T06:54:39.758Z</time></trkpt><trkpt lat="43.1987364" lon="11.6998562"><ele>417.0</ele><time>2026-04-04T06:54:40.758Z</time></trkpt><trkpt lat="43.1988403" lon="11.6998883"><ele>417.0</ele><time>2026-04-04T06:54:41.758Z</time></trkpt><trkpt lat="43.1989486" lon="11.699917"><ele>417.0</ele><time>2026-04-04T06:54:42.758Z</time></trkpt><trkpt lat="43.1990572" lon="11.6999578"><ele>417.0</ele><time>2026-04-04T06:54:43.759Z</time></trkpt><trkpt lat="43.19915" lon="11.7000116"><ele>417.0</ele><time>2026-04-04T06:54:44.758Z</time></trkpt><trkpt lat="43.1992302" lon="11.7000644"><ele>416.5</ele><time>2026-04-04T06:54:45.758Z</time></trkpt><trkpt lat="43.1993103" lon="11.7001157"><ele>416.0</ele><time>2026-04-04T06:54:46.758Z</time></trkpt><trkpt lat="43.1993827" lon="11.7001692"><ele>415.5</ele><time>2026-04-04T06:54:47.758Z</time></trkpt><trkpt lat="43.199452" lon="11.7002178"><ele>415.0</ele><time>2026-04-04T06:54:48.758Z</time></trkpt><trkpt lat="43.199519" lon="11.700261"><ele>414.5</ele><time>2026-04-04T06:54:49.759Z</time></trkpt><trkpt lat="43.1996114" lon="11.7003472"><ele>414.0</ele><time>2026-04-04T06:54:51.758Z</time></trkpt><trkpt lat="43.199677" lon="11.7004154"><ele>414.0</ele><time>2026-04-04T06:54:53.758Z</time></trkpt><trkpt lat="43.1997532" lon="11.7005184"><ele>414.0</ele><time>2026-04-04T06:56:40.758Z</time></trkpt><trkpt lat="43.1997825" lon="11.7005991"><ele>414.0</ele><time>2026-04-04T06:56:41.758Z</time></trkpt><trkpt lat="43.1997983" lon="11.7007073"><ele>414.0</ele><time>2026-04-04T06:56:42.758Z</time></trkpt><trkpt lat="43.1998125" lon="11.700834"><ele>414.0</ele><time>2026-04-04T06:56:43.758Z</time></trkpt><trkpt lat="43.1998254" lon="11.7009585"><ele>414.0</ele><time>2026-04-04T06:56:44.759Z</time></trkpt><trkpt lat="43.1998435" lon="11.7010772"><ele>412.2</ele><time>2026-04-04T06:56:45.758Z</time></trkpt><trkpt lat="43.199863" lon="11.7011718"><ele>410.4</ele><time>2026-04-04T06:56:46.758Z</time></trkpt><trkpt lat="43.1999434" lon="11.7012999"><ele>408.6</ele><time>2026-04-04T06:56:48.758Z</time></trkpt><trkpt lat="43.2000119" lon="11.7013346"><ele>406.8</ele><time>2026-04-04T06:56:49.759Z</time></trkpt><trkpt lat="43.2001088" lon="11.7013585"><ele>405.0</ele><time>2026-04-04T06:56:50.758Z</time></trkpt><trkpt lat="43.2002115" lon="11.7013911"><ele>405.0</ele><time>2026-04-04T06:56:51.758Z</time></trkpt><trkpt lat="43.2003048" lon="11.7014387"><ele>405.0</ele><time>2026-04-04T06:56:52.758Z</time></trkpt><trkpt lat="43.2003832" lon="11.7015029"><ele>405.0</ele><time>2026-04-04T06:56:53.759Z</time></trkpt><trkpt lat="43.2004506" lon="11.7015757"><ele>405.0</ele><time>2026-04-04T06:56:54.758Z</time></trkpt><trkpt lat="43.200514" lon="11.7016522"><ele>405.0</ele><time>2026-04-04T06:56:55.758Z</time></trkpt><trkpt lat="43.2005649" lon="11.7017325"><ele>405.0</ele><time>2026-04-04T06:56:56.758Z</time></trkpt><trkpt lat="43.200623" lon="11.7018236"><ele>404.3333333333333</ele><time>2026-04-04T06:56:57.758Z</time></trkpt><trkpt lat="43.2006766" lon="11.7019028"><ele>403.66666666666663</ele><time>2026-04-04T06:56:58.758Z</time></trkpt><trkpt lat="43.2007394" lon="11.7019686"><ele>403.0</ele><time>2026-04-04T06:56:59.758Z</time></trkpt><trkpt lat="43.2008068" lon="11.7020186"><ele>402.3333333333333</ele><time>2026-04-04T06:57:00.758Z</time></trkpt><trkpt lat="43.2008824" lon="11.7020469"><ele>401.66666666666663</ele><time>2026-04-04T06:57:01.758Z</time></trkpt><trkpt lat="43.2009766" lon="11.702064"><ele>401.0</ele><time>2026-04-04T06:57:02.758Z</time></trkpt><trkpt lat="43.2010678" lon="11.7020546"><ele>401.0</ele><time>2026-04-04T06:57:03.758Z</time></trkpt><trkpt lat="43.2011528" lon="11.7019668"><ele>401.0</ele><time>2026-04-04T06:57:04.758Z</time></trkpt><trkpt lat="43.2012344" lon="11.7018256"><ele>401.0</ele><time>2026-04-04T06:57:05.758Z</time></trkpt><trkpt lat="43.2013061" lon="11.7016889"><ele>401.0</ele><time>2026-04-04T06:57:06.759Z</time></trkpt><trkpt lat="43.2013709" lon="11.7015556"><ele>401.0</ele><time>2026-04-04T06:57:07.759Z</time></trkpt><trkpt lat="43.2014393" lon="11.7014392"><ele>401.0</ele><time>2026-04-04T06:57:08.759Z</time></trkpt><trkpt lat="43.2015233" lon="11.7013332"><ele>401.0</ele><time>2026-04-04T06:57:09.758Z</time></trkpt><trkpt lat="43.2015933" lon="11.7012113"><ele>401.0</ele><time>2026-04-04T06:57:10.758Z</time></trkpt><trkpt lat="43.2016558" lon="11.7010796"><ele>400.75</ele><time>2026-04-04T06:57:11.758Z</time></trkpt><trkpt lat="43.201698" lon="11.70095"><ele>400.5</ele><time>2026-04-04T06:57:12.758Z</time></trkpt><trkpt lat="43.2017248" lon="11.7008064"><ele>400.25</ele><time>2026-04-04T06:57:13.758Z</time></trkpt><trkpt lat="43.2017221" lon="11.7006366"><ele>400.0</ele><time>2026-04-04T06:57:14.758Z</time></trkpt><trkpt lat="43.201706" lon="11.7004499"><ele>400.0</ele><time>2026-04-04T06:57:15.758Z</time></trkpt><trkpt lat="43.2016891" lon="11.7002739"><ele>400.0</ele><time>2026-04-04T06:57:16.758Z</time></trkpt><trkpt lat="43.2016806" lon="11.7001046"><ele>400.0</ele><time>2026-04-04T06:57:17.758Z</time></trkpt><trkpt lat="43.2016819" lon="11.6999318"><ele>400.0</ele><time>2026-04-04T06:57:18.758Z</time></trkpt><trkpt lat="43.2016964" lon="11.699765"><ele>400.6</ele><time>2026-04-04T06:57:19.758Z</time></trkpt><trkpt lat="43.2017139" lon="11.6996054"><ele>401.2</ele><time>2026-04-04T06:57:20.758Z</time></trkpt><trkpt lat="43.2017333" lon="11.6994423"><ele>401.79999999999995</ele><time>2026-04-04T06:57:21.758Z</time></trkpt><trkpt lat="43.2017603" lon="11.6993019"><ele>402.4</ele><time>2026-04-04T06:57:22.758Z</time></trkpt><trkpt lat="43.2017804" lon="11.6991768"><ele>403.0</ele><time>2026-04-04T06:57:23.758Z</time></trkpt><trkpt lat="43.2017974" lon="11.6990643"><ele>403.33333333333337</ele><time>2026-04-04T06:57:24.759Z</time></trkpt><trkpt lat="43.2018706" lon="11.6990092"><ele>403.6666666666667</ele><time>2026-04-04T06:57:26.758Z</time></trkpt><trkpt lat="43.201942" lon="11.6990113"><ele>404.0</ele><time>2026-04-04T06:57:27.758Z</time></trkpt><trkpt lat="43.2020205" lon="11.6990842"><ele>404.33333333333337</ele><time>2026-04-04T06:57:28.758Z</time></trkpt><trkpt lat="43.2020966" lon="11.699149"><ele>404.6666666666667</ele><time>2026-04-04T06:57:29.758Z</time></trkpt><trkpt lat="43.2021661" lon="11.69919"><ele>405.0</ele><time>2026-04-04T06:57:30.758Z</time></trkpt><trkpt lat="43.2022352" lon="11.6992405"><ele>405.0</ele><time>2026-04-04T06:57:31.758Z</time></trkpt><trkpt lat="43.2023067" lon="11.6993163"><ele>405.0</ele><time>2026-04-04T06:57:32.758Z</time></trkpt><trkpt lat="43.2023766" lon="11.69939"><ele>405.0</ele><time>2026-04-04T06:57:33.758Z</time></trkpt><trkpt lat="43.202458" lon="11.6994601"><ele>405.0</ele><time>2026-04-04T06:57:34.758Z</time></trkpt><trkpt lat="43.2025333" lon="11.6995617"><ele>405.0</ele><time>2026-04-04T06:57:35.758Z</time></trkpt><trkpt lat="43.2026139" lon="11.6996804"><ele>406.8</ele><time>2026-04-04T06:57:36.758Z</time></trkpt><trkpt lat="43.2027016" lon="11.6997873"><ele>408.6</ele><time>2026-04-04T06:57:37.758Z</time></trkpt><trkpt lat="43.2027916" lon="11.6998704"><ele>410.4</ele><time>2026-04-04T06:57:38.758Z</time></trkpt><trkpt lat="43.2028754" lon="11.6998748"><ele>412.2</ele><time>2026-04-04T06:57:39.759Z</time></trkpt><trkpt lat="43.2029704" lon="11.6998362"><ele>414.0</ele><time>2026-04-04T06:57:40.758Z</time></trkpt><trkpt lat="43.2030461" lon="11.6997769"><ele>414.0</ele><time>2026-04-04T06:57:41.758Z</time></trkpt><trkpt lat="43.203152" lon="11.6997045"><ele>414.0</ele><time>2026-04-04T06:57:43.758Z</time></trkpt><trkpt lat="43.2032189" lon="11.6996801"><ele>414.0</ele><time>2026-04-04T06:57:44.758Z</time></trkpt><trkpt lat="43.2032909" lon="11.6996469"><ele>414.0</ele><time>2026-04-04T06:57:45.758Z</time></trkpt><trkpt lat="43.2033642" lon="11.6996183"><ele>414.0</ele><time>2026-04-04T06:57:46.758Z</time></trkpt><trkpt lat="43.2034481" lon="11.6995759"><ele>414.0</ele><time>2026-04-04T06:57:47.759Z</time></trkpt><trkpt lat="43.2035248" lon="11.699555"><ele>416.0</ele><time>2026-04-04T06:57:48.758Z</time></trkpt><trkpt lat="43.203639" lon="11.6996013"><ele>418.0</ele><time>2026-04-04T06:57:50.758Z</time></trkpt><trkpt lat="43.2037212" lon="11.699639"><ele>420.0</ele><time>2026-04-04T06:57:51.758Z</time></trkpt><trkpt lat="43.2038048" lon="11.6996472"><ele>422.0</ele><time>2026-04-04T06:57:52.758Z</time></trkpt><trkpt lat="43.2038724" lon="11.6996298"><ele>424.0</ele><time>2026-04-04T06:57:53.758Z</time></trkpt><trkpt lat="43.2039442" lon="11.6994831"><ele>423.50000000000006</ele><time>2026-04-04T06:57:55.758Z</time></trkpt><trkpt lat="43.2040094" lon="11.699417"><ele>423.0</ele><time>2026-04-04T06:57:56.759Z</time></trkpt><trkpt lat="43.2041067" lon="11.6993929"><ele>422.5</ele><time>2026-04-04T06:57:57.759Z</time></trkpt><trkpt lat="43.204194" lon="11.6993971"><ele>422.0</ele><time>2026-04-04T06:57:58.759Z</time></trkpt><trkpt lat="43.204262" lon="11.6993825"><ele>421.50000000000006</ele><time>2026-04-04T06:57:59.758Z</time></trkpt><trkpt lat="43.2043173" lon="11.6992798"><ele>421.0</ele><time>2026-04-04T06:58:00.758Z</time></trkpt><trkpt lat="43.2043649" lon="11.6991442"><ele>421.0</ele><time>2026-04-04T06:58:01.758Z</time></trkpt><trkpt lat="43.2044181" lon="11.6990297"><ele>421.0</ele><time>2026-04-04T06:58:02.758Z</time></trkpt><trkpt lat="43.2044749" lon="11.6989367"><ele>421.0</ele><time>2026-04-04T06:58:03.758Z</time></trkpt><trkpt lat="43.204529" lon="11.6988688"><ele>421.0</ele><time>2026-04-04T06:58:04.758Z</time></trkpt><trkpt lat="43.2046158" lon="11.698795"><ele>421.0</ele><time>2026-04-04T06:58:06.758Z</time></trkpt><trkpt lat="43.2046205" lon="11.6986676"><ele>419.4</ele><time>2026-04-04T06:58:09.759Z</time></trkpt><trkpt lat="43.2046094" lon="11.6985265"><ele>417.8</ele><time>2026-04-04T06:58:11.758Z</time></trkpt><trkpt lat="43.2046361" lon="11.6983883"><ele>416.2</ele><time>2026-04-04T06:58:13.759Z</time></trkpt><trkpt lat="43.2045478" lon="11.6983988"><ele>414.59999999999997</ele><time>2026-04-04T06:58:15.758Z</time></trkpt><trkpt lat="43.2044429" lon="11.698413"><ele>413.0</ele><time>2026-04-04T06:58:17.758Z</time></trkpt><trkpt lat="43.2043741" lon="11.6982954"><ele>413.0</ele><time>2026-04-04T06:58:19.758Z</time></trkpt><trkpt lat="43.2043551" lon="11.6982022"><ele>413.0</ele><time>2026-04-04T06:58:20.758Z</time></trkpt><trkpt lat="43.2043322" lon="11.6980451"><ele>413.0</ele><time>2026-04-04T06:58:22.758Z</time></trkpt><trkpt lat="43.2042656" lon="11.6979138"><ele>413.0</ele><time>2026-04-04T06:58:24.758Z</time></trkpt><trkpt lat="43.2041882" lon="11.6978075"><ele>413.0</ele><time>2026-04-04T06:58:26.758Z</time></trkpt><trkpt lat="43.2041188" lon="11.6977211"><ele>410.8333333333333</ele><time>2026-04-04T06:58:28.758Z</time></trkpt><trkpt lat="43.2040456" lon="11.6976621"><ele>408.66666666666663</ele><time>2026-04-04T06:58:30.758Z</time></trkpt><trkpt lat="43.2039851" lon="11.6976024"><ele>406.5</ele><time>2026-04-04T06:58:32.758Z</time></trkpt><trkpt lat="43.2039376" lon="11.6975119"><ele>404.33333333333337</ele><time>2026-04-04T06:58:34.758Z</time></trkpt><trkpt lat="43.2038693" lon="11.6974433"><ele>402.1666666666667</ele><time>2026-04-04T06:58:36.759Z</time></trkpt><trkpt lat="43.2038081" lon="11.6973775"><ele>400.0</ele><time>2026-04-04T06:58:38.758Z</time></trkpt><trkpt lat="43.2037774" lon="11.6972625"><ele>398.33333333333337</ele><time>2026-04-04T06:58:41.758Z</time></trkpt><trkpt lat="43.2037614" lon="11.6971785"><ele>396.6666666666667</ele><time>2026-04-04T06:58:43.758Z</time></trkpt><trkpt lat="43.2037158" lon="11.6971037"><ele>395.0</ele><time>2026-04-04T06:58:46.758Z</time></trkpt><trkpt lat="43.2036886" lon="11.6969824"><ele>393.33333333333337</ele><time>2026-04-04T06:58:49.758Z</time></trkpt><trkpt lat="43.2035994" lon="11.696962"><ele>391.6666666666667</ele><time>2026-04-04T06:58:53.759Z</time></trkpt><trkpt lat="43.203544" lon="11.6970259"><ele>390.0</ele><time>2026-04-04T06:58:54.758Z</time></trkpt><trkpt lat="43.2034571" lon="11.69709"><ele>390.0</ele><time>2026-04-04T06:58:56.758Z</time></trkpt><trkpt lat="43.2033944" lon="11.6971893"><ele>390.0</ele><time>2026-04-04T06:58:58.758Z</time></trkpt><trkpt lat="43.2032999" lon="11.6972558"><ele>390.0</ele><time>2026-04-04T06:59:00.758Z</time></trkpt><trkpt lat="43.2031922" lon="11.6972685"><ele>390.0</ele><time>2026-04-04T06:59:02.759Z</time></trkpt><trkpt lat="43.2031363" lon="11.6972199"><ele>390.0</ele><time>2026-04-04T06:59:05.758Z</time></trkpt><trkpt lat="43.2030409" lon="11.6971039"><ele>389.6</ele><time>2026-04-04T06:59:17.758Z</time></trkpt><trkpt lat="43.2029521" lon="11.6969804"><ele>389.2</ele><time>2026-04-04T06:59:19.759Z</time></trkpt><trkpt lat="43.2028742" lon="11.6968453"><ele>388.79999999999995</ele><time>2026-04-04T06:59:21.759Z</time></trkpt><trkpt lat="43.202854" lon="11.6966884"><ele>388.4</ele><time>2026-04-04T06:59:23.759Z</time></trkpt><trkpt lat="43.2028755" lon="11.6966067"><ele>388.0</ele><time>2026-04-04T06:59:24.759Z</time></trkpt><trkpt lat="43.2029353" lon="11.6964657"><ele>387.2</ele><time>2026-04-04T06:59:26.759Z</time></trkpt><trkpt lat="43.2029615" lon="11.6963806"><ele>386.4</ele><time>2026-04-04T06:59:27.759Z</time></trkpt><trkpt lat="43.202964" lon="11.6962866"><ele>385.59999999999997</ele><time>2026-04-04T06:59:28.759Z</time></trkpt><trkpt lat="43.2029785" lon="11.6961454"><ele>384.79999999999995</ele><time>2026-04-04T06:59:30.759Z</time></trkpt><trkpt lat="43.203041" lon="11.69601"><ele>384.0</ele><time>2026-04-04T06:59:32.759Z</time></trkpt><trkpt lat="43.2031289" lon="11.6958913"><ele>386.1666666666667</ele><time>2026-04-04T06:59:34.76Z</time></trkpt><trkpt lat="43.2032413" lon="11.6958068"><ele>388.33333333333337</ele><time>2026-04-04T06:59:36.759Z</time></trkpt><trkpt lat="43.2033044" lon="11.6957514"><ele>390.5</ele><time>2026-04-04T06:59:37.76Z</time></trkpt><trkpt lat="43.2033476" lon="11.6956851"><ele>392.6666666666667</ele><time>2026-04-04T06:59:38.759Z</time></trkpt><trkpt lat="43.2033927" lon="11.6955947"><ele>394.83333333333337</ele><time>2026-04-04T06:59:39.759Z</time></trkpt><trkpt lat="43.2034282" lon="11.6955023"><ele>397.0</ele><time>2026-04-04T06:59:40.759Z</time></trkpt><trkpt lat="43.2034646" lon="11.6953992"><ele>397.00000000000006</ele><time>2026-04-04T06:59:41.759Z</time></trkpt><trkpt lat="43.2035188" lon="11.6953094"><ele>397.0</ele><time>2026-04-04T06:59:43.759Z</time></trkpt><trkpt lat="43.203611" lon="11.6952593"><ele>397.0</ele><time>2026-04-04T06:59:45.759Z</time></trkpt><trkpt lat="43.203678" lon="11.6952382"><ele>397.0</ele><time>2026-04-04T06:59:46.759Z</time></trkpt><trkpt lat="43.2037373" lon="11.6952029"><ele>397.00000000000006</ele><time>2026-04-04T06:59:47.759Z</time></trkpt><trkpt lat="43.2037935" lon="11.6951485"><ele>397.0</ele><time>2026-04-04T06:59:48.759Z</time></trkpt><trkpt lat="43.2038934" lon="11.6951249"><ele>398.0</ele><time>2026-04-04T06:59:50.759Z</time></trkpt><trkpt lat="43.2039827" lon="11.6951638"><ele>399.0</ele><time>2026-04-04T06:59:52.76Z</time></trkpt><trkpt lat="43.2040741" lon="11.695191"><ele>400.0</ele><time>2026-04-04T06:59:54.759Z</time></trkpt><trkpt lat="43.2041707" lon="11.6951118"><ele>401.0</ele><time>2026-04-04T06:59:56.759Z</time></trkpt><trkpt lat="43.2042338" lon="11.6950768"><ele>402.0</ele><time>2026-04-04T06:59:57.759Z</time></trkpt><trkpt lat="43.2043158" lon="11.695086"><ele>405.0</ele><time>2026-04-04T06:59:58.759Z</time></trkpt><trkpt lat="43.2044006" lon="11.6950884"><ele>408.0</ele><time>2026-04-04T06:59:59.76Z</time></trkpt><trkpt lat="43.2044725" lon="11.6950793"><ele>411.0</ele><time>2026-04-04T07:00:00.759Z</time></trkpt><trkpt lat="43.2045938" lon="11.6950305"><ele>414.0</ele><time>2026-04-04T07:00:02.76Z</time></trkpt><trkpt lat="43.2046543" lon="11.6949866"><ele>417.0</ele><time>2026-04-04T07:00:03.759Z</time></trkpt><trkpt lat="43.2047126" lon="11.6949289"><ele>420.0</ele><time>2026-04-04T07:00:04.759Z</time></trkpt><trkpt lat="43.204774" lon="11.6948215"><ele>420.0</ele><time>2026-04-04T07:00:06.759Z</time></trkpt><trkpt lat="43.2047868" lon="11.6947222"><ele>420.0</ele><time>2026-04-04T07:00:08.759Z</time></trkpt><trkpt lat="43.2048321" lon="11.6945461"><ele>420.0</ele><time>2026-04-04T07:00:10.759Z</time></trkpt><trkpt lat="43.2048698" lon="11.6944331"><ele>420.0</ele><time>2026-04-04T07:00:11.759Z</time></trkpt><trkpt lat="43.2049237" lon="11.6943233"><ele>420.0</ele><time>2026-04-04T07:00:12.759Z</time></trkpt><trkpt lat="43.2049824" lon="11.6942251"><ele>424.0</ele><time>2026-04-04T07:00:13.759Z</time></trkpt><trkpt lat="43.2050438" lon="11.6941425"><ele>428.0</ele><time>2026-04-04T07:00:14.76Z</time></trkpt><trkpt lat="43.2050918" lon="11.6940818"><ele>432.0</ele><time>2026-04-04T07:00:15.759Z</time></trkpt><trkpt lat="43.2051981" lon="11.6940312"><ele>436.0</ele><time>2026-04-04T07:00:17.76Z</time></trkpt><trkpt lat="43.2052668" lon="11.6940731"><ele>440.0</ele><time>2026-04-04T07:00:18.759Z</time></trkpt><trkpt lat="43.2053268" lon="11.6941202"><ele>444.0</ele><time>2026-04-04T07:00:19.759Z</time></trkpt><trkpt lat="43.2054292" lon="11.6941628"><ele>444.0</ele><time>2026-04-04T07:00:21.759Z</time></trkpt><trkpt lat="43.2054945" lon="11.6940773"><ele>444.0</ele><time>2026-04-04T07:00:23.759Z</time></trkpt><trkpt lat="43.2055961" lon="11.6938848"><ele>444.0</ele><time>2026-04-04T07:00:25.759Z</time></trkpt><trkpt lat="43.2056811" lon="11.6937723"><ele>444.0</ele><time>2026-04-04T07:00:26.759Z</time></trkpt><trkpt lat="43.205776" lon="11.6936812"><ele>448.2</ele><time>2026-04-04T07:00:27.759Z</time></trkpt><trkpt lat="43.2058636" lon="11.6936252"><ele>452.4</ele><time>2026-04-04T07:00:28.759Z</time></trkpt><trkpt lat="43.2059594" lon="11.693598"><ele>456.6</ele><time>2026-04-04T07:00:29.759Z</time></trkpt><trkpt lat="43.2060768" lon="11.693601"><ele>460.8</ele><time>2026-04-04T07:00:30.759Z</time></trkpt><trkpt lat="43.2061858" lon="11.6936206"><ele>465.0</ele><time>2026-04-04T07:00:31.759Z</time></trkpt><trkpt lat="43.2062909" lon="11.6936416"><ele>465.0</ele><time>2026-04-04T07:00:32.759Z</time></trkpt><trkpt lat="43.2063793" lon="11.6936808"><ele>465.0</ele><time>2026-04-04T07:00:33.759Z</time></trkpt><trkpt lat="43.2064717" lon="11.6937373"><ele>465.0</ele><time>2026-04-04T07:00:34.759Z</time></trkpt><trkpt lat="43.2065676" lon="11.6937959"><ele>465.0</ele><time>2026-04-04T07:00:35.759Z</time></trkpt><trkpt lat="43.2066677" lon="11.6938493"><ele>465.0</ele><time>2026-04-04T07:00:36.759Z</time></trkpt><trkpt lat="43.2067662" lon="11.693845"><ele>465.8</ele><time>2026-04-04T07:00:37.759Z</time></trkpt><trkpt lat="43.2068643" lon="11.6937944"><ele>466.6</ele><time>2026-04-04T07:00:38.759Z</time></trkpt><trkpt lat="43.2069388" lon="11.6936908"><ele>467.4</ele><time>2026-04-04T07:00:39.76Z</time></trkpt><trkpt lat="43.2069846" lon="11.6935843"><ele>468.2</ele><time>2026-04-04T07:00:40.759Z</time></trkpt><trkpt lat="43.2070353" lon="11.6934829"><ele>469.0</ele><time>2026-04-04T07:00:41.759Z</time></trkpt><trkpt lat="43.2070844" lon="11.6933801"><ele>469.00000000000006</ele><time>2026-04-04T07:00:42.759Z</time></trkpt><trkpt lat="43.2071265" lon="11.6932786"><ele>469.0</ele><time>2026-04-04T07:00:43.759Z</time></trkpt><trkpt lat="43.2071643" lon="11.6931894"><ele>469.0</ele><time>2026-04-04T07:00:44.759Z</time></trkpt><trkpt lat="43.207202" lon="11.6931012"><ele>469.0</ele><time>2026-04-04T07:00:45.759Z</time></trkpt><trkpt lat="43.2072441" lon="11.6930008"><ele>469.00000000000006</ele><time>2026-04-04T07:00:46.759Z</time></trkpt><trkpt lat="43.2072933" lon="11.6929096"><ele>469.0</ele><time>2026-04-04T07:00:47.76Z</time></trkpt><trkpt lat="43.2073492" lon="11.6928309"><ele>470.0</ele><time>2026-04-04T07:00:48.759Z</time></trkpt><trkpt lat="43.2074155" lon="11.6927595"><ele>471.0</ele><time>2026-04-04T07:00:49.759Z</time></trkpt><trkpt lat="43.2075138" lon="11.6926913"><ele>472.0</ele><time>2026-04-04T07:00:50.759Z</time></trkpt><trkpt lat="43.2076124" lon="11.6926364"><ele>473.0</ele><time>2026-04-04T07:00:51.759Z</time></trkpt><trkpt lat="43.2076861" lon="11.6925936"><ele>474.0</ele><time>2026-04-04T07:00:52.759Z</time></trkpt><trkpt lat="43.2077451" lon="11.6925279"><ele>474.0</ele><time>2026-04-04T07:00:54.759Z</time></trkpt><trkpt lat="43.2077473" lon="11.6923954"><ele>474.0</ele><time>2026-04-04T07:01:10.759Z</time></trkpt><trkpt lat="43.2077598" lon="11.6922291"><ele>474.0</ele><time>2026-04-04T07:01:12.759Z</time></trkpt><trkpt lat="43.2077723" lon="11.6921285"><ele>474.0</ele><time>2026-04-04T07:01:13.759Z</time></trkpt><trkpt lat="43.2077938" lon="11.692026"><ele>474.0</ele><time>2026-04-04T07:01:14.759Z</time></trkpt><trkpt lat="43.2078327" lon="11.6919144"><ele>474.6</ele><time>2026-04-04T07:01:15.759Z</time></trkpt><trkpt lat="43.2078762" lon="11.6917955"><ele>475.2</ele><time>2026-04-04T07:01:16.759Z</time></trkpt><trkpt lat="43.2079035" lon="11.6916657"><ele>475.80000000000007</ele><time>2026-04-04T07:01:17.759Z</time></trkpt><trkpt lat="43.2079215" lon="11.6915252"><ele>476.40000000000003</ele><time>2026-04-04T07:01:18.759Z</time></trkpt><trkpt lat="43.2079353" lon="11.6913886"><ele>477.0</ele><time>2026-04-04T07:01:19.759Z</time></trkpt><trkpt lat="43.2079526" lon="11.691269"><ele>477.0</ele><time>2026-04-04T07:01:20.759Z</time></trkpt><trkpt lat="43.2079723" lon="11.6911519"><ele>477.0</ele><time>2026-04-04T07:01:21.759Z</time></trkpt><trkpt lat="43.2080035" lon="11.6910431"><ele>477.0</ele><time>2026-04-04T07:01:22.759Z</time></trkpt><trkpt lat="43.2080431" lon="11.6909254"><ele>477.0</ele><time>2026-04-04T07:01:23.759Z</time></trkpt><trkpt lat="43.2080807" lon="11.6908117"><ele>477.0</ele><time>2026-04-04T07:01:24.759Z</time></trkpt><trkpt lat="43.2081235" lon="11.6907046"><ele>477.0</ele><time>2026-04-04T07:01:25.759Z</time></trkpt><trkpt lat="43.2081749" lon="11.6906029"><ele>477.0</ele><time>2026-04-04T07:01:26.759Z</time></trkpt><trkpt lat="43.2082247" lon="11.6904998"><ele>477.0</ele><time>2026-04-04T07:01:27.759Z</time></trkpt><trkpt lat="43.2082646" lon="11.6904028"><ele>477.0</ele><time>2026-04-04T07:01:28.759Z</time></trkpt><trkpt lat="43.2082923" lon="11.6903234"><ele>477.0</ele><time>2026-04-04T07:01:29.759Z</time></trkpt><trkpt lat="43.2083348" lon="11.6902507"><ele>477.0</ele><time>2026-04-04T07:01:30.759Z</time></trkpt><trkpt lat="43.2083917" lon="11.6901953"><ele>477.0</ele><time>2026-04-04T07:01:31.76Z</time></trkpt><trkpt lat="43.2084604" lon="11.6901456"><ele>477.0</ele><time>2026-04-04T07:01:32.76Z</time></trkpt><trkpt lat="43.2085347" lon="11.6900961"><ele>477.0</ele><time>2026-04-04T07:01:33.759Z</time></trkpt><trkpt lat="43.2086147" lon="11.6900474"><ele>477.0</ele><time>2026-04-04T07:01:34.759Z</time></trkpt><trkpt lat="43.2086989" lon="11.6899869"><ele>477.0</ele><time>2026-04-04T07:01:35.759Z</time></trkpt><trkpt lat="43.208775" lon="11.6899343"><ele>477.0</ele><time>2026-04-04T07:01:36.759Z</time></trkpt><trkpt lat="43.2088419" lon="11.6898829"><ele>477.0</ele><time>2026-04-04T07:01:37.759Z</time></trkpt><trkpt lat="43.2089024" lon="11.6898252"><ele>477.0</ele><time>2026-04-04T07:01:38.759Z</time></trkpt><trkpt lat="43.2089534" lon="11.6896887"><ele>477.00000000000006</ele><time>2026-04-04T07:01:40.759Z</time></trkpt><trkpt lat="43.2089342" lon="11.689598"><ele>477.00000000000006</ele><time>2026-04-04T07:01:41.759Z</time></trkpt><trkpt lat="43.2088965" lon="11.6895203"><ele>477.0</ele><time>2026-04-04T07:01:42.759Z</time></trkpt><trkpt lat="43.2088143" lon="11.6894519"><ele>477.0</ele><time>2026-04-04T07:01:43.759Z</time></trkpt><trkpt lat="43.2087164" lon="11.6893659"><ele>473.75</ele><time>2026-04-04T07:01:44.759Z</time></trkpt><trkpt lat="43.2086081" lon="11.6892683"><ele>470.5</ele><time>2026-04-04T07:01:45.76Z</time></trkpt><trkpt lat="43.2084965" lon="11.6891628"><ele>467.25</ele><time>2026-04-04T07:01:46.759Z</time></trkpt><trkpt lat="43.2083926" lon="11.6890733"><ele>464.0</ele><time>2026-04-04T07:01:47.759Z</time></trkpt><trkpt lat="43.2082961" lon="11.6890034"><ele>464.0</ele><time>2026-04-04T07:01:48.759Z</time></trkpt><trkpt lat="43.2082105" lon="11.6889316"><ele>464.0</ele><time>2026-04-04T07:01:49.759Z</time></trkpt><trkpt lat="43.2081242" lon="11.6888527"><ele>464.0</ele><time>2026-04-04T07:01:50.759Z</time></trkpt><trkpt lat="43.2080465" lon="11.6887506"><ele>464.0</ele><time>2026-04-04T07:01:51.76Z</time></trkpt><trkpt lat="43.2079628" lon="11.6886397"><ele>464.0</ele><time>2026-04-04T07:01:52.759Z</time></trkpt><trkpt lat="43.2078842" lon="11.6885283"><ele>462.79999999999995</ele><time>2026-04-04T07:01:53.759Z</time></trkpt><trkpt lat="43.2077989" lon="11.6884321"><ele>461.59999999999997</ele><time>2026-04-04T07:01:54.759Z</time></trkpt><trkpt lat="43.2077077" lon="11.6883439"><ele>460.4</ele><time>2026-04-04T07:01:55.759Z</time></trkpt><trkpt lat="43.2076163" lon="11.6882596"><ele>459.2</ele><time>2026-04-04T07:01:56.759Z</time></trkpt><trkpt lat="43.2075512" lon="11.6881639"><ele>458.0</ele><time>2026-04-04T07:01:57.759Z</time></trkpt><trkpt lat="43.2075145" lon="11.6880533"><ele>458.0</ele><time>2026-04-04T07:01:58.759Z</time></trkpt><trkpt lat="43.2075112" lon="11.6879316"><ele>457.99999999999994</ele><time>2026-04-04T07:01:59.759Z</time></trkpt><trkpt lat="43.2075353" lon="11.6877874"><ele>457.99999999999994</ele><time>2026-04-04T07:02:00.759Z</time></trkpt><trkpt lat="43.2075607" lon="11.68763"><ele>458.0</ele><time>2026-04-04T07:02:01.759Z</time></trkpt><trkpt lat="43.2075771" lon="11.6874773"><ele>458.0</ele><time>2026-04-04T07:02:02.759Z</time></trkpt><trkpt lat="43.2075843" lon="11.6873148"><ele>458.0</ele><time>2026-04-04T07:02:03.759Z</time></trkpt><trkpt lat="43.2075855" lon="11.687152"><ele>457.99999999999994</ele><time>2026-04-04T07:02:04.759Z</time></trkpt><trkpt lat="43.2075862" lon="11.6870013"><ele>457.99999999999994</ele><time>2026-04-04T07:02:05.759Z</time></trkpt><trkpt lat="43.2076197" lon="11.6868689"><ele>458.0</ele><time>2026-04-04T07:02:06.759Z</time></trkpt><trkpt lat="43.2076634" lon="11.6867613"><ele>458.0</ele><time>2026-04-04T07:02:07.759Z</time></trkpt><trkpt lat="43.2077189" lon="11.6866582"><ele>458.0</ele><time>2026-04-04T07:02:08.759Z</time></trkpt><trkpt lat="43.2077832" lon="11.6865523"><ele>457.99999999999994</ele><time>2026-04-04T07:02:09.759Z</time></trkpt><trkpt lat="43.2078647" lon="11.6864526"><ele>457.99999999999994</ele><time>2026-04-04T07:02:10.759Z</time></trkpt><trkpt lat="43.2079355" lon="11.6863432"><ele>458.0</ele><time>2026-04-04T07:02:11.759Z</time></trkpt><trkpt lat="43.2080025" lon="11.6862323"><ele>458.0</ele><time>2026-04-04T07:02:12.759Z</time></trkpt><trkpt lat="43.2080547" lon="11.6861102"><ele>457.0</ele><time>2026-04-04T07:02:13.759Z</time></trkpt><trkpt lat="43.2081008" lon="11.6859787"><ele>455.99999999999994</ele><time>2026-04-04T07:02:14.759Z</time></trkpt><trkpt lat="43.20815" lon="11.6858409"><ele>454.99999999999994</ele><time>2026-04-04T07:02:15.759Z</time></trkpt><trkpt lat="43.2082015" lon="11.6857126"><ele>454.0</ele><time>2026-04-04T07:02:16.76Z</time></trkpt><trkpt lat="43.208267" lon="11.6855846"><ele>453.0</ele><time>2026-04-04T07:02:17.759Z</time></trkpt><trkpt lat="43.2083252" lon="11.6854618"><ele>453.0</ele><time>2026-04-04T07:02:18.759Z</time></trkpt><trkpt lat="43.2083848" lon="11.6853317"><ele>452.99999999999994</ele><time>2026-04-04T07:02:19.759Z</time></trkpt><trkpt lat="43.2084316" lon="11.6851903"><ele>452.99999999999994</ele><time>2026-04-04T07:02:20.759Z</time></trkpt><trkpt lat="43.2084679" lon="11.6850438"><ele>453.0</ele><time>2026-04-04T07:02:21.759Z</time></trkpt><trkpt lat="43.2085124" lon="11.6849133"><ele>453.0</ele><time>2026-04-04T07:02:22.759Z</time></trkpt><trkpt lat="43.2085489" lon="11.6847941"><ele>452.59999999999997</ele><time>2026-04-04T07:02:23.759Z</time></trkpt><trkpt lat="43.2085951" lon="11.6846825"><ele>452.19999999999993</ele><time>2026-04-04T07:02:24.759Z</time></trkpt><trkpt lat="43.2086536" lon="11.6846252"><ele>451.8</ele><time>2026-04-04T07:02:25.759Z</time></trkpt><trkpt lat="43.2087482" lon="11.6845925"><ele>451.4</ele><time>2026-04-04T07:02:26.759Z</time></trkpt><trkpt lat="43.2088694" lon="11.6845664"><ele>451.0</ele><time>2026-04-04T07:02:27.759Z</time></trkpt><trkpt lat="43.2090091" lon="11.68455"><ele>448.25</ele><time>2026-04-04T07:02:28.759Z</time></trkpt><trkpt lat="43.2091578" lon="11.6845209"><ele>445.5</ele><time>2026-04-04T07:02:29.759Z</time></trkpt><trkpt lat="43.2092926" lon="11.6845082"><ele>442.75</ele><time>2026-04-04T07:02:30.759Z</time></trkpt><trkpt lat="43.2094206" lon="11.684505"><ele>440.0</ele><time>2026-04-04T07:02:31.759Z</time></trkpt><trkpt lat="43.2095439" lon="11.6845063"><ele>440.0</ele><time>2026-04-04T07:02:32.759Z</time></trkpt><trkpt lat="43.2096582" lon="11.6844896"><ele>440.0</ele><time>2026-04-04T07:02:33.759Z</time></trkpt><trkpt lat="43.2097575" lon="11.6844716"><ele>440.0</ele><time>2026-04-04T07:02:34.759Z</time></trkpt><trkpt lat="43.2098475" lon="11.6844528"><ele>440.0</ele><time>2026-04-04T07:02:35.759Z</time></trkpt><trkpt lat="43.2099332" lon="11.6844096"><ele>440.0</ele><time>2026-04-04T07:02:37.759Z</time></trkpt><trkpt lat="43.2099643" lon="11.6843279"><ele>441.49999999999994</ele><time>2026-04-04T07:02:40.759Z</time></trkpt><trkpt lat="43.2099905" lon="11.6842491"><ele>443.0</ele><time>2026-04-04T07:02:41.759Z</time></trkpt><trkpt lat="43.2100206" lon="11.6841239"><ele>444.5</ele><time>2026-04-04T07:02:43.759Z</time></trkpt><trkpt lat="43.2100551" lon="11.6840479"><ele>446.0</ele><time>2026-04-04T07:02:45.759Z</time></trkpt><trkpt lat="43.2101283" lon="11.6840084"><ele>447.49999999999994</ele><time>2026-04-04T07:02:47.759Z</time></trkpt><trkpt lat="43.2102506" lon="11.6839514"><ele>449.0</ele><time>2026-04-04T07:02:49.759Z</time></trkpt><trkpt lat="43.2103346" lon="11.6839459"><ele>449.0</ele><time>2026-04-04T07:02:50.759Z</time></trkpt><trkpt lat="43.2104109" lon="11.6839564"><ele>449.0</ele><time>2026-04-04T07:02:51.759Z</time></trkpt><trkpt lat="43.210501" lon="11.6839488"><ele>449.0</ele><time>2026-04-04T07:02:52.759Z</time></trkpt><trkpt lat="43.2106077" lon="11.6839108"><ele>449.0</ele><time>2026-04-04T07:02:53.76Z</time></trkpt><trkpt lat="43.2107303" lon="11.6838173"><ele>449.0</ele><time>2026-04-04T07:02:54.759Z</time></trkpt><trkpt lat="43.2108546" lon="11.6837263"><ele>449.4</ele><time>2026-04-04T07:02:55.759Z</time></trkpt><trkpt lat="43.2109787" lon="11.6836482"><ele>449.79999999999995</ele><time>2026-04-04T07:02:56.759Z</time></trkpt><trkpt lat="43.2110851" lon="11.6835861"><ele>450.20000000000005</ele><time>2026-04-04T07:02:57.759Z</time></trkpt><trkpt lat="43.2111646" lon="11.6835193"><ele>450.6</ele><time>2026-04-04T07:02:58.759Z</time></trkpt><trkpt lat="43.2112454" lon="11.6834329"><ele>451.0</ele><time>2026-04-04T07:02:59.759Z</time></trkpt><trkpt lat="43.2113254" lon="11.6833103"><ele>452.0</ele><time>2026-04-04T07:03:00.76Z</time></trkpt><trkpt lat="43.2114161" lon="11.6831737"><ele>453.0</ele><time>2026-04-04T07:03:01.759Z</time></trkpt><trkpt lat="43.2115077" lon="11.6830436"><ele>454.0</ele><time>2026-04-04T07:03:02.759Z</time></trkpt><trkpt lat="43.2115977" lon="11.6829361"><ele>455.0</ele><time>2026-04-04T07:03:03.759Z</time></trkpt><trkpt lat="43.2117054" lon="11.682823"><ele>456.6</ele><time>2026-04-04T07:03:04.759Z</time></trkpt><trkpt lat="43.2118112" lon="11.6826991"><ele>458.2</ele><time>2026-04-04T07:03:05.759Z</time></trkpt><trkpt lat="43.2118988" lon="11.6826049"><ele>459.79999999999995</ele><time>2026-04-04T07:03:06.759Z</time></trkpt><trkpt lat="43.211973" lon="11.6825307"><ele>461.4</ele><time>2026-04-04T07:03:07.759Z</time></trkpt><trkpt lat="43.2120336" lon="11.6824726"><ele>463.0</ele><time>2026-04-04T07:03:08.759Z</time></trkpt><trkpt lat="43.2121129" lon="11.6824474"><ele>463.0</ele><time>2026-04-04T07:03:09.759Z</time></trkpt><trkpt lat="43.212204" lon="11.6824589"><ele>462.99999999999994</ele><time>2026-04-04T07:03:10.759Z</time></trkpt><trkpt lat="43.2122928" lon="11.6824821"><ele>462.99999999999994</ele><time>2026-04-04T07:03:11.759Z</time></trkpt><trkpt lat="43.2123797" lon="11.6824632"><ele>463.0</ele><time>2026-04-04T07:03:12.759Z</time></trkpt><trkpt lat="43.2124734" lon="11.6824205"><ele>463.0</ele><time>2026-04-04T07:03:13.759Z</time></trkpt><trkpt lat="43.2125694" lon="11.6824044"><ele>462.33333333333337</ele><time>2026-04-04T07:03:14.759Z</time></trkpt><trkpt lat="43.2126697" lon="11.6823568"><ele>461.6666666666667</ele><time>2026-04-04T07:03:15.759Z</time></trkpt><trkpt lat="43.2127538" lon="11.6823008"><ele>461.0</ele><time>2026-04-04T07:03:16.759Z</time></trkpt><trkpt lat="43.2128073" lon="11.682253"><ele>460.33333333333337</ele><time>2026-04-04T07:03:17.759Z</time></trkpt><trkpt lat="43.2128781" lon="11.6822559"><ele>459.6666666666667</ele><time>2026-04-04T07:03:19.759Z</time></trkpt><trkpt lat="43.2129129" lon="11.6823392"><ele>459.0</ele><time>2026-04-04T07:03:20.759Z</time></trkpt><trkpt lat="43.2129506" lon="11.6824247"><ele>459.0</ele><time>2026-04-04T07:03:21.759Z</time></trkpt><trkpt lat="43.2129997" lon="11.6824868"><ele>459.0</ele><time>2026-04-04T07:03:22.759Z</time></trkpt><trkpt lat="43.2130788" lon="11.6825606"><ele>459.0</ele><time>2026-04-04T07:03:24.759Z</time></trkpt><trkpt lat="43.2131414" lon="11.6825965"><ele>459.0</ele><time>2026-04-04T07:03:27.759Z</time></trkpt><trkpt lat="43.2131945" lon="11.68267"><ele>459.0</ele><time>2026-04-04T07:03:36.76Z</time></trkpt><trkpt lat="43.2132476" lon="11.6827284"><ele>459.0</ele><time>2026-04-04T07:03:38.759Z</time></trkpt><trkpt lat="43.2133267" lon="11.6828113"><ele>461.0</ele><time>2026-04-04T07:03:40.759Z</time></trkpt><trkpt lat="43.2133997" lon="11.6828865"><ele>463.0</ele><time>2026-04-04T07:03:42.759Z</time></trkpt><trkpt lat="43.2134517" lon="11.6829432"><ele>465.0</ele><time>2026-04-04T07:03:43.759Z</time></trkpt><trkpt lat="43.2135213" lon="11.6830673"><ele>467.0</ele><time>2026-04-04T07:03:45.759Z</time></trkpt><trkpt lat="43.2135198" lon="11.6832339"><ele>469.0</ele><time>2026-04-04T07:03:47.759Z</time></trkpt><trkpt lat="43.2136203" lon="11.6833655"><ele>469.0</ele><time>2026-04-04T07:03:49.759Z</time></trkpt><trkpt lat="43.2136918" lon="11.683436"><ele>469.0</ele><time>2026-04-04T07:03:50.759Z</time></trkpt><trkpt lat="43.21376" lon="11.6835404"><ele>469.0</ele><time>2026-04-04T07:03:51.759Z</time></trkpt><trkpt lat="43.2138365" lon="11.6836522"><ele>469.0</ele><time>2026-04-04T07:03:52.759Z</time></trkpt><trkpt lat="43.2139086" lon="11.6837793"><ele>469.0</ele><time>2026-04-04T07:03:53.759Z</time></trkpt><trkpt lat="43.2139764" lon="11.6838991"><ele>471.00000000000006</ele><time>2026-04-04T07:03:54.759Z</time></trkpt><trkpt lat="43.214032" lon="11.6840089"><ele>473.0</ele><time>2026-04-04T07:03:55.759Z</time></trkpt><trkpt lat="43.2140834" lon="11.6840973"><ele>475.0</ele><time>2026-04-04T07:03:56.76Z</time></trkpt><trkpt lat="43.2141748" lon="11.6841699"><ele>477.0</ele><time>2026-04-04T07:03:58.759Z</time></trkpt><trkpt lat="43.2142437" lon="11.6841851"><ele>479.00000000000006</ele><time>2026-04-04T07:04:00.76Z</time></trkpt><trkpt lat="43.2142838" lon="11.6842563"><ele>481.0</ele><time>2026-04-04T07:04:11.759Z</time></trkpt><trkpt lat="43.2143395" lon="11.68433"><ele>481.00000000000006</ele><time>2026-04-04T07:04:22.759Z</time></trkpt><trkpt lat="43.2143993" lon="11.6843882"><ele>481.0</ele><time>2026-04-04T07:04:23.759Z</time></trkpt><trkpt lat="43.2144628" lon="11.6844578"><ele>481.0</ele><time>2026-04-04T07:04:24.759Z</time></trkpt><trkpt lat="43.2145252" lon="11.6845201"><ele>481.0</ele><time>2026-04-04T07:04:25.759Z</time></trkpt><trkpt lat="43.2146006" lon="11.6845915"><ele>481.00000000000006</ele><time>2026-04-04T07:04:26.759Z</time></trkpt><trkpt lat="43.2146856" lon="11.6846706"><ele>481.0</ele><time>2026-04-04T07:04:27.759Z</time></trkpt><trkpt lat="43.2147788" lon="11.6847549"><ele>482.8</ele><time>2026-04-04T07:04:28.759Z</time></trkpt><trkpt lat="43.214876" lon="11.6848504"><ele>484.6</ele><time>2026-04-04T07:04:29.759Z</time></trkpt><trkpt lat="43.2149739" lon="11.684941"><ele>486.4</ele><time>2026-04-04T07:04:30.759Z</time></trkpt><trkpt lat="43.2150663" lon="11.6850164"><ele>488.2</ele><time>2026-04-04T07:04:31.759Z</time></trkpt><trkpt lat="43.215151" lon="11.6850981"><ele>490.0</ele><time>2026-04-04T07:04:32.759Z</time></trkpt><trkpt lat="43.2152368" lon="11.6851758"><ele>490.0</ele><time>2026-04-04T07:04:33.76Z</time></trkpt><trkpt lat="43.2153266" lon="11.6852504"><ele>490.0</ele><time>2026-04-04T07:04:34.759Z</time></trkpt><trkpt lat="43.2154163" lon="11.6853344"><ele>490.0</ele><time>2026-04-04T07:04:35.759Z</time></trkpt><trkpt lat="43.2155102" lon="11.6854201"><ele>490.0</ele><time>2026-04-04T07:04:36.759Z</time></trkpt><trkpt lat="43.2156079" lon="11.6855074"><ele>490.0</ele><time>2026-04-04T07:04:37.759Z</time></trkpt><trkpt lat="43.2157055" lon="11.685588"><ele>491.5</ele><time>2026-04-04T07:04:38.759Z</time></trkpt><trkpt lat="43.2158084" lon="11.6856704"><ele>493.0</ele><time>2026-04-04T07:04:39.759Z</time></trkpt><trkpt lat="43.2159231" lon="11.6857404"><ele>494.5</ele><time>2026-04-04T07:04:40.759Z</time></trkpt><trkpt lat="43.216038" lon="11.6858031"><ele>496.0</ele><time>2026-04-04T07:04:41.759Z</time></trkpt><trkpt lat="43.216162" lon="11.685863"><ele>496.0</ele><time>2026-04-04T07:04:42.759Z</time></trkpt><trkpt lat="43.2162892" lon="11.6859201"><ele>496.0</ele><time>2026-04-04T07:04:43.759Z</time></trkpt><trkpt lat="43.2164176" lon="11.6859698"><ele>496.0</ele><time>2026-04-04T07:04:44.76Z</time></trkpt><trkpt lat="43.2165426" lon="11.6860221"><ele>496.0</ele><time>2026-04-04T07:04:45.759Z</time></trkpt><trkpt lat="43.2166633" lon="11.6860734"><ele>498.0</ele><time>2026-04-04T07:04:46.759Z</time></trkpt><trkpt lat="43.2167823" lon="11.6861235"><ele>500.0</ele><time>2026-04-04T07:04:47.759Z</time></trkpt><trkpt lat="43.216895" lon="11.6861721"><ele>502.0</ele><time>2026-04-04T07:04:48.759Z</time></trkpt><trkpt lat="43.2170075" lon="11.6862144"><ele>504.0</ele><time>2026-04-04T07:04:49.76Z</time></trkpt><trkpt lat="43.2171093" lon="11.6862546"><ele>504.0</ele><time>2026-04-04T07:04:50.759Z</time></trkpt><trkpt lat="43.2172091" lon="11.6862926"><ele>504.0</ele><time>2026-04-04T07:04:51.759Z</time></trkpt><trkpt lat="43.2173001" lon="11.6863301"><ele>504.0</ele><time>2026-04-04T07:04:52.759Z</time></trkpt><trkpt lat="43.2173836" lon="11.6863762"><ele>504.0</ele><time>2026-04-04T07:04:53.76Z</time></trkpt><trkpt lat="43.2174575" lon="11.6864377"><ele>504.0</ele><time>2026-04-04T07:04:54.759Z</time></trkpt><trkpt lat="43.2175318" lon="11.6864888"><ele>502.0</ele><time>2026-04-04T07:04:55.759Z</time></trkpt><trkpt lat="43.2176372" lon="11.6864691"><ele>500.0</ele><time>2026-04-04T07:04:56.759Z</time></trkpt><trkpt lat="43.2177574" lon="11.6864237"><ele>498.0</ele><time>2026-04-04T07:04:57.759Z</time></trkpt><trkpt lat="43.2178788" lon="11.686357"><ele>496.0</ele><time>2026-04-04T07:04:58.76Z</time></trkpt><trkpt lat="43.2180013" lon="11.6862812"><ele>496.0</ele><time>2026-04-04T07:04:59.759Z</time></trkpt><trkpt lat="43.2181235" lon="11.6862125"><ele>496.0</ele><time>2026-04-04T07:05:00.759Z</time></trkpt><trkpt lat="43.2182303" lon="11.6861606"><ele>496.0</ele><time>2026-04-04T07:05:01.759Z</time></trkpt><trkpt lat="43.218342" lon="11.6861061"><ele>496.0</ele><time>2026-04-04T07:05:02.759Z</time></trkpt><trkpt lat="43.2184625" lon="11.6860437"><ele>494.6666666666667</ele><time>2026-04-04T07:05:03.759Z</time></trkpt><trkpt lat="43.2185974" lon="11.6859782"><ele>493.33333333333337</ele><time>2026-04-04T07:05:04.76Z</time></trkpt><trkpt lat="43.2187447" lon="11.6859211"><ele>492.0</ele><time>2026-04-04T07:05:05.76Z</time></trkpt><trkpt lat="43.2188957" lon="11.6858655"><ele>493.5</ele><time>2026-04-04T07:05:06.761Z</time></trkpt><trkpt lat="43.2190406" lon="11.6858037"><ele>495.0</ele><time>2026-04-04T07:05:07.76Z</time></trkpt><trkpt lat="43.2191765" lon="11.6857418"><ele>496.5</ele><time>2026-04-04T07:05:08.76Z</time></trkpt><trkpt lat="43.2193032" lon="11.6856759"><ele>498.0</ele><time>2026-04-04T07:05:09.761Z</time></trkpt><trkpt lat="43.2194316" lon="11.6855935"><ele>498.0</ele><time>2026-04-04T07:05:10.76Z</time></trkpt><trkpt lat="43.2195637" lon="11.6855"><ele>498.0</ele><time>2026-04-04T07:05:11.76Z</time></trkpt><trkpt lat="43.2196977" lon="11.6854055"><ele>498.0</ele><time>2026-04-04T07:05:12.76Z</time></trkpt><trkpt lat="43.2198238" lon="11.6853144"><ele>498.0</ele><time>2026-04-04T07:05:13.76Z</time></trkpt><trkpt lat="43.2199443" lon="11.6852358"><ele>499.25</ele><time>2026-04-04T07:05:14.76Z</time></trkpt><trkpt lat="43.2200723" lon="11.6851656"><ele>500.5</ele><time>2026-04-04T07:05:15.76Z</time></trkpt><trkpt lat="43.220214" lon="11.6850991"><ele>501.75</ele><time>2026-04-04T07:05:16.76Z</time></trkpt><trkpt lat="43.2203678" lon="11.6850451"><ele>503.0</ele><time>2026-04-04T07:05:17.76Z</time></trkpt><trkpt lat="43.2205325" lon="11.6849966"><ele>503.66666666666663</ele><time>2026-04-04T07:05:18.76Z</time></trkpt><trkpt lat="43.2207046" lon="11.6849415"><ele>504.33333333333337</ele><time>2026-04-04T07:05:19.76Z</time></trkpt><trkpt lat="43.2208806" lon="11.6848819"><ele>505.0</ele><time>2026-04-04T07:05:20.76Z</time></trkpt><trkpt lat="43.2210559" lon="11.6848216"><ele>505.0</ele><time>2026-04-04T07:05:21.76Z</time></trkpt><trkpt lat="43.2212317" lon="11.6847592"><ele>505.0</ele><time>2026-04-04T07:05:22.76Z</time></trkpt><trkpt lat="43.2214085" lon="11.684692"><ele>505.0</ele><time>2026-04-04T07:05:23.76Z</time></trkpt><trkpt lat="43.2215805" lon="11.68462"><ele>505.33333333333337</ele><time>2026-04-04T07:05:24.76Z</time></trkpt><trkpt lat="43.2217511" lon="11.684547"><ele>505.66666666666663</ele><time>2026-04-04T07:05:25.76Z</time></trkpt><trkpt lat="43.2219218" lon="11.6844791"><ele>506.0</ele><time>2026-04-04T07:05:26.76Z</time></trkpt><trkpt lat="43.2220887" lon="11.6844155"><ele>506.0</ele><time>2026-04-04T07:05:27.76Z</time></trkpt><trkpt lat="43.2222617" lon="11.6843646"><ele>506.0</ele><time>2026-04-04T07:05:28.76Z</time></trkpt><trkpt lat="43.2224297" lon="11.684348"><ele>506.0</ele><time>2026-04-04T07:05:29.76Z</time></trkpt><trkpt lat="43.2226034" lon="11.6843348"><ele>507.3333333333333</ele><time>2026-04-04T07:05:30.76Z</time></trkpt><trkpt lat="43.2227714" lon="11.6843322"><ele>508.66666666666663</ele><time>2026-04-04T07:05:31.761Z</time></trkpt><trkpt lat="43.2229323" lon="11.6843319"><ele>510.0</ele><time>2026-04-04T07:05:32.76Z</time></trkpt><trkpt lat="43.2230896" lon="11.6843317"><ele>510.0</ele><time>2026-04-04T07:05:33.76Z</time></trkpt><trkpt lat="43.2232496" lon="11.68433"><ele>510.0</ele><time>2026-04-04T07:05:34.76Z</time></trkpt><trkpt lat="43.2234108" lon="11.68433"><ele>510.0</ele><time>2026-04-04T07:05:35.76Z</time></trkpt><trkpt lat="43.2235762" lon="11.6843258"><ele>510.0</ele><time>2026-04-04T07:05:36.76Z</time></trkpt><trkpt lat="43.2237448" lon="11.6842975"><ele>510.0</ele><time>2026-04-04T07:05:37.76Z</time></trkpt><trkpt lat="43.2239195" lon="11.6842641"><ele>510.0</ele><time>2026-04-04T07:05:38.76Z</time></trkpt><trkpt lat="43.2240899" lon="11.6842159"><ele>511.33333333333337</ele><time>2026-04-04T07:05:39.761Z</time></trkpt><trkpt lat="43.2242546" lon="11.6841763"><ele>512.6666666666667</ele><time>2026-04-04T07:05:40.76Z</time></trkpt><trkpt lat="43.2244208" lon="11.6841637"><ele>514.0</ele><time>2026-04-04T07:05:41.761Z</time></trkpt><trkpt lat="43.2245741" lon="11.6841678"><ele>514.0</ele><time>2026-04-04T07:05:42.76Z</time></trkpt><trkpt lat="43.2247335" lon="11.6841664"><ele>514.0</ele><time>2026-04-04T07:05:43.76Z</time></trkpt><trkpt lat="43.2248997" lon="11.6841321"><ele>514.0</ele><time>2026-04-04T07:05:44.76Z</time></trkpt><trkpt lat="43.2250487" lon="11.6840649"><ele>515.3333333333334</ele><time>2026-04-04T07:05:45.761Z</time></trkpt><trkpt lat="43.2251916" lon="11.6839668"><ele>516.6666666666666</ele><time>2026-04-04T07:05:46.76Z</time></trkpt><trkpt lat="43.2253268" lon="11.6838595"><ele>518.0</ele><time>2026-04-04T07:05:47.761Z</time></trkpt><trkpt lat="43.2254577" lon="11.6837535"><ele>518.0</ele><time>2026-04-04T07:05:48.76Z</time></trkpt><trkpt lat="43.2255832" lon="11.683659"><ele>518.0</ele><time>2026-04-04T07:05:49.76Z</time></trkpt><trkpt lat="43.225683" lon="11.6835661"><ele>518.0</ele><time>2026-04-04T07:05:50.76Z</time></trkpt><trkpt lat="43.2257522" lon="11.6834398"><ele>518.0</ele><time>2026-04-04T07:05:51.76Z</time></trkpt><trkpt lat="43.2257895" lon="11.6833034"><ele>518.1999999999999</ele><time>2026-04-04T07:05:52.76Z</time></trkpt><trkpt lat="43.2257999" lon="11.6831505"><ele>518.4</ele><time>2026-04-04T07:05:53.76Z</time></trkpt><trkpt lat="43.2258192" lon="11.6830246"><ele>518.5999999999999</ele><time>2026-04-04T07:05:54.761Z</time></trkpt><trkpt lat="43.2258624" lon="11.6829163"><ele>518.8</ele><time>2026-04-04T07:05:55.76Z</time></trkpt><trkpt lat="43.2259421" lon="11.682821"><ele>519.0</ele><time>2026-04-04T07:05:56.76Z</time></trkpt><trkpt lat="43.2260349" lon="11.6827457"><ele>519.0</ele><time>2026-04-04T07:05:57.76Z</time></trkpt><trkpt lat="43.2261315" lon="11.6826747"><ele>519.0</ele><time>2026-04-04T07:05:58.76Z</time></trkpt><trkpt lat="43.2262212" lon="11.6826044"><ele>519.0</ele><time>2026-04-04T07:05:59.76Z</time></trkpt><trkpt lat="43.226314" lon="11.6825429"><ele>519.0</ele><time>2026-04-04T07:06:00.76Z</time></trkpt><trkpt lat="43.2264042" lon="11.682487"><ele>519.0</ele><time>2026-04-04T07:06:01.76Z</time></trkpt><trkpt lat="43.2264972" lon="11.6824662"><ele>520.0</ele><time>2026-04-04T07:06:02.76Z</time></trkpt><trkpt lat="43.2266094" lon="11.6824603"><ele>521.0</ele><time>2026-04-04T07:06:03.76Z</time></trkpt><trkpt lat="43.2267221" lon="11.682466"><ele>522.0</ele><time>2026-04-04T07:06:04.761Z</time></trkpt><trkpt lat="43.2268412" lon="11.6824805"><ele>523.0</ele><time>2026-04-04T07:06:05.76Z</time></trkpt><trkpt lat="43.2269613" lon="11.6824593"><ele>523.0</ele><time>2026-04-04T07:06:06.76Z</time></trkpt><trkpt lat="43.2270784" lon="11.6823896"><ele>523.0</ele><time>2026-04-04T07:06:07.76Z</time></trkpt><trkpt lat="43.2272045" lon="11.68228"><ele>523.0</ele><time>2026-04-04T07:06:08.76Z</time></trkpt><trkpt lat="43.2273262" lon="11.6821701"><ele>523.0</ele><time>2026-04-04T07:06:09.761Z</time></trkpt><trkpt lat="43.2274517" lon="11.6820775"><ele>523.25</ele><time>2026-04-04T07:06:10.76Z</time></trkpt><trkpt lat="43.2275841" lon="11.6820057"><ele>523.5</ele><time>2026-04-04T07:06:11.76Z</time></trkpt><trkpt lat="43.2277302" lon="11.6819362"><ele>523.75</ele><time>2026-04-04T07:06:12.76Z</time></trkpt><trkpt lat="43.2278655" lon="11.681861"><ele>524.0</ele><time>2026-04-04T07:06:13.76Z</time></trkpt><trkpt lat="43.2280002" lon="11.6817871"><ele>523.5</ele><time>2026-04-04T07:06:14.76Z</time></trkpt><trkpt lat="43.2281326" lon="11.6817184"><ele>523.0</ele><time>2026-04-04T07:06:15.761Z</time></trkpt><trkpt lat="43.2282587" lon="11.6816503"><ele>522.5</ele><time>2026-04-04T07:06:16.76Z</time></trkpt><trkpt lat="43.2283798" lon="11.6815845"><ele>522.0</ele><time>2026-04-04T07:06:17.761Z</time></trkpt><trkpt lat="43.2284875" lon="11.6815292"><ele>523.0</ele><time>2026-04-04T07:06:18.76Z</time></trkpt><trkpt lat="43.2285903" lon="11.6814756"><ele>524.0</ele><time>2026-04-04T07:06:19.76Z</time></trkpt><trkpt lat="43.2286939" lon="11.6814211"><ele>525.0</ele><time>2026-04-04T07:06:20.76Z</time></trkpt><trkpt lat="43.2288052" lon="11.6813591"><ele>526.0</ele><time>2026-04-04T07:06:21.76Z</time></trkpt><trkpt lat="43.2289254" lon="11.6813024"><ele>525.25</ele><time>2026-04-04T07:06:22.76Z</time></trkpt><trkpt lat="43.2290658" lon="11.6812525"><ele>524.5</ele><time>2026-04-04T07:06:23.76Z</time></trkpt><trkpt lat="43.2292103" lon="11.6812136"><ele>523.75</ele><time>2026-04-04T07:06:24.76Z</time></trkpt><trkpt lat="43.2293617" lon="11.6811771"><ele>523.0</ele><time>2026-04-04T07:06:25.76Z</time></trkpt><trkpt lat="43.2295163" lon="11.6811446"><ele>523.0</ele><time>2026-04-04T07:06:26.76Z</time></trkpt><trkpt lat="43.2296766" lon="11.6811116"><ele>523.0</ele><time>2026-04-04T07:06:27.76Z</time></trkpt><trkpt lat="43.2298445" lon="11.6810824"><ele>523.0</ele><time>2026-04-04T07:06:28.761Z</time></trkpt><trkpt lat="43.2300205" lon="11.6810479"><ele>524.0</ele><time>2026-04-04T07:06:29.76Z</time></trkpt><trkpt lat="43.2301989" lon="11.6810125"><ele>525.0</ele><time>2026-04-04T07:06:30.76Z</time></trkpt><trkpt lat="43.23038" lon="11.6809872"><ele>526.0</ele><time>2026-04-04T07:06:31.76Z</time></trkpt><trkpt lat="43.2305651" lon="11.6809703"><ele>527.0</ele><time>2026-04-04T07:06:32.76Z</time></trkpt><trkpt lat="43.2307472" lon="11.6809723"><ele>528.0</ele><time>2026-04-04T07:06:33.76Z</time></trkpt><trkpt lat="43.2309256" lon="11.6809908"><ele>529.0</ele><time>2026-04-04T07:06:34.76Z</time></trkpt><trkpt lat="43.2311008" lon="11.6810072"><ele>529.0</ele><time>2026-04-04T07:06:35.76Z</time></trkpt><trkpt lat="43.2312679" lon="11.6810219"><ele>529.0</ele><time>2026-04-04T07:06:36.761Z</time></trkpt><trkpt lat="43.2314248" lon="11.6810384"><ele>529.0</ele><time>2026-04-04T07:06:37.76Z</time></trkpt><trkpt lat="43.231568" lon="11.6810577"><ele>530.0</ele><time>2026-04-04T07:06:38.76Z</time></trkpt><trkpt lat="43.2317159" lon="11.6810752"><ele>531.0</ele><time>2026-04-04T07:06:39.76Z</time></trkpt><trkpt lat="43.2318729" lon="11.6810941"><ele>532.0</ele><time>2026-04-04T07:06:40.76Z</time></trkpt><trkpt lat="43.2320352" lon="11.681096"><ele>532.0</ele><time>2026-04-04T07:06:41.76Z</time></trkpt><trkpt lat="43.2322034" lon="11.681084"><ele>532.0</ele><time>2026-04-04T07:06:42.76Z</time></trkpt><trkpt lat="43.2323796" lon="11.6810688"><ele>532.0</ele><time>2026-04-04T07:06:43.76Z</time></trkpt><trkpt lat="43.232555" lon="11.6810621"><ele>533.0</ele><time>2026-04-04T07:06:44.76Z</time></trkpt><trkpt lat="43.2327274" lon="11.6810596"><ele>534.0</ele><time>2026-04-04T07:06:45.76Z</time></trkpt><trkpt lat="43.2328917" lon="11.6810416"><ele>535.0</ele><time>2026-04-04T07:06:46.761Z</time></trkpt><trkpt lat="43.2330397" lon="11.681004"><ele>536.25</ele><time>2026-04-04T07:06:47.761Z</time></trkpt><trkpt lat="43.2331771" lon="11.6809612"><ele>537.5</ele><time>2026-04-04T07:06:48.761Z</time></trkpt><trkpt lat="43.2333083" lon="11.6809115"><ele>538.75</ele><time>2026-04-04T07:06:49.761Z</time></trkpt><trkpt lat="43.2334413" lon="11.6808345"><ele>540.0</ele><time>2026-04-04T07:06:50.76Z</time></trkpt><trkpt lat="43.2335867" lon="11.6807361"><ele>540.0</ele><time>2026-04-04T07:06:51.76Z</time></trkpt><trkpt lat="43.2337139" lon="11.6806275"><ele>540.0</ele><time>2026-04-04T07:06:52.76Z</time></trkpt><trkpt lat="43.2338216" lon="11.6805159"><ele>540.0</ele><time>2026-04-04T07:06:53.76Z</time></trkpt><trkpt lat="43.2339272" lon="11.6803979"><ele>540.0</ele><time>2026-04-04T07:06:54.76Z</time></trkpt><trkpt lat="43.2340324" lon="11.6802972"><ele>540.25</ele><time>2026-04-04T07:06:55.761Z</time></trkpt><trkpt lat="43.2341509" lon="11.6802112"><ele>540.5</ele><time>2026-04-04T07:06:56.76Z</time></trkpt><trkpt lat="43.2342932" lon="11.6801608"><ele>540.75</ele><time>2026-04-04T07:06:57.76Z</time></trkpt><trkpt lat="43.234452" lon="11.6801262"><ele>541.0</ele><time>2026-04-04T07:06:58.76Z</time></trkpt><trkpt lat="43.2346144" lon="11.6801061"><ele>541.0</ele><time>2026-04-04T07:06:59.76Z</time></trkpt><trkpt lat="43.2347662" lon="11.6800977"><ele>541.0</ele><time>2026-04-04T07:07:00.76Z</time></trkpt><trkpt lat="43.2349083" lon="11.6800947"><ele>541.0</ele><time>2026-04-04T07:07:01.76Z</time></trkpt><trkpt lat="43.2350457" lon="11.6800807"><ele>541.0</ele><time>2026-04-04T07:07:02.76Z</time></trkpt><trkpt lat="43.235195" lon="11.6800617"><ele>541.25</ele><time>2026-04-04T07:07:03.761Z</time></trkpt><trkpt lat="43.2353363" lon="11.6800408"><ele>541.5</ele><time>2026-04-04T07:07:04.76Z</time></trkpt><trkpt lat="43.2354666" lon="11.6800242"><ele>541.75</ele><time>2026-04-04T07:07:05.761Z</time></trkpt><trkpt lat="43.2355911" lon="11.680005"><ele>542.0</ele><time>2026-04-04T07:07:06.76Z</time></trkpt><trkpt lat="43.2357095" lon="11.6799807"><ele>542.0</ele><time>2026-04-04T07:07:07.76Z</time></trkpt><trkpt lat="43.2358363" lon="11.6799361"><ele>542.0</ele><time>2026-04-04T07:07:08.76Z</time></trkpt><trkpt lat="43.2359806" lon="11.6798761"><ele>542.0</ele><time>2026-04-04T07:07:09.76Z</time></trkpt><trkpt lat="43.2361345" lon="11.6798067"><ele>542.0</ele><time>2026-04-04T07:07:10.76Z</time></trkpt><trkpt lat="43.2362982" lon="11.6797294"><ele>542.0</ele><time>2026-04-04T07:07:11.76Z</time></trkpt><trkpt lat="43.2364609" lon="11.6796569"><ele>542.0</ele><time>2026-04-04T07:07:12.76Z</time></trkpt><trkpt lat="43.2366092" lon="11.6795886"><ele>542.0</ele><time>2026-04-04T07:07:13.76Z</time></trkpt><trkpt lat="43.2367467" lon="11.6795227"><ele>541.5</ele><time>2026-04-04T07:07:14.76Z</time></trkpt><trkpt lat="43.2368784" lon="11.6794588"><ele>541.0</ele><time>2026-04-04T07:07:15.76Z</time></trkpt><trkpt lat="43.2370074" lon="11.6793962"><ele>540.5</ele><time>2026-04-04T07:07:16.76Z</time></trkpt><trkpt lat="43.2371297" lon="11.6793401"><ele>540.0</ele><time>2026-04-04T07:07:17.76Z</time></trkpt><trkpt lat="43.2372491" lon="11.6792916"><ele>539.25</ele><time>2026-04-04T07:07:18.76Z</time></trkpt><trkpt lat="43.2373651" lon="11.6792504"><ele>538.5</ele><time>2026-04-04T07:07:19.76Z</time></trkpt><trkpt lat="43.2374861" lon="11.6792435"><ele>537.75</ele><time>2026-04-04T07:07:20.76Z</time></trkpt><trkpt lat="43.2376101" lon="11.6792767"><ele>537.0</ele><time>2026-04-04T07:07:21.76Z</time></trkpt><trkpt lat="43.2377285" lon="11.6793405"><ele>537.0</ele><time>2026-04-04T07:07:22.76Z</time></trkpt><trkpt lat="43.237842" lon="11.6794207"><ele>537.0</ele><time>2026-04-04T07:07:23.76Z</time></trkpt><trkpt lat="43.2379478" lon="11.679516"><ele>537.0</ele><time>2026-04-04T07:07:24.76Z</time></trkpt><trkpt lat="43.2380348" lon="11.6796363"><ele>537.0</ele><time>2026-04-04T07:07:25.76Z</time></trkpt><trkpt lat="43.2381251" lon="11.679775"><ele>535.3333333333334</ele><time>2026-04-04T07:07:26.76Z</time></trkpt><trkpt lat="43.2382132" lon="11.6799192"><ele>533.6666666666667</ele><time>2026-04-04T07:07:27.76Z</time></trkpt><trkpt lat="43.2383145" lon="11.6800847"><ele>532.0</ele><time>2026-04-04T07:07:28.76Z</time></trkpt><trkpt lat="43.2384231" lon="11.6802547"><ele>530.0</ele><time>2026-04-04T07:07:29.76Z</time></trkpt><trkpt lat="43.2385293" lon="11.6804265"><ele>528.0</ele><time>2026-04-04T07:07:30.76Z</time></trkpt><trkpt lat="43.2386232" lon="11.6805955"><ele>526.0</ele><time>2026-04-04T07:07:31.76Z</time></trkpt><trkpt lat="43.2387236" lon="11.6807605"><ele>526.0</ele><time>2026-04-04T07:07:32.76Z</time></trkpt><trkpt lat="43.2388251" lon="11.6809264"><ele>526.0</ele><time>2026-04-04T07:07:33.76Z</time></trkpt><trkpt lat="43.238922" lon="11.6810928"><ele>526.0</ele><time>2026-04-04T07:07:34.76Z</time></trkpt><trkpt lat="43.2390132" lon="11.6812658"><ele>525.3333333333334</ele><time>2026-04-04T07:07:35.761Z</time></trkpt><trkpt lat="43.2391074" lon="11.6814404"><ele>524.6666666666666</ele><time>2026-04-04T07:07:36.761Z</time></trkpt><trkpt lat="43.2391964" lon="11.6816088"><ele>524.0</ele><time>2026-04-04T07:07:37.76Z</time></trkpt><trkpt lat="43.2392838" lon="11.6817756"><ele>524.0</ele><time>2026-04-04T07:07:38.76Z</time></trkpt><trkpt lat="43.2393538" lon="11.6819289"><ele>524.0</ele><time>2026-04-04T07:07:39.76Z</time></trkpt><trkpt lat="43.2394157" lon="11.682047"><ele>524.0</ele><time>2026-04-04T07:07:40.76Z</time></trkpt><trkpt lat="43.2394706" lon="11.6821418"><ele>524.0</ele><time>2026-04-04T07:07:41.761Z</time></trkpt><trkpt lat="43.2395238" lon="11.6822159"><ele>524.0</ele><time>2026-04-04T07:07:42.76Z</time></trkpt><trkpt lat="43.2396088" lon="11.6823021"><ele>523.6</ele><time>2026-04-04T07:07:44.76Z</time></trkpt><trkpt lat="43.2396997" lon="11.682292"><ele>523.2</ele><time>2026-04-04T07:07:46.76Z</time></trkpt><trkpt lat="43.2398223" lon="11.6822237"><ele>522.8000000000001</ele><time>2026-04-04T07:07:48.76Z</time></trkpt><trkpt lat="43.239893" lon="11.682184"><ele>522.4</ele><time>2026-04-04T07:07:49.761Z</time></trkpt><trkpt lat="43.2399675" lon="11.6821375"><ele>522.0</ele><time>2026-04-04T07:07:50.76Z</time></trkpt><trkpt lat="43.2400444" lon="11.6820816"><ele>522.0</ele><time>2026-04-04T07:07:51.76Z</time></trkpt><trkpt lat="43.2401243" lon="11.6820224"><ele>522.0</ele><time>2026-04-04T07:07:52.76Z</time></trkpt><trkpt lat="43.2402054" lon="11.6819644"><ele>522.0</ele><time>2026-04-04T07:07:53.76Z</time></trkpt><trkpt lat="43.2402884" lon="11.6819061"><ele>522.0</ele><time>2026-04-04T07:07:54.76Z</time></trkpt><trkpt lat="43.2403587" lon="11.6818489"><ele>522.0</ele><time>2026-04-04T07:07:55.76Z</time></trkpt><trkpt lat="43.2404228" lon="11.681793"><ele>522.0</ele><time>2026-04-04T07:07:56.76Z</time></trkpt><trkpt lat="43.2404855" lon="11.6817147"><ele>522.0</ele><time>2026-04-04T07:07:57.76Z</time></trkpt><trkpt lat="43.2405387" lon="11.6816188"><ele>522.0</ele><time>2026-04-04T07:07:58.76Z</time></trkpt><trkpt lat="43.2405772" lon="11.6815045"><ele>522.0</ele><time>2026-04-04T07:07:59.76Z</time></trkpt><trkpt lat="43.2406024" lon="11.6813894"><ele>522.0</ele><time>2026-04-04T07:08:00.76Z</time></trkpt><trkpt lat="43.2406286" lon="11.6812592"><ele>522.0</ele><time>2026-04-04T07:08:01.76Z</time></trkpt><trkpt lat="43.2406492" lon="11.681139"><ele>519.6666666666666</ele><time>2026-04-04T07:08:02.761Z</time></trkpt><trkpt lat="43.2406702" lon="11.6810111"><ele>517.3333333333334</ele><time>2026-04-04T07:08:03.76Z</time></trkpt><trkpt lat="43.2406876" lon="11.6808934"><ele>515.0</ele><time>2026-04-04T07:08:04.76Z</time></trkpt><trkpt lat="43.2407031" lon="11.6807758"><ele>512.6666666666667</ele><time>2026-04-04T07:08:05.76Z</time></trkpt><trkpt lat="43.2407226" lon="11.6806618"><ele>510.33333333333337</ele><time>2026-04-04T07:08:06.76Z</time></trkpt><trkpt lat="43.2407605" lon="11.6805655"><ele>508.0</ele><time>2026-04-04T07:08:07.76Z</time></trkpt><trkpt lat="43.2408179" lon="11.6804841"><ele>508.00000000000006</ele><time>2026-04-04T07:08:08.76Z</time></trkpt><trkpt lat="43.2408851" lon="11.6804317"><ele>508.0</ele><time>2026-04-04T07:08:09.76Z</time></trkpt><trkpt lat="43.2409614" lon="11.6804142"><ele>508.0</ele><time>2026-04-04T07:08:10.76Z</time></trkpt><trkpt lat="43.2410372" lon="11.6804043"><ele>508.0</ele><time>2026-04-04T07:08:11.76Z</time></trkpt><trkpt lat="43.2411152" lon="11.6804089"><ele>508.00000000000006</ele><time>2026-04-04T07:08:12.76Z</time></trkpt><trkpt lat="43.2411942" lon="11.6804245"><ele>508.0</ele><time>2026-04-04T07:08:13.76Z</time></trkpt><trkpt lat="43.2412801" lon="11.6804381"><ele>508.0</ele><time>2026-04-04T07:08:14.761Z</time></trkpt><trkpt lat="43.2413724" lon="11.6804311"><ele>507.99999999999994</ele><time>2026-04-04T07:08:15.76Z</time></trkpt><trkpt lat="43.2414605" lon="11.6803986"><ele>507.99999999999994</ele><time>2026-04-04T07:08:16.76Z</time></trkpt><trkpt lat="43.2415535" lon="11.6803583"><ele>508.0</ele><time>2026-04-04T07:08:17.76Z</time></trkpt><trkpt lat="43.2416426" lon="11.6803104"><ele>508.0</ele><time>2026-04-04T07:08:18.76Z</time></trkpt><trkpt lat="43.2417304" lon="11.6802583"><ele>505.2</ele><time>2026-04-04T07:08:19.76Z</time></trkpt><trkpt lat="43.2418189" lon="11.6802076"><ele>502.4</ele><time>2026-04-04T07:08:20.76Z</time></trkpt><trkpt lat="43.2419016" lon="11.680153"><ele>499.59999999999997</ele><time>2026-04-04T07:08:21.76Z</time></trkpt><trkpt lat="43.2419892" lon="11.6800926"><ele>496.79999999999995</ele><time>2026-04-04T07:08:22.76Z</time></trkpt><trkpt lat="43.2420853" lon="11.6800373"><ele>494.0</ele><time>2026-04-04T07:08:23.76Z</time></trkpt><trkpt lat="43.2421821" lon="11.6799751"><ele>493.99999999999994</ele><time>2026-04-04T07:08:24.76Z</time></trkpt><trkpt lat="43.2422693" lon="11.6799188"><ele>494.0</ele><time>2026-04-04T07:08:25.76Z</time></trkpt><trkpt lat="43.2423284" lon="11.6798522"><ele>494.0</ele><time>2026-04-04T07:08:26.761Z</time></trkpt><trkpt lat="43.2423736" lon="11.6797858"><ele>494.0</ele><time>2026-04-04T07:08:27.76Z</time></trkpt><trkpt lat="43.2424185" lon="11.6796498"><ele>493.99999999999994</ele><time>2026-04-04T07:08:29.76Z</time></trkpt><trkpt lat="43.2424822" lon="11.6795623"><ele>494.0</ele><time>2026-04-04T07:08:31.76Z</time></trkpt><trkpt lat="43.2425587" lon="11.6795811"><ele>491.79999999999995</ele><time>2026-04-04T07:08:32.76Z</time></trkpt><trkpt lat="43.2426505" lon="11.679631"><ele>489.59999999999997</ele><time>2026-04-04T07:08:33.76Z</time></trkpt><trkpt lat="43.2427532" lon="11.6796758"><ele>487.4</ele><time>2026-04-04T07:08:34.76Z</time></trkpt><trkpt lat="43.2428517" lon="11.6796876"><ele>485.2</ele><time>2026-04-04T07:08:35.76Z</time></trkpt><trkpt lat="43.2429553" lon="11.6796631"><ele>483.0</ele><time>2026-04-04T07:08:36.76Z</time></trkpt><trkpt lat="43.2430573" lon="11.6796529"><ele>480.79999999999995</ele><time>2026-04-04T07:08:37.76Z</time></trkpt><trkpt lat="43.2431642" lon="11.6796818"><ele>478.59999999999997</ele><time>2026-04-04T07:08:38.76Z</time></trkpt><trkpt lat="43.243276" lon="11.6797457"><ele>476.40000000000003</ele><time>2026-04-04T07:08:39.76Z</time></trkpt><trkpt lat="43.2433849" lon="11.6797968"><ele>474.20000000000005</ele><time>2026-04-04T07:08:40.76Z</time></trkpt><trkpt lat="43.2434786" lon="11.6798352"><ele>472.0</ele><time>2026-04-04T07:08:41.76Z</time></trkpt><trkpt lat="43.2435629" lon="11.679877"><ele>472.00000000000006</ele><time>2026-04-04T07:08:42.761Z</time></trkpt><trkpt lat="43.2436328" lon="11.6799104"><ele>472.0</ele><time>2026-04-04T07:08:43.76Z</time></trkpt><trkpt lat="43.243698" lon="11.6799154"><ele>472.0</ele><time>2026-04-04T07:08:44.76Z</time></trkpt><trkpt lat="43.2437703" lon="11.6798687"><ele>472.0</ele><time>2026-04-04T07:08:45.761Z</time></trkpt><trkpt lat="43.2438638" lon="11.6798045"><ele>472.00000000000006</ele><time>2026-04-04T07:08:46.761Z</time></trkpt><trkpt lat="43.2439739" lon="11.6797331"><ele>472.0</ele><time>2026-04-04T07:08:47.76Z</time></trkpt><trkpt lat="43.2440959" lon="11.6796564"><ele>469.25</ele><time>2026-04-04T07:08:48.76Z</time></trkpt><trkpt lat="43.2442241" lon="11.6795884"><ele>466.5</ele><time>2026-04-04T07:08:49.76Z</time></trkpt><trkpt lat="43.2443517" lon="11.6795413"><ele>463.75</ele><time>2026-04-04T07:08:50.761Z</time></trkpt><trkpt lat="43.2444689" lon="11.6795098"><ele>461.0</ele><time>2026-04-04T07:08:51.76Z</time></trkpt><trkpt lat="43.2445756" lon="11.6794797"><ele>460.99999999999994</ele><time>2026-04-04T07:08:52.76Z</time></trkpt><trkpt lat="43.2446701" lon="11.6794391"><ele>461.0</ele><time>2026-04-04T07:08:53.76Z</time></trkpt><trkpt lat="43.244756" lon="11.6793948"><ele>461.0</ele><time>2026-04-04T07:08:54.76Z</time></trkpt><trkpt lat="43.2448416" lon="11.6793584"><ele>461.0</ele><time>2026-04-04T07:08:55.76Z</time></trkpt><trkpt lat="43.2449269" lon="11.6793514"><ele>460.99999999999994</ele><time>2026-04-04T07:08:56.76Z</time></trkpt><trkpt lat="43.245008" lon="11.6793741"><ele>461.0</ele><time>2026-04-04T07:08:57.76Z</time></trkpt><trkpt lat="43.2450937" lon="11.6794042"><ele>460.0</ele><time>2026-04-04T07:08:58.76Z</time></trkpt><trkpt lat="43.2451798" lon="11.6794461"><ele>459.0</ele><time>2026-04-04T07:08:59.76Z</time></trkpt><trkpt lat="43.2452745" lon="11.6794968"><ele>458.0</ele><time>2026-04-04T07:09:00.76Z</time></trkpt><trkpt lat="43.2453701" lon="11.6795464"><ele>457.0</ele><time>2026-04-04T07:09:01.76Z</time></trkpt><trkpt lat="43.2454596" lon="11.6796047"><ele>456.0</ele><time>2026-04-04T07:09:02.76Z</time></trkpt><trkpt lat="43.2455429" lon="11.679648"><ele>456.0</ele><time>2026-04-04T07:09:03.76Z</time></trkpt><trkpt lat="43.2456234" lon="11.6796678"><ele>456.0</ele><time>2026-04-04T07:09:04.76Z</time></trkpt><trkpt lat="43.2457036" lon="11.6796565"><ele>456.0</ele><time>2026-04-04T07:09:05.76Z</time></trkpt><trkpt lat="43.24579" lon="11.6796259"><ele>456.0</ele><time>2026-04-04T07:09:06.76Z</time></trkpt><trkpt lat="43.2458782" lon="11.679584"><ele>456.0</ele><time>2026-04-04T07:09:07.76Z</time></trkpt><trkpt lat="43.2459767" lon="11.6795325"><ele>453.20000000000005</ele><time>2026-04-04T07:09:08.76Z</time></trkpt><trkpt lat="43.2460686" lon="11.6794647"><ele>450.40000000000003</ele><time>2026-04-04T07:09:09.76Z</time></trkpt><trkpt lat="43.246142" lon="11.6793847"><ele>447.6</ele><time>2026-04-04T07:09:10.76Z</time></trkpt><trkpt lat="43.2461942" lon="11.6792994"><ele>444.8</ele><time>2026-04-04T07:09:11.761Z</time></trkpt><trkpt lat="43.2462342" lon="11.6791919"><ele>442.0</ele><time>2026-04-04T07:09:12.76Z</time></trkpt><trkpt lat="43.2462523" lon="11.6790628"><ele>441.33333333333337</ele><time>2026-04-04T07:09:13.761Z</time></trkpt><trkpt lat="43.2462634" lon="11.6789249"><ele>440.6666666666667</ele><time>2026-04-04T07:09:14.76Z</time></trkpt><trkpt lat="43.2462788" lon="11.6787793"><ele>440.0</ele><time>2026-04-04T07:09:15.76Z</time></trkpt><trkpt lat="43.246291" lon="11.6786672"><ele>439.33333333333337</ele><time>2026-04-04T07:09:16.76Z</time></trkpt><trkpt lat="43.2463049" lon="11.6785662"><ele>438.6666666666667</ele><time>2026-04-04T07:09:17.761Z</time></trkpt><trkpt lat="43.2463208" lon="11.6784593"><ele>438.0</ele><time>2026-04-04T07:09:18.76Z</time></trkpt><trkpt lat="43.2463247" lon="11.6783589"><ele>436.0</ele><time>2026-04-04T07:09:19.761Z</time></trkpt><trkpt lat="43.2463231" lon="11.6782635"><ele>433.99999999999994</ele><time>2026-04-04T07:09:20.76Z</time></trkpt><trkpt lat="43.2463389" lon="11.6780972"><ele>431.99999999999994</ele><time>2026-04-04T07:09:22.76Z</time></trkpt><trkpt lat="43.2464124" lon="11.6779747"><ele>430.0</ele><time>2026-04-04T07:09:24.76Z</time></trkpt><trkpt lat="43.2464651" lon="11.6778919"><ele>428.0</ele><time>2026-04-04T07:09:26.76Z</time></trkpt><trkpt lat="43.2465015" lon="11.6778116"><ele>425.2</ele><time>2026-04-04T07:09:28.76Z</time></trkpt><trkpt lat="43.2464668" lon="11.6776812"><ele>422.4</ele><time>2026-04-04T07:09:30.76Z</time></trkpt><trkpt lat="43.2464233" lon="11.6776087"><ele>419.59999999999997</ele><time>2026-04-04T07:09:31.76Z</time></trkpt><trkpt lat="43.246321" lon="11.6775221"><ele>416.79999999999995</ele><time>2026-04-04T07:09:33.76Z</time></trkpt><trkpt lat="43.2462254" lon="11.6774769"><ele>414.0</ele><time>2026-04-04T07:09:35.76Z</time></trkpt><trkpt lat="43.2461782" lon="11.6774102"><ele>412.6</ele><time>2026-04-04T07:09:37.76Z</time></trkpt><trkpt lat="43.2461588" lon="11.6772782"><ele>411.2</ele><time>2026-04-04T07:09:39.76Z</time></trkpt><trkpt lat="43.2460947" lon="11.6771845"><ele>409.8</ele><time>2026-04-04T07:09:41.76Z</time></trkpt><trkpt lat="43.2460931" lon="11.6770555"><ele>408.40000000000003</ele><time>2026-04-04T07:09:43.76Z</time></trkpt><trkpt lat="43.2461363" lon="11.676957"><ele>407.0</ele><time>2026-04-04T07:09:45.76Z</time></trkpt><trkpt lat="43.2461872" lon="11.6768646"><ele>405.49999999999994</ele><time>2026-04-04T07:09:47.76Z</time></trkpt><trkpt lat="43.2462175" lon="11.6767841"><ele>404.0</ele><time>2026-04-04T07:09:49.76Z</time></trkpt><trkpt lat="43.2461909" lon="11.6766456"><ele>402.5</ele><time>2026-04-04T07:09:51.76Z</time></trkpt><trkpt lat="43.2462093" lon="11.6765574"><ele>401.0</ele><time>2026-04-04T07:09:52.761Z</time></trkpt><trkpt lat="43.2462823" lon="11.6764934"><ele>399.49999999999994</ele><time>2026-04-04T07:09:54.76Z</time></trkpt><trkpt lat="43.2463439" lon="11.6765172"><ele>398.0</ele><time>2026-04-04T07:09:55.76Z</time></trkpt><trkpt lat="43.2464702" lon="11.6765205"><ele>398.0</ele><time>2026-04-04T07:09:57.76Z</time></trkpt><trkpt lat="43.2465585" lon="11.6764016"><ele>398.0</ele><time>2026-04-04T07:09:59.76Z</time></trkpt><trkpt lat="43.2466722" lon="11.6763912"><ele>398.0</ele><time>2026-04-04T07:10:01.761Z</time></trkpt><trkpt lat="43.2467774" lon="11.6763769"><ele>398.0</ele><time>2026-04-04T07:10:03.76Z</time></trkpt><trkpt lat="43.2467814" lon="11.6762571"><ele>398.0</ele><time>2026-04-04T07:10:05.76Z</time></trkpt><trkpt lat="43.2467565" lon="11.67617"><ele>394.0</ele><time>2026-04-04T07:10:06.76Z</time></trkpt><trkpt lat="43.2467305" lon="11.6760832"><ele>390.0</ele><time>2026-04-04T07:10:07.76Z</time></trkpt><trkpt lat="43.2466751" lon="11.6759576"><ele>386.0</ele><time>2026-04-04T07:10:09.761Z</time></trkpt><trkpt lat="43.2466886" lon="11.6758223"><ele>382.0</ele><time>2026-04-04T07:10:12.76Z</time></trkpt><trkpt lat="43.2467325" lon="11.6756853"><ele>378.0</ele><time>2026-04-04T07:10:14.76Z</time></trkpt><trkpt lat="43.2467766" lon="11.6756111"><ele>378.0</ele><time>2026-04-04T07:10:15.76Z</time></trkpt><trkpt lat="43.2468148" lon="11.6755216"><ele>378.0</ele><time>2026-04-04T07:10:16.76Z</time></trkpt><trkpt lat="43.2468426" lon="11.6754002"><ele>378.0</ele><time>2026-04-04T07:10:17.76Z</time></trkpt><trkpt lat="43.2468929" lon="11.6753059"><ele>378.0</ele><time>2026-04-04T07:10:18.76Z</time></trkpt><trkpt lat="43.2469514" lon="11.6752348"><ele>378.0</ele><time>2026-04-04T07:10:19.76Z</time></trkpt><trkpt lat="43.2470286" lon="11.6751678"><ele>378.0</ele><time>2026-04-04T07:10:20.76Z</time></trkpt><trkpt lat="43.2471178" lon="11.6751159"><ele>375.2</ele><time>2026-04-04T07:10:21.76Z</time></trkpt><trkpt lat="43.2471949" lon="11.6750796"><ele>372.4</ele><time>2026-04-04T07:10:22.76Z</time></trkpt><trkpt lat="43.247264" lon="11.6750466"><ele>369.59999999999997</ele><time>2026-04-04T07:10:23.761Z</time></trkpt><trkpt lat="43.2473273" lon="11.675015"><ele>366.79999999999995</ele><time>2026-04-04T07:10:24.76Z</time></trkpt><trkpt lat="43.2474264" lon="11.6749268"><ele>364.0</ele><time>2026-04-04T07:10:26.76Z</time></trkpt><trkpt lat="43.2474839" lon="11.6747746"><ele>364.0</ele><time>2026-04-04T07:10:28.76Z</time></trkpt><trkpt lat="43.2475064" lon="11.6746706"><ele>364.0</ele><time>2026-04-04T07:10:29.76Z</time></trkpt><trkpt lat="43.2475385" lon="11.6745584"><ele>364.0</ele><time>2026-04-04T07:10:30.76Z</time></trkpt><trkpt lat="43.2475648" lon="11.6744778"><ele>364.0</ele><time>2026-04-04T07:10:31.76Z</time></trkpt><trkpt lat="43.2475888" lon="11.6743903"><ele>364.0</ele><time>2026-04-04T07:10:34.761Z</time></trkpt><trkpt lat="43.2476605" lon="11.6742911"><ele>364.0</ele><time>2026-04-04T07:10:45.76Z</time></trkpt><trkpt lat="43.2477486" lon="11.6742064"><ele>362.0</ele><time>2026-04-04T07:10:47.76Z</time></trkpt><trkpt lat="43.2477965" lon="11.6741494"><ele>360.0</ele><time>2026-04-04T07:10:48.761Z</time></trkpt><trkpt lat="43.24788" lon="11.6740531"><ele>358.0</ele><time>2026-04-04T07:10:50.761Z</time></trkpt><trkpt lat="43.2479589" lon="11.6739311"><ele>356.0</ele><time>2026-04-04T07:10:52.761Z</time></trkpt><trkpt lat="43.2480151" lon="11.6738724"><ele>354.0</ele><time>2026-04-04T07:10:53.76Z</time></trkpt><trkpt lat="43.2480672" lon="11.6738119"><ele>352.0</ele><time>2026-04-04T07:10:54.76Z</time></trkpt><trkpt lat="43.2481151" lon="11.6737373"><ele>351.16666666666663</ele><time>2026-04-04T07:10:55.76Z</time></trkpt><trkpt lat="43.2481762" lon="11.6736642"><ele>350.3333333333333</ele><time>2026-04-04T07:10:56.76Z</time></trkpt><trkpt lat="43.2482436" lon="11.6736063"><ele>349.5</ele><time>2026-04-04T07:10:57.76Z</time></trkpt><trkpt lat="43.248309" lon="11.6735668"><ele>348.6666666666667</ele><time>2026-04-04T07:10:58.76Z</time></trkpt><trkpt lat="43.2483771" lon="11.6735118"><ele>347.83333333333337</ele><time>2026-04-04T07:10:59.76Z</time></trkpt><trkpt lat="43.2484356" lon="11.6734503"><ele>347.0</ele><time>2026-04-04T07:11:00.76Z</time></trkpt><trkpt lat="43.2484916" lon="11.6733945"><ele>347.0</ele><time>2026-04-04T07:11:01.76Z</time></trkpt><trkpt lat="43.2485499" lon="11.6733399"><ele>347.0</ele><time>2026-04-04T07:11:02.76Z</time></trkpt><trkpt lat="43.248655" lon="11.6732913"><ele>347.0</ele><time>2026-04-04T07:11:04.76Z</time></trkpt><trkpt lat="43.2487559" lon="11.6732455"><ele>347.0</ele><time>2026-04-04T07:11:06.76Z</time></trkpt><trkpt lat="43.248851" lon="11.6731779"><ele>347.0</ele><time>2026-04-04T07:11:08.76Z</time></trkpt><trkpt lat="43.2489151" lon="11.6731916"><ele>344.40000000000003</ele><time>2026-04-04T07:11:09.76Z</time></trkpt><trkpt lat="43.2489744" lon="11.6732329"><ele>341.8</ele><time>2026-04-04T07:11:10.761Z</time></trkpt><trkpt lat="43.2490931" lon="11.6732157"><ele>339.2</ele><time>2026-04-04T07:11:12.76Z</time></trkpt><trkpt lat="43.2491585" lon="11.6731494"><ele>336.6</ele><time>2026-04-04T07:11:13.76Z</time></trkpt><trkpt lat="43.2492488" lon="11.6730827"><ele>334.0</ele><time>2026-04-04T07:11:15.76Z</time></trkpt><trkpt lat="43.2493724" lon="11.6730673"><ele>334.0</ele><time>2026-04-04T07:11:17.76Z</time></trkpt><trkpt lat="43.2494383" lon="11.673064"><ele>334.0</ele><time>2026-04-04T07:11:18.76Z</time></trkpt><trkpt lat="43.2495122" lon="11.6730556"><ele>334.0</ele><time>2026-04-04T07:11:19.76Z</time></trkpt><trkpt lat="43.2495805" lon="11.6730388"><ele>334.0</ele><time>2026-04-04T07:11:20.76Z</time></trkpt><trkpt lat="43.2497026" lon="11.673012"><ele>334.0</ele><time>2026-04-04T07:11:22.76Z</time></trkpt><trkpt lat="43.2497878" lon="11.6730341"><ele>334.0</ele><time>2026-04-04T07:11:23.76Z</time></trkpt><trkpt lat="43.2498619" lon="11.6730637"><ele>331.6</ele><time>2026-04-04T07:11:24.76Z</time></trkpt><trkpt lat="43.2499579" lon="11.6729896"><ele>329.2</ele><time>2026-04-04T07:11:26.76Z</time></trkpt><trkpt lat="43.2499736" lon="11.6729013"><ele>326.8</ele><time>2026-04-04T07:11:27.76Z</time></trkpt><trkpt lat="43.2499701" lon="11.6727535"><ele>324.40000000000003</ele><time>2026-04-04T07:11:29.76Z</time></trkpt><trkpt lat="43.2499429" lon="11.6726021"><ele>322.0</ele><time>2026-04-04T07:11:31.76Z</time></trkpt><trkpt lat="43.249898" lon="11.6724491"><ele>321.20000000000005</ele><time>2026-04-04T07:11:33.76Z</time></trkpt><trkpt lat="43.2498531" lon="11.6723045"><ele>320.40000000000003</ele><time>2026-04-04T07:11:35.76Z</time></trkpt><trkpt lat="43.2498162" lon="11.6721978"><ele>319.6</ele><time>2026-04-04T07:11:37.76Z</time></trkpt><trkpt lat="43.2497653" lon="11.6720804"><ele>318.8</ele><time>2026-04-04T07:11:39.76Z</time></trkpt><trkpt lat="43.2497321" lon="11.6719893"><ele>318.0</ele><time>2026-04-04T07:11:41.76Z</time></trkpt><trkpt lat="43.2496852" lon="11.6718885"><ele>317.0</ele><time>2026-04-04T07:11:44.76Z</time></trkpt><trkpt lat="43.2496342" lon="11.671798"><ele>316.0</ele><time>2026-04-04T07:11:47.76Z</time></trkpt><trkpt lat="43.2495906" lon="11.6716909"><ele>315.0</ele><time>2026-04-04T07:11:50.76Z</time></trkpt><trkpt lat="43.2495321" lon="11.6716061"><ele>314.0</ele><time>2026-04-04T07:11:53.76Z</time></trkpt><trkpt lat="43.2494883" lon="11.6715361"><ele>313.0</ele><time>2026-04-04T07:11:55.76Z</time></trkpt><trkpt lat="43.2494195" lon="11.6714337"><ele>312.0</ele><time>2026-04-04T07:11:57.76Z</time></trkpt><trkpt lat="43.2493492" lon="11.6713497"><ele>312.0</ele><time>2026-04-04T07:11:59.76Z</time></trkpt><trkpt lat="43.2492909" lon="11.6712828"><ele>312.0</ele><time>2026-04-04T07:12:01.76Z</time></trkpt><trkpt lat="43.2493329" lon="11.6712052"><ele>312.0</ele><time>2026-04-04T07:12:04.76Z</time></trkpt><trkpt lat="43.2494008" lon="11.6711869"><ele>312.0</ele><time>2026-04-04T07:12:06.76Z</time></trkpt><trkpt lat="43.2494608" lon="11.6711125"><ele>312.0</ele><time>2026-04-04T07:12:08.761Z</time></trkpt><trkpt lat="43.2495463" lon="11.6710118"><ele>312.0</ele><time>2026-04-04T07:12:10.76Z</time></trkpt><trkpt lat="43.2496575" lon="11.6709476"><ele>309.6</ele><time>2026-04-04T07:12:12.76Z</time></trkpt><trkpt lat="43.2497718" lon="11.6709573"><ele>307.2</ele><time>2026-04-04T07:12:14.76Z</time></trkpt><trkpt lat="43.2498847" lon="11.6709952"><ele>304.8</ele><time>2026-04-04T07:12:16.76Z</time></trkpt><trkpt lat="43.2499705" lon="11.6710516"><ele>302.4</ele><time>2026-04-04T07:12:18.76Z</time></trkpt><trkpt lat="43.2500634" lon="11.6710326"><ele>300.0</ele><time>2026-04-04T07:12:20.76Z</time></trkpt><trkpt lat="43.2501489" lon="11.6709937"><ele>299.0</ele><time>2026-04-04T07:12:22.76Z</time></trkpt><trkpt lat="43.2502245" lon="11.6709694"><ele>298.0</ele><time>2026-04-04T07:12:25.76Z</time></trkpt><trkpt lat="43.2502437" lon="11.6710726"><ele>297.0</ele><time>2026-04-04T07:15:38.761Z</time></trkpt><trkpt lat="43.2502656" lon="11.6711702"><ele>296.0</ele><time>2026-04-04T07:15:39.762Z</time></trkpt><trkpt lat="43.2503038" lon="11.6712911"><ele>295.0</ele><time>2026-04-04T07:15:40.761Z</time></trkpt><trkpt lat="43.2503456" lon="11.6714245"><ele>294.0</ele><time>2026-04-04T07:15:41.761Z</time></trkpt><trkpt lat="43.2503943" lon="11.6715518"><ele>296.4</ele><time>2026-04-04T07:15:42.761Z</time></trkpt><trkpt lat="43.2504371" lon="11.6716625"><ele>298.79999999999995</ele><time>2026-04-04T07:15:43.761Z</time></trkpt><trkpt lat="43.2504792" lon="11.6717697"><ele>301.20000000000005</ele><time>2026-04-04T07:15:44.761Z</time></trkpt><trkpt lat="43.2505198" lon="11.6718723"><ele>303.6</ele><time>2026-04-04T07:15:45.762Z</time></trkpt><trkpt lat="43.2505598" lon="11.6719728"><ele>306.0</ele><time>2026-04-04T07:15:46.762Z</time></trkpt><trkpt lat="43.2506125" lon="11.6720991"><ele>302.25</ele><time>2026-04-04T07:15:47.761Z</time></trkpt><trkpt lat="43.2506606" lon="11.6722285"><ele>298.5</ele><time>2026-04-04T07:15:48.762Z</time></trkpt><trkpt lat="43.2507173" lon="11.6723721"><ele>294.75</ele><time>2026-04-04T07:15:49.761Z</time></trkpt><trkpt lat="43.2507817" lon="11.6725266"><ele>291.0</ele><time>2026-04-04T07:15:50.761Z</time></trkpt><trkpt lat="43.2508527" lon="11.6726987"><ele>293.3333333333333</ele><time>2026-04-04T07:15:51.761Z</time></trkpt><trkpt lat="43.2509295" lon="11.6728694"><ele>295.66666666666663</ele><time>2026-04-04T07:15:52.761Z</time></trkpt><trkpt lat="43.2510058" lon="11.6730546"><ele>298.0</ele><time>2026-04-04T07:15:53.762Z</time></trkpt><trkpt lat="43.2510789" lon="11.6732334"><ele>298.0</ele><time>2026-04-04T07:15:54.761Z</time></trkpt><trkpt lat="43.2511387" lon="11.6734137"><ele>298.0</ele><time>2026-04-04T07:15:55.761Z</time></trkpt><trkpt lat="43.2511944" lon="11.6735867"><ele>298.0</ele><time>2026-04-04T07:15:56.761Z</time></trkpt><trkpt lat="43.2512469" lon="11.6737467"><ele>298.0</ele><time>2026-04-04T07:15:57.761Z</time></trkpt><trkpt lat="43.2512997" lon="11.6739107"><ele>297.25</ele><time>2026-04-04T07:15:58.761Z</time></trkpt><trkpt lat="43.2513517" lon="11.674089"><ele>296.5</ele><time>2026-04-04T07:15:59.761Z</time></trkpt><trkpt lat="43.2514028" lon="11.6742567"><ele>295.75</ele><time>2026-04-04T07:16:00.761Z</time></trkpt><trkpt lat="43.2514491" lon="11.6744069"><ele>295.0</ele><time>2026-04-04T07:16:01.761Z</time></trkpt><trkpt lat="43.2514925" lon="11.6745508"><ele>295.0</ele><time>2026-04-04T07:16:02.761Z</time></trkpt><trkpt lat="43.2515294" lon="11.6746939"><ele>295.0</ele><time>2026-04-04T07:16:03.762Z</time></trkpt><trkpt lat="43.2515661" lon="11.6748351"><ele>295.0</ele><time>2026-04-04T07:16:04.761Z</time></trkpt><trkpt lat="43.2516012" lon="11.6749837"><ele>295.0</ele><time>2026-04-04T07:16:05.761Z</time></trkpt><trkpt lat="43.2516366" lon="11.675143"><ele>295.75</ele><time>2026-04-04T07:16:06.761Z</time></trkpt><trkpt lat="43.2516749" lon="11.6753141"><ele>296.5</ele><time>2026-04-04T07:16:07.761Z</time></trkpt><trkpt lat="43.25171" lon="11.6755012"><ele>297.25</ele><time>2026-04-04T07:16:08.761Z</time></trkpt><trkpt lat="43.2517471" lon="11.6756848"><ele>298.0</ele><time>2026-04-04T07:16:09.761Z</time></trkpt><trkpt lat="43.2517889" lon="11.6758837"><ele>298.0</ele><time>2026-04-04T07:16:10.762Z</time></trkpt><trkpt lat="43.2518252" lon="11.6760755"><ele>298.0</ele><time>2026-04-04T07:16:11.761Z</time></trkpt><trkpt lat="43.2518574" lon="11.6762567"><ele>298.0</ele><time>2026-04-04T07:16:12.761Z</time></trkpt><trkpt lat="43.2518829" lon="11.6764412"><ele>298.0</ele><time>2026-04-04T07:16:13.761Z</time></trkpt><trkpt lat="43.2519101" lon="11.6766234"><ele>298.25</ele><time>2026-04-04T07:16:14.762Z</time></trkpt><trkpt lat="43.2519401" lon="11.6768053"><ele>298.5</ele><time>2026-04-04T07:16:15.761Z</time></trkpt><trkpt lat="43.2519652" lon="11.6769758"><ele>298.75</ele><time>2026-04-04T07:16:16.761Z</time></trkpt><trkpt lat="43.251987" lon="11.6771375"><ele>299.0</ele><time>2026-04-04T07:16:17.761Z</time></trkpt><trkpt lat="43.2519971" lon="11.6772924"><ele>299.0</ele><time>2026-04-04T07:16:18.761Z</time></trkpt><trkpt lat="43.2519968" lon="11.6774481"><ele>299.0</ele><time>2026-04-04T07:16:19.761Z</time></trkpt><trkpt lat="43.2519834" lon="11.6775978"><ele>299.0</ele><time>2026-04-04T07:16:20.761Z</time></trkpt><trkpt lat="43.2519606" lon="11.6777323"><ele>299.0</ele><time>2026-04-04T07:16:21.762Z</time></trkpt><trkpt lat="43.2519419" lon="11.6778492"><ele>299.0</ele><time>2026-04-04T07:16:22.761Z</time></trkpt><trkpt lat="43.2519414" lon="11.6779598"><ele>298.83333333333337</ele><time>2026-04-04T07:16:23.761Z</time></trkpt><trkpt lat="43.2519642" lon="11.6780512"><ele>298.6666666666667</ele><time>2026-04-04T07:16:24.761Z</time></trkpt><trkpt lat="43.2519909" lon="11.678135"><ele>298.5</ele><time>2026-04-04T07:16:25.761Z</time></trkpt><trkpt lat="43.2520051" lon="11.6782619"><ele>298.3333333333333</ele><time>2026-04-04T07:16:27.761Z</time></trkpt><trkpt lat="43.2520018" lon="11.6783655"><ele>298.16666666666663</ele><time>2026-04-04T07:16:29.761Z</time></trkpt><trkpt lat="43.252004" lon="11.6784826"><ele>298.0</ele><time>2026-04-04T07:16:31.761Z</time></trkpt><trkpt lat="43.2520548" lon="11.6785537"><ele>298.8333333333333</ele><time>2026-04-04T07:16:33.761Z</time></trkpt><trkpt lat="43.2521431" lon="11.6786633"><ele>299.66666666666663</ele><time>2026-04-04T07:16:35.761Z</time></trkpt><trkpt lat="43.2521609" lon="11.6787658"><ele>300.5</ele><time>2026-04-04T07:16:36.761Z</time></trkpt><trkpt lat="43.2521784" lon="11.6788638"><ele>301.3333333333333</ele><time>2026-04-04T07:16:37.761Z</time></trkpt><trkpt lat="43.2521963" lon="11.6789569"><ele>302.1666666666667</ele><time>2026-04-04T07:16:38.761Z</time></trkpt><trkpt lat="43.2522125" lon="11.6790545"><ele>303.0</ele><time>2026-04-04T07:16:39.761Z</time></trkpt><trkpt lat="43.2522247" lon="11.67917"><ele>303.0</ele><time>2026-04-04T07:16:40.761Z</time></trkpt><trkpt lat="43.252229" lon="11.6792739"><ele>303.0</ele><time>2026-04-04T07:16:41.761Z</time></trkpt><trkpt lat="43.2522642" lon="11.6794195"><ele>303.0</ele><time>2026-04-04T07:16:43.761Z</time></trkpt><trkpt lat="43.2523368" lon="11.6795569"><ele>303.0</ele><time>2026-04-04T07:16:45.762Z</time></trkpt><trkpt lat="43.2523497" lon="11.6796642"><ele>303.0</ele><time>2026-04-04T07:16:46.761Z</time></trkpt><trkpt lat="43.2523591" lon="11.6797828"><ele>299.3333333333333</ele><time>2026-04-04T07:16:47.761Z</time></trkpt><trkpt lat="43.2523729" lon="11.6798758"><ele>295.6666666666667</ele><time>2026-04-04T07:16:48.761Z</time></trkpt><trkpt lat="43.2524168" lon="11.6799837"><ele>292.0</ele><time>2026-04-04T07:16:50.761Z</time></trkpt><trkpt lat="43.252485" lon="11.6800009"><ele>288.33333333333337</ele><time>2026-04-04T07:16:52.761Z</time></trkpt><trkpt lat="43.2525491" lon="11.6800188"><ele>284.6666666666667</ele><time>2026-04-04T07:16:54.761Z</time></trkpt><trkpt lat="43.2526282" lon="11.6800385"><ele>281.0</ele><time>2026-04-04T07:16:57.761Z</time></trkpt><trkpt lat="43.2527366" lon="11.6800169"><ele>281.0</ele><time>2026-04-04T07:16:59.761Z</time></trkpt><trkpt lat="43.2528174" lon="11.6799508"><ele>281.0</ele><time>2026-04-04T07:17:01.761Z</time></trkpt><trkpt lat="43.2528626" lon="11.6798645"><ele>281.0</ele><time>2026-04-04T07:17:02.761Z</time></trkpt><trkpt lat="43.2529302" lon="11.6797356"><ele>281.0</ele><time>2026-04-04T07:17:04.761Z</time></trkpt><trkpt lat="43.2529681" lon="11.679618"><ele>281.0</ele><time>2026-04-04T07:17:06.761Z</time></trkpt><trkpt lat="43.2530027" lon="11.679528"><ele>281.0</ele><time>2026-04-04T07:17:08.761Z</time></trkpt><trkpt lat="43.2530394" lon="11.6794525"><ele>281.0</ele><time>2026-04-04T07:17:18.761Z</time></trkpt><trkpt lat="43.2530711" lon="11.6793759"><ele>281.0</ele><time>2026-04-04T07:17:20.761Z</time></trkpt><trkpt lat="43.2530818" lon="11.6795033"><ele>281.0</ele><time>2026-04-04T07:17:27.762Z</time></trkpt><trkpt lat="43.2531158" lon="11.6796664"><ele>281.0</ele><time>2026-04-04T07:17:29.761Z</time></trkpt><trkpt lat="43.2531633" lon="11.6797255"><ele>281.0</ele><time>2026-04-04T07:17:30.761Z</time></trkpt><trkpt lat="43.2532444" lon="11.6798147"><ele>281.6666666666667</ele><time>2026-04-04T07:17:32.761Z</time></trkpt><trkpt lat="43.2533012" lon="11.6798563"><ele>282.33333333333337</ele><time>2026-04-04T07:17:34.761Z</time></trkpt><trkpt lat="43.2533358" lon="11.6797741"><ele>283.0</ele><time>2026-04-04T07:17:38.761Z</time></trkpt><trkpt lat="43.2533713" lon="11.6796883"><ele>283.6666666666667</ele><time>2026-04-04T07:18:07.761Z</time></trkpt><trkpt lat="43.2534462" lon="11.6795367"><ele>284.3333333333333</ele><time>2026-04-04T07:18:09.761Z</time></trkpt><trkpt lat="43.2534707" lon="11.6794271"><ele>285.0</ele><time>2026-04-04T07:18:10.761Z</time></trkpt><trkpt lat="43.2534959" lon="11.6792922"><ele>285.0</ele><time>2026-04-04T07:18:11.762Z</time></trkpt><trkpt lat="43.2535218" lon="11.6791245"><ele>285.0</ele><time>2026-04-04T07:18:12.761Z</time></trkpt><trkpt lat="43.2535468" lon="11.6789461"><ele>285.0</ele><time>2026-04-04T07:18:13.761Z</time></trkpt><trkpt lat="43.2535622" lon="11.6787577"><ele>285.0</ele><time>2026-04-04T07:18:14.761Z</time></trkpt><trkpt lat="43.2535792" lon="11.6785715"><ele>285.0</ele><time>2026-04-04T07:18:15.762Z</time></trkpt><trkpt lat="43.2535962" lon="11.6784023"><ele>285.0</ele><time>2026-04-04T07:18:16.761Z</time></trkpt><trkpt lat="43.2536136" lon="11.678251"><ele>285.0</ele><time>2026-04-04T07:18:17.761Z</time></trkpt><trkpt lat="43.25363" lon="11.6781215"><ele>285.0</ele><time>2026-04-04T07:18:18.761Z</time></trkpt><trkpt lat="43.2536436" lon="11.6780021"><ele>285.0</ele><time>2026-04-04T07:18:19.761Z</time></trkpt><trkpt lat="43.2536501" lon="11.6778941"><ele>285.0</ele><time>2026-04-04T07:18:20.761Z</time></trkpt><trkpt lat="43.2536547" lon="11.6777929"><ele>285.0</ele><time>2026-04-04T07:18:21.761Z</time></trkpt><trkpt lat="43.2536611" lon="11.6776833"><ele>285.0</ele><time>2026-04-04T07:18:22.761Z</time></trkpt><trkpt lat="43.2536771" lon="11.6775636"><ele>285.0</ele><time>2026-04-04T07:18:23.761Z</time></trkpt><trkpt lat="43.2536933" lon="11.6774383"><ele>285.0</ele><time>2026-04-04T07:18:24.761Z</time></trkpt><trkpt lat="43.2537034" lon="11.6773159"><ele>285.0</ele><time>2026-04-04T07:18:25.761Z</time></trkpt><trkpt lat="43.2537081" lon="11.6771901"><ele>285.2</ele><time>2026-04-04T07:18:26.761Z</time></trkpt><trkpt lat="43.2537118" lon="11.6770568"><ele>285.4</ele><time>2026-04-04T07:18:27.761Z</time></trkpt><trkpt lat="43.2537133" lon="11.6769097"><ele>285.6</ele><time>2026-04-04T07:18:28.761Z</time></trkpt><trkpt lat="43.2537039" lon="11.676765"><ele>285.8</ele><time>2026-04-04T07:18:29.761Z</time></trkpt><trkpt lat="43.2536881" lon="11.6766142"><ele>286.0</ele><time>2026-04-04T07:18:30.761Z</time></trkpt><trkpt lat="43.2536606" lon="11.6764452"><ele>286.0</ele><time>2026-04-04T07:18:31.761Z</time></trkpt><trkpt lat="43.2536203" lon="11.6762704"><ele>286.0</ele><time>2026-04-04T07:18:32.761Z</time></trkpt><trkpt lat="43.253585" lon="11.6761093"><ele>286.0</ele><time>2026-04-04T07:18:33.761Z</time></trkpt><trkpt lat="43.2535542" lon="11.6759596"><ele>286.0</ele><time>2026-04-04T07:18:34.761Z</time></trkpt><trkpt lat="43.2535222" lon="11.6758169"><ele>286.0</ele><time>2026-04-04T07:18:35.761Z</time></trkpt><trkpt lat="43.2534917" lon="11.6756712"><ele>286.0</ele><time>2026-04-04T07:18:36.761Z</time></trkpt><trkpt lat="43.2534582" lon="11.6755205"><ele>286.0</ele><time>2026-04-04T07:18:37.761Z</time></trkpt><trkpt lat="43.2534263" lon="11.6753704"><ele>286.0</ele><time>2026-04-04T07:18:38.761Z</time></trkpt><trkpt lat="43.2533983" lon="11.6752134"><ele>286.0</ele><time>2026-04-04T07:18:39.761Z</time></trkpt><trkpt lat="43.2533675" lon="11.6750621"><ele>286.0</ele><time>2026-04-04T07:18:40.761Z</time></trkpt><trkpt lat="43.2533373" lon="11.6749158"><ele>286.0</ele><time>2026-04-04T07:18:41.761Z</time></trkpt><trkpt lat="43.2533078" lon="11.6747871"><ele>286.0</ele><time>2026-04-04T07:18:42.761Z</time></trkpt><trkpt lat="43.2532844" lon="11.6746614"><ele>286.0</ele><time>2026-04-04T07:18:43.761Z</time></trkpt><trkpt lat="43.253265" lon="11.6745477"><ele>286.0</ele><time>2026-04-04T07:18:44.761Z</time></trkpt><trkpt lat="43.2532452" lon="11.6744395"><ele>286.0</ele><time>2026-04-04T07:18:45.761Z</time></trkpt><trkpt lat="43.2532293" lon="11.6743382"><ele>286.0</ele><time>2026-04-04T07:18:46.762Z</time></trkpt><trkpt lat="43.2532059" lon="11.674234"><ele>286.0</ele><time>2026-04-04T07:18:47.761Z</time></trkpt><trkpt lat="43.2531796" lon="11.6741261"><ele>286.0</ele><time>2026-04-04T07:18:48.761Z</time></trkpt><trkpt lat="43.2531568" lon="11.67403"><ele>286.0</ele><time>2026-04-04T07:18:49.761Z</time></trkpt><trkpt lat="43.253132" lon="11.673932"><ele>286.0</ele><time>2026-04-04T07:18:50.761Z</time></trkpt><trkpt lat="43.2531103" lon="11.6738292"><ele>286.0</ele><time>2026-04-04T07:18:51.761Z</time></trkpt><trkpt lat="43.2530924" lon="11.6737391"><ele>286.0</ele><time>2026-04-04T07:18:52.761Z</time></trkpt><trkpt lat="43.2530727" lon="11.6736535"><ele>286.0</ele><time>2026-04-04T07:18:53.761Z</time></trkpt><trkpt lat="43.2530544" lon="11.6735183"><ele>286.0</ele><time>2026-04-04T07:18:55.761Z</time></trkpt><trkpt lat="43.2531253" lon="11.6734473"><ele>286.0</ele><time>2026-04-04T07:18:57.761Z</time></trkpt><trkpt lat="43.2531998" lon="11.6734268"><ele>286.0</ele><time>2026-04-04T07:18:58.761Z</time></trkpt><trkpt lat="43.2532922" lon="11.6733783"><ele>286.0</ele><time>2026-04-04T07:18:59.762Z</time></trkpt><trkpt lat="43.2533829" lon="11.6733112"><ele>286.0</ele><time>2026-04-04T07:19:00.761Z</time></trkpt><trkpt lat="43.2534785" lon="11.6732315"><ele>286.0</ele><time>2026-04-04T07:19:01.761Z</time></trkpt><trkpt lat="43.2535947" lon="11.6731507"><ele>286.0</ele><time>2026-04-04T07:19:02.761Z</time></trkpt><trkpt lat="43.2536988" lon="11.6730837"><ele>286.0</ele><time>2026-04-04T07:19:03.762Z</time></trkpt><trkpt lat="43.2537929" lon="11.6730326"><ele>286.0</ele><time>2026-04-04T07:19:04.761Z</time></trkpt><trkpt lat="43.2538832" lon="11.672987"><ele>286.0</ele><time>2026-04-04T07:19:05.761Z</time></trkpt><trkpt lat="43.2539524" lon="11.6729408"><ele>286.0</ele><time>2026-04-04T07:19:06.761Z</time></trkpt><trkpt lat="43.2540264" lon="11.6728964"><ele>286.0</ele><time>2026-04-04T07:19:07.761Z</time></trkpt><trkpt lat="43.2541116" lon="11.6728551"><ele>286.0</ele><time>2026-04-04T07:19:08.761Z</time></trkpt><trkpt lat="43.2542108" lon="11.6728106"><ele>288.40000000000003</ele><time>2026-04-04T07:19:09.761Z</time></trkpt><trkpt lat="43.2543212" lon="11.6727691"><ele>290.8</ele><time>2026-04-04T07:19:10.761Z</time></trkpt><trkpt lat="43.2544307" lon="11.6727384"><ele>293.20000000000005</ele><time>2026-04-04T07:19:11.761Z</time></trkpt><trkpt lat="43.254535" lon="11.6727062"><ele>295.6</ele><time>2026-04-04T07:19:12.761Z</time></trkpt><trkpt lat="43.2546274" lon="11.6726803"><ele>298.0</ele><time>2026-04-04T07:19:13.761Z</time></trkpt><trkpt lat="43.2547252" lon="11.6726504"><ele>300.4</ele><time>2026-04-04T07:19:14.761Z</time></trkpt><trkpt lat="43.2548256" lon="11.6726298"><ele>302.8</ele><time>2026-04-04T07:19:15.761Z</time></trkpt><trkpt lat="43.2549247" lon="11.6726089"><ele>305.2</ele><time>2026-04-04T07:19:16.761Z</time></trkpt><trkpt lat="43.2550073" lon="11.6725957"><ele>307.6</ele><time>2026-04-04T07:19:17.761Z</time></trkpt><trkpt lat="43.2550767" lon="11.6725705"><ele>310.0</ele><time>2026-04-04T07:19:18.762Z</time></trkpt><trkpt lat="43.2551706" lon="11.6724727"><ele>310.0</ele><time>2026-04-04T07:19:20.762Z</time></trkpt><trkpt lat="43.2552262" lon="11.6724232"><ele>310.0</ele><time>2026-04-04T07:19:21.762Z</time></trkpt><trkpt lat="43.2553165" lon="11.6723761"><ele>310.0</ele><time>2026-04-04T07:19:23.762Z</time></trkpt><trkpt lat="43.2553791" lon="11.6724523"><ele>310.0</ele><time>2026-04-04T07:19:25.762Z</time></trkpt><trkpt lat="43.2554092" lon="11.6725303"><ele>310.0</ele><time>2026-04-04T07:19:26.762Z</time></trkpt><trkpt lat="43.2554619" lon="11.6726314"><ele>310.0</ele><time>2026-04-04T07:19:28.762Z</time></trkpt><trkpt lat="43.2555335" lon="11.6727425"><ele>312.0</ele><time>2026-04-04T07:19:30.763Z</time></trkpt><trkpt lat="43.2555997" lon="11.6728303"><ele>314.0</ele><time>2026-04-04T07:19:32.762Z</time></trkpt><trkpt lat="43.2556656" lon="11.6729188"><ele>316.0</ele><time>2026-04-04T07:19:34.763Z</time></trkpt><trkpt lat="43.2557294" lon="11.6730194"><ele>318.0</ele><time>2026-04-04T07:19:36.762Z</time></trkpt><trkpt lat="43.2558021" lon="11.6730927"><ele>320.0</ele><time>2026-04-04T07:19:38.762Z</time></trkpt><trkpt lat="43.2558894" lon="11.6732102"><ele>322.2</ele><time>2026-04-04T07:19:40.762Z</time></trkpt><trkpt lat="43.2559638" lon="11.6733301"><ele>324.4</ele><time>2026-04-04T07:19:42.762Z</time></trkpt><trkpt lat="43.2560319" lon="11.6734115"><ele>326.6</ele><time>2026-04-04T07:19:44.762Z</time></trkpt><trkpt lat="43.2560797" lon="11.6734758"><ele>328.8</ele><time>2026-04-04T07:19:46.762Z</time></trkpt><trkpt lat="43.2561174" lon="11.6735516"><ele>331.0</ele><time>2026-04-04T07:19:48.762Z</time></trkpt><trkpt lat="43.2561659" lon="11.6736956"><ele>333.0</ele><time>2026-04-04T07:19:50.762Z</time></trkpt><trkpt lat="43.2561827" lon="11.6737793"><ele>335.0</ele><time>2026-04-04T07:19:51.762Z</time></trkpt><trkpt lat="43.2561999" lon="11.6739391"><ele>337.0</ele><time>2026-04-04T07:19:53.762Z</time></trkpt><trkpt lat="43.2562451" lon="11.6740202"><ele>339.0</ele><time>2026-04-04T07:19:55.763Z</time></trkpt><trkpt lat="43.2563394" lon="11.6740272"><ele>341.0</ele><time>2026-04-04T07:19:57.762Z</time></trkpt><trkpt lat="43.2563843" lon="11.6741656"><ele>345.0</ele><time>2026-04-04T07:19:59.762Z</time></trkpt><trkpt lat="43.2564833" lon="11.6742912"><ele>349.0</ele><time>2026-04-04T07:20:01.762Z</time></trkpt><trkpt lat="43.2565734" lon="11.6743839"><ele>353.0</ele><time>2026-04-04T07:20:03.762Z</time></trkpt><trkpt lat="43.2566534" lon="11.6744632"><ele>357.0</ele><time>2026-04-04T07:20:05.762Z</time></trkpt><trkpt lat="43.2566867" lon="11.6746193"><ele>359.20000000000005</ele><time>2026-04-04T07:20:07.762Z</time></trkpt><trkpt lat="43.2567384" lon="11.6747633"><ele>361.4</ele><time>2026-04-04T07:20:09.762Z</time></trkpt><trkpt lat="43.2568016" lon="11.6748847"><ele>363.6</ele><time>2026-04-04T07:20:11.762Z</time></trkpt><trkpt lat="43.2568705" lon="11.6749321"><ele>365.79999999999995</ele><time>2026-04-04T07:20:13.762Z</time></trkpt><trkpt lat="43.256939" lon="11.6749932"><ele>368.0</ele><time>2026-04-04T07:20:15.762Z</time></trkpt><trkpt lat="43.2569697" lon="11.6750758"><ele>368.0</ele><time>2026-04-04T07:20:17.762Z</time></trkpt><trkpt lat="43.2570506" lon="11.6752121"><ele>368.0</ele><time>2026-04-04T07:20:19.762Z</time></trkpt><trkpt lat="43.2570727" lon="11.6753038"><ele>368.0</ele><time>2026-04-04T07:20:20.762Z</time></trkpt><trkpt lat="43.2571438" lon="11.6754371"><ele>368.0</ele><time>2026-04-04T07:20:22.762Z</time></trkpt><trkpt lat="43.257202" lon="11.6754745"><ele>368.0</ele><time>2026-04-04T07:20:23.763Z</time></trkpt><trkpt lat="43.2572696" lon="11.6755056"><ele>372.1666666666667</ele><time>2026-04-04T07:20:24.762Z</time></trkpt><trkpt lat="43.2573501" lon="11.6755584"><ele>376.33333333333337</ele><time>2026-04-04T07:20:26.762Z</time></trkpt><trkpt lat="43.2574384" lon="11.6755024"><ele>380.5</ele><time>2026-04-04T07:21:10.762Z</time></trkpt><trkpt lat="43.2575387" lon="11.6754271"><ele>384.6666666666667</ele><time>2026-04-04T07:21:12.762Z</time></trkpt><trkpt lat="43.2576081" lon="11.6754004"><ele>388.8333333333333</ele><time>2026-04-04T07:21:13.762Z</time></trkpt><trkpt lat="43.2576714" lon="11.6753848"><ele>393.0</ele><time>2026-04-04T07:21:14.762Z</time></trkpt><trkpt lat="43.2577339" lon="11.6753959"><ele>393.0</ele><time>2026-04-04T07:21:15.762Z</time></trkpt><trkpt lat="43.2578341" lon="11.6754201"><ele>393.0</ele><time>2026-04-04T07:21:17.762Z</time></trkpt><trkpt lat="43.2579161" lon="11.6753544"><ele>393.0</ele><time>2026-04-04T07:21:19.762Z</time></trkpt><trkpt lat="43.257939" lon="11.6751845"><ele>393.0</ele><time>2026-04-04T07:21:21.762Z</time></trkpt><trkpt lat="43.2579621" lon="11.6750795"><ele>393.0</ele><time>2026-04-04T07:21:22.762Z</time></trkpt><trkpt lat="43.257984" lon="11.6749977"><ele>390.6666666666667</ele><time>2026-04-04T07:21:23.762Z</time></trkpt><trkpt lat="43.2580447" lon="11.6749107"><ele>388.3333333333333</ele><time>2026-04-04T07:21:25.762Z</time></trkpt><trkpt lat="43.2581357" lon="11.6749522"><ele>386.0</ele><time>2026-04-04T07:21:27.762Z</time></trkpt><trkpt lat="43.2581925" lon="11.6749938"><ele>383.66666666666663</ele><time>2026-04-04T07:21:28.762Z</time></trkpt><trkpt lat="43.2582595" lon="11.675043"><ele>381.3333333333333</ele><time>2026-04-04T07:21:29.762Z</time></trkpt><trkpt lat="43.2583311" lon="11.6750902"><ele>379.0</ele><time>2026-04-04T07:21:30.762Z</time></trkpt><trkpt lat="43.2584102" lon="11.6751448"><ele>379.0</ele><time>2026-04-04T07:21:31.762Z</time></trkpt><trkpt lat="43.2584976" lon="11.6751971"><ele>379.0</ele><time>2026-04-04T07:21:32.762Z</time></trkpt><trkpt lat="43.2585811" lon="11.6752447"><ele>379.0</ele><time>2026-04-04T07:21:33.762Z</time></trkpt><trkpt lat="43.2586483" lon="11.6752579"><ele>379.0</ele><time>2026-04-04T07:21:34.762Z</time></trkpt><trkpt lat="43.2587154" lon="11.6752211"><ele>379.0</ele><time>2026-04-04T07:21:36.762Z</time></trkpt><trkpt lat="43.2587137" lon="11.6751155"><ele>379.0</ele><time>2026-04-04T07:21:38.762Z</time></trkpt><trkpt lat="43.2586848" lon="11.6750144"><ele>379.0</ele><time>2026-04-04T07:21:39.762Z</time></trkpt><trkpt lat="43.2586521" lon="11.6748848"><ele>379.0</ele><time>2026-04-04T07:21:40.762Z</time></trkpt><trkpt lat="43.2586514" lon="11.6747744"><ele>379.0</ele><time>2026-04-04T07:21:41.762Z</time></trkpt><trkpt lat="43.2586747" lon="11.6746843"><ele>379.0</ele><time>2026-04-04T07:21:42.762Z</time></trkpt><trkpt lat="43.2587021" lon="11.6745892"><ele>379.0</ele><time>2026-04-04T07:21:43.762Z</time></trkpt><trkpt lat="43.258767" lon="11.6744668"><ele>379.0</ele><time>2026-04-04T07:21:45.762Z</time></trkpt><trkpt lat="43.2588417" lon="11.6743804"><ele>377.16666666666663</ele><time>2026-04-04T07:21:47.762Z</time></trkpt><trkpt lat="43.2589507" lon="11.6743481"><ele>375.3333333333333</ele><time>2026-04-04T07:21:49.762Z</time></trkpt><trkpt lat="43.2590198" lon="11.6743398"><ele>373.5</ele><time>2026-04-04T07:21:50.762Z</time></trkpt><trkpt lat="43.2590976" lon="11.6743426"><ele>371.6666666666667</ele><time>2026-04-04T07:21:51.762Z</time></trkpt><trkpt lat="43.2591694" lon="11.674352"><ele>369.83333333333337</ele><time>2026-04-04T07:21:52.762Z</time></trkpt><trkpt lat="43.2592667" lon="11.6743725"><ele>368.0</ele><time>2026-04-04T07:21:54.762Z</time></trkpt><trkpt lat="43.2592771" lon="11.6742543"><ele>368.0</ele><time>2026-04-04T07:21:56.762Z</time></trkpt><trkpt lat="43.2592606" lon="11.6741588"><ele>368.0</ele><time>2026-04-04T07:21:57.762Z</time></trkpt><trkpt lat="43.2592128" lon="11.674041"><ele>368.0</ele><time>2026-04-04T07:21:58.762Z</time></trkpt><trkpt lat="43.2591843" lon="11.6739364"><ele>368.0</ele><time>2026-04-04T07:21:59.763Z</time></trkpt><trkpt lat="43.2591544" lon="11.6738317"><ele>368.0</ele><time>2026-04-04T07:22:00.762Z</time></trkpt><trkpt lat="43.2591241" lon="11.6737306"><ele>368.0</ele><time>2026-04-04T07:22:01.763Z</time></trkpt><trkpt lat="43.2591303" lon="11.6735796"><ele>367.0</ele><time>2026-04-04T07:22:03.762Z</time></trkpt><trkpt lat="43.2592102" lon="11.6734374"><ele>366.0</ele><time>2026-04-04T07:22:05.762Z</time></trkpt><trkpt lat="43.2593131" lon="11.6733232"><ele>365.0</ele><time>2026-04-04T07:22:07.763Z</time></trkpt><trkpt lat="43.2593723" lon="11.6732875"><ele>364.0</ele><time>2026-04-04T07:22:08.762Z</time></trkpt><trkpt lat="43.2594393" lon="11.67326"><ele>363.0</ele><time>2026-04-04T07:22:09.762Z</time></trkpt><trkpt lat="43.2595385" lon="11.6732174"><ele>363.0</ele><time>2026-04-04T07:22:11.762Z</time></trkpt><trkpt lat="43.259658" lon="11.6731599"><ele>363.0</ele><time>2026-04-04T07:22:13.762Z</time></trkpt><trkpt lat="43.2597245" lon="11.6731174"><ele>363.0</ele><time>2026-04-04T07:22:14.762Z</time></trkpt><trkpt lat="43.2597901" lon="11.673068"><ele>363.0</ele><time>2026-04-04T07:22:15.762Z</time></trkpt><trkpt lat="43.2598529" lon="11.6730104"><ele>363.0</ele><time>2026-04-04T07:22:16.762Z</time></trkpt><trkpt lat="43.2599106" lon="11.6729353"><ele>363.0</ele><time>2026-04-04T07:22:17.763Z</time></trkpt><trkpt lat="43.2599629" lon="11.6728587"><ele>366.59999999999997</ele><time>2026-04-04T07:22:18.762Z</time></trkpt><trkpt lat="43.260025" lon="11.6727456"><ele>370.2</ele><time>2026-04-04T07:22:20.762Z</time></trkpt><trkpt lat="43.2600902" lon="11.6726867"><ele>373.8</ele><time>2026-04-04T07:22:23.762Z</time></trkpt><trkpt lat="43.2601637" lon="11.6725972"><ele>377.4</ele><time>2026-04-04T07:22:34.762Z</time></trkpt><trkpt lat="43.2602484" lon="11.6725468"><ele>381.0</ele><time>2026-04-04T07:22:36.762Z</time></trkpt><trkpt lat="43.2603339" lon="11.6725392"><ele>381.0</ele><time>2026-04-04T07:22:38.762Z</time></trkpt><trkpt lat="43.2604116" lon="11.6725196"><ele>381.0</ele><time>2026-04-04T07:22:40.762Z</time></trkpt><trkpt lat="43.2605008" lon="11.6725378"><ele>381.0</ele><time>2026-04-04T07:22:43.762Z</time></trkpt><trkpt lat="43.2605822" lon="11.6725629"><ele>381.0</ele><time>2026-04-04T07:22:46.762Z</time></trkpt><trkpt lat="43.2606427" lon="11.6726131"><ele>381.0</ele><time>2026-04-04T07:22:49.762Z</time></trkpt><trkpt lat="43.2606982" lon="11.6726589"><ele>381.0</ele><time>2026-04-04T07:22:51.762Z</time></trkpt><trkpt lat="43.2607695" lon="11.672749"><ele>384.0</ele><time>2026-04-04T07:22:53.762Z</time></trkpt><trkpt lat="43.260888" lon="11.6728437"><ele>387.0</ele><time>2026-04-04T07:22:55.762Z</time></trkpt><trkpt lat="43.2609677" lon="11.6728788"><ele>390.0</ele><time>2026-04-04T07:22:56.763Z</time></trkpt><trkpt lat="43.2610405" lon="11.6729119"><ele>393.0</ele><time>2026-04-04T07:22:57.762Z</time></trkpt><trkpt lat="43.2611169" lon="11.6729416"><ele>396.0</ele><time>2026-04-04T07:22:58.763Z</time></trkpt><trkpt lat="43.2611902" lon="11.6729769"><ele>396.0</ele><time>2026-04-04T07:22:59.763Z</time></trkpt><trkpt lat="43.2612744" lon="11.6730017"><ele>396.0</ele><time>2026-04-04T07:23:00.763Z</time></trkpt><trkpt lat="43.2613414" lon="11.6730082"><ele>396.0</ele><time>2026-04-04T07:23:01.762Z</time></trkpt><trkpt lat="43.2614412" lon="11.6729768"><ele>396.0</ele><time>2026-04-04T07:23:03.762Z</time></trkpt><trkpt lat="43.2615611" lon="11.6729426"><ele>396.0</ele><time>2026-04-04T07:23:05.762Z</time></trkpt><trkpt lat="43.2616911" lon="11.6729769"><ele>398.8333333333333</ele><time>2026-04-04T07:23:07.762Z</time></trkpt><trkpt lat="43.2617658" lon="11.6730216"><ele>401.66666666666663</ele><time>2026-04-04T07:23:08.762Z</time></trkpt><trkpt lat="43.2618342" lon="11.6730773"><ele>404.5</ele><time>2026-04-04T07:23:09.762Z</time></trkpt><trkpt lat="43.2618956" lon="11.6731282"><ele>407.3333333333333</ele><time>2026-04-04T07:23:10.763Z</time></trkpt><trkpt lat="43.2619675" lon="11.6731296"><ele>410.16666666666663</ele><time>2026-04-04T07:23:11.762Z</time></trkpt><trkpt lat="43.2620383" lon="11.6731215"><ele>413.0</ele><time>2026-04-04T07:23:12.762Z</time></trkpt><trkpt lat="43.2621146" lon="11.6730936"><ele>412.99999999999994</ele><time>2026-04-04T07:23:13.763Z</time></trkpt><trkpt lat="43.2621837" lon="11.6730736"><ele>413.0</ele><time>2026-04-04T07:23:14.762Z</time></trkpt><trkpt lat="43.2622462" lon="11.6730567"><ele>413.0</ele><time>2026-04-04T07:23:15.762Z</time></trkpt><trkpt lat="43.2623164" lon="11.6730992"><ele>413.0</ele><time>2026-04-04T07:23:17.762Z</time></trkpt><trkpt lat="43.2623397" lon="11.6732009"><ele>412.99999999999994</ele><time>2026-04-04T07:23:19.762Z</time></trkpt><trkpt lat="43.2623512" lon="11.6732946"><ele>413.0</ele><time>2026-04-04T07:23:21.762Z</time></trkpt><trkpt lat="43.2624074" lon="11.6734092"><ele>415.2</ele><time>2026-04-04T07:32:39.763Z</time></trkpt><trkpt lat="43.2624629" lon="11.6735155"><ele>417.4</ele><time>2026-04-04T07:32:42.763Z</time></trkpt><trkpt lat="43.262532" lon="11.6736649"><ele>419.59999999999997</ele><time>2026-04-04T07:32:44.763Z</time></trkpt><trkpt lat="43.262572" lon="11.6737465"><ele>421.79999999999995</ele><time>2026-04-04T07:32:45.763Z</time></trkpt><trkpt lat="43.262619" lon="11.6738372"><ele>424.0</ele><time>2026-04-04T07:32:46.763Z</time></trkpt><trkpt lat="43.2626727" lon="11.673936"><ele>424.0</ele><time>2026-04-04T07:32:47.763Z</time></trkpt><trkpt lat="43.2627186" lon="11.6740281"><ele>424.0</ele><time>2026-04-04T07:32:48.763Z</time></trkpt><trkpt lat="43.2627623" lon="11.6741095"><ele>424.0</ele><time>2026-04-04T07:32:49.763Z</time></trkpt><trkpt lat="43.2627953" lon="11.6741883"><ele>424.0</ele><time>2026-04-04T07:32:50.763Z</time></trkpt><trkpt lat="43.2628275" lon="11.6742755"><ele>424.0</ele><time>2026-04-04T07:32:51.763Z</time></trkpt><trkpt lat="43.2628578" lon="11.6743643"><ele>424.0</ele><time>2026-04-04T07:32:52.763Z</time></trkpt><trkpt lat="43.2628826" lon="11.6744524"><ele>424.0</ele><time>2026-04-04T07:32:53.763Z</time></trkpt><trkpt lat="43.2629101" lon="11.6745459"><ele>424.33333333333337</ele><time>2026-04-04T07:32:54.763Z</time></trkpt><trkpt lat="43.262951" lon="11.674642"><ele>424.6666666666667</ele><time>2026-04-04T07:32:55.763Z</time></trkpt><trkpt lat="43.2630011" lon="11.674731"><ele>425.0</ele><time>2026-04-04T07:32:56.763Z</time></trkpt><trkpt lat="43.2630644" lon="11.6747793"><ele>425.33333333333337</ele><time>2026-04-04T07:32:57.763Z</time></trkpt><trkpt lat="43.2631283" lon="11.6747871"><ele>425.6666666666667</ele><time>2026-04-04T07:32:58.763Z</time></trkpt><trkpt lat="43.263235" lon="11.6746978"><ele>426.0</ele><time>2026-04-04T07:33:00.763Z</time></trkpt><trkpt lat="43.2633166" lon="11.6746002"><ele>427.25</ele><time>2026-04-04T07:33:01.763Z</time></trkpt><trkpt lat="43.2634303" lon="11.6744798"><ele>428.5</ele><time>2026-04-04T07:33:02.763Z</time></trkpt><trkpt lat="43.2635451" lon="11.6743445"><ele>429.75</ele><time>2026-04-04T07:33:03.763Z</time></trkpt><trkpt lat="43.2636505" lon="11.6742204"><ele>431.0</ele><time>2026-04-04T07:33:04.764Z</time></trkpt><trkpt lat="43.2637622" lon="11.6741097"><ele>431.75</ele><time>2026-04-04T07:33:05.763Z</time></trkpt><trkpt lat="43.2638754" lon="11.6740062"><ele>432.5</ele><time>2026-04-04T07:33:06.763Z</time></trkpt><trkpt lat="43.2639897" lon="11.673917"><ele>433.25</ele><time>2026-04-04T07:33:07.763Z</time></trkpt><trkpt lat="43.2640738" lon="11.6738374"><ele>434.0</ele><time>2026-04-04T07:33:08.763Z</time></trkpt><trkpt lat="43.2641561" lon="11.6737635"><ele>434.0</ele><time>2026-04-04T07:33:09.763Z</time></trkpt><trkpt lat="43.2642384" lon="11.6736822"><ele>434.0</ele><time>2026-04-04T07:33:10.763Z</time></trkpt><trkpt lat="43.2643189" lon="11.6736298"><ele>434.0</ele><time>2026-04-04T07:33:11.763Z</time></trkpt><trkpt lat="43.2644058" lon="11.6736145"><ele>434.0</ele><time>2026-04-04T07:33:12.763Z</time></trkpt><trkpt lat="43.2644997" lon="11.6736243"><ele>434.0</ele><time>2026-04-04T07:33:13.763Z</time></trkpt><trkpt lat="43.2645911" lon="11.6736438"><ele>434.0</ele><time>2026-04-04T07:33:14.763Z</time></trkpt><trkpt lat="43.2646831" lon="11.6736388"><ele>434.0</ele><time>2026-04-04T07:33:15.763Z</time></trkpt><trkpt lat="43.264769" lon="11.6736152"><ele>434.0</ele><time>2026-04-04T07:33:16.763Z</time></trkpt><trkpt lat="43.2648544" lon="11.6735812"><ele>434.0</ele><time>2026-04-04T07:33:17.764Z</time></trkpt><trkpt lat="43.2649517" lon="11.6735158"><ele>434.0</ele><time>2026-04-04T07:33:18.763Z</time></trkpt><trkpt lat="43.2650569" lon="11.6734247"><ele>434.75</ele><time>2026-04-04T07:33:19.763Z</time></trkpt><trkpt lat="43.2651683" lon="11.673322"><ele>435.5</ele><time>2026-04-04T07:33:20.763Z</time></trkpt><trkpt lat="43.2652776" lon="11.6732158"><ele>436.25</ele><time>2026-04-04T07:33:21.763Z</time></trkpt><trkpt lat="43.2653662" lon="11.6730989"><ele>437.0</ele><time>2026-04-04T07:33:22.763Z</time></trkpt><trkpt lat="43.2654504" lon="11.6729868"><ele>437.0</ele><time>2026-04-04T07:33:23.764Z</time></trkpt><trkpt lat="43.2655306" lon="11.6729061"><ele>437.0</ele><time>2026-04-04T07:33:24.763Z</time></trkpt><trkpt lat="43.2655929" lon="11.6728569"><ele>437.0</ele><time>2026-04-04T07:33:25.763Z</time></trkpt><trkpt lat="43.2656597" lon="11.6728193"><ele>437.0</ele><time>2026-04-04T07:33:26.763Z</time></trkpt><trkpt lat="43.26572" lon="11.6727689"><ele>437.0</ele><time>2026-04-04T07:33:27.763Z</time></trkpt><trkpt lat="43.2657729" lon="11.6727161"><ele>437.0</ele><time>2026-04-04T07:33:28.763Z</time></trkpt><trkpt lat="43.2658181" lon="11.6726554"><ele>437.0</ele><time>2026-04-04T07:33:29.763Z</time></trkpt><trkpt lat="43.2658746" lon="11.6725256"><ele>437.8333333333333</ele><time>2026-04-04T07:33:31.763Z</time></trkpt><trkpt lat="43.2659328" lon="11.672405"><ele>438.66666666666663</ele><time>2026-04-04T07:33:33.763Z</time></trkpt><trkpt lat="43.2659825" lon="11.6723463"><ele>439.5</ele><time>2026-04-04T07:33:34.763Z</time></trkpt><trkpt lat="43.2660428" lon="11.6722849"><ele>440.33333333333337</ele><time>2026-04-04T07:33:35.763Z</time></trkpt><trkpt lat="43.2661174" lon="11.6722518"><ele>441.1666666666667</ele><time>2026-04-04T07:33:36.763Z</time></trkpt><trkpt lat="43.2662084" lon="11.6722338"><ele>442.0</ele><time>2026-04-04T07:33:37.763Z</time></trkpt><trkpt lat="43.2663028" lon="11.6722161"><ele>442.00000000000006</ele><time>2026-04-04T07:33:38.763Z</time></trkpt><trkpt lat="43.2663897" lon="11.6721795"><ele>442.0</ele><time>2026-04-04T07:33:39.763Z</time></trkpt><trkpt lat="43.2664726" lon="11.672149"><ele>442.0</ele><time>2026-04-04T07:33:40.763Z</time></trkpt><trkpt lat="43.2665512" lon="11.6721279"><ele>442.0</ele><time>2026-04-04T07:33:41.763Z</time></trkpt><trkpt lat="43.2666253" lon="11.6721498"><ele>442.00000000000006</ele><time>2026-04-04T07:33:42.764Z</time></trkpt><trkpt lat="43.266698" lon="11.6722067"><ele>442.0</ele><time>2026-04-04T07:33:43.763Z</time></trkpt><trkpt lat="43.2667766" lon="11.6722681"><ele>441.20000000000005</ele><time>2026-04-04T07:33:44.763Z</time></trkpt><trkpt lat="43.2668585" lon="11.6723069"><ele>440.40000000000003</ele><time>2026-04-04T07:33:45.763Z</time></trkpt><trkpt lat="43.2669517" lon="11.6723168"><ele>439.59999999999997</ele><time>2026-04-04T07:33:46.763Z</time></trkpt><trkpt lat="43.2670661" lon="11.6723069"><ele>438.79999999999995</ele><time>2026-04-04T07:33:47.763Z</time></trkpt><trkpt lat="43.2672012" lon="11.6722939"><ele>438.0</ele><time>2026-04-04T07:33:48.763Z</time></trkpt><trkpt lat="43.2673412" lon="11.6722775"><ele>436.5</ele><time>2026-04-04T07:33:49.763Z</time></trkpt><trkpt lat="43.2674734" lon="11.6722673"><ele>435.0</ele><time>2026-04-04T07:33:50.765Z</time></trkpt><trkpt lat="43.2676066" lon="11.6722699"><ele>433.5</ele><time>2026-04-04T07:33:51.764Z</time></trkpt><trkpt lat="43.2677357" lon="11.6722899"><ele>432.0</ele><time>2026-04-04T07:33:52.764Z</time></trkpt><trkpt lat="43.2678589" lon="11.6723136"><ele>432.0</ele><time>2026-04-04T07:33:53.764Z</time></trkpt><trkpt lat="43.2679592" lon="11.6723348"><ele>432.00000000000006</ele><time>2026-04-04T07:33:54.764Z</time></trkpt><trkpt lat="43.2680635" lon="11.6723256"><ele>432.00000000000006</ele><time>2026-04-04T07:33:55.764Z</time></trkpt><trkpt lat="43.2681783" lon="11.6722847"><ele>432.0</ele><time>2026-04-04T07:33:56.764Z</time></trkpt><trkpt lat="43.2682918" lon="11.6722485"><ele>432.0</ele><time>2026-04-04T07:33:57.764Z</time></trkpt><trkpt lat="43.2683873" lon="11.6722079"><ele>430.6666666666667</ele><time>2026-04-04T07:33:58.764Z</time></trkpt><trkpt lat="43.2684705" lon="11.6721554"><ele>429.33333333333337</ele><time>2026-04-04T07:33:59.764Z</time></trkpt><trkpt lat="43.2685494" lon="11.6720899"><ele>428.0</ele><time>2026-04-04T07:34:00.765Z</time></trkpt><trkpt lat="43.2686167" lon="11.6720057"><ele>426.6666666666667</ele><time>2026-04-04T07:34:01.764Z</time></trkpt><trkpt lat="43.2686705" lon="11.6719134"><ele>425.33333333333337</ele><time>2026-04-04T07:34:02.764Z</time></trkpt><trkpt lat="43.2687147" lon="11.6718112"><ele>424.0</ele><time>2026-04-04T07:34:03.764Z</time></trkpt><trkpt lat="43.2687531" lon="11.6716889"><ele>423.1666666666667</ele><time>2026-04-04T07:34:04.764Z</time></trkpt><trkpt lat="43.2687859" lon="11.6715753"><ele>422.33333333333337</ele><time>2026-04-04T07:34:05.764Z</time></trkpt><trkpt lat="43.268813" lon="11.6714832"><ele>421.5</ele><time>2026-04-04T07:34:06.764Z</time></trkpt><trkpt lat="43.2688811" lon="11.6714042"><ele>420.66666666666663</ele><time>2026-04-04T07:34:08.764Z</time></trkpt><trkpt lat="43.2689344" lon="11.6714899"><ele>419.8333333333333</ele><time>2026-04-04T07:34:10.764Z</time></trkpt><trkpt lat="43.2689604" lon="11.671609"><ele>419.0</ele><time>2026-04-04T07:34:11.764Z</time></trkpt><trkpt lat="43.2689938" lon="11.6717341"><ele>417.79999999999995</ele><time>2026-04-04T07:34:12.764Z</time></trkpt><trkpt lat="43.269037" lon="11.6718546"><ele>416.59999999999997</ele><time>2026-04-04T07:34:13.764Z</time></trkpt><trkpt lat="43.2690925" lon="11.6719792"><ele>415.4</ele><time>2026-04-04T07:34:14.764Z</time></trkpt><trkpt lat="43.269153" lon="11.6721017"><ele>414.2</ele><time>2026-04-04T07:34:15.764Z</time></trkpt><trkpt lat="43.2692204" lon="11.6722293"><ele>413.0</ele><time>2026-04-04T07:34:16.764Z</time></trkpt><trkpt lat="43.2692818" lon="11.6723511"><ele>412.66666666666663</ele><time>2026-04-04T07:34:17.764Z</time></trkpt><trkpt lat="43.2693307" lon="11.6724616"><ele>412.3333333333333</ele><time>2026-04-04T07:34:18.764Z</time></trkpt><trkpt lat="43.2693739" lon="11.6725719"><ele>412.0</ele><time>2026-04-04T07:34:19.764Z</time></trkpt><trkpt lat="43.2694189" lon="11.6726756"><ele>411.66666666666663</ele><time>2026-04-04T07:34:20.764Z</time></trkpt><trkpt lat="43.2694653" lon="11.6727574"><ele>411.3333333333333</ele><time>2026-04-04T07:34:21.764Z</time></trkpt><trkpt lat="43.2695231" lon="11.672823"><ele>411.0</ele><time>2026-04-04T07:34:22.764Z</time></trkpt><trkpt lat="43.2695818" lon="11.6728662"><ele>410.8333333333333</ele><time>2026-04-04T07:34:23.764Z</time></trkpt><trkpt lat="43.2696501" lon="11.6729043"><ele>410.66666666666663</ele><time>2026-04-04T07:34:24.764Z</time></trkpt><trkpt lat="43.2697219" lon="11.6729459"><ele>410.5</ele><time>2026-04-04T07:34:25.764Z</time></trkpt><trkpt lat="43.2697888" lon="11.6729859"><ele>410.3333333333333</ele><time>2026-04-04T07:34:26.765Z</time></trkpt><trkpt lat="43.2698623" lon="11.6730026"><ele>410.16666666666663</ele><time>2026-04-04T07:34:27.764Z</time></trkpt><trkpt lat="43.2699418" lon="11.673"><ele>410.0</ele><time>2026-04-04T07:34:28.764Z</time></trkpt><trkpt lat="43.2700167" lon="11.6729955"><ele>408.3333333333333</ele><time>2026-04-04T07:34:29.764Z</time></trkpt><trkpt lat="43.2701013" lon="11.6730077"><ele>406.66666666666663</ele><time>2026-04-04T07:34:30.765Z</time></trkpt><trkpt lat="43.2701859" lon="11.6730324"><ele>405.0</ele><time>2026-04-04T07:34:31.764Z</time></trkpt><trkpt lat="43.2702699" lon="11.6730785"><ele>403.33333333333337</ele><time>2026-04-04T07:34:32.764Z</time></trkpt><trkpt lat="43.2703539" lon="11.6731292"><ele>401.6666666666667</ele><time>2026-04-04T07:34:33.764Z</time></trkpt><trkpt lat="43.2704145" lon="11.6732151"><ele>400.0</ele><time>2026-04-04T07:34:34.764Z</time></trkpt><trkpt lat="43.2704643" lon="11.6733261"><ele>400.00000000000006</ele><time>2026-04-04T07:34:35.764Z</time></trkpt><trkpt lat="43.2705185" lon="11.6734337"><ele>400.0</ele><time>2026-04-04T07:34:36.764Z</time></trkpt><trkpt lat="43.270579" lon="11.6735156"><ele>400.0</ele><time>2026-04-04T07:34:37.764Z</time></trkpt><trkpt lat="43.2706471" lon="11.6735773"><ele>400.0</ele><time>2026-04-04T07:34:38.764Z</time></trkpt><trkpt lat="43.2707095" lon="11.67365"><ele>400.00000000000006</ele><time>2026-04-04T07:34:39.764Z</time></trkpt><trkpt lat="43.2707511" lon="11.6737396"><ele>400.0</ele><time>2026-04-04T07:34:40.764Z</time></trkpt><trkpt lat="43.2707812" lon="11.673854"><ele>399.4</ele><time>2026-04-04T07:34:41.764Z</time></trkpt><trkpt lat="43.2708025" lon="11.6739891"><ele>398.8</ele><time>2026-04-04T07:34:42.764Z</time></trkpt><trkpt lat="43.2708173" lon="11.6741261"><ele>398.20000000000005</ele><time>2026-04-04T07:34:43.764Z</time></trkpt><trkpt lat="43.2708469" lon="11.6742427"><ele>397.6</ele><time>2026-04-04T07:34:44.765Z</time></trkpt><trkpt lat="43.2708985" lon="11.6743187"><ele>397.0</ele><time>2026-04-04T07:34:45.764Z</time></trkpt><trkpt lat="43.2709839" lon="11.6743731"><ele>397.00000000000006</ele><time>2026-04-04T07:34:46.764Z</time></trkpt><trkpt lat="43.2710761" lon="11.6744266"><ele>397.0</ele><time>2026-04-04T07:34:47.764Z</time></trkpt><trkpt lat="43.2711393" lon="11.674461"><ele>397.0</ele><time>2026-04-04T07:34:48.764Z</time></trkpt><trkpt lat="43.2712103" lon="11.6745507"><ele>397.0</ele><time>2026-04-04T07:34:50.765Z</time></trkpt><trkpt lat="43.2712657" lon="11.6746448"><ele>397.00000000000006</ele><time>2026-04-04T07:34:52.764Z</time></trkpt><trkpt lat="43.2713059" lon="11.6747283"><ele>397.0</ele><time>2026-04-04T07:34:54.764Z</time></trkpt><trkpt lat="43.2713512" lon="11.6748397"><ele>396.0</ele><time>2026-04-04T07:34:56.764Z</time></trkpt><trkpt lat="43.2713749" lon="11.6749213"><ele>395.0</ele><time>2026-04-04T07:34:58.764Z</time></trkpt><trkpt lat="43.2714368" lon="11.67483"><ele>394.0</ele><time>2026-04-04T07:35:01.764Z</time></trkpt><trkpt lat="43.2714904" lon="11.6747182"><ele>393.0</ele><time>2026-04-04T07:35:03.764Z</time></trkpt><trkpt lat="43.2715442" lon="11.6746088"><ele>392.0</ele><time>2026-04-04T07:35:05.764Z</time></trkpt><trkpt lat="43.2716211" lon="11.6745006"><ele>391.8333333333333</ele><time>2026-04-04T07:35:07.765Z</time></trkpt><trkpt lat="43.2716809" lon="11.6743776"><ele>391.66666666666663</ele><time>2026-04-04T07:35:09.765Z</time></trkpt><trkpt lat="43.2717074" lon="11.6742931"><ele>391.5</ele><time>2026-04-04T07:35:10.765Z</time></trkpt><trkpt lat="43.2717733" lon="11.6741907"><ele>391.33333333333337</ele><time>2026-04-04T07:35:12.764Z</time></trkpt><trkpt lat="43.2718402" lon="11.674152"><ele>391.1666666666667</ele><time>2026-04-04T07:35:14.764Z</time></trkpt><trkpt lat="43.2719039" lon="11.6741712"><ele>391.0</ele><time>2026-04-04T07:35:15.764Z</time></trkpt><trkpt lat="43.2719921" lon="11.6742166"><ele>391.0</ele><time>2026-04-04T07:35:17.765Z</time></trkpt><trkpt lat="43.272078" lon="11.6743438"><ele>391.0</ele><time>2026-04-04T07:35:19.764Z</time></trkpt><trkpt lat="43.2721458" lon="11.674414"><ele>391.0</ele><time>2026-04-04T07:35:20.765Z</time></trkpt><trkpt lat="43.2721956" lon="11.67448"><ele>391.0</ele><time>2026-04-04T07:35:21.764Z</time></trkpt><trkpt lat="43.272284" lon="11.6745711"><ele>391.0</ele><time>2026-04-04T07:35:23.764Z</time></trkpt><trkpt lat="43.2723753" lon="11.6746481"><ele>389.20000000000005</ele><time>2026-04-04T07:35:25.764Z</time></trkpt><trkpt lat="43.2724302" lon="11.6746906"><ele>387.40000000000003</ele><time>2026-04-04T07:35:26.764Z</time></trkpt><trkpt lat="43.2725415" lon="11.674741"><ele>385.6</ele><time>2026-04-04T07:35:28.764Z</time></trkpt><trkpt lat="43.2726491" lon="11.674777"><ele>383.8</ele><time>2026-04-04T07:35:30.764Z</time></trkpt><trkpt lat="43.2727679" lon="11.6747845"><ele>382.0</ele><time>2026-04-04T07:35:32.764Z</time></trkpt><trkpt lat="43.2728718" lon="11.6747778"><ele>382.0</ele><time>2026-04-04T07:35:34.764Z</time></trkpt><trkpt lat="43.2729421" lon="11.6747595"><ele>382.0</ele><time>2026-04-04T07:35:36.764Z</time></trkpt><trkpt lat="43.273029" lon="11.6747177"><ele>382.0</ele><time>2026-04-04T07:35:38.764Z</time></trkpt><trkpt lat="43.2731364" lon="11.6746618"><ele>382.0</ele><time>2026-04-04T07:35:40.764Z</time></trkpt><trkpt lat="43.2731909" lon="11.6746137"><ele>382.0</ele><time>2026-04-04T07:35:41.764Z</time></trkpt><trkpt lat="43.2732499" lon="11.6745099"><ele>382.0</ele><time>2026-04-04T07:35:43.764Z</time></trkpt><trkpt lat="43.2732778" lon="11.6744053"><ele>378.8333333333333</ele><time>2026-04-04T07:35:45.764Z</time></trkpt><trkpt lat="43.2732897" lon="11.6742989"><ele>375.66666666666663</ele><time>2026-04-04T07:35:47.764Z</time></trkpt><trkpt lat="43.2732772" lon="11.6741723"><ele>372.5</ele><time>2026-04-04T07:35:49.764Z</time></trkpt><trkpt lat="43.2732593" lon="11.6740749"><ele>369.3333333333333</ele><time>2026-04-04T07:35:50.765Z</time></trkpt><trkpt lat="43.2732527" lon="11.6739752"><ele>366.1666666666667</ele><time>2026-04-04T07:35:51.765Z</time></trkpt><trkpt lat="43.273257" lon="11.6738749"><ele>363.0</ele><time>2026-04-04T07:35:52.764Z</time></trkpt><trkpt lat="43.273251" lon="11.6737291"><ele>363.0</ele><time>2026-04-04T07:35:54.765Z</time></trkpt><trkpt lat="43.2732431" lon="11.6736371"><ele>363.0</ele><time>2026-04-04T07:35:56.764Z</time></trkpt><trkpt lat="43.2732283" lon="11.6735009"><ele>363.0</ele><time>2026-04-04T07:35:58.764Z</time></trkpt><trkpt lat="43.2732152" lon="11.6733806"><ele>363.0</ele><time>2026-04-04T07:35:59.764Z</time></trkpt><trkpt lat="43.2732097" lon="11.6732365"><ele>363.0</ele><time>2026-04-04T07:36:00.764Z</time></trkpt><trkpt lat="43.2732019" lon="11.673083"><ele>361.4</ele><time>2026-04-04T07:36:01.764Z</time></trkpt><trkpt lat="43.2731959" lon="11.6729411"><ele>359.79999999999995</ele><time>2026-04-04T07:36:02.764Z</time></trkpt><trkpt lat="43.2731915" lon="11.6728116"><ele>358.2</ele><time>2026-04-04T07:36:03.764Z</time></trkpt><trkpt lat="43.273185" lon="11.6727073"><ele>356.6</ele><time>2026-04-04T07:36:04.764Z</time></trkpt><trkpt lat="43.2731649" lon="11.672608"><ele>355.0</ele><time>2026-04-04T07:36:06.765Z</time></trkpt><trkpt lat="43.2731953" lon="11.6724698"><ele>354.2</ele><time>2026-04-04T07:36:08.764Z</time></trkpt><trkpt lat="43.273279" lon="11.6723324"><ele>353.4</ele><time>2026-04-04T07:36:10.765Z</time></trkpt><trkpt lat="43.2733031" lon="11.672172"><ele>352.6</ele><time>2026-04-04T07:36:12.764Z</time></trkpt><trkpt lat="43.2733194" lon="11.6720777"><ele>351.8</ele><time>2026-04-04T07:36:13.764Z</time></trkpt><trkpt lat="43.2733421" lon="11.6719732"><ele>351.0</ele><time>2026-04-04T07:36:14.764Z</time></trkpt><trkpt lat="43.2733774" lon="11.6718652"><ele>350.6666666666667</ele><time>2026-04-04T07:36:15.765Z</time></trkpt><trkpt lat="43.2734058" lon="11.6717464"><ele>350.3333333333333</ele><time>2026-04-04T07:36:16.765Z</time></trkpt><trkpt lat="43.2734326" lon="11.6716253"><ele>350.0</ele><time>2026-04-04T07:36:17.764Z</time></trkpt><trkpt lat="43.2734637" lon="11.6715102"><ele>349.66666666666663</ele><time>2026-04-04T07:36:18.764Z</time></trkpt><trkpt lat="43.2734955" lon="11.6714036"><ele>349.3333333333333</ele><time>2026-04-04T07:36:19.764Z</time></trkpt><trkpt lat="43.2735277" lon="11.6712925"><ele>349.0</ele><time>2026-04-04T07:36:20.764Z</time></trkpt><trkpt lat="43.2735644" lon="11.6711824"><ele>347.3333333333333</ele><time>2026-04-04T07:36:21.764Z</time></trkpt><trkpt lat="43.2735895" lon="11.6710807"><ele>345.66666666666663</ele><time>2026-04-04T07:36:22.764Z</time></trkpt><trkpt lat="43.2736104" lon="11.6709777"><ele>344.0</ele><time>2026-04-04T07:36:23.764Z</time></trkpt><trkpt lat="43.2736315" lon="11.6708612"><ele>342.3333333333333</ele><time>2026-04-04T07:36:24.764Z</time></trkpt><trkpt lat="43.2736468" lon="11.6707554"><ele>340.6666666666667</ele><time>2026-04-04T07:36:25.764Z</time></trkpt><trkpt lat="43.273666" lon="11.6706637"><ele>339.0</ele><time>2026-04-04T07:36:26.764Z</time></trkpt><trkpt lat="43.2736748" lon="11.6705688"><ele>339.0</ele><time>2026-04-04T07:36:27.765Z</time></trkpt><trkpt lat="43.273667" lon="11.6704768"><ele>339.0</ele><time>2026-04-04T07:36:28.765Z</time></trkpt><trkpt lat="43.2736131" lon="11.6703749"><ele>339.0</ele><time>2026-04-04T07:36:31.764Z</time></trkpt><trkpt lat="43.2735331" lon="11.6702719"><ele>339.0</ele><time>2026-04-04T07:36:33.764Z</time></trkpt><trkpt lat="43.2735142" lon="11.6701566"><ele>339.0</ele><time>2026-04-04T07:36:35.764Z</time></trkpt><trkpt lat="43.2736105" lon="11.6701013"><ele>335.5</ele><time>2026-04-04T07:36:37.764Z</time></trkpt><trkpt lat="43.2736736" lon="11.6701298"><ele>332.0</ele><time>2026-04-04T07:36:38.764Z</time></trkpt><trkpt lat="43.2737351" lon="11.6701571"><ele>328.5</ele><time>2026-04-04T07:36:39.764Z</time></trkpt><trkpt lat="43.2738195" lon="11.6701544"><ele>325.0</ele><time>2026-04-04T07:36:41.764Z</time></trkpt><trkpt lat="43.2739238" lon="11.6700824"><ele>321.5</ele><time>2026-04-04T07:36:43.764Z</time></trkpt><trkpt lat="43.2740012" lon="11.6700275"><ele>318.0</ele><time>2026-04-04T07:36:44.764Z</time></trkpt><trkpt lat="43.2740833" lon="11.6699897"><ele>317.1666666666667</ele><time>2026-04-04T07:36:45.764Z</time></trkpt><trkpt lat="43.2741746" lon="11.6699603"><ele>316.3333333333333</ele><time>2026-04-04T07:36:46.765Z</time></trkpt><trkpt lat="43.274263" lon="11.6699411"><ele>315.5</ele><time>2026-04-04T07:36:47.764Z</time></trkpt><trkpt lat="43.2743435" lon="11.6699214"><ele>314.66666666666663</ele><time>2026-04-04T07:36:48.764Z</time></trkpt><trkpt lat="43.2744202" lon="11.6698948"><ele>313.8333333333333</ele><time>2026-04-04T07:36:49.764Z</time></trkpt><trkpt lat="43.2745182" lon="11.6698676"><ele>313.0</ele><time>2026-04-04T07:36:50.764Z</time></trkpt><trkpt lat="43.2746267" lon="11.6698214"><ele>313.0</ele><time>2026-04-04T07:36:51.764Z</time></trkpt><trkpt lat="43.2747467" lon="11.6697847"><ele>313.0</ele><time>2026-04-04T07:36:52.764Z</time></trkpt><trkpt lat="43.274853" lon="11.6697553"><ele>313.0</ele><time>2026-04-04T07:36:53.764Z</time></trkpt><trkpt lat="43.2749422" lon="11.6697398"><ele>313.0</ele><time>2026-04-04T07:36:54.765Z</time></trkpt><trkpt lat="43.2750335" lon="11.6697339"><ele>313.0</ele><time>2026-04-04T07:36:55.764Z</time></trkpt><trkpt lat="43.2751318" lon="11.6697308"><ele>314.0</ele><time>2026-04-04T07:36:56.764Z</time></trkpt><trkpt lat="43.2752153" lon="11.6697394"><ele>315.0</ele><time>2026-04-04T07:36:57.764Z</time></trkpt><trkpt lat="43.2752736" lon="11.6697744"><ele>316.0</ele><time>2026-04-04T07:36:58.764Z</time></trkpt><trkpt lat="43.275348" lon="11.6698592"><ele>317.0</ele><time>2026-04-04T07:37:00.764Z</time></trkpt><trkpt lat="43.2754307" lon="11.6699116"><ele>318.0</ele><time>2026-04-04T07:37:02.764Z</time></trkpt><trkpt lat="43.2755275" lon="11.669973"><ele>319.0</ele><time>2026-04-04T07:37:04.764Z</time></trkpt><trkpt lat="43.2755824" lon="11.6700163"><ele>319.6</ele><time>2026-04-04T07:37:05.764Z</time></trkpt><trkpt lat="43.2756416" lon="11.6700785"><ele>320.2</ele><time>2026-04-04T07:37:06.764Z</time></trkpt><trkpt lat="43.2757499" lon="11.6701392"><ele>320.8</ele><time>2026-04-04T07:37:08.764Z</time></trkpt><trkpt lat="43.2758194" lon="11.670195"><ele>321.40000000000003</ele><time>2026-04-04T07:37:10.764Z</time></trkpt><trkpt lat="43.2758629" lon="11.6702875"><ele>322.0</ele><time>2026-04-04T07:37:12.764Z</time></trkpt><trkpt lat="43.2758651" lon="11.6704266"><ele>322.0</ele><time>2026-04-04T07:37:14.764Z</time></trkpt><trkpt lat="43.2758623" lon="11.6705221"><ele>322.0</ele><time>2026-04-04T07:37:15.764Z</time></trkpt><trkpt lat="43.2758462" lon="11.6706271"><ele>322.0</ele><time>2026-04-04T07:37:16.764Z</time></trkpt><trkpt lat="43.2758394" lon="11.6707645"><ele>322.0</ele><time>2026-04-04T07:37:17.764Z</time></trkpt><trkpt lat="43.2758271" lon="11.6708877"><ele>322.0</ele><time>2026-04-04T07:37:18.764Z</time></trkpt><trkpt lat="43.275819" lon="11.671003"><ele>322.0</ele><time>2026-04-04T07:37:19.764Z</time></trkpt><trkpt lat="43.2758312" lon="11.6710988"><ele>322.3333333333333</ele><time>2026-04-04T07:37:20.764Z</time></trkpt><trkpt lat="43.2758688" lon="11.6711874"><ele>322.66666666666663</ele><time>2026-04-04T07:37:21.764Z</time></trkpt><trkpt lat="43.2759211" lon="11.6712646"><ele>323.0</ele><time>2026-04-04T07:37:22.764Z</time></trkpt><trkpt lat="43.2759897" lon="11.6713283"><ele>323.3333333333333</ele><time>2026-04-04T07:37:23.765Z</time></trkpt><trkpt lat="43.2760773" lon="11.6713685"><ele>323.6666666666667</ele><time>2026-04-04T07:37:24.764Z</time></trkpt><trkpt lat="43.2761696" lon="11.6713879"><ele>324.0</ele><time>2026-04-04T07:37:25.765Z</time></trkpt><trkpt lat="43.2762581" lon="11.6713651"><ele>324.0</ele><time>2026-04-04T07:37:26.764Z</time></trkpt><trkpt lat="43.2763427" lon="11.6713154"><ele>324.0</ele><time>2026-04-04T07:37:27.764Z</time></trkpt><trkpt lat="43.2764271" lon="11.6712304"><ele>324.0</ele><time>2026-04-04T07:37:28.764Z</time></trkpt><trkpt lat="43.2765342" lon="11.6711015"><ele>324.0</ele><time>2026-04-04T07:37:29.764Z</time></trkpt><trkpt lat="43.2766561" lon="11.6709519"><ele>324.5</ele><time>2026-04-04T07:37:30.765Z</time></trkpt><trkpt lat="43.2767589" lon="11.6708267"><ele>325.0</ele><time>2026-04-04T07:37:31.764Z</time></trkpt><trkpt lat="43.2768618" lon="11.6707201"><ele>325.5</ele><time>2026-04-04T07:37:32.764Z</time></trkpt><trkpt lat="43.2769421" lon="11.6706488"><ele>326.0</ele><time>2026-04-04T07:37:33.764Z</time></trkpt><trkpt lat="43.277019" lon="11.6705849"><ele>326.0</ele><time>2026-04-04T07:37:34.765Z</time></trkpt><trkpt lat="43.2770895" lon="11.6705159"><ele>326.0</ele><time>2026-04-04T07:37:35.764Z</time></trkpt><trkpt lat="43.2771608" lon="11.6704557"><ele>326.0</ele><time>2026-04-04T07:37:36.764Z</time></trkpt><trkpt lat="43.2772517" lon="11.670449"><ele>326.0</ele><time>2026-04-04T07:37:37.764Z</time></trkpt><trkpt lat="43.2773366" lon="11.6704816"><ele>326.0</ele><time>2026-04-04T07:37:38.764Z</time></trkpt><trkpt lat="43.2774078" lon="11.6705353"><ele>326.0</ele><time>2026-04-04T07:37:39.764Z</time></trkpt><trkpt lat="43.2774829" lon="11.6706259"><ele>326.0</ele><time>2026-04-04T07:37:40.764Z</time></trkpt><trkpt lat="43.2775637" lon="11.6707159"><ele>326.0</ele><time>2026-04-04T07:37:41.764Z</time></trkpt><trkpt lat="43.2776325" lon="11.6708217"><ele>326.0</ele><time>2026-04-04T07:37:42.765Z</time></trkpt><trkpt lat="43.2776984" lon="11.6709404"><ele>326.0</ele><time>2026-04-04T07:37:43.764Z</time></trkpt><trkpt lat="43.2777765" lon="11.6710791"><ele>326.0</ele><time>2026-04-04T07:37:44.764Z</time></trkpt><trkpt lat="43.2778441" lon="11.6712182"><ele>326.0</ele><time>2026-04-04T07:37:45.764Z</time></trkpt><trkpt lat="43.277906" lon="11.671344"><ele>326.0</ele><time>2026-04-04T07:37:46.765Z</time></trkpt><trkpt lat="43.2779628" lon="11.6714698"><ele>326.0</ele><time>2026-04-04T07:37:47.764Z</time></trkpt><trkpt lat="43.2780126" lon="11.6715883"><ele>326.0</ele><time>2026-04-04T07:37:48.764Z</time></trkpt><trkpt lat="43.2780576" lon="11.6717055"><ele>326.0</ele><time>2026-04-04T07:37:49.764Z</time></trkpt><trkpt lat="43.2781048" lon="11.6718308"><ele>328.0</ele><time>2026-04-04T07:37:50.764Z</time></trkpt><trkpt lat="43.2781478" lon="11.671954"><ele>330.0</ele><time>2026-04-04T07:37:51.764Z</time></trkpt><trkpt lat="43.2781861" lon="11.672067"><ele>332.0</ele><time>2026-04-04T07:37:52.764Z</time></trkpt><trkpt lat="43.2782253" lon="11.6721893"><ele>334.0</ele><time>2026-04-04T07:37:53.764Z</time></trkpt><trkpt lat="43.2782464" lon="11.6723442"><ele>336.0</ele><time>2026-04-04T07:37:54.764Z</time></trkpt><trkpt lat="43.2782735" lon="11.6724908"><ele>336.0</ele><time>2026-04-04T07:37:55.764Z</time></trkpt><trkpt lat="43.2782996" lon="11.6726174"><ele>336.0</ele><time>2026-04-04T07:37:56.764Z</time></trkpt><trkpt lat="43.2783337" lon="11.6727381"><ele>336.0</ele><time>2026-04-04T07:37:57.764Z</time></trkpt><trkpt lat="43.2783649" lon="11.672828"><ele>336.0</ele><time>2026-04-04T07:37:58.765Z</time></trkpt><trkpt lat="43.2784319" lon="11.6729517"><ele>336.0</ele><time>2026-04-04T07:38:00.764Z</time></trkpt><trkpt lat="43.2784679" lon="11.6730362"><ele>336.0</ele><time>2026-04-04T07:38:01.764Z</time></trkpt><trkpt lat="43.2784968" lon="11.6731414"><ele>335.8333333333333</ele><time>2026-04-04T07:38:02.764Z</time></trkpt><trkpt lat="43.2785124" lon="11.6732445"><ele>335.6666666666667</ele><time>2026-04-04T07:38:03.764Z</time></trkpt><trkpt lat="43.2785324" lon="11.6733355"><ele>335.5</ele><time>2026-04-04T07:38:04.765Z</time></trkpt><trkpt lat="43.2785558" lon="11.6734191"><ele>335.33333333333337</ele><time>2026-04-04T07:38:05.764Z</time></trkpt><trkpt lat="43.2786245" lon="11.6735341"><ele>335.1666666666667</ele><time>2026-04-04T07:38:07.764Z</time></trkpt><trkpt lat="43.2787126" lon="11.6736624"><ele>335.0</ele><time>2026-04-04T07:38:09.764Z</time></trkpt><trkpt lat="43.2787625" lon="11.673724"><ele>335.33333333333337</ele><time>2026-04-04T07:38:10.765Z</time></trkpt><trkpt lat="43.278812" lon="11.6737866"><ele>335.6666666666667</ele><time>2026-04-04T07:38:11.764Z</time></trkpt><trkpt lat="43.2788592" lon="11.6738598"><ele>336.0</ele><time>2026-04-04T07:38:12.764Z</time></trkpt><trkpt lat="43.2789078" lon="11.6739366"><ele>336.3333333333333</ele><time>2026-04-04T07:38:13.764Z</time></trkpt><trkpt lat="43.2789521" lon="11.6740174"><ele>336.66666666666663</ele><time>2026-04-04T07:38:14.764Z</time></trkpt><trkpt lat="43.2790229" lon="11.6740983"><ele>337.0</ele><time>2026-04-04T07:38:15.764Z</time></trkpt><trkpt lat="43.2791062" lon="11.6741536"><ele>338.0</ele><time>2026-04-04T07:38:16.764Z</time></trkpt><trkpt lat="43.27919" lon="11.6741885"><ele>339.0</ele><time>2026-04-04T07:38:17.764Z</time></trkpt><trkpt lat="43.27926" lon="11.6742089"><ele>340.0</ele><time>2026-04-04T07:38:18.764Z</time></trkpt><trkpt lat="43.2793368" lon="11.6742236"><ele>341.0</ele><time>2026-04-04T07:38:19.764Z</time></trkpt><trkpt lat="43.2794216" lon="11.6742313"><ele>342.0</ele><time>2026-04-04T07:38:20.764Z</time></trkpt><trkpt lat="43.2795223" lon="11.6742431"><ele>343.0</ele><time>2026-04-04T07:38:21.764Z</time></trkpt><trkpt lat="43.2796142" lon="11.6742595"><ele>343.0</ele><time>2026-04-04T07:38:22.764Z</time></trkpt><trkpt lat="43.2796999" lon="11.6742703"><ele>343.0</ele><time>2026-04-04T07:38:23.764Z</time></trkpt><trkpt lat="43.2797816" lon="11.6742815"><ele>343.0</ele><time>2026-04-04T07:38:24.764Z</time></trkpt><trkpt lat="43.2798599" lon="11.6743053"><ele>343.0</ele><time>2026-04-04T07:38:25.764Z</time></trkpt><trkpt lat="43.2799413" lon="11.674339"><ele>343.0</ele><time>2026-04-04T07:38:26.764Z</time></trkpt><trkpt lat="43.2800112" lon="11.67437"><ele>343.0</ele><time>2026-04-04T07:38:27.764Z</time></trkpt><trkpt lat="43.2800886" lon="11.6743961"><ele>343.3333333333333</ele><time>2026-04-04T07:38:28.764Z</time></trkpt><trkpt lat="43.2801629" lon="11.6744235"><ele>343.66666666666663</ele><time>2026-04-04T07:38:29.764Z</time></trkpt><trkpt lat="43.2802371" lon="11.6744411"><ele>344.0</ele><time>2026-04-04T07:38:30.764Z</time></trkpt><trkpt lat="43.2803011" lon="11.6744689"><ele>344.3333333333333</ele><time>2026-04-04T07:38:31.764Z</time></trkpt><trkpt lat="43.2803819" lon="11.6744882"><ele>344.6666666666667</ele><time>2026-04-04T07:38:32.764Z</time></trkpt><trkpt lat="43.2804782" lon="11.6745027"><ele>345.0</ele><time>2026-04-04T07:38:33.764Z</time></trkpt><trkpt lat="43.2805862" lon="11.6745206"><ele>347.6</ele><time>2026-04-04T07:38:34.764Z</time></trkpt><trkpt lat="43.2806959" lon="11.6745685"><ele>350.2</ele><time>2026-04-04T07:38:35.764Z</time></trkpt><trkpt lat="43.2807857" lon="11.6746389"><ele>352.79999999999995</ele><time>2026-04-04T07:38:36.764Z</time></trkpt><trkpt lat="43.2808546" lon="11.6747259"><ele>355.4</ele><time>2026-04-04T07:38:37.764Z</time></trkpt><trkpt lat="43.2809268" lon="11.6748369"><ele>358.0</ele><time>2026-04-04T07:38:38.764Z</time></trkpt><trkpt lat="43.2809997" lon="11.674957"><ele>358.0</ele><time>2026-04-04T07:38:39.764Z</time></trkpt><trkpt lat="43.2810756" lon="11.6750721"><ele>358.0</ele><time>2026-04-04T07:38:40.764Z</time></trkpt><trkpt lat="43.2811483" lon="11.6751632"><ele>358.0</ele><time>2026-04-04T07:38:41.764Z</time></trkpt><trkpt lat="43.2812098" lon="11.6752181"><ele>358.0</ele><time>2026-04-04T07:38:42.764Z</time></trkpt><trkpt lat="43.2812807" lon="11.6752537"><ele>358.0</ele><time>2026-04-04T07:38:43.765Z</time></trkpt><trkpt lat="43.2813502" lon="11.6752606"><ele>358.0</ele><time>2026-04-04T07:38:44.764Z</time></trkpt><trkpt lat="43.28144" lon="11.6752368"><ele>357.8333333333333</ele><time>2026-04-04T07:38:46.764Z</time></trkpt><trkpt lat="43.2815508" lon="11.6751998"><ele>357.66666666666663</ele><time>2026-04-04T07:39:10.764Z</time></trkpt><trkpt lat="43.2816153" lon="11.6752062"><ele>357.5</ele><time>2026-04-04T07:39:11.764Z</time></trkpt><trkpt lat="43.2816943" lon="11.6752246"><ele>357.3333333333333</ele><time>2026-04-04T07:39:12.764Z</time></trkpt><trkpt lat="43.2817815" lon="11.6752478"><ele>357.1666666666667</ele><time>2026-04-04T07:39:13.764Z</time></trkpt><trkpt lat="43.281879" lon="11.6752727"><ele>357.0</ele><time>2026-04-04T07:39:14.764Z</time></trkpt><trkpt lat="43.281964" lon="11.6752923"><ele>357.0</ele><time>2026-04-04T07:39:15.764Z</time></trkpt><trkpt lat="43.2820516" lon="11.6753086"><ele>357.0</ele><time>2026-04-04T07:39:16.764Z</time></trkpt><trkpt lat="43.282144" lon="11.6753326"><ele>357.0</ele><time>2026-04-04T07:39:17.764Z</time></trkpt><trkpt lat="43.2822461" lon="11.6753583"><ele>357.0</ele><time>2026-04-04T07:39:18.764Z</time></trkpt><trkpt lat="43.2823458" lon="11.6753806"><ele>357.0</ele><time>2026-04-04T07:39:19.764Z</time></trkpt><trkpt lat="43.28244" lon="11.6753989"><ele>356.40000000000003</ele><time>2026-04-04T07:39:20.764Z</time></trkpt><trkpt lat="43.2825278" lon="11.6754191"><ele>355.8</ele><time>2026-04-04T07:39:21.765Z</time></trkpt><trkpt lat="43.2826169" lon="11.6754402"><ele>355.2</ele><time>2026-04-04T07:39:22.765Z</time></trkpt><trkpt lat="43.2827096" lon="11.6754667"><ele>354.6</ele><time>2026-04-04T07:39:23.764Z</time></trkpt><trkpt lat="43.2828031" lon="11.6755004"><ele>354.0</ele><time>2026-04-04T07:39:24.764Z</time></trkpt><trkpt lat="43.2828934" lon="11.6755916"><ele>354.0</ele><time>2026-04-04T07:39:25.764Z</time></trkpt><trkpt lat="43.2829856" lon="11.6757149"><ele>354.0</ele><time>2026-04-04T07:39:26.764Z</time></trkpt><trkpt lat="43.2830839" lon="11.6758442"><ele>354.0</ele><time>2026-04-04T07:39:27.764Z</time></trkpt><trkpt lat="43.2831836" lon="11.6759743"><ele>354.0</ele><time>2026-04-04T07:39:28.764Z</time></trkpt><trkpt lat="43.283282" lon="11.6761095"><ele>353.25</ele><time>2026-04-04T07:39:29.764Z</time></trkpt><trkpt lat="43.283376" lon="11.6762349"><ele>352.5</ele><time>2026-04-04T07:39:30.764Z</time></trkpt><trkpt lat="43.2834655" lon="11.6763588"><ele>351.75</ele><time>2026-04-04T07:39:31.765Z</time></trkpt><trkpt lat="43.2835471" lon="11.6764758"><ele>351.0</ele><time>2026-04-04T07:39:32.764Z</time></trkpt><trkpt lat="43.2836252" lon="11.6765809"><ele>351.0</ele><time>2026-04-04T07:39:33.764Z</time></trkpt><trkpt lat="43.2837029" lon="11.6766835"><ele>351.0</ele><time>2026-04-04T07:39:34.764Z</time></trkpt><trkpt lat="43.283788" lon="11.6767788"><ele>351.0</ele><time>2026-04-04T07:39:35.764Z</time></trkpt><trkpt lat="43.2838769" lon="11.676857"><ele>351.0</ele><time>2026-04-04T07:39:36.764Z</time></trkpt><trkpt lat="43.2839767" lon="11.6769102"><ele>351.0</ele><time>2026-04-04T07:39:37.764Z</time></trkpt><trkpt lat="43.2840862" lon="11.6769389"><ele>350.4</ele><time>2026-04-04T07:39:38.764Z</time></trkpt><trkpt lat="43.2842023" lon="11.6769471"><ele>349.8</ele><time>2026-04-04T07:39:39.764Z</time></trkpt><trkpt lat="43.2843217" lon="11.6769519"><ele>349.2</ele><time>2026-04-04T07:39:40.764Z</time></trkpt><trkpt lat="43.2844285" lon="11.6769596"><ele>348.59999999999997</ele><time>2026-04-04T07:39:41.764Z</time></trkpt><trkpt lat="43.2845285" lon="11.6769702"><ele>348.0</ele><time>2026-04-04T07:39:42.764Z</time></trkpt><trkpt lat="43.2846265" lon="11.676988"><ele>348.0</ele><time>2026-04-04T07:39:43.764Z</time></trkpt><trkpt lat="43.2847195" lon="11.6770241"><ele>348.0</ele><time>2026-04-04T07:39:44.764Z</time></trkpt><trkpt lat="43.2848041" lon="11.6770691"><ele>348.0</ele><time>2026-04-04T07:39:45.764Z</time></trkpt><trkpt lat="43.2848734" lon="11.6771292"><ele>348.0</ele><time>2026-04-04T07:39:46.764Z</time></trkpt><trkpt lat="43.2849371" lon="11.6772115"><ele>348.0</ele><time>2026-04-04T07:39:47.764Z</time></trkpt><trkpt lat="43.2849892" lon="11.6772844"><ele>348.0</ele><time>2026-04-04T07:39:48.764Z</time></trkpt><trkpt lat="43.2850645" lon="11.6773715"><ele>347.0</ele><time>2026-04-04T07:39:50.764Z</time></trkpt><trkpt lat="43.2851499" lon="11.6773742"><ele>346.0</ele><time>2026-04-04T07:39:52.765Z</time></trkpt><trkpt lat="43.2851966" lon="11.6773097"><ele>345.0</ele><time>2026-04-04T07:39:53.765Z</time></trkpt><trkpt lat="43.2852384" lon="11.6771938"><ele>344.0</ele><time>2026-04-04T07:39:54.764Z</time></trkpt><trkpt lat="43.285301" lon="11.6770746"><ele>343.0</ele><time>2026-04-04T07:39:55.764Z</time></trkpt><trkpt lat="43.2853629" lon="11.6769518"><ele>343.75</ele><time>2026-04-04T07:39:56.764Z</time></trkpt><trkpt lat="43.2854386" lon="11.6768236"><ele>344.5</ele><time>2026-04-04T07:39:57.764Z</time></trkpt><trkpt lat="43.2855146" lon="11.6766903"><ele>345.25</ele><time>2026-04-04T07:39:58.764Z</time></trkpt><trkpt lat="43.2855849" lon="11.6765615"><ele>346.0</ele><time>2026-04-04T07:39:59.764Z</time></trkpt><trkpt lat="43.2856413" lon="11.6764499"><ele>346.0</ele><time>2026-04-04T07:40:00.764Z</time></trkpt><trkpt lat="43.2857047" lon="11.67633"><ele>346.0</ele><time>2026-04-04T07:40:01.764Z</time></trkpt><trkpt lat="43.285762" lon="11.6762205"><ele>346.0</ele><time>2026-04-04T07:40:02.764Z</time></trkpt><trkpt lat="43.2858329" lon="11.6761262"><ele>346.0</ele><time>2026-04-04T07:40:03.764Z</time></trkpt><trkpt lat="43.2859148" lon="11.6760469"><ele>346.0</ele><time>2026-04-04T07:40:04.764Z</time></trkpt><trkpt lat="43.2860225" lon="11.6759571"><ele>346.25</ele><time>2026-04-04T07:40:05.764Z</time></trkpt><trkpt lat="43.2861356" lon="11.6758713"><ele>346.5</ele><time>2026-04-04T07:40:06.764Z</time></trkpt><trkpt lat="43.2862446" lon="11.6757941"><ele>346.75</ele><time>2026-04-04T07:40:07.764Z</time></trkpt><trkpt lat="43.2863495" lon="11.6757432"><ele>347.0</ele><time>2026-04-04T07:40:08.764Z</time></trkpt><trkpt lat="43.286438" lon="11.6757076"><ele>347.0</ele><time>2026-04-04T07:40:09.764Z</time></trkpt><trkpt lat="43.2865167" lon="11.6756922"><ele>347.0</ele><time>2026-04-04T07:40:10.764Z</time></trkpt><trkpt lat="43.2866024" lon="11.6756919"><ele>347.0</ele><time>2026-04-04T07:40:11.764Z</time></trkpt><trkpt lat="43.2866972" lon="11.6756902"><ele>347.0</ele><time>2026-04-04T07:40:12.764Z</time></trkpt><trkpt lat="43.2868007" lon="11.6756894"><ele>347.0</ele><time>2026-04-04T07:40:13.764Z</time></trkpt><trkpt lat="43.2869176" lon="11.6756898"><ele>347.0</ele><time>2026-04-04T07:40:14.764Z</time></trkpt><trkpt lat="43.287033" lon="11.6756722"><ele>347.0</ele><time>2026-04-04T07:40:15.764Z</time></trkpt><trkpt lat="43.287149" lon="11.67565"><ele>347.0</ele><time>2026-04-04T07:40:16.764Z</time></trkpt><trkpt lat="43.2872689" lon="11.6756258"><ele>347.0</ele><time>2026-04-04T07:40:17.764Z</time></trkpt><trkpt lat="43.287384" lon="11.675599"><ele>347.0</ele><time>2026-04-04T07:40:18.764Z</time></trkpt><trkpt lat="43.2874944" lon="11.6755517"><ele>347.0</ele><time>2026-04-04T07:40:19.764Z</time></trkpt><trkpt lat="43.2876082" lon="11.6754943"><ele>347.0</ele><time>2026-04-04T07:40:20.764Z</time></trkpt><trkpt lat="43.2877088" lon="11.6754287"><ele>347.0</ele><time>2026-04-04T07:40:21.764Z</time></trkpt><trkpt lat="43.2878142" lon="11.6753652"><ele>347.0</ele><time>2026-04-04T07:40:22.764Z</time></trkpt><trkpt lat="43.2879071" lon="11.6753025"><ele>347.0</ele><time>2026-04-04T07:40:23.764Z</time></trkpt><trkpt lat="43.2879963" lon="11.6752359"><ele>347.0</ele><time>2026-04-04T07:40:24.764Z</time></trkpt><trkpt lat="43.2880806" lon="11.6751523"><ele>347.0</ele><time>2026-04-04T07:40:25.764Z</time></trkpt><trkpt lat="43.2881584" lon="11.6750629"><ele>347.0</ele><time>2026-04-04T07:40:26.764Z</time></trkpt><trkpt lat="43.2882435" lon="11.6749611"><ele>347.40000000000003</ele><time>2026-04-04T07:40:27.764Z</time></trkpt><trkpt lat="43.2883389" lon="11.6748703"><ele>347.8</ele><time>2026-04-04T07:40:28.764Z</time></trkpt><trkpt lat="43.2884285" lon="11.6747721"><ele>348.2</ele><time>2026-04-04T07:40:29.764Z</time></trkpt><trkpt lat="43.2884981" lon="11.6746705"><ele>348.6</ele><time>2026-04-04T07:40:30.764Z</time></trkpt><trkpt lat="43.2885519" lon="11.6745545"><ele>349.0</ele><time>2026-04-04T07:40:31.764Z</time></trkpt><trkpt lat="43.2886053" lon="11.6744148"><ele>351.4</ele><time>2026-04-04T07:40:32.764Z</time></trkpt><trkpt lat="43.2886657" lon="11.674283"><ele>353.79999999999995</ele><time>2026-04-04T07:40:33.765Z</time></trkpt><trkpt lat="43.2887271" lon="11.6741593"><ele>356.20000000000005</ele><time>2026-04-04T07:40:34.764Z</time></trkpt><trkpt lat="43.2888111" lon="11.6740601"><ele>358.6</ele><time>2026-04-04T07:40:35.764Z</time></trkpt><trkpt lat="43.2888962" lon="11.6739934"><ele>361.0</ele><time>2026-04-04T07:40:36.764Z</time></trkpt><trkpt lat="43.2889898" lon="11.6739361"><ele>361.8</ele><time>2026-04-04T07:40:37.764Z</time></trkpt><trkpt lat="43.2890804" lon="11.673874"><ele>362.6</ele><time>2026-04-04T07:40:38.764Z</time></trkpt><trkpt lat="43.2891487" lon="11.673797"><ele>363.4</ele><time>2026-04-04T07:40:39.764Z</time></trkpt><trkpt lat="43.2892077" lon="11.6737267"><ele>364.2</ele><time>2026-04-04T07:40:40.764Z</time></trkpt><trkpt lat="43.2892664" lon="11.6736875"><ele>365.0</ele><time>2026-04-04T07:40:41.764Z</time></trkpt><trkpt lat="43.2893853" lon="11.6737234"><ele>365.0</ele><time>2026-04-04T07:40:43.764Z</time></trkpt><trkpt lat="43.2894577" lon="11.6737857"><ele>365.0</ele><time>2026-04-04T07:40:44.764Z</time></trkpt><trkpt lat="43.2895223" lon="11.6738334"><ele>365.0</ele><time>2026-04-04T07:40:45.764Z</time></trkpt><trkpt lat="43.2895968" lon="11.6738479"><ele>365.0</ele><time>2026-04-04T07:40:46.764Z</time></trkpt><trkpt lat="43.2896805" lon="11.6738409"><ele>365.0</ele><time>2026-04-04T07:40:47.765Z</time></trkpt><trkpt lat="43.2897558" lon="11.6738343"><ele>365.0</ele><time>2026-04-04T07:40:48.764Z</time></trkpt><trkpt lat="43.2898249" lon="11.6738277"><ele>365.8</ele><time>2026-04-04T07:40:49.764Z</time></trkpt><trkpt lat="43.2899182" lon="11.6738538"><ele>366.6</ele><time>2026-04-04T07:40:51.764Z</time></trkpt><trkpt lat="43.2899729" lon="11.6739265"><ele>367.4</ele><time>2026-04-04T07:40:54.764Z</time></trkpt><trkpt lat="43.2900061" lon="11.6738521"><ele>368.2</ele><time>2026-04-04T07:40:57.764Z</time></trkpt><trkpt lat="43.2899603" lon="11.6737028"><ele>369.0</ele><time>2026-04-04T07:40:59.764Z</time></trkpt><trkpt lat="43.2899137" lon="11.6735588"><ele>370.8333333333333</ele><time>2026-04-04T07:41:01.764Z</time></trkpt><trkpt lat="43.289903" lon="11.6734518"><ele>372.6666666666667</ele><time>2026-04-04T07:41:02.764Z</time></trkpt><trkpt lat="43.2898989" lon="11.6733393"><ele>374.5</ele><time>2026-04-04T07:41:03.764Z</time></trkpt><trkpt lat="43.2899021" lon="11.6732296"><ele>376.33333333333337</ele><time>2026-04-04T07:41:04.764Z</time></trkpt><trkpt lat="43.2898981" lon="11.6731217"><ele>378.1666666666667</ele><time>2026-04-04T07:41:05.764Z</time></trkpt><trkpt lat="43.2898803" lon="11.6730196"><ele>380.0</ele><time>2026-04-04T07:41:06.764Z</time></trkpt><trkpt lat="43.2898666" lon="11.6729254"><ele>380.0</ele><time>2026-04-04T07:41:07.764Z</time></trkpt><trkpt lat="43.2898653" lon="11.6728114"><ele>380.0</ele><time>2026-04-04T07:41:09.764Z</time></trkpt><trkpt lat="43.2898683" lon="11.6726815"><ele>380.0</ele><time>2026-04-04T07:41:11.764Z</time></trkpt><trkpt lat="43.289878" lon="11.6725731"><ele>380.0</ele><time>2026-04-04T07:41:12.764Z</time></trkpt><trkpt lat="43.289924" lon="11.6724674"><ele>380.0</ele><time>2026-04-04T07:41:13.764Z</time></trkpt><trkpt lat="43.2899686" lon="11.6724032"><ele>380.0</ele><time>2026-04-04T07:41:14.764Z</time></trkpt><trkpt lat="43.2899947" lon="11.6722587"><ele>381.6</ele><time>2026-04-04T07:41:16.764Z</time></trkpt><trkpt lat="43.2900262" lon="11.6721324"><ele>383.2</ele><time>2026-04-04T07:41:18.764Z</time></trkpt><trkpt lat="43.290066" lon="11.6720148"><ele>384.79999999999995</ele><time>2026-04-04T07:41:20.764Z</time></trkpt><trkpt lat="43.2900896" lon="11.6718997"><ele>386.4</ele><time>2026-04-04T07:41:22.764Z</time></trkpt><trkpt lat="43.2901469" lon="11.6717731"><ele>388.0</ele><time>2026-04-04T07:41:24.765Z</time></trkpt><trkpt lat="43.2902105" lon="11.6716504"><ele>389.50000000000006</ele><time>2026-04-04T07:41:26.764Z</time></trkpt><trkpt lat="43.290235" lon="11.6715683"><ele>391.0</ele><time>2026-04-04T07:41:27.764Z</time></trkpt><trkpt lat="43.2902979" lon="11.671487"><ele>392.5</ele><time>2026-04-04T07:41:29.764Z</time></trkpt><trkpt lat="43.2903415" lon="11.6714007"><ele>394.0</ele><time>2026-04-04T07:41:39.764Z</time></trkpt><trkpt lat="43.2904164" lon="11.6712738"><ele>395.50000000000006</ele><time>2026-04-04T07:42:01.764Z</time></trkpt><trkpt lat="43.2904752" lon="11.6711969"><ele>397.0</ele><time>2026-04-04T07:42:04.764Z</time></trkpt><trkpt lat="43.2905445" lon="11.6710818"><ele>399.0</ele><time>2026-04-04T07:42:07.764Z</time></trkpt><trkpt lat="43.2905743" lon="11.6710043"><ele>401.0</ele><time>2026-04-04T07:42:08.764Z</time></trkpt><trkpt lat="43.2906353" lon="11.6708616"><ele>403.0</ele><time>2026-04-04T07:42:10.764Z</time></trkpt><trkpt lat="43.2906637" lon="11.6707222"><ele>405.0</ele><time>2026-04-04T07:42:12.764Z</time></trkpt><trkpt lat="43.2906214" lon="11.6706552"><ele>407.0</ele><time>2026-04-04T07:42:14.765Z</time></trkpt><trkpt lat="43.2906093" lon="11.6705202"><ele>406.99999999999994</ele><time>2026-04-04T07:42:17.764Z</time></trkpt><trkpt lat="43.2905908" lon="11.67039"><ele>407.0</ele><time>2026-04-04T07:42:19.764Z</time></trkpt><trkpt lat="43.2905951" lon="11.6702337"><ele>407.0</ele><time>2026-04-04T07:42:21.764Z</time></trkpt><trkpt lat="43.2905818" lon="11.6701411"><ele>407.0</ele><time>2026-04-04T07:42:22.764Z</time></trkpt><trkpt lat="43.2905551" lon="11.6700354"><ele>406.99999999999994</ele><time>2026-04-04T07:42:23.764Z</time></trkpt><trkpt lat="43.2905337" lon="11.6699349"><ele>407.0</ele><time>2026-04-04T07:42:24.764Z</time></trkpt><trkpt lat="43.2905159" lon="11.6698105"><ele>408.42857142857144</ele><time>2026-04-04T07:42:26.764Z</time></trkpt><trkpt lat="43.2904482" lon="11.6697388"><ele>409.8571428571429</ele><time>2026-04-04T07:42:28.764Z</time></trkpt><trkpt lat="43.2904093" lon="11.6696703"><ele>411.28571428571433</ele><time>2026-04-04T07:42:29.764Z</time></trkpt><trkpt lat="43.2903892" lon="11.6695716"><ele>412.7142857142857</ele><time>2026-04-04T07:42:30.764Z</time></trkpt><trkpt lat="43.2903731" lon="11.6694782"><ele>414.1428571428571</ele><time>2026-04-04T07:42:31.764Z</time></trkpt><trkpt lat="43.2903479" lon="11.669395"><ele>415.5714285714286</ele><time>2026-04-04T07:42:32.764Z</time></trkpt><trkpt lat="43.2903021" lon="11.6693102"><ele>417.0</ele><time>2026-04-04T07:42:33.764Z</time></trkpt><trkpt lat="43.2902567" lon="11.6692244"><ele>418.3333333333333</ele><time>2026-04-04T07:42:34.764Z</time></trkpt><trkpt lat="43.2902158" lon="11.6691511"><ele>419.66666666666663</ele><time>2026-04-04T07:42:35.764Z</time></trkpt><trkpt lat="43.2901653" lon="11.6690218"><ele>421.0</ele><time>2026-04-04T07:42:37.764Z</time></trkpt><trkpt lat="43.2901281" lon="11.6689449"><ele>422.3333333333333</ele><time>2026-04-04T07:42:38.764Z</time></trkpt><trkpt lat="43.29008" lon="11.6688573"><ele>423.66666666666663</ele><time>2026-04-04T07:42:39.764Z</time></trkpt><trkpt lat="43.2900356" lon="11.6687716"><ele>425.0</ele><time>2026-04-04T07:42:40.764Z</time></trkpt><trkpt lat="43.2899975" lon="11.6686961"><ele>424.99999999999994</ele><time>2026-04-04T07:42:41.764Z</time></trkpt><trkpt lat="43.2899005" lon="11.6686176"><ele>425.0</ele><time>2026-04-04T07:42:43.764Z</time></trkpt><trkpt lat="43.2898436" lon="11.6685585"><ele>425.0</ele><time>2026-04-04T07:42:44.764Z</time></trkpt><trkpt lat="43.2898138" lon="11.6684654"><ele>425.0</ele><time>2026-04-04T07:42:45.764Z</time></trkpt><trkpt lat="43.2897947" lon="11.6683673"><ele>424.99999999999994</ele><time>2026-04-04T07:42:46.764Z</time></trkpt><trkpt lat="43.2897894" lon="11.6682786"><ele>425.0</ele><time>2026-04-04T07:42:47.764Z</time></trkpt><trkpt lat="43.2897841" lon="11.6681093"><ele>425.99999999999994</ele><time>2026-04-04T07:42:49.764Z</time></trkpt><trkpt lat="43.2897941" lon="11.6680199"><ele>427.0</ele><time>2026-04-04T07:42:50.764Z</time></trkpt><trkpt lat="43.2898063" lon="11.6679298"><ele>428.0</ele><time>2026-04-04T07:42:51.764Z</time></trkpt><trkpt lat="43.2898152" lon="11.6678277"><ele>429.0</ele><time>2026-04-04T07:42:52.764Z</time></trkpt><trkpt lat="43.289814" lon="11.6677132"><ele>429.99999999999994</ele><time>2026-04-04T07:42:53.764Z</time></trkpt><trkpt lat="43.289798" lon="11.6676163"><ele>431.0</ele><time>2026-04-04T07:42:54.764Z</time></trkpt><trkpt lat="43.2897813" lon="11.6674856"><ele>432.6</ele><time>2026-04-04T07:42:56.765Z</time></trkpt><trkpt lat="43.2898118" lon="11.6673294"><ele>434.20000000000005</ele><time>2026-04-04T07:42:58.764Z</time></trkpt><trkpt lat="43.2898242" lon="11.6672006"><ele>435.79999999999995</ele><time>2026-04-04T07:43:00.765Z</time></trkpt><trkpt lat="43.289811" lon="11.6670049"><ele>437.4</ele><time>2026-04-04T07:43:02.764Z</time></trkpt><trkpt lat="43.2897898" lon="11.6669173"><ele>439.0</ele><time>2026-04-04T07:43:03.764Z</time></trkpt><trkpt lat="43.2897531" lon="11.6668286"><ele>440.33333333333337</ele><time>2026-04-04T07:43:04.764Z</time></trkpt><trkpt lat="43.2897149" lon="11.6667402"><ele>441.6666666666667</ele><time>2026-04-04T07:43:05.764Z</time></trkpt><trkpt lat="43.2896397" lon="11.6666098"><ele>443.0</ele><time>2026-04-04T07:43:07.765Z</time></trkpt><trkpt lat="43.2896032" lon="11.6665391"><ele>444.33333333333337</ele><time>2026-04-04T07:43:08.764Z</time></trkpt><trkpt lat="43.2895827" lon="11.6664526"><ele>445.6666666666667</ele><time>2026-04-04T07:43:09.764Z</time></trkpt><trkpt lat="43.2895809" lon="11.6663611"><ele>447.0</ele><time>2026-04-04T07:43:10.765Z</time></trkpt><trkpt lat="43.2895637" lon="11.6662539"><ele>447.0</ele><time>2026-04-04T07:43:12.764Z</time></trkpt><trkpt lat="43.2895343" lon="11.6661394"><ele>447.00000000000006</ele><time>2026-04-04T07:44:29.764Z</time></trkpt><trkpt lat="43.289521" lon="11.6660059"><ele>447.00000000000006</ele><time>2026-04-04T07:44:31.764Z</time></trkpt><trkpt lat="43.2895406" lon="11.6658543"><ele>447.0</ele><time>2026-04-04T07:44:33.764Z</time></trkpt><trkpt lat="43.2895547" lon="11.6656881"><ele>447.0</ele><time>2026-04-04T07:44:35.765Z</time></trkpt><trkpt lat="43.2895624" lon="11.6655815"><ele>448.0</ele><time>2026-04-04T07:44:36.765Z</time></trkpt><trkpt lat="43.2895655" lon="11.6654619"><ele>449.0</ele><time>2026-04-04T07:44:37.765Z</time></trkpt><trkpt lat="43.2895709" lon="11.6653435"><ele>450.0</ele><time>2026-04-04T07:44:38.765Z</time></trkpt><trkpt lat="43.2895876" lon="11.665227"><ele>451.0</ele><time>2026-04-04T07:44:39.766Z</time></trkpt><trkpt lat="43.2896074" lon="11.6651155"><ele>452.0</ele><time>2026-04-04T07:44:40.765Z</time></trkpt><trkpt lat="43.2896129" lon="11.6650014"><ele>453.0</ele><time>2026-04-04T07:44:41.765Z</time></trkpt><trkpt lat="43.2896145" lon="11.6649103"><ele>453.6666666666667</ele><time>2026-04-04T07:44:42.765Z</time></trkpt><trkpt lat="43.2896108" lon="11.6647728"><ele>454.33333333333337</ele><time>2026-04-04T07:44:44.765Z</time></trkpt><trkpt lat="43.2896209" lon="11.6646686"><ele>455.0</ele><time>2026-04-04T07:44:54.765Z</time></trkpt><trkpt lat="43.2896152" lon="11.6645448"><ele>455.6666666666667</ele><time>2026-04-04T07:44:57.765Z</time></trkpt><trkpt lat="43.2896198" lon="11.6644155"><ele>456.33333333333337</ele><time>2026-04-04T07:44:59.765Z</time></trkpt><trkpt lat="43.2896258" lon="11.6643234"><ele>457.0</ele><time>2026-04-04T07:45:00.765Z</time></trkpt><trkpt lat="43.2896472" lon="11.664171"><ele>457.6</ele><time>2026-04-04T07:45:01.765Z</time></trkpt><trkpt lat="43.2896796" lon="11.6640055"><ele>458.20000000000005</ele><time>2026-04-04T07:45:02.765Z</time></trkpt><trkpt lat="43.2897131" lon="11.6638369"><ele>458.8</ele><time>2026-04-04T07:45:03.765Z</time></trkpt><trkpt lat="43.2897183" lon="11.6637074"><ele>459.4</ele><time>2026-04-04T07:45:04.765Z</time></trkpt><trkpt lat="43.2897226" lon="11.663613"><ele>460.0</ele><time>2026-04-04T07:45:05.765Z</time></trkpt><trkpt lat="43.2897194" lon="11.6635103"><ele>460.1666666666667</ele><time>2026-04-04T07:45:07.766Z</time></trkpt><trkpt lat="43.2897185" lon="11.6633895"><ele>460.33333333333337</ele><time>2026-04-04T07:45:09.765Z</time></trkpt><trkpt lat="43.28971" lon="11.6632947"><ele>460.5</ele><time>2026-04-04T07:45:10.765Z</time></trkpt><trkpt lat="43.289699" lon="11.6631414"><ele>460.66666666666663</ele><time>2026-04-04T07:45:12.765Z</time></trkpt><trkpt lat="43.2896852" lon="11.6630351"><ele>460.8333333333333</ele><time>2026-04-04T07:45:13.765Z</time></trkpt><trkpt lat="43.2896671" lon="11.6629311"><ele>461.0</ele><time>2026-04-04T07:45:14.765Z</time></trkpt><trkpt lat="43.2896457" lon="11.6628215"><ele>461.25</ele><time>2026-04-04T07:45:15.765Z</time></trkpt><trkpt lat="43.2896293" lon="11.6626784"><ele>461.5</ele><time>2026-04-04T07:45:16.765Z</time></trkpt><trkpt lat="43.289621" lon="11.6625123"><ele>461.75</ele><time>2026-04-04T07:45:17.765Z</time></trkpt><trkpt lat="43.2896272" lon="11.6623382"><ele>462.0</ele><time>2026-04-04T07:45:18.765Z</time></trkpt><trkpt lat="43.2896252" lon="11.6621861"><ele>462.0</ele><time>2026-04-04T07:45:19.765Z</time></trkpt><trkpt lat="43.2896148" lon="11.6620377"><ele>462.0</ele><time>2026-04-04T07:45:20.765Z</time></trkpt><trkpt lat="43.2895697" lon="11.6618771"><ele>462.0</ele><time>2026-04-04T07:45:21.765Z</time></trkpt><trkpt lat="43.2895067" lon="11.66169"><ele>462.0</ele><time>2026-04-04T07:45:22.765Z</time></trkpt><trkpt lat="43.28943" lon="11.6615161"><ele>461.20000000000005</ele><time>2026-04-04T07:45:23.766Z</time></trkpt><trkpt lat="43.2893676" lon="11.6613877"><ele>460.40000000000003</ele><time>2026-04-04T07:45:24.765Z</time></trkpt><trkpt lat="43.2893196" lon="11.6612714"><ele>459.59999999999997</ele><time>2026-04-04T07:45:25.766Z</time></trkpt><trkpt lat="43.2892664" lon="11.6611539"><ele>458.79999999999995</ele><time>2026-04-04T07:45:26.765Z</time></trkpt><trkpt lat="43.2892177" lon="11.6610276"><ele>458.0</ele><time>2026-04-04T07:45:27.765Z</time></trkpt><trkpt lat="43.2891819" lon="11.6609189"><ele>456.99999999999994</ele><time>2026-04-04T07:45:28.765Z</time></trkpt><trkpt lat="43.2891726" lon="11.6608175"><ele>456.0</ele><time>2026-04-04T07:45:29.765Z</time></trkpt><trkpt lat="43.2891928" lon="11.6606929"><ele>455.0</ele><time>2026-04-04T07:45:30.766Z</time></trkpt><trkpt lat="43.289207" lon="11.6605915"><ele>454.0</ele><time>2026-04-04T07:45:31.765Z</time></trkpt><trkpt lat="43.2892077" lon="11.6604954"><ele>452.99999999999994</ele><time>2026-04-04T07:45:32.765Z</time></trkpt><trkpt lat="43.2892049" lon="11.6603963"><ele>452.0</ele><time>2026-04-04T07:45:33.765Z</time></trkpt><trkpt lat="43.2891744" lon="11.6603013"><ele>451.49999999999994</ele><time>2026-04-04T07:45:34.766Z</time></trkpt><trkpt lat="43.2891221" lon="11.6602056"><ele>451.0</ele><time>2026-04-04T07:45:35.765Z</time></trkpt><trkpt lat="43.2890784" lon="11.6601098"><ele>450.5</ele><time>2026-04-04T07:45:36.765Z</time></trkpt><trkpt lat="43.2890328" lon="11.6600179"><ele>450.0</ele><time>2026-04-04T07:45:37.765Z</time></trkpt><trkpt lat="43.2889866" lon="11.6599308"><ele>449.49999999999994</ele><time>2026-04-04T07:45:39.765Z</time></trkpt><trkpt lat="43.2889547" lon="11.6598297"><ele>449.0</ele><time>2026-04-04T07:45:52.765Z</time></trkpt><trkpt lat="43.2889362" lon="11.6596973"><ele>448.99999999999994</ele><time>2026-04-04T07:45:55.765Z</time></trkpt><trkpt lat="43.2889005" lon="11.6595974"><ele>449.0</ele><time>2026-04-04T07:45:57.765Z</time></trkpt><trkpt lat="43.2888869" lon="11.6595022"><ele>449.0</ele><time>2026-04-04T07:45:58.765Z</time></trkpt><trkpt lat="43.288868" lon="11.6593971"><ele>449.0</ele><time>2026-04-04T07:45:59.765Z</time></trkpt><trkpt lat="43.2888838" lon="11.6592775"><ele>448.99999999999994</ele><time>2026-04-04T07:46:00.765Z</time></trkpt><trkpt lat="43.2889153" lon="11.6591662"><ele>449.0</ele><time>2026-04-04T07:46:01.765Z</time></trkpt><trkpt lat="43.2889531" lon="11.6590478"><ele>449.25</ele><time>2026-04-04T07:46:02.765Z</time></trkpt><trkpt lat="43.2889907" lon="11.6589023"><ele>449.5</ele><time>2026-04-04T07:46:03.765Z</time></trkpt><trkpt lat="43.2890256" lon="11.6587387"><ele>449.75</ele><time>2026-04-04T07:46:04.765Z</time></trkpt><trkpt lat="43.2890583" lon="11.6585689"><ele>450.0</ele><time>2026-04-04T07:46:05.765Z</time></trkpt><trkpt lat="43.289054" lon="11.6584162"><ele>450.0</ele><time>2026-04-04T07:46:06.766Z</time></trkpt><trkpt lat="43.2890017" lon="11.6582881"><ele>450.0</ele><time>2026-04-04T07:46:07.765Z</time></trkpt><trkpt lat="43.2889267" lon="11.658173"><ele>450.0</ele><time>2026-04-04T07:46:08.765Z</time></trkpt><trkpt lat="43.2888767" lon="11.6580692"><ele>450.0</ele><time>2026-04-04T07:46:09.766Z</time></trkpt><trkpt lat="43.2888589" lon="11.6579429"><ele>450.0</ele><time>2026-04-04T07:46:10.765Z</time></trkpt><trkpt lat="43.2888633" lon="11.6577977"><ele>450.4</ele><time>2026-04-04T07:46:11.765Z</time></trkpt><trkpt lat="43.2888685" lon="11.6576588"><ele>450.8</ele><time>2026-04-04T07:46:12.765Z</time></trkpt><trkpt lat="43.2888859" lon="11.6575294"><ele>451.20000000000005</ele><time>2026-04-04T07:46:13.765Z</time></trkpt><trkpt lat="43.2889229" lon="11.657369"><ele>451.6</ele><time>2026-04-04T07:46:14.765Z</time></trkpt><trkpt lat="43.288954" lon="11.6572286"><ele>452.0</ele><time>2026-04-04T07:46:15.765Z</time></trkpt><trkpt lat="43.2889938" lon="11.6571224"><ele>452.0</ele><time>2026-04-04T07:46:16.765Z</time></trkpt><trkpt lat="43.2890267" lon="11.6570275"><ele>452.00000000000006</ele><time>2026-04-04T07:46:17.765Z</time></trkpt><trkpt lat="43.2890444" lon="11.6569396"><ele>452.00000000000006</ele><time>2026-04-04T07:46:18.765Z</time></trkpt><trkpt lat="43.2890596" lon="11.6567712"><ele>452.0</ele><time>2026-04-04T07:46:20.766Z</time></trkpt><trkpt lat="43.289045" lon="11.6566614"><ele>452.0</ele><time>2026-04-04T07:46:21.765Z</time></trkpt><trkpt lat="43.2890461" lon="11.6565117"><ele>452.20000000000005</ele><time>2026-04-04T07:46:22.766Z</time></trkpt><trkpt lat="43.2890549" lon="11.6563779"><ele>452.40000000000003</ele><time>2026-04-04T07:46:23.766Z</time></trkpt><trkpt lat="43.2890879" lon="11.6562615"><ele>452.59999999999997</ele><time>2026-04-04T07:46:24.765Z</time></trkpt><trkpt lat="43.2891525" lon="11.6561672"><ele>452.79999999999995</ele><time>2026-04-04T07:46:25.765Z</time></trkpt><trkpt lat="43.2892185" lon="11.6560774"><ele>453.0</ele><time>2026-04-04T07:46:26.765Z</time></trkpt><trkpt lat="43.2892699" lon="11.6559824"><ele>453.0</ele><time>2026-04-04T07:46:27.765Z</time></trkpt><trkpt lat="43.2893069" lon="11.655874"><ele>453.0</ele><time>2026-04-04T07:46:28.765Z</time></trkpt><trkpt lat="43.289333" lon="11.6557624"><ele>453.0</ele><time>2026-04-04T07:46:29.765Z</time></trkpt><trkpt lat="43.2893552" lon="11.6556756"><ele>453.0</ele><time>2026-04-04T07:46:30.765Z</time></trkpt><trkpt lat="43.289416" lon="11.6556003"><ele>453.0</ele><time>2026-04-04T07:46:32.765Z</time></trkpt><trkpt lat="43.289485" lon="11.6556379"><ele>453.0</ele><time>2026-04-04T07:46:34.765Z</time></trkpt><trkpt lat="43.2895619" lon="11.6557571"><ele>453.0</ele><time>2026-04-04T07:46:36.765Z</time></trkpt><trkpt lat="43.2896287" lon="11.6558388"><ele>452.99999999999994</ele><time>2026-04-04T07:46:37.765Z</time></trkpt><trkpt lat="43.2897141" lon="11.6559331"><ele>452.99999999999994</ele><time>2026-04-04T07:46:38.765Z</time></trkpt><trkpt lat="43.2897926" lon="11.6560109"><ele>453.0</ele><time>2026-04-04T07:46:39.765Z</time></trkpt><trkpt lat="43.2898735" lon="11.6560665"><ele>453.0</ele><time>2026-04-04T07:46:40.765Z</time></trkpt><trkpt lat="43.2899372" lon="11.656082"><ele>451.75</ele><time>2026-04-04T07:46:41.765Z</time></trkpt><trkpt lat="43.2900182" lon="11.6560316"><ele>450.5</ele><time>2026-04-04T07:46:42.765Z</time></trkpt><trkpt lat="43.2901034" lon="11.6558927"><ele>449.25</ele><time>2026-04-04T07:46:43.765Z</time></trkpt><trkpt lat="43.2901842" lon="11.6557471"><ele>448.0</ele><time>2026-04-04T07:46:44.765Z</time></trkpt><trkpt lat="43.2902271" lon="11.6556148"><ele>448.0</ele><time>2026-04-04T07:46:45.765Z</time></trkpt><trkpt lat="43.2902467" lon="11.6554638"><ele>447.99999999999994</ele><time>2026-04-04T07:46:46.765Z</time></trkpt><trkpt lat="43.2902841" lon="11.6553324"><ele>447.99999999999994</ele><time>2026-04-04T07:46:47.765Z</time></trkpt><trkpt lat="43.2903097" lon="11.6552419"><ele>448.0</ele><time>2026-04-04T07:46:48.766Z</time></trkpt><trkpt lat="43.2903533" lon="11.6550776"><ele>448.0</ele><time>2026-04-04T07:46:50.765Z</time></trkpt><trkpt lat="43.2904037" lon="11.6549499"><ele>447.83333333333337</ele><time>2026-04-04T07:46:51.765Z</time></trkpt><trkpt lat="43.2904621" lon="11.6548321"><ele>447.6666666666667</ele><time>2026-04-04T07:46:52.765Z</time></trkpt><trkpt lat="43.2905013" lon="11.6547067"><ele>447.5</ele><time>2026-04-04T07:46:53.765Z</time></trkpt><trkpt lat="43.2905206" lon="11.6545942"><ele>447.33333333333337</ele><time>2026-04-04T07:46:54.765Z</time></trkpt><trkpt lat="43.2905277" lon="11.6544862"><ele>447.1666666666667</ele><time>2026-04-04T07:46:55.765Z</time></trkpt><trkpt lat="43.2905373" lon="11.6543991"><ele>447.0</ele><time>2026-04-04T07:46:56.765Z</time></trkpt><trkpt lat="43.2905605" lon="11.6543078"><ele>447.8</ele><time>2026-04-04T07:46:58.765Z</time></trkpt><trkpt lat="43.2906235" lon="11.6542499"><ele>448.6</ele><time>2026-04-04T07:47:01.765Z</time></trkpt><trkpt lat="43.2906786" lon="11.6541992"><ele>449.40000000000003</ele><time>2026-04-04T07:47:03.765Z</time></trkpt><trkpt lat="43.2907376" lon="11.6540589"><ele>450.20000000000005</ele><time>2026-04-04T07:47:05.765Z</time></trkpt><trkpt lat="43.2907864" lon="11.6539319"><ele>451.0</ele><time>2026-04-04T07:47:06.765Z</time></trkpt><trkpt lat="43.2908339" lon="11.6537872"><ele>450.6666666666667</ele><time>2026-04-04T07:47:07.765Z</time></trkpt><trkpt lat="43.2908892" lon="11.6536189"><ele>450.33333333333337</ele><time>2026-04-04T07:47:08.765Z</time></trkpt><trkpt lat="43.2909749" lon="11.653342"><ele>450.0</ele><time>2026-04-04T07:47:10.765Z</time></trkpt><trkpt lat="43.2910086" lon="11.6532071"><ele>450.0</ele><time>2026-04-04T07:47:11.765Z</time></trkpt><trkpt lat="43.2910416" lon="11.6530787"><ele>450.0</ele><time>2026-04-04T07:47:12.766Z</time></trkpt><trkpt lat="43.2910704" lon="11.6529757"><ele>450.0</ele><time>2026-04-04T07:47:13.765Z</time></trkpt><trkpt lat="43.2911175" lon="11.6528969"><ele>450.0</ele><time>2026-04-04T07:47:14.765Z</time></trkpt><trkpt lat="43.2911721" lon="11.6528213"><ele>450.0</ele><time>2026-04-04T07:47:15.766Z</time></trkpt><trkpt lat="43.2912547" lon="11.6526991"><ele>450.4</ele><time>2026-04-04T07:47:17.765Z</time></trkpt><trkpt lat="43.291309" lon="11.6526172"><ele>450.8</ele><time>2026-04-04T07:47:18.765Z</time></trkpt><trkpt lat="43.2913764" lon="11.6525357"><ele>451.20000000000005</ele><time>2026-04-04T07:47:19.765Z</time></trkpt><trkpt lat="43.2914625" lon="11.652436"><ele>451.6</ele><time>2026-04-04T07:47:20.765Z</time></trkpt><trkpt lat="43.2915504" lon="11.6523239"><ele>452.0</ele><time>2026-04-04T07:47:21.765Z</time></trkpt><trkpt lat="43.2916215" lon="11.6522278"><ele>451.99999999999994</ele><time>2026-04-04T07:47:22.765Z</time></trkpt><trkpt lat="43.2916816" lon="11.6521262"><ele>452.0</ele><time>2026-04-04T07:47:23.765Z</time></trkpt><trkpt lat="43.2917382" lon="11.6520122"><ele>452.0</ele><time>2026-04-04T07:47:24.765Z</time></trkpt><trkpt lat="43.291793" lon="11.6519139"><ele>452.0</ele><time>2026-04-04T07:47:25.765Z</time></trkpt><trkpt lat="43.2918371" lon="11.6518339"><ele>451.99999999999994</ele><time>2026-04-04T07:47:26.765Z</time></trkpt><trkpt lat="43.2918803" lon="11.6517657"><ele>452.0</ele><time>2026-04-04T07:47:27.765Z</time></trkpt><trkpt lat="43.2919598" lon="11.6516701"><ele>451.99999999999994</ele><time>2026-04-04T07:47:29.766Z</time></trkpt><trkpt lat="43.2920223" lon="11.6516339"><ele>452.0</ele><time>2026-04-04T07:47:31.766Z</time></trkpt><trkpt lat="43.2921171" lon="11.6516601"><ele>452.0</ele><time>2026-04-04T07:47:33.765Z</time></trkpt><trkpt lat="43.2921745" lon="11.6517237"><ele>452.0</ele><time>2026-04-04T07:47:34.765Z</time></trkpt><trkpt lat="43.2922402" lon="11.6518133"><ele>451.99999999999994</ele><time>2026-04-04T07:47:35.765Z</time></trkpt><trkpt lat="43.2923" lon="11.6518871"><ele>452.0</ele><time>2026-04-04T07:47:36.765Z</time></trkpt><trkpt lat="43.2923565" lon="11.6519731"><ele>451.40000000000003</ele><time>2026-04-04T07:47:37.765Z</time></trkpt><trkpt lat="43.2924003" lon="11.6520775"><ele>450.80000000000007</ele><time>2026-04-04T07:47:38.765Z</time></trkpt><trkpt lat="43.2924327" lon="11.6521888"><ele>450.2</ele><time>2026-04-04T07:47:39.765Z</time></trkpt><trkpt lat="43.2924509" lon="11.6523219"><ele>449.6</ele><time>2026-04-04T07:47:40.765Z</time></trkpt><trkpt lat="43.2924891" lon="11.6524416"><ele>449.0</ele><time>2026-04-04T07:47:41.765Z</time></trkpt><trkpt lat="43.2925483" lon="11.6525445"><ele>449.0</ele><time>2026-04-04T07:47:42.765Z</time></trkpt><trkpt lat="43.2926132" lon="11.6526426"><ele>449.0</ele><time>2026-04-04T07:47:43.765Z</time></trkpt><trkpt lat="43.2926822" lon="11.6527313"><ele>449.0</ele><time>2026-04-04T07:47:44.765Z</time></trkpt><trkpt lat="43.2927636" lon="11.6527912"><ele>449.0</ele><time>2026-04-04T07:47:45.765Z</time></trkpt><trkpt lat="43.2928574" lon="11.6528257"><ele>449.0</ele><time>2026-04-04T07:47:46.765Z</time></trkpt><trkpt lat="43.2929558" lon="11.652851"><ele>448.0</ele><time>2026-04-04T07:47:47.765Z</time></trkpt><trkpt lat="43.2930637" lon="11.6528577"><ele>447.0</ele><time>2026-04-04T07:47:48.765Z</time></trkpt><trkpt lat="43.2931626" lon="11.6528527"><ele>446.0</ele><time>2026-04-04T07:47:49.765Z</time></trkpt><trkpt lat="43.2932359" lon="11.6528502"><ele>445.0</ele><time>2026-04-04T07:47:50.765Z</time></trkpt><trkpt lat="43.29337" lon="11.6528954"><ele>444.0</ele><time>2026-04-04T07:47:52.765Z</time></trkpt><trkpt lat="43.2934647" lon="11.652906"><ele>444.4</ele><time>2026-04-04T07:47:53.765Z</time></trkpt><trkpt lat="43.2935764" lon="11.6528551"><ele>444.79999999999995</ele><time>2026-04-04T07:47:54.766Z</time></trkpt><trkpt lat="43.2936999" lon="11.6528065"><ele>445.20000000000005</ele><time>2026-04-04T07:47:55.766Z</time></trkpt><trkpt lat="43.2937768" lon="11.6527761"><ele>445.6</ele><time>2026-04-04T07:47:56.765Z</time></trkpt><trkpt lat="43.2938739" lon="11.6528123"><ele>446.0</ele><time>2026-04-04T07:47:58.765Z</time></trkpt><trkpt lat="43.2939271" lon="11.6529513"><ele>445.0</ele><time>2026-04-04T07:48:00.765Z</time></trkpt><trkpt lat="43.29398" lon="11.6530095"><ele>444.0</ele><time>2026-04-04T07:48:01.765Z</time></trkpt><trkpt lat="43.2940636" lon="11.6530832"><ele>443.0</ele><time>2026-04-04T07:48:03.765Z</time></trkpt><trkpt lat="43.2940045" lon="11.6532291"><ele>442.0</ele><time>2026-04-04T07:48:05.765Z</time></trkpt><trkpt lat="43.2939501" lon="11.6533284"><ele>441.0</ele><time>2026-04-04T07:48:06.765Z</time></trkpt><trkpt lat="43.2939023" lon="11.6534119"><ele>441.0</ele><time>2026-04-04T07:48:07.765Z</time></trkpt><trkpt lat="43.2938493" lon="11.6534788"><ele>441.0</ele><time>2026-04-04T07:48:08.765Z</time></trkpt><trkpt lat="43.2938037" lon="11.6535416"><ele>441.0</ele><time>2026-04-04T07:48:09.766Z</time></trkpt><trkpt lat="43.2937647" lon="11.6536242"><ele>441.0</ele><time>2026-04-04T07:48:10.765Z</time></trkpt><trkpt lat="43.2937388" lon="11.6537528"><ele>441.0</ele><time>2026-04-04T07:48:11.765Z</time></trkpt><trkpt lat="43.2937041" lon="11.6538985"><ele>441.0</ele><time>2026-04-04T07:48:12.765Z</time></trkpt><trkpt lat="43.2936681" lon="11.6540205"><ele>440.0</ele><time>2026-04-04T07:48:13.765Z</time></trkpt><trkpt lat="43.2936344" lon="11.6541185"><ele>439.0</ele><time>2026-04-04T07:48:14.765Z</time></trkpt><trkpt lat="43.2936073" lon="11.6542153"><ele>438.0</ele><time>2026-04-04T07:48:15.765Z</time></trkpt><trkpt lat="43.293583" lon="11.6543292"><ele>437.0</ele><time>2026-04-04T07:48:16.765Z</time></trkpt><trkpt lat="43.2935433" lon="11.6544433"><ele>436.0</ele><time>2026-04-04T07:48:17.765Z</time></trkpt><trkpt lat="43.2935005" lon="11.6545511"><ele>435.0</ele><time>2026-04-04T07:48:18.765Z</time></trkpt><trkpt lat="43.2934593" lon="11.654651"><ele>434.0</ele><time>2026-04-04T07:48:19.765Z</time></trkpt><trkpt lat="43.2934127" lon="11.6548126"><ele>433.0</ele><time>2026-04-04T07:48:21.766Z</time></trkpt><trkpt lat="43.2934309" lon="11.6549879"><ele>432.0</ele><time>2026-04-04T07:48:23.765Z</time></trkpt><trkpt lat="43.2934622" lon="11.6550805"><ele>431.0</ele><time>2026-04-04T07:48:24.765Z</time></trkpt><trkpt lat="43.293491" lon="11.6551835"><ele>430.0</ele><time>2026-04-04T07:48:25.765Z</time></trkpt><trkpt lat="43.2935013" lon="11.6552841"><ele>428.6</ele><time>2026-04-04T07:48:26.765Z</time></trkpt><trkpt lat="43.2934928" lon="11.65537"><ele>427.2</ele><time>2026-04-04T07:48:27.765Z</time></trkpt><trkpt lat="43.2934969" lon="11.6555342"><ele>425.79999999999995</ele><time>2026-04-04T07:48:29.765Z</time></trkpt><trkpt lat="43.2935443" lon="11.6556775"><ele>424.4</ele><time>2026-04-04T07:48:31.765Z</time></trkpt><trkpt lat="43.2936466" lon="11.6556999"><ele>423.0</ele><time>2026-04-04T07:48:34.765Z</time></trkpt><trkpt lat="43.2937159" lon="11.6557107"><ele>423.0</ele><time>2026-04-04T07:48:35.765Z</time></trkpt><trkpt lat="43.2938109" lon="11.6557114"><ele>423.0</ele><time>2026-04-04T07:48:37.765Z</time></trkpt><trkpt lat="43.2938225" lon="11.655833"><ele>423.0</ele><time>2026-04-04T07:48:40.765Z</time></trkpt><trkpt lat="43.2937528" lon="11.6559393"><ele>423.0</ele><time>2026-04-04T07:48:42.765Z</time></trkpt><trkpt lat="43.2936611" lon="11.6560495"><ele>423.0</ele><time>2026-04-04T07:48:44.765Z</time></trkpt><trkpt lat="43.2936054" lon="11.6561684"><ele>422.2</ele><time>2026-04-04T07:48:46.765Z</time></trkpt><trkpt lat="43.2935428" lon="11.6562831"><ele>421.4</ele><time>2026-04-04T07:48:48.766Z</time></trkpt><trkpt lat="43.293507" lon="11.6563777"><ele>420.59999999999997</ele><time>2026-04-04T07:48:49.765Z</time></trkpt><trkpt lat="43.2934733" lon="11.6564978"><ele>419.79999999999995</ele><time>2026-04-04T07:48:50.765Z</time></trkpt><trkpt lat="43.2934377" lon="11.6566272"><ele>419.0</ele><time>2026-04-04T07:48:51.766Z</time></trkpt><trkpt lat="43.293383" lon="11.656768"><ele>419.0</ele><time>2026-04-04T07:48:52.765Z</time></trkpt><trkpt lat="43.2933227" lon="11.6569214"><ele>419.0</ele><time>2026-04-04T07:48:53.765Z</time></trkpt><trkpt lat="43.2932673" lon="11.6570809"><ele>419.0</ele><time>2026-04-04T07:48:54.766Z</time></trkpt><trkpt lat="43.293218" lon="11.6572411"><ele>419.0</ele><time>2026-04-04T07:48:55.765Z</time></trkpt><trkpt lat="43.2931844" lon="11.6573764"><ele>418.66666666666663</ele><time>2026-04-04T07:48:56.765Z</time></trkpt><trkpt lat="43.2931699" lon="11.657502"><ele>418.3333333333333</ele><time>2026-04-04T07:48:57.765Z</time></trkpt><trkpt lat="43.2931614" lon="11.6576175"><ele>418.0</ele><time>2026-04-04T07:48:58.765Z</time></trkpt><trkpt lat="43.2931428" lon="11.6577245"><ele>417.66666666666663</ele><time>2026-04-04T07:48:59.765Z</time></trkpt><trkpt lat="43.2931125" lon="11.6578274"><ele>417.3333333333333</ele><time>2026-04-04T07:49:00.765Z</time></trkpt><trkpt lat="43.2930812" lon="11.6579266"><ele>417.0</ele><time>2026-04-04T07:49:01.765Z</time></trkpt><trkpt lat="43.2930505" lon="11.6580253"><ele>416.1666666666667</ele><time>2026-04-04T07:49:02.765Z</time></trkpt><trkpt lat="43.2930059" lon="11.6581306"><ele>415.33333333333337</ele><time>2026-04-04T07:49:03.765Z</time></trkpt><trkpt lat="43.2929609" lon="11.658243"><ele>414.5</ele><time>2026-04-04T07:49:04.765Z</time></trkpt><trkpt lat="43.2929337" lon="11.6583531"><ele>413.6666666666667</ele><time>2026-04-04T07:49:05.765Z</time></trkpt><trkpt lat="43.2929171" lon="11.6584376"><ele>412.83333333333337</ele><time>2026-04-04T07:49:06.765Z</time></trkpt><trkpt lat="43.2929331" lon="11.6585868"><ele>412.0</ele><time>2026-04-04T07:49:08.765Z</time></trkpt><trkpt lat="43.292979" lon="11.6586794"><ele>411.6</ele><time>2026-04-04T07:49:09.765Z</time></trkpt><trkpt lat="43.2930268" lon="11.6587897"><ele>411.20000000000005</ele><time>2026-04-04T07:49:10.765Z</time></trkpt><trkpt lat="43.2930579" lon="11.658904"><ele>410.8</ele><time>2026-04-04T07:49:11.766Z</time></trkpt><trkpt lat="43.2930608" lon="11.6590225"><ele>410.4</ele><time>2026-04-04T07:49:12.765Z</time></trkpt><trkpt lat="43.2930517" lon="11.6591564"><ele>410.0</ele><time>2026-04-04T07:49:13.765Z</time></trkpt><trkpt lat="43.2930316" lon="11.6593157"><ele>409.2</ele><time>2026-04-04T07:49:14.765Z</time></trkpt><trkpt lat="43.2930115" lon="11.6594824"><ele>408.4</ele><time>2026-04-04T07:49:15.766Z</time></trkpt><trkpt lat="43.2929934" lon="11.659636"><ele>407.6</ele><time>2026-04-04T07:49:16.765Z</time></trkpt><trkpt lat="43.2929795" lon="11.6597695"><ele>406.8</ele><time>2026-04-04T07:49:17.765Z</time></trkpt><trkpt lat="43.292979" lon="11.6599081"><ele>406.0</ele><time>2026-04-04T07:49:18.765Z</time></trkpt><trkpt lat="43.2929947" lon="11.6600367"><ele>406.0</ele><time>2026-04-04T07:49:19.766Z</time></trkpt><trkpt lat="43.2930281" lon="11.6601896"><ele>406.0</ele><time>2026-04-04T07:49:20.765Z</time></trkpt><trkpt lat="43.2930767" lon="11.6603753"><ele>406.0</ele><time>2026-04-04T07:49:21.765Z</time></trkpt><trkpt lat="43.2931133" lon="11.6605294"><ele>406.0</ele><time>2026-04-04T07:49:22.765Z</time></trkpt><trkpt lat="43.2931239" lon="11.6606414"><ele>405.4</ele><time>2026-04-04T07:49:23.765Z</time></trkpt><trkpt lat="43.2931286" lon="11.6607651"><ele>404.8</ele><time>2026-04-04T07:49:24.765Z</time></trkpt><trkpt lat="43.2931294" lon="11.6609178"><ele>404.2</ele><time>2026-04-04T07:49:25.765Z</time></trkpt><trkpt lat="43.293125" lon="11.6610699"><ele>403.59999999999997</ele><time>2026-04-04T07:49:26.765Z</time></trkpt><trkpt lat="43.2931181" lon="11.6612277"><ele>403.0</ele><time>2026-04-04T07:49:27.765Z</time></trkpt><trkpt lat="43.2931034" lon="11.6613558"><ele>402.50000000000006</ele><time>2026-04-04T07:49:28.765Z</time></trkpt><trkpt lat="43.2930872" lon="11.6614654"><ele>402.0</ele><time>2026-04-04T07:49:29.766Z</time></trkpt><trkpt lat="43.2930665" lon="11.6615521"><ele>401.5</ele><time>2026-04-04T07:49:30.765Z</time></trkpt><trkpt lat="43.2930395" lon="11.6616472"><ele>401.0</ele><time>2026-04-04T07:49:31.765Z</time></trkpt><trkpt lat="43.2930097" lon="11.6617865"><ele>400.50000000000006</ele><time>2026-04-04T07:49:33.765Z</time></trkpt><trkpt lat="43.2929797" lon="11.6619047"><ele>400.0</ele><time>2026-04-04T07:49:35.765Z</time></trkpt><trkpt lat="43.2929559" lon="11.662017"><ele>400.0</ele><time>2026-04-04T07:49:37.765Z</time></trkpt><trkpt lat="43.2929557" lon="11.6622088"><ele>400.0</ele><time>2026-04-04T07:49:39.765Z</time></trkpt><trkpt lat="43.2929705" lon="11.6623097"><ele>400.0</ele><time>2026-04-04T07:49:40.765Z</time></trkpt><trkpt lat="43.2929781" lon="11.6624172"><ele>400.0</ele><time>2026-04-04T07:49:41.765Z</time></trkpt><trkpt lat="43.2929916" lon="11.6625077"><ele>400.0</ele><time>2026-04-04T07:49:42.766Z</time></trkpt><trkpt lat="43.2929998" lon="11.6626356"><ele>400.00000000000006</ele><time>2026-04-04T07:49:44.765Z</time></trkpt><trkpt lat="43.293008" lon="11.6627318"><ele>400.0</ele><time>2026-04-04T07:49:46.765Z</time></trkpt><trkpt lat="43.2929925" lon="11.6628455"><ele>400.0</ele><time>2026-04-04T07:49:49.765Z</time></trkpt><trkpt lat="43.2929666" lon="11.6629482"><ele>400.0</ele><time>2026-04-04T07:49:51.765Z</time></trkpt><trkpt lat="43.2929602" lon="11.6630997"><ele>400.00000000000006</ele><time>2026-04-04T07:49:53.765Z</time></trkpt><trkpt lat="43.2929844" lon="11.6632255"><ele>400.0</ele><time>2026-04-04T07:49:54.765Z</time></trkpt><trkpt lat="43.2930269" lon="11.6633565"><ele>399.83333333333337</ele><time>2026-04-04T07:49:55.765Z</time></trkpt><trkpt lat="43.2930583" lon="11.663479"><ele>399.6666666666667</ele><time>2026-04-04T07:49:56.765Z</time></trkpt><trkpt lat="43.29308" lon="11.6635957"><ele>399.5</ele><time>2026-04-04T07:49:57.765Z</time></trkpt><trkpt lat="43.2930809" lon="11.6637254"><ele>399.33333333333337</ele><time>2026-04-04T07:49:58.765Z</time></trkpt><trkpt lat="43.2930823" lon="11.6638364"><ele>399.1666666666667</ele><time>2026-04-04T07:49:59.765Z</time></trkpt><trkpt lat="43.2930773" lon="11.6639332"><ele>399.0</ele><time>2026-04-04T07:50:00.765Z</time></trkpt><trkpt lat="43.2930719" lon="11.6640326"><ele>399.0</ele><time>2026-04-04T07:50:01.765Z</time></trkpt><trkpt lat="43.2930635" lon="11.6641321"><ele>399.0</ele><time>2026-04-04T07:50:02.765Z</time></trkpt><trkpt lat="43.2930639" lon="11.6642325"><ele>399.0</ele><time>2026-04-04T07:50:03.765Z</time></trkpt><trkpt lat="43.2930817" lon="11.6643411"><ele>399.0</ele><time>2026-04-04T07:50:04.765Z</time></trkpt><trkpt lat="43.2931074" lon="11.6644528"><ele>399.0</ele><time>2026-04-04T07:50:05.765Z</time></trkpt><trkpt lat="43.2931162" lon="11.6645446"><ele>399.0</ele><time>2026-04-04T07:50:06.766Z</time></trkpt><trkpt lat="43.2931138" lon="11.6646374"><ele>399.0</ele><time>2026-04-04T07:50:07.765Z</time></trkpt><trkpt lat="43.2931081" lon="11.664745"><ele>396.0</ele><time>2026-04-04T07:50:08.765Z</time></trkpt><trkpt lat="43.2931188" lon="11.6648568"><ele>393.0</ele><time>2026-04-04T07:50:09.765Z</time></trkpt><trkpt lat="43.2931366" lon="11.6649621"><ele>390.0</ele><time>2026-04-04T07:50:10.765Z</time></trkpt><trkpt lat="43.2931623" lon="11.6651078"><ele>387.0</ele><time>2026-04-04T07:50:11.766Z</time></trkpt><trkpt lat="43.2932066" lon="11.6652792"><ele>384.0</ele><time>2026-04-04T07:50:12.765Z</time></trkpt><trkpt lat="43.2932313" lon="11.6654287"><ele>383.79999999999995</ele><time>2026-04-04T07:50:13.765Z</time></trkpt><trkpt lat="43.2932439" lon="11.6655536"><ele>383.59999999999997</ele><time>2026-04-04T07:50:14.765Z</time></trkpt><trkpt lat="43.2932529" lon="11.6656919"><ele>383.4</ele><time>2026-04-04T07:50:15.765Z</time></trkpt><trkpt lat="43.2932701" lon="11.6658275"><ele>383.2</ele><time>2026-04-04T07:50:16.765Z</time></trkpt><trkpt lat="43.2932678" lon="11.6659357"><ele>383.0</ele><time>2026-04-04T07:50:17.765Z</time></trkpt><trkpt lat="43.2932685" lon="11.6660529"><ele>382.1666666666667</ele><time>2026-04-04T07:50:18.765Z</time></trkpt><trkpt lat="43.2932647" lon="11.6661712"><ele>381.33333333333337</ele><time>2026-04-04T07:50:19.765Z</time></trkpt><trkpt lat="43.2932508" lon="11.6662788"><ele>380.5</ele><time>2026-04-04T07:50:20.765Z</time></trkpt><trkpt lat="43.2932396" lon="11.6663746"><ele>379.6666666666667</ele><time>2026-04-04T07:50:21.765Z</time></trkpt><trkpt lat="43.2932287" lon="11.6664738"><ele>378.8333333333333</ele><time>2026-04-04T07:50:22.765Z</time></trkpt><trkpt lat="43.2932125" lon="11.6665632"><ele>378.0</ele><time>2026-04-04T07:50:23.766Z</time></trkpt><trkpt lat="43.293204" lon="11.6666717"><ele>378.0</ele><time>2026-04-04T07:50:24.765Z</time></trkpt><trkpt lat="43.2932018" lon="11.6667887"><ele>378.0</ele><time>2026-04-04T07:50:25.765Z</time></trkpt><trkpt lat="43.2932068" lon="11.6669114"><ele>378.0</ele><time>2026-04-04T07:50:26.765Z</time></trkpt><trkpt lat="43.2932138" lon="11.6670152"><ele>378.0</ele><time>2026-04-04T07:50:27.765Z</time></trkpt><trkpt lat="43.2932239" lon="11.6671821"><ele>378.0</ele><time>2026-04-04T07:50:29.765Z</time></trkpt><trkpt lat="43.29323" lon="11.6672686"><ele>378.0</ele><time>2026-04-04T07:50:30.765Z</time></trkpt><trkpt lat="43.2932315" lon="11.6673566"><ele>377.4</ele><time>2026-04-04T07:50:31.765Z</time></trkpt><trkpt lat="43.2932451" lon="11.6674534"><ele>376.79999999999995</ele><time>2026-04-04T07:50:32.765Z</time></trkpt><trkpt lat="43.2932811" lon="11.6676038"><ele>376.2</ele><time>2026-04-04T07:50:34.765Z</time></trkpt><trkpt lat="43.2932953" lon="11.6677071"><ele>375.6</ele><time>2026-04-04T07:50:36.766Z</time></trkpt><trkpt lat="43.2933502" lon="11.6678349"><ele>375.0</ele><time>2026-04-04T07:50:51.765Z</time></trkpt><trkpt lat="43.2933633" lon="11.6679531"><ele>374.8</ele><time>2026-04-04T07:50:53.765Z</time></trkpt><trkpt lat="43.2933797" lon="11.6680672"><ele>374.6</ele><time>2026-04-04T07:50:55.765Z</time></trkpt><trkpt lat="43.2934019" lon="11.6682099"><ele>374.4</ele><time>2026-04-04T07:51:01.765Z</time></trkpt><trkpt lat="43.2933994" lon="11.6683379"><ele>374.2</ele><time>2026-04-04T07:51:04.765Z</time></trkpt><trkpt lat="43.2934128" lon="11.6684329"><ele>374.0</ele><time>2026-04-04T07:51:05.765Z</time></trkpt><trkpt lat="43.2934393" lon="11.668567"><ele>373.5</ele><time>2026-04-04T07:51:06.765Z</time></trkpt><trkpt lat="43.2934525" lon="11.6686961"><ele>373.0</ele><time>2026-04-04T07:51:07.765Z</time></trkpt><trkpt lat="43.2934833" lon="11.6688098"><ele>372.5</ele><time>2026-04-04T07:51:08.765Z</time></trkpt><trkpt lat="43.2935205" lon="11.6689149"><ele>372.0</ele><time>2026-04-04T07:51:09.765Z</time></trkpt><trkpt lat="43.2935688" lon="11.669013"><ele>371.5</ele><time>2026-04-04T07:51:10.765Z</time></trkpt><trkpt lat="43.2936112" lon="11.6690983"><ele>371.0</ele><time>2026-04-04T07:51:11.765Z</time></trkpt><trkpt lat="43.2936581" lon="11.6691911"><ele>371.0</ele><time>2026-04-04T07:51:12.765Z</time></trkpt><trkpt lat="43.2937022" lon="11.6693021"><ele>371.0</ele><time>2026-04-04T07:51:13.765Z</time></trkpt><trkpt lat="43.2937521" lon="11.6694173"><ele>371.0</ele><time>2026-04-04T07:51:14.765Z</time></trkpt><trkpt lat="43.2937981" lon="11.66953"><ele>371.0</ele><time>2026-04-04T07:51:15.765Z</time></trkpt><trkpt lat="43.2938295" lon="11.6696322"><ele>371.0</ele><time>2026-04-04T07:51:16.766Z</time></trkpt><trkpt lat="43.2938639" lon="11.6697333"><ele>371.0</ele><time>2026-04-04T07:51:17.765Z</time></trkpt><trkpt lat="43.2939054" lon="11.6698269"><ele>371.8</ele><time>2026-04-04T07:51:18.765Z</time></trkpt><trkpt lat="43.2939648" lon="11.6699128"><ele>372.6</ele><time>2026-04-04T07:51:19.765Z</time></trkpt><trkpt lat="43.2940278" lon="11.6700195"><ele>373.4</ele><time>2026-04-04T07:51:20.765Z</time></trkpt><trkpt lat="43.2940829" lon="11.6701254"><ele>374.2</ele><time>2026-04-04T07:51:21.765Z</time></trkpt><trkpt lat="43.294147" lon="11.6702317"><ele>375.0</ele><time>2026-04-04T07:51:22.765Z</time></trkpt><trkpt lat="43.2942107" lon="11.6703401"><ele>375.0</ele><time>2026-04-04T07:51:23.765Z</time></trkpt><trkpt lat="43.2942666" lon="11.6704306"><ele>375.0</ele><time>2026-04-04T07:51:24.765Z</time></trkpt><trkpt lat="43.2943488" lon="11.6705196"><ele>375.0</ele><time>2026-04-04T07:51:25.765Z</time></trkpt><trkpt lat="43.2944341" lon="11.6706125"><ele>375.0</ele><time>2026-04-04T07:51:26.765Z</time></trkpt><trkpt lat="43.2945008" lon="11.6707157"><ele>375.0</ele><time>2026-04-04T07:51:27.765Z</time></trkpt><trkpt lat="43.2945464" lon="11.6708137"><ele>375.0</ele><time>2026-04-04T07:51:28.765Z</time></trkpt><trkpt lat="43.2945835" lon="11.6709103"><ele>375.0</ele><time>2026-04-04T07:51:29.766Z</time></trkpt><trkpt lat="43.2946308" lon="11.6709822"><ele>375.0</ele><time>2026-04-04T07:51:30.765Z</time></trkpt><trkpt lat="43.2946983" lon="11.6710452"><ele>375.0</ele><time>2026-04-04T07:51:31.766Z</time></trkpt><trkpt lat="43.2947767" lon="11.6711128"><ele>375.0</ele><time>2026-04-04T07:51:32.765Z</time></trkpt><trkpt lat="43.2948507" lon="11.6711574"><ele>375.0</ele><time>2026-04-04T07:51:33.765Z</time></trkpt><trkpt lat="43.2949113" lon="11.6712126"><ele>375.5</ele><time>2026-04-04T07:51:34.765Z</time></trkpt><trkpt lat="43.2949563" lon="11.671296"><ele>376.0</ele><time>2026-04-04T07:51:35.765Z</time></trkpt><trkpt lat="43.2950029" lon="11.6713839"><ele>376.5</ele><time>2026-04-04T07:51:36.766Z</time></trkpt><trkpt lat="43.2950614" lon="11.6714402"><ele>377.0</ele><time>2026-04-04T07:51:37.765Z</time></trkpt><trkpt lat="43.2951494" lon="11.6714447"><ele>377.5</ele><time>2026-04-04T07:51:38.765Z</time></trkpt><trkpt lat="43.2952633" lon="11.6714438"><ele>378.0</ele><time>2026-04-04T07:51:39.765Z</time></trkpt><trkpt lat="43.2953674" lon="11.6714298"><ele>378.0</ele><time>2026-04-04T07:51:40.766Z</time></trkpt><trkpt lat="43.2954708" lon="11.6713853"><ele>378.0</ele><time>2026-04-04T07:51:41.765Z</time></trkpt><trkpt lat="43.2955839" lon="11.6713315"><ele>378.0</ele><time>2026-04-04T07:51:42.765Z</time></trkpt><trkpt lat="43.2956886" lon="11.6712813"><ele>378.0</ele><time>2026-04-04T07:51:43.766Z</time></trkpt><trkpt lat="43.2957936" lon="11.6712407"><ele>378.0</ele><time>2026-04-04T07:51:44.765Z</time></trkpt><trkpt lat="43.2958884" lon="11.6711817"><ele>379.59999999999997</ele><time>2026-04-04T07:51:45.765Z</time></trkpt><trkpt lat="43.2959762" lon="11.6711014"><ele>381.2</ele><time>2026-04-04T07:51:46.766Z</time></trkpt><trkpt lat="43.2960538" lon="11.6710124"><ele>382.8</ele><time>2026-04-04T07:51:47.765Z</time></trkpt><trkpt lat="43.2961437" lon="11.6709292"><ele>384.4</ele><time>2026-04-04T07:51:48.765Z</time></trkpt><trkpt lat="43.2962442" lon="11.670835"><ele>386.0</ele><time>2026-04-04T07:51:49.766Z</time></trkpt><trkpt lat="43.2963381" lon="11.6707652"><ele>383.6</ele><time>2026-04-04T07:51:50.765Z</time></trkpt><trkpt lat="43.2964337" lon="11.6707093"><ele>381.20000000000005</ele><time>2026-04-04T07:51:51.765Z</time></trkpt><trkpt lat="43.296521" lon="11.6706507"><ele>378.79999999999995</ele><time>2026-04-04T07:51:52.765Z</time></trkpt><trkpt lat="43.2965975" lon="11.6705743"><ele>376.4</ele><time>2026-04-04T07:51:53.765Z</time></trkpt><trkpt lat="43.2966747" lon="11.6704578"><ele>374.0</ele><time>2026-04-04T07:51:54.765Z</time></trkpt><trkpt lat="43.2967655" lon="11.6703493"><ele>376.75</ele><time>2026-04-04T07:51:55.765Z</time></trkpt><trkpt lat="43.2968582" lon="11.6702426"><ele>379.5</ele><time>2026-04-04T07:51:56.766Z</time></trkpt><trkpt lat="43.2969599" lon="11.67014"><ele>382.25</ele><time>2026-04-04T07:51:57.765Z</time></trkpt><trkpt lat="43.2970638" lon="11.6700538"><ele>385.0</ele><time>2026-04-04T07:51:58.765Z</time></trkpt><trkpt lat="43.2971684" lon="11.6699971"><ele>381.8</ele><time>2026-04-04T07:51:59.765Z</time></trkpt><trkpt lat="43.2972714" lon="11.6699567"><ele>378.6</ele><time>2026-04-04T07:52:00.765Z</time></trkpt><trkpt lat="43.2973782" lon="11.6699232"><ele>375.4</ele><time>2026-04-04T07:52:01.765Z</time></trkpt><trkpt lat="43.2974786" lon="11.6698785"><ele>372.2</ele><time>2026-04-04T07:52:02.765Z</time></trkpt><trkpt lat="43.2975884" lon="11.6698112"><ele>369.0</ele><time>2026-04-04T07:52:03.765Z</time></trkpt><trkpt lat="43.297702" lon="11.669722"><ele>369.0</ele><time>2026-04-04T07:52:04.765Z</time></trkpt><trkpt lat="43.2977899" lon="11.6696321"><ele>369.0</ele><time>2026-04-04T07:52:05.765Z</time></trkpt><trkpt lat="43.2978569" lon="11.66955"><ele>369.0</ele><time>2026-04-04T07:52:06.765Z</time></trkpt><trkpt lat="43.2979027" lon="11.6694679"><ele>369.0</ele><time>2026-04-04T07:52:07.765Z</time></trkpt><trkpt lat="43.2979377" lon="11.669373"><ele>369.0</ele><time>2026-04-04T07:52:08.765Z</time></trkpt><trkpt lat="43.2979604" lon="11.6692446"><ele>369.0</ele><time>2026-04-04T07:52:09.766Z</time></trkpt><trkpt lat="43.2979839" lon="11.6691074"><ele>369.0</ele><time>2026-04-04T07:52:10.765Z</time></trkpt><trkpt lat="43.2979965" lon="11.6689825"><ele>369.0</ele><time>2026-04-04T07:52:11.766Z</time></trkpt><trkpt lat="43.2980843" lon="11.6688844"><ele>369.0</ele><time>2026-04-04T07:52:13.765Z</time></trkpt><trkpt lat="43.2981678" lon="11.6688928"><ele>369.0</ele><time>2026-04-04T07:52:14.765Z</time></trkpt><trkpt lat="43.2982535" lon="11.6689124"><ele>369.0</ele><time>2026-04-04T07:52:15.765Z</time></trkpt><trkpt lat="43.2983409" lon="11.6689273"><ele>369.0</ele><time>2026-04-04T07:52:16.765Z</time></trkpt><trkpt lat="43.2984398" lon="11.6688962"><ele>369.0</ele><time>2026-04-04T07:52:17.766Z</time></trkpt><trkpt lat="43.2985385" lon="11.6688665"><ele>369.0</ele><time>2026-04-04T07:52:18.765Z</time></trkpt><trkpt lat="43.2986294" lon="11.6688083"><ele>369.0</ele><time>2026-04-04T07:52:19.765Z</time></trkpt><trkpt lat="43.2987228" lon="11.6687588"><ele>369.0</ele><time>2026-04-04T07:52:20.765Z</time></trkpt><trkpt lat="43.2988019" lon="11.6687388"><ele>369.0</ele><time>2026-04-04T07:52:21.765Z</time></trkpt><trkpt lat="43.2988855" lon="11.668723"><ele>369.0</ele><time>2026-04-04T07:52:22.765Z</time></trkpt><trkpt lat="43.2989675" lon="11.6686925"><ele>369.0</ele><time>2026-04-04T07:52:23.765Z</time></trkpt><trkpt lat="43.2990567" lon="11.6686213"><ele>369.0</ele><time>2026-04-04T07:52:24.765Z</time></trkpt><trkpt lat="43.2991551" lon="11.6685499"><ele>369.0</ele><time>2026-04-04T07:52:25.766Z</time></trkpt><trkpt lat="43.2992548" lon="11.6684849"><ele>370.5</ele><time>2026-04-04T07:52:26.765Z</time></trkpt><trkpt lat="43.2993453" lon="11.6684351"><ele>372.0</ele><time>2026-04-04T07:52:27.765Z</time></trkpt><trkpt lat="43.2994271" lon="11.6683905"><ele>373.5</ele><time>2026-04-04T07:52:28.765Z</time></trkpt><trkpt lat="43.2995076" lon="11.6683641"><ele>375.0</ele><time>2026-04-04T07:52:29.765Z</time></trkpt><trkpt lat="43.2995878" lon="11.6683387"><ele>376.5</ele><time>2026-04-04T07:52:30.765Z</time></trkpt><trkpt lat="43.2996639" lon="11.6682968"><ele>378.0</ele><time>2026-04-04T07:52:31.765Z</time></trkpt><trkpt lat="43.2997406" lon="11.6682053"><ele>377.79999999999995</ele><time>2026-04-04T07:52:32.765Z</time></trkpt><trkpt lat="43.2998088" lon="11.6680835"><ele>377.6</ele><time>2026-04-04T07:52:33.765Z</time></trkpt><trkpt lat="43.2998754" lon="11.667949"><ele>377.4</ele><time>2026-04-04T07:52:34.765Z</time></trkpt><trkpt lat="43.2999246" lon="11.6678083"><ele>377.20000000000005</ele><time>2026-04-04T07:52:35.766Z</time></trkpt><trkpt lat="43.299962" lon="11.6676739"><ele>377.0</ele><time>2026-04-04T07:52:36.765Z</time></trkpt><trkpt lat="43.3000104" lon="11.6675586"><ele>377.0</ele><time>2026-04-04T07:52:37.765Z</time></trkpt><trkpt lat="43.3000923" lon="11.6674405"><ele>377.0</ele><time>2026-04-04T07:52:38.765Z</time></trkpt><trkpt lat="43.3001737" lon="11.6673357"><ele>377.0</ele><time>2026-04-04T07:52:39.766Z</time></trkpt><trkpt lat="43.3002322" lon="11.6672073"><ele>377.0</ele><time>2026-04-04T07:52:40.765Z</time></trkpt><trkpt lat="43.3002603" lon="11.6670751"><ele>377.0</ele><time>2026-04-04T07:52:41.765Z</time></trkpt><trkpt lat="43.3002626" lon="11.6669477"><ele>378.6</ele><time>2026-04-04T07:52:42.765Z</time></trkpt><trkpt lat="43.3002489" lon="11.6668122"><ele>380.20000000000005</ele><time>2026-04-04T07:52:43.766Z</time></trkpt><trkpt lat="43.3001979" lon="11.6666958"><ele>381.8</ele><time>2026-04-04T07:52:44.765Z</time></trkpt><trkpt lat="43.3001288" lon="11.6666038"><ele>383.4</ele><time>2026-04-04T07:52:45.765Z</time></trkpt><trkpt lat="43.3000619" lon="11.6665305"><ele>385.0</ele><time>2026-04-04T07:52:46.765Z</time></trkpt><trkpt lat="43.3000239" lon="11.6664411"><ele>385.0</ele><time>2026-04-04T07:52:48.765Z</time></trkpt><trkpt lat="43.3001169" lon="11.6663828"><ele>385.0</ele><time>2026-04-04T07:52:50.765Z</time></trkpt><trkpt lat="43.3001901" lon="11.6663937"><ele>385.0</ele><time>2026-04-04T07:52:51.765Z</time></trkpt><trkpt lat="43.3003082" lon="11.6664036"><ele>385.0</ele><time>2026-04-04T07:52:52.765Z</time></trkpt><trkpt lat="43.3004273" lon="11.6664078"><ele>385.0</ele><time>2026-04-04T07:52:53.766Z</time></trkpt><trkpt lat="43.3005341" lon="11.6663816"><ele>383.6</ele><time>2026-04-04T07:52:54.765Z</time></trkpt><trkpt lat="43.3006258" lon="11.6663229"><ele>382.2</ele><time>2026-04-04T07:52:55.766Z</time></trkpt><trkpt lat="43.3007058" lon="11.6662557"><ele>380.79999999999995</ele><time>2026-04-04T07:52:56.765Z</time></trkpt><trkpt lat="43.3007908" lon="11.6661811"><ele>379.4</ele><time>2026-04-04T07:52:57.765Z</time></trkpt><trkpt lat="43.3008631" lon="11.6661104"><ele>378.0</ele><time>2026-04-04T07:52:58.765Z</time></trkpt><trkpt lat="43.3009377" lon="11.6660467"><ele>378.0</ele><time>2026-04-04T07:52:59.765Z</time></trkpt><trkpt lat="43.3009974" lon="11.6659911"><ele>378.0</ele><time>2026-04-04T07:53:00.765Z</time></trkpt><trkpt lat="43.3010457" lon="11.6659271"><ele>378.0</ele><time>2026-04-04T07:53:01.765Z</time></trkpt><trkpt lat="43.3010873" lon="11.6658424"><ele>378.0</ele><time>2026-04-04T07:53:02.765Z</time></trkpt><trkpt lat="43.3011084" lon="11.6657214"><ele>378.0</ele><time>2026-04-04T07:53:03.765Z</time></trkpt><trkpt lat="43.3010952" lon="11.6655897"><ele>378.0</ele><time>2026-04-04T07:53:04.765Z</time></trkpt><trkpt lat="43.3010886" lon="11.6654588"><ele>378.0</ele><time>2026-04-04T07:53:05.765Z</time></trkpt><trkpt lat="43.301095" lon="11.6653179"><ele>378.0</ele><time>2026-04-04T07:53:06.765Z</time></trkpt><trkpt lat="43.3011212" lon="11.6652021"><ele>378.0</ele><time>2026-04-04T07:53:07.765Z</time></trkpt><trkpt lat="43.3011529" lon="11.6651187"><ele>378.0</ele><time>2026-04-04T07:53:08.765Z</time></trkpt><trkpt lat="43.3012013" lon="11.665038"><ele>378.0</ele><time>2026-04-04T07:53:09.765Z</time></trkpt><trkpt lat="43.3012419" lon="11.6649277"><ele>378.0</ele><time>2026-04-04T07:53:10.766Z</time></trkpt><trkpt lat="43.3012596" lon="11.664808"><ele>378.2</ele><time>2026-04-04T07:53:11.765Z</time></trkpt><trkpt lat="43.301293" lon="11.6646624"><ele>378.4</ele><time>2026-04-04T07:53:13.765Z</time></trkpt><trkpt lat="43.3013316" lon="11.6645832"><ele>378.59999999999997</ele><time>2026-04-04T07:53:15.765Z</time></trkpt><trkpt lat="43.3014409" lon="11.6646303"><ele>378.79999999999995</ele><time>2026-04-04T07:53:17.765Z</time></trkpt><trkpt lat="43.301513" lon="11.6647285"><ele>379.0</ele><time>2026-04-04T07:53:18.765Z</time></trkpt><trkpt lat="43.3015737" lon="11.664897"><ele>378.0</ele><time>2026-04-04T07:53:19.765Z</time></trkpt><trkpt lat="43.3016319" lon="11.665059"><ele>377.0</ele><time>2026-04-04T07:53:20.765Z</time></trkpt><trkpt lat="43.301704" lon="11.6651899"><ele>376.0</ele><time>2026-04-04T07:53:21.766Z</time></trkpt><trkpt lat="43.3017729" lon="11.6653058"><ele>375.0</ele><time>2026-04-04T07:53:22.765Z</time></trkpt><trkpt lat="43.3018338" lon="11.6653705"><ele>374.0</ele><time>2026-04-04T07:53:23.765Z</time></trkpt><trkpt lat="43.3019034" lon="11.6653995"><ele>374.0</ele><time>2026-04-04T07:53:24.765Z</time></trkpt><trkpt lat="43.3019873" lon="11.6653769"><ele>374.0</ele><time>2026-04-04T07:53:25.765Z</time></trkpt><trkpt lat="43.3020752" lon="11.665308"><ele>374.0</ele><time>2026-04-04T07:53:26.765Z</time></trkpt><trkpt lat="43.3021666" lon="11.6652198"><ele>374.0</ele><time>2026-04-04T07:53:27.765Z</time></trkpt><trkpt lat="43.3022825" lon="11.6651045"><ele>374.0</ele><time>2026-04-04T07:53:28.765Z</time></trkpt><trkpt lat="43.3023892" lon="11.6650211"><ele>373.5</ele><time>2026-04-04T07:53:29.765Z</time></trkpt><trkpt lat="43.3025011" lon="11.6649475"><ele>373.0</ele><time>2026-04-04T07:53:30.765Z</time></trkpt><trkpt lat="43.3026107" lon="11.6648735"><ele>372.5</ele><time>2026-04-04T07:53:31.765Z</time></trkpt><trkpt lat="43.3027236" lon="11.6647946"><ele>372.0</ele><time>2026-04-04T07:53:32.765Z</time></trkpt><trkpt lat="43.3028331" lon="11.6647189"><ele>372.0</ele><time>2026-04-04T07:53:33.765Z</time></trkpt><trkpt lat="43.3029164" lon="11.6646418"><ele>372.0</ele><time>2026-04-04T07:53:34.765Z</time></trkpt><trkpt lat="43.3029858" lon="11.6645358"><ele>372.0</ele><time>2026-04-04T07:53:35.766Z</time></trkpt><trkpt lat="43.3030464" lon="11.6644171"><ele>372.0</ele><time>2026-04-04T07:53:36.765Z</time></trkpt><trkpt lat="43.3031" lon="11.6643223"><ele>372.0</ele><time>2026-04-04T07:53:37.765Z</time></trkpt><trkpt lat="43.303133" lon="11.6642451"><ele>371.8333333333333</ele><time>2026-04-04T07:53:38.765Z</time></trkpt><trkpt lat="43.3031922" lon="11.6641213"><ele>371.6666666666667</ele><time>2026-04-04T07:53:40.765Z</time></trkpt><trkpt lat="43.3032381" lon="11.6640468"><ele>371.5</ele><time>2026-04-04T07:53:41.765Z</time></trkpt><trkpt lat="43.303277" lon="11.6639615"><ele>371.33333333333337</ele><time>2026-04-04T07:53:42.766Z</time></trkpt><trkpt lat="43.3033154" lon="11.6638833"><ele>371.1666666666667</ele><time>2026-04-04T07:53:43.765Z</time></trkpt><trkpt lat="43.3033616" lon="11.6637926"><ele>371.0</ele><time>2026-04-04T07:53:44.765Z</time></trkpt><trkpt lat="43.3034128" lon="11.6637142"><ele>371.0</ele><time>2026-04-04T07:53:45.765Z</time></trkpt><trkpt lat="43.3035204" lon="11.6636914"><ele>371.0</ele><time>2026-04-04T07:53:47.765Z</time></trkpt><trkpt lat="43.3036592" lon="11.6636938"><ele>371.0</ele><time>2026-04-04T07:53:49.765Z</time></trkpt><trkpt lat="43.3037688" lon="11.6636658"><ele>371.0</ele><time>2026-04-04T07:53:50.765Z</time></trkpt><trkpt lat="43.3038723" lon="11.6636212"><ele>371.0</ele><time>2026-04-04T07:53:51.765Z</time></trkpt><trkpt lat="43.3039438" lon="11.6635756"><ele>371.0</ele><time>2026-04-04T07:53:52.765Z</time></trkpt><trkpt lat="43.3040182" lon="11.6635345"><ele>371.0</ele><time>2026-04-04T07:53:53.765Z</time></trkpt><trkpt lat="43.3040944" lon="11.6634718"><ele>371.0</ele><time>2026-04-04T07:53:54.765Z</time></trkpt><trkpt lat="43.3041675" lon="11.6634298"><ele>371.0</ele><time>2026-04-04T07:53:55.765Z</time></trkpt><trkpt lat="43.3042314" lon="11.6633937"><ele>371.0</ele><time>2026-04-04T07:53:56.765Z</time></trkpt><trkpt lat="43.3042922" lon="11.6633702"><ele>371.0</ele><time>2026-04-04T07:53:57.765Z</time></trkpt><trkpt lat="43.3043624" lon="11.6633108"><ele>371.0</ele><time>2026-04-04T07:53:58.766Z</time></trkpt><trkpt lat="43.3044267" lon="11.6632419"><ele>371.0</ele><time>2026-04-04T07:53:59.765Z</time></trkpt><trkpt lat="43.3045116" lon="11.6631205"><ele>371.0</ele><time>2026-04-04T07:54:01.765Z</time></trkpt><trkpt lat="43.3045618" lon="11.6630571"><ele>371.0</ele><time>2026-04-04T07:54:02.765Z</time></trkpt><trkpt lat="43.3046122" lon="11.6629852"><ele>371.0</ele><time>2026-04-04T07:54:03.765Z</time></trkpt><trkpt lat="43.3046696" lon="11.6629133"><ele>371.0</ele><time>2026-04-04T07:54:04.765Z</time></trkpt><trkpt lat="43.3047108" lon="11.6628475"><ele>371.0</ele><time>2026-04-04T07:54:05.765Z</time></trkpt><trkpt lat="43.3047622" lon="11.6627417"><ele>371.0</ele><time>2026-04-04T07:54:07.765Z</time></trkpt><trkpt lat="43.3048171" lon="11.6626988"><ele>371.0</ele><time>2026-04-04T07:54:09.765Z</time></trkpt><trkpt lat="43.3048754" lon="11.6626379"><ele>371.0</ele><time>2026-04-04T07:54:12.765Z</time></trkpt><trkpt lat="43.3049339" lon="11.6625495"><ele>371.0</ele><time>2026-04-04T07:54:14.765Z</time></trkpt><trkpt lat="43.3050084" lon="11.6624603"><ele>370.8</ele><time>2026-04-04T07:54:16.765Z</time></trkpt><trkpt lat="43.3050866" lon="11.6623806"><ele>370.6</ele><time>2026-04-04T07:54:18.766Z</time></trkpt><trkpt lat="43.3051526" lon="11.6623046"><ele>370.4</ele><time>2026-04-04T07:54:19.765Z</time></trkpt><trkpt lat="43.3052234" lon="11.6622136"><ele>370.2</ele><time>2026-04-04T07:54:20.766Z</time></trkpt><trkpt lat="43.3052993" lon="11.6621211"><ele>370.0</ele><time>2026-04-04T07:54:21.765Z</time></trkpt><trkpt lat="43.3053698" lon="11.6620596"><ele>370.0</ele><time>2026-04-04T07:54:22.765Z</time></trkpt><trkpt lat="43.305429" lon="11.6620252"><ele>370.0</ele><time>2026-04-04T07:54:23.765Z</time></trkpt><trkpt lat="43.3055279" lon="11.6620183"><ele>370.0</ele><time>2026-04-04T07:54:25.765Z</time></trkpt><trkpt lat="43.3055969" lon="11.6620375"><ele>370.0</ele><time>2026-04-04T07:54:27.765Z</time></trkpt><trkpt lat="43.3056924" lon="11.6619876"><ele>370.0</ele><time>2026-04-04T07:54:29.765Z</time></trkpt><trkpt lat="43.3057589" lon="11.6619761"><ele>370.0</ele><time>2026-04-04T07:54:30.766Z</time></trkpt><trkpt lat="43.3058415" lon="11.6619777"><ele>368.6</ele><time>2026-04-04T07:54:31.765Z</time></trkpt><trkpt lat="43.3059325" lon="11.6619855"><ele>367.2</ele><time>2026-04-04T07:54:32.765Z</time></trkpt><trkpt lat="43.306022" lon="11.661994"><ele>365.79999999999995</ele><time>2026-04-04T07:54:33.766Z</time></trkpt><trkpt lat="43.3061151" lon="11.6619951"><ele>364.4</ele><time>2026-04-04T07:54:34.765Z</time></trkpt><trkpt lat="43.3062082" lon="11.6620057"><ele>363.0</ele><time>2026-04-04T07:54:35.765Z</time></trkpt><trkpt lat="43.3063134" lon="11.6619974"><ele>363.0</ele><time>2026-04-04T07:54:36.765Z</time></trkpt><trkpt lat="43.3063956" lon="11.6619769"><ele>363.0</ele><time>2026-04-04T07:54:37.766Z</time></trkpt><trkpt lat="43.3064691" lon="11.6619415"><ele>363.0</ele><time>2026-04-04T07:54:38.765Z</time></trkpt><trkpt lat="43.3065499" lon="11.661885"><ele>363.0</ele><time>2026-04-04T07:54:39.765Z</time></trkpt><trkpt lat="43.3066308" lon="11.6618291"><ele>363.0</ele><time>2026-04-04T07:54:40.765Z</time></trkpt><trkpt lat="43.3067226" lon="11.6617845"><ele>363.0</ele><time>2026-04-04T07:54:41.765Z</time></trkpt><trkpt lat="43.3068226" lon="11.6617648"><ele>362.4</ele><time>2026-04-04T07:54:42.765Z</time></trkpt><trkpt lat="43.3069334" lon="11.6617848"><ele>361.79999999999995</ele><time>2026-04-04T07:54:43.765Z</time></trkpt><trkpt lat="43.3070299" lon="11.6618244"><ele>361.2</ele><time>2026-04-04T07:54:44.766Z</time></trkpt><trkpt lat="43.307113" lon="11.6618723"><ele>360.6</ele><time>2026-04-04T07:54:45.766Z</time></trkpt><trkpt lat="43.3071661" lon="11.6619412"><ele>360.0</ele><time>2026-04-04T07:54:46.765Z</time></trkpt><trkpt lat="43.3072284" lon="11.662016"><ele>360.1666666666667</ele><time>2026-04-04T07:54:47.765Z</time></trkpt><trkpt lat="43.3072936" lon="11.6620666"><ele>360.3333333333333</ele><time>2026-04-04T07:54:48.765Z</time></trkpt><trkpt lat="43.3073545" lon="11.6620925"><ele>360.5</ele><time>2026-04-04T07:54:49.765Z</time></trkpt><trkpt lat="43.3074595" lon="11.6620603"><ele>360.66666666666663</ele><time>2026-04-04T07:54:51.765Z</time></trkpt><trkpt lat="43.3075108" lon="11.6620039"><ele>360.8333333333333</ele><time>2026-04-04T07:54:52.765Z</time></trkpt><trkpt lat="43.3075562" lon="11.6619296"><ele>361.0</ele><time>2026-04-04T07:54:53.765Z</time></trkpt><trkpt lat="43.3076367" lon="11.6617988"><ele>362.16666666666663</ele><time>2026-04-04T07:54:55.765Z</time></trkpt><trkpt lat="43.3077265" lon="11.6616623"><ele>363.3333333333333</ele><time>2026-04-04T07:54:57.765Z</time></trkpt><trkpt lat="43.3077747" lon="11.6615918"><ele>364.5</ele><time>2026-04-04T07:54:58.765Z</time></trkpt><trkpt lat="43.3078343" lon="11.6615336"><ele>365.6666666666667</ele><time>2026-04-04T07:54:59.765Z</time></trkpt><trkpt lat="43.3078951" lon="11.6614967"><ele>366.83333333333337</ele><time>2026-04-04T07:55:00.765Z</time></trkpt><trkpt lat="43.3079688" lon="11.6614666"><ele>368.0</ele><time>2026-04-04T07:55:01.765Z</time></trkpt><trkpt lat="43.3080367" lon="11.6614218"><ele>367.83333333333337</ele><time>2026-04-04T07:55:02.765Z</time></trkpt><trkpt lat="43.3081071" lon="11.6613662"><ele>367.6666666666667</ele><time>2026-04-04T07:55:03.765Z</time></trkpt><trkpt lat="43.3081835" lon="11.6613225"><ele>367.5</ele><time>2026-04-04T07:55:04.765Z</time></trkpt><trkpt lat="43.308263" lon="11.661293"><ele>367.3333333333333</ele><time>2026-04-04T07:55:05.765Z</time></trkpt><trkpt lat="43.3083566" lon="11.661253"><ele>367.16666666666663</ele><time>2026-04-04T07:55:06.766Z</time></trkpt><trkpt lat="43.3084444" lon="11.6612167"><ele>367.0</ele><time>2026-04-04T07:55:07.765Z</time></trkpt><trkpt lat="43.308524" lon="11.6611835"><ele>368.5</ele><time>2026-04-04T07:55:08.765Z</time></trkpt><trkpt lat="43.3086319" lon="11.6610848"><ele>370.0</ele><time>2026-04-04T07:55:10.765Z</time></trkpt><trkpt lat="43.3086819" lon="11.6610144"><ele>371.5</ele><time>2026-04-04T07:55:11.766Z</time></trkpt><trkpt lat="43.3087277" lon="11.6609428"><ele>373.0</ele><time>2026-04-04T07:55:12.765Z</time></trkpt><trkpt lat="43.3087943" lon="11.6608822"><ele>374.5</ele><time>2026-04-04T07:55:14.765Z</time></trkpt><trkpt lat="43.3088473" lon="11.6607997"><ele>376.0</ele><time>2026-04-04T07:55:16.765Z</time></trkpt><trkpt lat="43.3088406" lon="11.6606673"><ele>376.0</ele><time>2026-04-04T07:55:18.765Z</time></trkpt><trkpt lat="43.3088357" lon="11.6605728"><ele>376.0</ele><time>2026-04-04T07:55:19.766Z</time></trkpt><trkpt lat="43.308873" lon="11.660492"><ele>376.0</ele><time>2026-04-04T07:55:20.765Z</time></trkpt><trkpt lat="43.3089324" lon="11.6604322"><ele>376.0</ele><time>2026-04-04T07:55:21.765Z</time></trkpt><trkpt lat="43.3089876" lon="11.6603171"><ele>376.0</ele><time>2026-04-04T07:55:23.765Z</time></trkpt><trkpt lat="43.308998" lon="11.6602172"><ele>376.0</ele><time>2026-04-04T07:55:25.765Z</time></trkpt><trkpt lat="43.3091078" lon="11.6601925"><ele>376.16666666666663</ele><time>2026-04-04T07:55:27.765Z</time></trkpt><trkpt lat="43.3091771" lon="11.6601822"><ele>376.3333333333333</ele><time>2026-04-04T07:55:28.766Z</time></trkpt><trkpt lat="43.3092494" lon="11.6601691"><ele>376.5</ele><time>2026-04-04T07:55:29.765Z</time></trkpt><trkpt lat="43.3093609" lon="11.6601642"><ele>376.6666666666667</ele><time>2026-04-04T07:55:31.765Z</time></trkpt><trkpt lat="43.3094046" lon="11.6600767"><ele>376.83333333333337</ele><time>2026-04-04T07:55:33.765Z</time></trkpt><trkpt lat="43.3094051" lon="11.6599849"><ele>377.0</ele><time>2026-04-04T07:55:34.765Z</time></trkpt><trkpt lat="43.309348" lon="11.6598474"><ele>377.0</ele><time>2026-04-04T07:55:36.765Z</time></trkpt><trkpt lat="43.3092937" lon="11.6597737"><ele>377.0</ele><time>2026-04-04T07:55:37.765Z</time></trkpt><trkpt lat="43.3092454" lon="11.6597042"><ele>377.0</ele><time>2026-04-04T07:55:38.765Z</time></trkpt><trkpt lat="43.3091936" lon="11.6595745"><ele>377.0</ele><time>2026-04-04T07:55:40.765Z</time></trkpt><trkpt lat="43.3092426" lon="11.6595086"><ele>377.0</ele><time>2026-04-04T07:55:42.765Z</time></trkpt><trkpt lat="43.3093074" lon="11.6595189"><ele>377.0</ele><time>2026-04-04T07:55:44.766Z</time></trkpt><trkpt lat="43.3094497" lon="11.6595479"><ele>377.0</ele><time>2026-04-04T07:55:46.765Z</time></trkpt><trkpt lat="43.3095381" lon="11.6595456"><ele>377.0</ele><time>2026-04-04T07:55:47.766Z</time></trkpt><trkpt lat="43.3096065" lon="11.6595312"><ele>377.0</ele><time>2026-04-04T07:55:48.765Z</time></trkpt><trkpt lat="43.3096689" lon="11.6595167"><ele>377.0</ele><time>2026-04-04T07:55:50.765Z</time></trkpt><trkpt lat="43.309736" lon="11.6595027"><ele>377.0</ele><time>2026-04-04T07:55:53.765Z</time></trkpt><trkpt lat="43.3098544" lon="11.6595168"><ele>377.0</ele><time>2026-04-04T07:56:26.766Z</time></trkpt><trkpt lat="43.3099143" lon="11.6595605"><ele>376.20000000000005</ele><time>2026-04-04T07:56:28.767Z</time></trkpt><trkpt lat="43.3100075" lon="11.6595734"><ele>375.4</ele><time>2026-04-04T07:56:30.767Z</time></trkpt><trkpt lat="43.3101001" lon="11.6595125"><ele>374.6</ele><time>2026-04-04T07:56:32.766Z</time></trkpt><trkpt lat="43.3101511" lon="11.6593991"><ele>373.79999999999995</ele><time>2026-04-04T07:56:34.766Z</time></trkpt><trkpt lat="43.3101196" lon="11.659244"><ele>373.0</ele><time>2026-04-04T07:56:36.766Z</time></trkpt><trkpt lat="43.3100877" lon="11.6591661"><ele>374.59999999999997</ele><time>2026-04-04T07:56:37.766Z</time></trkpt><trkpt lat="43.3100582" lon="11.6590824"><ele>376.2</ele><time>2026-04-04T07:56:38.766Z</time></trkpt><trkpt lat="43.3100364" lon="11.658993"><ele>377.8</ele><time>2026-04-04T07:56:39.766Z</time></trkpt><trkpt lat="43.3099903" lon="11.6588688"><ele>379.4</ele><time>2026-04-04T07:56:41.766Z</time></trkpt><trkpt lat="43.3098995" lon="11.6587334"><ele>381.0</ele><time>2026-04-04T07:56:43.766Z</time></trkpt><trkpt lat="43.3098334" lon="11.6586465"><ele>382.5</ele><time>2026-04-04T07:56:44.766Z</time></trkpt><trkpt lat="43.3097691" lon="11.658568"><ele>384.0</ele><time>2026-04-04T07:56:45.766Z</time></trkpt><trkpt lat="43.3097061" lon="11.658521"><ele>385.5</ele><time>2026-04-04T07:56:46.766Z</time></trkpt><trkpt lat="43.3096392" lon="11.6585002"><ele>387.0</ele><time>2026-04-04T07:56:47.767Z</time></trkpt><trkpt lat="43.3095775" lon="11.6584699"><ele>388.5</ele><time>2026-04-04T07:56:48.767Z</time></trkpt><trkpt lat="43.3095201" lon="11.6584278"><ele>390.0</ele><time>2026-04-04T07:56:51.766Z</time></trkpt><trkpt lat="43.3095421" lon="11.6583011"><ele>390.1666666666667</ele><time>2026-04-04T07:57:32.766Z</time></trkpt><trkpt lat="43.3095898" lon="11.6581673"><ele>390.33333333333337</ele><time>2026-04-04T07:57:34.766Z</time></trkpt><trkpt lat="43.3096192" lon="11.6580844"><ele>390.5</ele><time>2026-04-04T07:57:36.766Z</time></trkpt><trkpt lat="43.3096466" lon="11.6579773"><ele>390.6666666666667</ele><time>2026-04-04T07:57:39.766Z</time></trkpt><trkpt lat="43.3096627" lon="11.6578838"><ele>390.83333333333337</ele><time>2026-04-04T07:57:41.766Z</time></trkpt><trkpt lat="43.3096692" lon="11.6577937"><ele>391.0</ele><time>2026-04-04T07:57:43.766Z</time></trkpt><trkpt lat="43.3096663" lon="11.6576977"><ele>394.33333333333337</ele><time>2026-04-04T07:57:45.766Z</time></trkpt><trkpt lat="43.309646" lon="11.6576102"><ele>397.6666666666667</ele><time>2026-04-04T07:57:47.766Z</time></trkpt><trkpt lat="43.309598" lon="11.657528"><ele>401.0</ele><time>2026-04-04T07:57:49.766Z</time></trkpt><trkpt lat="43.3095324" lon="11.6574317"><ele>404.33333333333337</ele><time>2026-04-04T07:57:51.766Z</time></trkpt><trkpt lat="43.3094595" lon="11.6573141"><ele>407.6666666666667</ele><time>2026-04-04T07:57:53.766Z</time></trkpt><trkpt lat="43.3095092" lon="11.6574066"><ele>411.0</ele><time>2026-04-04T07:57:54.842Z</time></trkpt><trkpt lat="43.3094449" lon="11.6573012"><ele>411.0</ele><time>2026-04-04T07:57:55.862Z</time></trkpt><trkpt lat="43.3093649" lon="11.6571571"><ele>411.0</ele><time>2026-04-04T07:57:57.871Z</time></trkpt><trkpt lat="43.3092912" lon="11.6570571"><ele>411.0</ele><time>2026-04-04T07:58:00.846Z</time></trkpt><trkpt lat="43.3092533" lon="11.6569009"><ele>411.0</ele><time>2026-04-04T07:58:02.807Z</time></trkpt><trkpt lat="43.3091739" lon="11.6566911"><ele>414.3333333333333</ele><time>2026-04-04T07:58:04.766Z</time></trkpt><trkpt lat="43.3091496" lon="11.6566064"><ele>417.66666666666663</ele><time>2026-04-04T07:58:07.766Z</time></trkpt><trkpt lat="43.3091962" lon="11.6565208"><ele>421.0</ele><time>2026-04-04T07:58:10.767Z</time></trkpt><trkpt lat="43.3092426" lon="11.656419"><ele>424.3333333333333</ele><time>2026-04-04T07:58:12.766Z</time></trkpt><trkpt lat="43.3092493" lon="11.6562661"><ele>427.66666666666663</ele><time>2026-04-04T07:58:14.766Z</time></trkpt><trkpt lat="43.309232" lon="11.6561788"><ele>431.0</ele><time>2026-04-04T07:58:15.766Z</time></trkpt><trkpt lat="43.3091912" lon="11.6560728"><ele>433.16666666666663</ele><time>2026-04-04T07:58:16.767Z</time></trkpt><trkpt lat="43.3091596" lon="11.6559582"><ele>435.3333333333333</ele><time>2026-04-04T07:58:17.766Z</time></trkpt><trkpt lat="43.3091245" lon="11.6558569"><ele>437.5</ele><time>2026-04-04T07:58:18.766Z</time></trkpt><trkpt lat="43.3090998" lon="11.6557719"><ele>439.66666666666663</ele><time>2026-04-04T07:58:19.766Z</time></trkpt><trkpt lat="43.3090797" lon="11.6556879"><ele>441.8333333333333</ele><time>2026-04-04T07:58:20.766Z</time></trkpt><trkpt lat="43.3090694" lon="11.6555787"><ele>444.0</ele><time>2026-04-04T07:58:21.767Z</time></trkpt><trkpt lat="43.3090622" lon="11.6554539"><ele>444.0</ele><time>2026-04-04T07:58:22.767Z</time></trkpt><trkpt lat="43.3090422" lon="11.65534"><ele>444.0</ele><time>2026-04-04T07:58:23.766Z</time></trkpt><trkpt lat="43.3090162" lon="11.655226"><ele>444.0</ele><time>2026-04-04T07:58:24.766Z</time></trkpt><trkpt lat="43.3089798" lon="11.6551087"><ele>444.0</ele><time>2026-04-04T07:58:25.766Z</time></trkpt><trkpt lat="43.308961" lon="11.6549985"><ele>444.0</ele><time>2026-04-04T07:58:26.766Z</time></trkpt><trkpt lat="43.3089493" lon="11.6549098"><ele>444.0</ele><time>2026-04-04T07:58:27.766Z</time></trkpt><trkpt lat="43.3089346" lon="11.6548219"><ele>445.0</ele><time>2026-04-04T07:58:28.766Z</time></trkpt><trkpt lat="43.3089245" lon="11.6547195"><ele>446.0</ele><time>2026-04-04T07:58:29.766Z</time></trkpt><trkpt lat="43.3089209" lon="11.6546253"><ele>447.0</ele><time>2026-04-04T07:58:30.766Z</time></trkpt><trkpt lat="43.3088748" lon="11.6545046"><ele>448.0</ele><time>2026-04-04T07:58:32.766Z</time></trkpt><trkpt lat="43.3088132" lon="11.6544578"><ele>449.0</ele><time>2026-04-04T07:58:34.766Z</time></trkpt><trkpt lat="43.3087952" lon="11.654339"><ele>450.0</ele><time>2026-04-04T07:58:36.766Z</time></trkpt><trkpt lat="43.3087539" lon="11.6542314"><ele>453.8333333333333</ele><time>2026-04-04T07:58:38.766Z</time></trkpt><trkpt lat="43.3087052" lon="11.6541755"><ele>457.66666666666663</ele><time>2026-04-04T07:58:39.766Z</time></trkpt><trkpt lat="43.308638" lon="11.6540687"><ele>461.5</ele><time>2026-04-04T07:58:41.766Z</time></trkpt><trkpt lat="43.3086049" lon="11.6539252"><ele>465.3333333333333</ele><time>2026-04-04T07:58:43.766Z</time></trkpt><trkpt lat="43.3085842" lon="11.6538239"><ele>469.16666666666663</ele><time>2026-04-04T07:58:45.767Z</time></trkpt><trkpt lat="43.3085787" lon="11.6537209"><ele>473.0</ele><time>2026-04-04T07:58:47.766Z</time></trkpt><trkpt lat="43.3085633" lon="11.653577"><ele>474.8571428571429</ele><time>2026-04-04T07:58:49.766Z</time></trkpt><trkpt lat="43.3085239" lon="11.6534951"><ele>476.71428571428567</ele><time>2026-04-04T07:58:50.766Z</time></trkpt><trkpt lat="43.3084782" lon="11.6534065"><ele>478.57142857142856</ele><time>2026-04-04T07:58:51.766Z</time></trkpt><trkpt lat="43.3084239" lon="11.6533238"><ele>480.42857142857144</ele><time>2026-04-04T07:58:52.766Z</time></trkpt><trkpt lat="43.3083742" lon="11.6532478"><ele>482.28571428571433</ele><time>2026-04-04T07:58:53.766Z</time></trkpt><trkpt lat="43.3083283" lon="11.6531773"><ele>484.1428571428571</ele><time>2026-04-04T07:58:54.766Z</time></trkpt><trkpt lat="43.3082758" lon="11.6531162"><ele>486.0</ele><time>2026-04-04T07:58:55.766Z</time></trkpt><trkpt lat="43.3081941" lon="11.6530261"><ele>486.0</ele><time>2026-04-04T07:58:57.766Z</time></trkpt><trkpt lat="43.3080952" lon="11.6529179"><ele>486.0</ele><time>2026-04-04T07:58:59.766Z</time></trkpt><trkpt lat="43.3080374" lon="11.6528146"><ele>486.0</ele><time>2026-04-04T07:59:01.766Z</time></trkpt><trkpt lat="43.3080525" lon="11.6526714"><ele>486.0</ele><time>2026-04-04T07:59:03.766Z</time></trkpt><trkpt lat="43.3081038" lon="11.6525324"><ele>486.0</ele><time>2026-04-04T07:59:05.767Z</time></trkpt><trkpt lat="43.3081603" lon="11.6523788"><ele>486.8333333333333</ele><time>2026-04-04T08:01:38.766Z</time></trkpt><trkpt lat="43.3082153" lon="11.6522452"><ele>487.66666666666663</ele><time>2026-04-04T08:01:40.766Z</time></trkpt><trkpt lat="43.3082199" lon="11.6521557"><ele>488.5</ele><time>2026-04-04T08:01:41.766Z</time></trkpt><trkpt lat="43.3082167" lon="11.6520604"><ele>489.3333333333333</ele><time>2026-04-04T08:01:42.766Z</time></trkpt><trkpt lat="43.3082189" lon="11.6519509"><ele>490.16666666666663</ele><time>2026-04-04T08:01:43.766Z</time></trkpt><trkpt lat="43.3082293" lon="11.6518613"><ele>491.0</ele><time>2026-04-04T08:01:44.766Z</time></trkpt><trkpt lat="43.308261" lon="11.6517818"><ele>492.6</ele><time>2026-04-04T08:01:45.766Z</time></trkpt><trkpt lat="43.3083156" lon="11.6517126"><ele>494.20000000000005</ele><time>2026-04-04T08:01:46.767Z</time></trkpt><trkpt lat="43.3083803" lon="11.6516491"><ele>495.79999999999995</ele><time>2026-04-04T08:01:47.766Z</time></trkpt><trkpt lat="43.3084359" lon="11.6515868"><ele>497.4</ele><time>2026-04-04T08:01:48.766Z</time></trkpt><trkpt lat="43.3084619" lon="11.6514395"><ele>499.0</ele><time>2026-04-04T08:01:50.766Z</time></trkpt><trkpt lat="43.3084368" lon="11.6512568"><ele>499.0</ele><time>2026-04-04T08:01:52.767Z</time></trkpt><trkpt lat="43.3084222" lon="11.6511296"><ele>499.0</ele><time>2026-04-04T08:01:53.766Z</time></trkpt><trkpt lat="43.3084309" lon="11.6510082"><ele>499.0</ele><time>2026-04-04T08:01:54.766Z</time></trkpt><trkpt lat="43.3084255" lon="11.6508997"><ele>499.0</ele><time>2026-04-04T08:01:55.766Z</time></trkpt><trkpt lat="43.3084024" lon="11.6507597"><ele>499.0</ele><time>2026-04-04T08:01:56.767Z</time></trkpt><trkpt lat="43.3083803" lon="11.6506025"><ele>499.25</ele><time>2026-04-04T08:01:57.766Z</time></trkpt><trkpt lat="43.3083377" lon="11.6504303"><ele>499.5</ele><time>2026-04-04T08:01:58.766Z</time></trkpt><trkpt lat="43.3082892" lon="11.6502684"><ele>499.75</ele><time>2026-04-04T08:01:59.766Z</time></trkpt><trkpt lat="43.3082524" lon="11.6501148"><ele>500.0</ele><time>2026-04-04T08:02:00.766Z</time></trkpt><trkpt lat="43.3081968" lon="11.6499871"><ele>500.0</ele><time>2026-04-04T08:02:01.767Z</time></trkpt><trkpt lat="43.308136" lon="11.6498638"><ele>500.0</ele><time>2026-04-04T08:02:02.766Z</time></trkpt><trkpt lat="43.3080744" lon="11.6497354"><ele>500.0</ele><time>2026-04-04T08:02:03.766Z</time></trkpt><trkpt lat="43.3080342" lon="11.6495868"><ele>500.0</ele><time>2026-04-04T08:02:04.766Z</time></trkpt><trkpt lat="43.3080006" lon="11.6494343"><ele>507.5</ele><time>2026-04-04T08:02:05.766Z</time></trkpt><trkpt lat="43.3079908" lon="11.6492715"><ele>515.0</ele><time>2026-04-04T08:02:06.766Z</time></trkpt><trkpt lat="43.3079958" lon="11.6490982"><ele>522.5</ele><time>2026-04-04T08:02:07.766Z</time></trkpt><trkpt lat="43.3079888" lon="11.6489177"><ele>530.0</ele><time>2026-04-04T08:02:08.766Z</time></trkpt><trkpt lat="43.3079816" lon="11.6487369"><ele>527.75</ele><time>2026-04-04T08:02:09.766Z</time></trkpt><trkpt lat="43.3079751" lon="11.6485808"><ele>525.5</ele><time>2026-04-04T08:02:10.766Z</time></trkpt><trkpt lat="43.3079626" lon="11.6484223"><ele>523.25</ele><time>2026-04-04T08:02:11.767Z</time></trkpt><trkpt lat="43.3079173" lon="11.6482651"><ele>521.0</ele><time>2026-04-04T08:02:12.766Z</time></trkpt><trkpt lat="43.3078614" lon="11.648103"><ele>521.0</ele><time>2026-04-04T08:02:13.766Z</time></trkpt><trkpt lat="43.3078185" lon="11.6479252"><ele>521.0</ele><time>2026-04-04T08:02:14.766Z</time></trkpt><trkpt lat="43.3077685" lon="11.6477677"><ele>521.0</ele><time>2026-04-04T08:02:15.766Z</time></trkpt><trkpt lat="43.3077341" lon="11.6476253"><ele>521.0</ele><time>2026-04-04T08:02:16.766Z</time></trkpt><trkpt lat="43.307706" lon="11.6474907"><ele>520.0</ele><time>2026-04-04T08:02:17.766Z</time></trkpt><trkpt lat="43.3076875" lon="11.6473722"><ele>519.0</ele><time>2026-04-04T08:02:18.766Z</time></trkpt><trkpt lat="43.3076627" lon="11.6472841"><ele>518.0</ele><time>2026-04-04T08:02:19.766Z</time></trkpt><trkpt lat="43.3076009" lon="11.6471943"><ele>517.0</ele><time>2026-04-04T08:02:20.766Z</time></trkpt><trkpt lat="43.3075488" lon="11.6470949"><ele>516.0</ele><time>2026-04-04T08:02:21.766Z</time></trkpt><trkpt lat="43.3075066" lon="11.6470058"><ele>515.0</ele><time>2026-04-04T08:02:22.766Z</time></trkpt><trkpt lat="43.3074874" lon="11.6468857"><ele>514.0</ele><time>2026-04-04T08:02:23.766Z</time></trkpt><trkpt lat="43.3074779" lon="11.6467514"><ele>513.0</ele><time>2026-04-04T08:02:24.766Z</time></trkpt><trkpt lat="43.3074851" lon="11.6466292"><ele>512.0</ele><time>2026-04-04T08:02:25.766Z</time></trkpt><trkpt lat="43.3074626" lon="11.6465155"><ele>511.0</ele><time>2026-04-04T08:02:26.766Z</time></trkpt><trkpt lat="43.3074301" lon="11.6463946"><ele>510.0</ele><time>2026-04-04T08:02:27.766Z</time></trkpt><trkpt lat="43.3073839" lon="11.6462798"><ele>510.0</ele><time>2026-04-04T08:02:28.766Z</time></trkpt><trkpt lat="43.3073428" lon="11.6461852"><ele>510.0</ele><time>2026-04-04T08:02:29.766Z</time></trkpt><trkpt lat="43.3073262" lon="11.6460969"><ele>510.0</ele><time>2026-04-04T08:02:30.766Z</time></trkpt><trkpt lat="43.3074213" lon="11.6459666"><ele>510.0</ele><time>2026-04-04T08:02:32.766Z</time></trkpt><trkpt lat="43.3074891" lon="11.6458941"><ele>510.0</ele><time>2026-04-04T08:02:33.766Z</time></trkpt><trkpt lat="43.3075757" lon="11.6457928"><ele>510.3333333333333</ele><time>2026-04-04T08:02:34.766Z</time></trkpt><trkpt lat="43.3076312" lon="11.6457183"><ele>510.66666666666663</ele><time>2026-04-04T08:02:35.766Z</time></trkpt><trkpt lat="43.3076743" lon="11.6456427"><ele>511.0</ele><time>2026-04-04T08:02:36.765Z</time></trkpt><trkpt lat="43.3077032" lon="11.6455455"><ele>511.3333333333333</ele><time>2026-04-04T08:02:37.766Z</time></trkpt><trkpt lat="43.307714" lon="11.6454083"><ele>511.66666666666663</ele><time>2026-04-04T08:02:38.766Z</time></trkpt><trkpt lat="43.307708" lon="11.6452681"><ele>512.0</ele><time>2026-04-04T08:02:39.766Z</time></trkpt><trkpt lat="43.3077095" lon="11.6451279"><ele>514.6</ele><time>2026-04-04T08:02:40.766Z</time></trkpt><trkpt lat="43.3077148" lon="11.6449912"><ele>517.2</ele><time>2026-04-04T08:02:41.766Z</time></trkpt><trkpt lat="43.3077046" lon="11.6448275"><ele>519.8</ele><time>2026-04-04T08:02:42.766Z</time></trkpt><trkpt lat="43.3076871" lon="11.6446777"><ele>522.4</ele><time>2026-04-04T08:02:43.766Z</time></trkpt><trkpt lat="43.3076832" lon="11.6445449"><ele>525.0</ele><time>2026-04-04T08:02:44.766Z</time></trkpt><trkpt lat="43.307661" lon="11.6444183"><ele>525.2</ele><time>2026-04-04T08:02:45.767Z</time></trkpt><trkpt lat="43.3076245" lon="11.6442728"><ele>525.4</ele><time>2026-04-04T08:02:46.766Z</time></trkpt><trkpt lat="43.3075705" lon="11.6441302"><ele>525.6</ele><time>2026-04-04T08:02:47.766Z</time></trkpt><trkpt lat="43.3075066" lon="11.6440045"><ele>525.8</ele><time>2026-04-04T08:02:48.766Z</time></trkpt><trkpt lat="43.3074416" lon="11.6439059"><ele>526.0</ele><time>2026-04-04T08:02:49.766Z</time></trkpt><trkpt lat="43.3073804" lon="11.6438271"><ele>526.0</ele><time>2026-04-04T08:02:50.766Z</time></trkpt><trkpt lat="43.3073223" lon="11.6437463"><ele>526.0</ele><time>2026-04-04T08:02:51.766Z</time></trkpt><trkpt lat="43.3072485" lon="11.6436569"><ele>526.0</ele><time>2026-04-04T08:02:52.766Z</time></trkpt><trkpt lat="43.3071676" lon="11.6435775"><ele>526.0</ele><time>2026-04-04T08:02:53.766Z</time></trkpt><trkpt lat="43.3070991" lon="11.6435051"><ele>526.0</ele><time>2026-04-04T08:02:54.766Z</time></trkpt><trkpt lat="43.3070266" lon="11.6434449"><ele>530.0</ele><time>2026-04-04T08:02:55.766Z</time></trkpt><trkpt lat="43.3069432" lon="11.643376"><ele>534.0</ele><time>2026-04-04T08:02:56.766Z</time></trkpt><trkpt lat="43.3068546" lon="11.6432979"><ele>538.0</ele><time>2026-04-04T08:02:57.766Z</time></trkpt><trkpt lat="43.3067456" lon="11.6432213"><ele>542.0</ele><time>2026-04-04T08:02:58.766Z</time></trkpt><trkpt lat="43.3066377" lon="11.6431168"><ele>542.0</ele><time>2026-04-04T08:02:59.766Z</time></trkpt><trkpt lat="43.3065464" lon="11.6430145"><ele>542.0</ele><time>2026-04-04T08:03:00.766Z</time></trkpt><trkpt lat="43.306464" lon="11.6429055"><ele>542.0</ele><time>2026-04-04T08:03:01.766Z</time></trkpt><trkpt lat="43.3063936" lon="11.6427968"><ele>542.0</ele><time>2026-04-04T08:03:02.767Z</time></trkpt><trkpt lat="43.3063322" lon="11.6426955"><ele>542.0</ele><time>2026-04-04T08:03:03.766Z</time></trkpt><trkpt lat="43.3063102" lon="11.6426026"><ele>542.0</ele><time>2026-04-04T08:03:04.767Z</time></trkpt><trkpt lat="43.3063558" lon="11.6425051"><ele>542.0</ele><time>2026-04-04T08:03:05.766Z</time></trkpt><trkpt lat="43.3064379" lon="11.6423878"><ele>542.0</ele><time>2026-04-04T08:03:06.766Z</time></trkpt><trkpt lat="43.3065087" lon="11.6422612"><ele>542.0</ele><time>2026-04-04T08:03:07.766Z</time></trkpt><trkpt lat="43.3065693" lon="11.642138"><ele>542.0</ele><time>2026-04-04T08:03:08.766Z</time></trkpt><trkpt lat="43.3066194" lon="11.6420281"><ele>541.8000000000001</ele><time>2026-04-04T08:03:09.766Z</time></trkpt><trkpt lat="43.3066621" lon="11.6419126"><ele>541.6</ele><time>2026-04-04T08:03:10.766Z</time></trkpt><trkpt lat="43.3067273" lon="11.641816"><ele>541.4000000000001</ele><time>2026-04-04T08:03:11.766Z</time></trkpt><trkpt lat="43.3067948" lon="11.6417038"><ele>541.2</ele><time>2026-04-04T08:03:12.766Z</time></trkpt><trkpt lat="43.3068605" lon="11.6415984"><ele>541.0</ele><time>2026-04-04T08:03:13.767Z</time></trkpt><trkpt lat="43.3069149" lon="11.641493"><ele>541.0</ele><time>2026-04-04T08:03:14.766Z</time></trkpt><trkpt lat="43.3069461" lon="11.6414011"><ele>541.0</ele><time>2026-04-04T08:03:15.766Z</time></trkpt><trkpt lat="43.3069775" lon="11.6412501"><ele>541.0</ele><time>2026-04-04T08:03:17.767Z</time></trkpt><trkpt lat="43.3070172" lon="11.6411089"><ele>541.0</ele><time>2026-04-04T08:03:19.766Z</time></trkpt><trkpt lat="43.3070383" lon="11.641019"><ele>541.0</ele><time>2026-04-04T08:03:20.766Z</time></trkpt><trkpt lat="43.3070652" lon="11.6409109"><ele>540.3333333333334</ele><time>2026-04-04T08:03:21.766Z</time></trkpt><trkpt lat="43.307086" lon="11.6408267"><ele>539.6666666666667</ele><time>2026-04-04T08:03:22.766Z</time></trkpt><trkpt lat="43.307106" lon="11.6407436"><ele>539.0</ele><time>2026-04-04T08:03:24.766Z</time></trkpt><trkpt lat="43.3071795" lon="11.6406157"><ele>538.3333333333334</ele><time>2026-04-04T08:03:29.767Z</time></trkpt><trkpt lat="43.3072238" lon="11.6405316"><ele>537.6666666666666</ele><time>2026-04-04T08:03:30.766Z</time></trkpt><trkpt lat="43.3072708" lon="11.6404303"><ele>537.0</ele><time>2026-04-04T08:03:31.766Z</time></trkpt><trkpt lat="43.3073141" lon="11.6403384"><ele>537.4</ele><time>2026-04-04T08:03:32.766Z</time></trkpt><trkpt lat="43.3073721" lon="11.640214"><ele>537.8000000000001</ele><time>2026-04-04T08:03:34.766Z</time></trkpt><trkpt lat="43.307441" lon="11.640088"><ele>538.2</ele><time>2026-04-04T08:03:36.766Z</time></trkpt><trkpt lat="43.3075036" lon="11.6399432"><ele>538.6</ele><time>2026-04-04T08:03:38.766Z</time></trkpt><trkpt lat="43.307548" lon="11.6398739"><ele>539.0</ele><time>2026-04-04T08:03:39.766Z</time></trkpt><trkpt lat="43.3076207" lon="11.639722"><ele>539.0</ele><time>2026-04-04T08:03:41.766Z</time></trkpt><trkpt lat="43.3076486" lon="11.6396204"><ele>539.0</ele><time>2026-04-04T08:03:42.766Z</time></trkpt><trkpt lat="43.3076839" lon="11.639477"><ele>539.0</ele><time>2026-04-04T08:03:43.767Z</time></trkpt><trkpt lat="43.3077336" lon="11.6393041"><ele>539.0</ele><time>2026-04-04T08:03:44.766Z</time></trkpt><trkpt lat="43.3077992" lon="11.6391719"><ele>539.0</ele><time>2026-04-04T08:03:45.766Z</time></trkpt><trkpt lat="43.3078854" lon="11.6390805"><ele>539.5</ele><time>2026-04-04T08:03:46.767Z</time></trkpt><trkpt lat="43.3079551" lon="11.6390455"><ele>540.0</ele><time>2026-04-04T08:03:47.766Z</time></trkpt><trkpt lat="43.3080835" lon="11.6390289"><ele>540.5</ele><time>2026-04-04T08:03:49.766Z</time></trkpt><trkpt lat="43.3081604" lon="11.6390263"><ele>541.0</ele><time>2026-04-04T08:03:50.766Z</time></trkpt><trkpt lat="43.308235" lon="11.6390032"><ele>541.5</ele><time>2026-04-04T08:03:51.766Z</time></trkpt><trkpt lat="43.308295" lon="11.6389695"><ele>542.0</ele><time>2026-04-04T08:03:52.767Z</time></trkpt><trkpt lat="43.3084111" lon="11.6388988"><ele>542.8333333333333</ele><time>2026-04-04T08:03:54.766Z</time></trkpt><trkpt lat="43.3084816" lon="11.6388661"><ele>543.6666666666666</ele><time>2026-04-04T08:03:55.766Z</time></trkpt><trkpt lat="43.3085458" lon="11.6388401"><ele>544.5</ele><time>2026-04-04T08:03:56.766Z</time></trkpt><trkpt lat="43.3086495" lon="11.6387566"><ele>545.3333333333334</ele><time>2026-04-04T08:03:58.766Z</time></trkpt><trkpt lat="43.3087055" lon="11.6386611"><ele>546.1666666666667</ele><time>2026-04-04T08:03:59.766Z</time></trkpt><trkpt lat="43.308763" lon="11.6385629"><ele>547.0</ele><time>2026-04-04T08:04:00.766Z</time></trkpt><trkpt lat="43.3088234" lon="11.638461"><ele>548.0</ele><time>2026-04-04T08:04:01.766Z</time></trkpt><trkpt lat="43.3088841" lon="11.638351"><ele>549.0</ele><time>2026-04-04T08:04:02.766Z</time></trkpt><trkpt lat="43.3089361" lon="11.6382486"><ele>550.0</ele><time>2026-04-04T08:04:03.766Z</time></trkpt><trkpt lat="43.3089771" lon="11.6381571"><ele>551.0</ele><time>2026-04-04T08:04:04.767Z</time></trkpt><trkpt lat="43.3090118" lon="11.6380803"><ele>552.0</ele><time>2026-04-04T08:04:05.766Z</time></trkpt><trkpt lat="43.3091056" lon="11.6379837"><ele>552.0</ele><time>2026-04-04T08:04:07.766Z</time></trkpt><trkpt lat="43.3091966" lon="11.6379711"><ele>552.0</ele><time>2026-04-04T08:04:08.766Z</time></trkpt><trkpt lat="43.3093054" lon="11.6379219"><ele>552.0</ele><time>2026-04-04T08:04:09.766Z</time></trkpt><trkpt lat="43.3093909" lon="11.6378566"><ele>552.0</ele><time>2026-04-04T08:04:10.766Z</time></trkpt><trkpt lat="43.3094652" lon="11.6377586"><ele>552.0</ele><time>2026-04-04T08:04:11.766Z</time></trkpt><trkpt lat="43.3095426" lon="11.637638"><ele>552.0</ele><time>2026-04-04T08:04:12.766Z</time></trkpt><trkpt lat="43.3096175" lon="11.637503"><ele>552.0</ele><time>2026-04-04T08:04:13.766Z</time></trkpt><trkpt lat="43.3096814" lon="11.6373593"><ele>552.0</ele><time>2026-04-04T08:04:14.766Z</time></trkpt><trkpt lat="43.3097404" lon="11.6372455"><ele>552.0</ele><time>2026-04-04T08:04:15.766Z</time></trkpt><trkpt lat="43.3097892" lon="11.6371634"><ele>552.0</ele><time>2026-04-04T08:04:16.767Z</time></trkpt><trkpt lat="43.3098302" lon="11.6370905"><ele>553.5</ele><time>2026-04-04T08:04:17.766Z</time></trkpt><trkpt lat="43.3098684" lon="11.6370141"><ele>555.0</ele><time>2026-04-04T08:04:18.766Z</time></trkpt><trkpt lat="43.3099237" lon="11.6368888"><ele>556.5</ele><time>2026-04-04T08:04:20.766Z</time></trkpt><trkpt lat="43.309973" lon="11.6368069"><ele>558.0</ele><time>2026-04-04T08:04:22.766Z</time></trkpt><trkpt lat="43.3100326" lon="11.6366756"><ele>559.5</ele><time>2026-04-04T08:04:24.766Z</time></trkpt><trkpt lat="43.3100612" lon="11.6365756"><ele>561.0</ele><time>2026-04-04T08:04:25.766Z</time></trkpt><trkpt lat="43.3101068" lon="11.6364935"><ele>561.8</ele><time>2026-04-04T08:04:26.766Z</time></trkpt><trkpt lat="43.3102106" lon="11.6364815"><ele>562.6</ele><time>2026-04-04T08:04:28.766Z</time></trkpt><trkpt lat="43.3102729" lon="11.6365214"><ele>563.4</ele><time>2026-04-04T08:04:29.766Z</time></trkpt><trkpt lat="43.3104018" lon="11.636523"><ele>564.2</ele><time>2026-04-04T08:04:31.766Z</time></trkpt><trkpt lat="43.310466" lon="11.6364781"><ele>565.0</ele><time>2026-04-04T08:04:32.766Z</time></trkpt><trkpt lat="43.3105279" lon="11.636411"><ele>566.4</ele><time>2026-04-04T08:04:33.766Z</time></trkpt><trkpt lat="43.3105886" lon="11.6363212"><ele>567.8</ele><time>2026-04-04T08:04:34.766Z</time></trkpt><trkpt lat="43.3106424" lon="11.6362106"><ele>569.2</ele><time>2026-04-04T08:04:35.766Z</time></trkpt><trkpt lat="43.3107039" lon="11.6361421"><ele>570.6</ele><time>2026-04-04T08:04:36.766Z</time></trkpt><trkpt lat="43.3107689" lon="11.6361022"><ele>572.0</ele><time>2026-04-04T08:04:37.766Z</time></trkpt><trkpt lat="43.3108866" lon="11.6360876"><ele>572.0</ele><time>2026-04-04T08:04:39.766Z</time></trkpt><trkpt lat="43.3110267" lon="11.6361178"><ele>572.0</ele><time>2026-04-04T08:04:41.766Z</time></trkpt><trkpt lat="43.3111153" lon="11.6361568"><ele>572.0</ele><time>2026-04-04T08:04:42.766Z</time></trkpt><trkpt lat="43.3111979" lon="11.6361978"><ele>572.0</ele><time>2026-04-04T08:04:43.766Z</time></trkpt><trkpt lat="43.3112666" lon="11.6362145"><ele>572.0</ele><time>2026-04-04T08:04:44.766Z</time></trkpt><trkpt lat="43.3114053" lon="11.6361746"><ele>574.4</ele><time>2026-04-04T08:04:46.766Z</time></trkpt><trkpt lat="43.311484" lon="11.6360974"><ele>576.8000000000001</ele><time>2026-04-04T08:04:47.766Z</time></trkpt><trkpt lat="43.3115769" lon="11.6360484"><ele>579.2</ele><time>2026-04-04T08:04:48.766Z</time></trkpt><trkpt lat="43.3116604" lon="11.6360154"><ele>581.6</ele><time>2026-04-04T08:04:49.766Z</time></trkpt><trkpt lat="43.3117377" lon="11.6359688"><ele>584.0</ele><time>2026-04-04T08:04:50.766Z</time></trkpt><trkpt lat="43.3118027" lon="11.6358885"><ele>584.0</ele><time>2026-04-04T08:04:51.766Z</time></trkpt><trkpt lat="43.311843" lon="11.6358071"><ele>584.0</ele><time>2026-04-04T08:04:52.766Z</time></trkpt><trkpt lat="43.3118763" lon="11.6357142"><ele>584.0</ele><time>2026-04-04T08:04:53.767Z</time></trkpt><trkpt lat="43.3118982" lon="11.6356212"><ele>584.0</ele><time>2026-04-04T08:04:54.766Z</time></trkpt><trkpt lat="43.3119256" lon="11.6355367"><ele>584.0</ele><time>2026-04-04T08:04:55.766Z</time></trkpt><trkpt lat="43.3119567" lon="11.6354481"><ele>584.0</ele><time>2026-04-04T08:04:56.766Z</time></trkpt><trkpt lat="43.3120017" lon="11.6353505"><ele>584.0</ele><time>2026-04-04T08:04:57.766Z</time></trkpt><trkpt lat="43.3120768" lon="11.6352545"><ele>583.4</ele><time>2026-04-04T08:04:58.767Z</time></trkpt><trkpt lat="43.3121453" lon="11.6351596"><ele>582.8</ele><time>2026-04-04T08:04:59.766Z</time></trkpt><trkpt lat="43.3122117" lon="11.6350941"><ele>582.2</ele><time>2026-04-04T08:05:00.766Z</time></trkpt><trkpt lat="43.3122956" lon="11.6350797"><ele>581.6</ele><time>2026-04-04T08:05:01.767Z</time></trkpt><trkpt lat="43.3123856" lon="11.6350796"><ele>581.0</ele><time>2026-04-04T08:05:02.766Z</time></trkpt><trkpt lat="43.3124986" lon="11.6350754"><ele>583.6</ele><time>2026-04-04T08:05:03.766Z</time></trkpt><trkpt lat="43.312602" lon="11.6350563"><ele>586.2</ele><time>2026-04-04T08:05:04.766Z</time></trkpt><trkpt lat="43.3127166" lon="11.6350255"><ele>588.8</ele><time>2026-04-04T08:05:05.766Z</time></trkpt><trkpt lat="43.3128416" lon="11.6349994"><ele>591.4</ele><time>2026-04-04T08:05:06.766Z</time></trkpt><trkpt lat="43.3129341" lon="11.6349783"><ele>594.0</ele><time>2026-04-04T08:05:07.766Z</time></trkpt><trkpt lat="43.313036" lon="11.6349749"><ele>596.0</ele><time>2026-04-04T08:05:09.766Z</time></trkpt><trkpt lat="43.3131099" lon="11.6349739"><ele>598.0</ele><time>2026-04-04T08:05:10.766Z</time></trkpt><trkpt lat="43.3132002" lon="11.634976"><ele>600.0</ele><time>2026-04-04T08:05:11.766Z</time></trkpt><trkpt lat="43.3132941" lon="11.6349866"><ele>602.0</ele><time>2026-04-04T08:05:12.766Z</time></trkpt><trkpt lat="43.3133901" lon="11.6350026"><ele>604.0</ele><time>2026-04-04T08:05:13.766Z</time></trkpt><trkpt lat="43.3134962" lon="11.6350101"><ele>604.0</ele><time>2026-04-04T08:05:14.766Z</time></trkpt><trkpt lat="43.3135998" lon="11.6349942"><ele>604.0</ele><time>2026-04-04T08:05:15.766Z</time></trkpt><trkpt lat="43.3136946" lon="11.6349726"><ele>604.0</ele><time>2026-04-04T08:05:16.766Z</time></trkpt><trkpt lat="43.3137785" lon="11.6349514"><ele>604.0</ele><time>2026-04-04T08:05:17.766Z</time></trkpt><trkpt lat="43.3138649" lon="11.6349405"><ele>604.0</ele><time>2026-04-04T08:05:18.766Z</time></trkpt><trkpt lat="43.3139623" lon="11.6349267"><ele>604.4</ele><time>2026-04-04T08:05:19.766Z</time></trkpt><trkpt lat="43.3140683" lon="11.6348792"><ele>604.8</ele><time>2026-04-04T08:05:20.766Z</time></trkpt><trkpt lat="43.3141608" lon="11.6348344"><ele>605.2</ele><time>2026-04-04T08:05:21.766Z</time></trkpt><trkpt lat="43.314238" lon="11.6347922"><ele>605.6</ele><time>2026-04-04T08:05:22.767Z</time></trkpt><trkpt lat="43.3143025" lon="11.6347443"><ele>606.0</ele><time>2026-04-04T08:05:23.766Z</time></trkpt><trkpt lat="43.3143883" lon="11.6347002"><ele>606.0</ele><time>2026-04-04T08:05:24.766Z</time></trkpt><trkpt lat="43.3144827" lon="11.6346747"><ele>606.0</ele><time>2026-04-04T08:05:25.766Z</time></trkpt><trkpt lat="43.3145698" lon="11.6346628"><ele>606.0</ele><time>2026-04-04T08:05:26.767Z</time></trkpt><trkpt lat="43.3146501" lon="11.6346598"><ele>606.0</ele><time>2026-04-04T08:05:27.766Z</time></trkpt><trkpt lat="43.3147292" lon="11.634672"><ele>606.0</ele><time>2026-04-04T08:05:28.767Z</time></trkpt><trkpt lat="43.3148102" lon="11.6346842"><ele>606.0</ele><time>2026-04-04T08:05:29.766Z</time></trkpt><trkpt lat="43.3149029" lon="11.6346996"><ele>605.2</ele><time>2026-04-04T08:05:30.766Z</time></trkpt><trkpt lat="43.3150148" lon="11.634736"><ele>604.4000000000001</ele><time>2026-04-04T08:05:31.766Z</time></trkpt><trkpt lat="43.3151168" lon="11.6347803"><ele>603.6</ele><time>2026-04-04T08:05:32.766Z</time></trkpt><trkpt lat="43.3152085" lon="11.6348264"><ele>602.8000000000001</ele><time>2026-04-04T08:05:33.766Z</time></trkpt><trkpt lat="43.3152917" lon="11.6348779"><ele>602.0</ele><time>2026-04-04T08:05:34.766Z</time></trkpt><trkpt lat="43.3153745" lon="11.6349322"><ele>602.0</ele><time>2026-04-04T08:05:35.766Z</time></trkpt><trkpt lat="43.3154525" lon="11.6349873"><ele>602.0</ele><time>2026-04-04T08:05:36.766Z</time></trkpt><trkpt lat="43.3155144" lon="11.6350234"><ele>602.0</ele><time>2026-04-04T08:05:37.766Z</time></trkpt><trkpt lat="43.3156288" lon="11.6350978"><ele>602.0</ele><time>2026-04-04T08:05:39.766Z</time></trkpt><trkpt lat="43.3156852" lon="11.63514"><ele>602.0</ele><time>2026-04-04T08:05:40.766Z</time></trkpt><trkpt lat="43.3157491" lon="11.6351946"><ele>602.0</ele><time>2026-04-04T08:05:41.766Z</time></trkpt><trkpt lat="43.3158157" lon="11.6352457"><ele>602.1666666666666</ele><time>2026-04-04T08:05:42.766Z</time></trkpt><trkpt lat="43.3158909" lon="11.6352857"><ele>602.3333333333333</ele><time>2026-04-04T08:05:43.766Z</time></trkpt><trkpt lat="43.3159582" lon="11.6353204"><ele>602.5</ele><time>2026-04-04T08:05:44.766Z</time></trkpt><trkpt lat="43.3160357" lon="11.6353527"><ele>602.6666666666666</ele><time>2026-04-04T08:05:45.767Z</time></trkpt><trkpt lat="43.3161169" lon="11.6353885"><ele>602.8333333333334</ele><time>2026-04-04T08:05:46.766Z</time></trkpt><trkpt lat="43.3161831" lon="11.6354194"><ele>603.0</ele><time>2026-04-04T08:05:47.766Z</time></trkpt><trkpt lat="43.3162967" lon="11.6354441"><ele>603.0</ele><time>2026-04-04T08:05:49.766Z</time></trkpt><trkpt lat="43.3163763" lon="11.635429"><ele>603.0</ele><time>2026-04-04T08:05:50.766Z</time></trkpt><trkpt lat="43.316462" lon="11.6354016"><ele>603.0</ele><time>2026-04-04T08:05:51.767Z</time></trkpt><trkpt lat="43.3165326" lon="11.6353723"><ele>603.0</ele><time>2026-04-04T08:05:52.766Z</time></trkpt><trkpt lat="43.3166079" lon="11.6353569"><ele>603.0</ele><time>2026-04-04T08:05:53.766Z</time></trkpt><trkpt lat="43.3166869" lon="11.6353485"><ele>603.0</ele><time>2026-04-04T08:05:54.767Z</time></trkpt><trkpt lat="43.3167975" lon="11.6353028"><ele>598.4</ele><time>2026-04-04T08:05:55.767Z</time></trkpt><trkpt lat="43.3169055" lon="11.6352489"><ele>593.8</ele><time>2026-04-04T08:05:56.766Z</time></trkpt><trkpt lat="43.3169952" lon="11.635224"><ele>589.2</ele><time>2026-04-04T08:05:57.766Z</time></trkpt><trkpt lat="43.3170768" lon="11.6351957"><ele>584.6</ele><time>2026-04-04T08:05:58.766Z</time></trkpt><trkpt lat="43.3171757" lon="11.6351948"><ele>580.0</ele><time>2026-04-04T08:05:59.766Z</time></trkpt><trkpt lat="43.3172984" lon="11.6351971"><ele>580.0</ele><time>2026-04-04T08:06:00.766Z</time></trkpt><trkpt lat="43.3174239" lon="11.6351787"><ele>580.0</ele><time>2026-04-04T08:06:01.766Z</time></trkpt><trkpt lat="43.3175483" lon="11.6351568"><ele>580.0</ele><time>2026-04-04T08:06:02.767Z</time></trkpt><trkpt lat="43.3176608" lon="11.6351391"><ele>580.0</ele><time>2026-04-04T08:06:03.766Z</time></trkpt><trkpt lat="43.3177346" lon="11.6351132"><ele>580.0</ele><time>2026-04-04T08:06:04.766Z</time></trkpt><trkpt lat="43.3177796" lon="11.6350524"><ele>580.0</ele><time>2026-04-04T08:06:05.766Z</time></trkpt><trkpt lat="43.3178267" lon="11.6349778"><ele>580.0</ele><time>2026-04-04T08:06:06.766Z</time></trkpt><trkpt lat="43.3178941" lon="11.6348953"><ele>580.0</ele><time>2026-04-04T08:06:07.767Z</time></trkpt><trkpt lat="43.3179668" lon="11.6348139"><ele>580.0</ele><time>2026-04-04T08:06:08.766Z</time></trkpt><trkpt lat="43.3180485" lon="11.6347304"><ele>580.0</ele><time>2026-04-04T08:06:09.766Z</time></trkpt><trkpt lat="43.3181274" lon="11.6346513"><ele>579.8</ele><time>2026-04-04T08:06:10.766Z</time></trkpt><trkpt lat="43.3182119" lon="11.6345744"><ele>579.6</ele><time>2026-04-04T08:06:11.766Z</time></trkpt><trkpt lat="43.3183067" lon="11.6345316"><ele>579.4</ele><time>2026-04-04T08:06:12.767Z</time></trkpt><trkpt lat="43.3184116" lon="11.6345024"><ele>579.2</ele><time>2026-04-04T08:06:13.766Z</time></trkpt><trkpt lat="43.3185084" lon="11.634461"><ele>579.0</ele><time>2026-04-04T08:06:14.766Z</time></trkpt><trkpt lat="43.318596" lon="11.6344047"><ele>579.0</ele><time>2026-04-04T08:06:15.766Z</time></trkpt><trkpt lat="43.3186698" lon="11.6343368"><ele>579.0</ele><time>2026-04-04T08:06:16.766Z</time></trkpt><trkpt lat="43.3187551" lon="11.6342493"><ele>579.0</ele><time>2026-04-04T08:06:18.766Z</time></trkpt><trkpt lat="43.3188266" lon="11.634192"><ele>579.0</ele><time>2026-04-04T08:06:20.766Z</time></trkpt><trkpt lat="43.3189018" lon="11.6341684"><ele>579.0</ele><time>2026-04-04T08:06:21.766Z</time></trkpt><trkpt lat="43.3189923" lon="11.6341189"><ele>578.8</ele><time>2026-04-04T08:06:22.766Z</time></trkpt><trkpt lat="43.3190771" lon="11.6340565"><ele>578.5999999999999</ele><time>2026-04-04T08:06:23.766Z</time></trkpt><trkpt lat="43.3191486" lon="11.6339939"><ele>578.4</ele><time>2026-04-04T08:06:24.766Z</time></trkpt><trkpt lat="43.3192245" lon="11.6339308"><ele>578.1999999999999</ele><time>2026-04-04T08:06:25.766Z</time></trkpt><trkpt lat="43.3193253" lon="11.633861"><ele>578.0</ele><time>2026-04-04T08:06:26.766Z</time></trkpt><trkpt lat="43.3194478" lon="11.633798"><ele>578.0</ele><time>2026-04-04T08:06:27.766Z</time></trkpt><trkpt lat="43.3195622" lon="11.6337684"><ele>578.0</ele><time>2026-04-04T08:06:28.766Z</time></trkpt><trkpt lat="43.3196567" lon="11.6337512"><ele>578.0</ele><time>2026-04-04T08:06:29.766Z</time></trkpt><trkpt lat="43.3197397" lon="11.6337257"><ele>578.0</ele><time>2026-04-04T08:06:30.766Z</time></trkpt><trkpt lat="43.3198323" lon="11.6336887"><ele>578.0</ele><time>2026-04-04T08:06:31.766Z</time></trkpt><trkpt lat="43.3199383" lon="11.6336506"><ele>576.1999999999999</ele><time>2026-04-04T08:06:32.766Z</time></trkpt><trkpt lat="43.3200422" lon="11.633624"><ele>574.4</ele><time>2026-04-04T08:06:33.766Z</time></trkpt><trkpt lat="43.320137" lon="11.6336165"><ele>572.5999999999999</ele><time>2026-04-04T08:06:34.767Z</time></trkpt><trkpt lat="43.3202265" lon="11.6336046"><ele>570.8</ele><time>2026-04-04T08:06:35.767Z</time></trkpt><trkpt lat="43.3203165" lon="11.6335918"><ele>569.0</ele><time>2026-04-04T08:06:36.766Z</time></trkpt><trkpt lat="43.3204186" lon="11.6335804"><ele>569.0</ele><time>2026-04-04T08:06:37.766Z</time></trkpt><trkpt lat="43.3205209" lon="11.6335786"><ele>569.0</ele><time>2026-04-04T08:06:38.766Z</time></trkpt><trkpt lat="43.3206163" lon="11.633581"><ele>569.0</ele><time>2026-04-04T08:06:39.767Z</time></trkpt><trkpt lat="43.320702" lon="11.6335824"><ele>569.0</ele><time>2026-04-04T08:06:40.766Z</time></trkpt><trkpt lat="43.3207826" lon="11.6335767"><ele>569.0</ele><time>2026-04-04T08:06:41.766Z</time></trkpt><trkpt lat="43.3208503" lon="11.6335482"><ele>569.0</ele><time>2026-04-04T08:06:42.766Z</time></trkpt><trkpt lat="43.320947" lon="11.6334736"><ele>567.2</ele><time>2026-04-04T08:06:44.766Z</time></trkpt><trkpt lat="43.3210247" lon="11.6334056"><ele>565.4</ele><time>2026-04-04T08:06:46.766Z</time></trkpt><trkpt lat="43.321131" lon="11.6333256"><ele>563.6</ele><time>2026-04-04T08:06:48.766Z</time></trkpt><trkpt lat="43.3212346" lon="11.633256"><ele>561.8</ele><time>2026-04-04T08:06:50.766Z</time></trkpt><trkpt lat="43.3213278" lon="11.6332149"><ele>560.0</ele><time>2026-04-04T08:06:52.767Z</time></trkpt><trkpt lat="43.3214239" lon="11.6330967"><ele>557.5</ele><time>2026-04-04T08:06:54.766Z</time></trkpt><trkpt lat="43.3214855" lon="11.6330179"><ele>555.0</ele><time>2026-04-04T08:06:55.766Z</time></trkpt><trkpt lat="43.3215448" lon="11.63297"><ele>552.5</ele><time>2026-04-04T08:06:56.766Z</time></trkpt><trkpt lat="43.3216496" lon="11.6329064"><ele>550.0</ele><time>2026-04-04T08:06:58.767Z</time></trkpt><trkpt lat="43.3217163" lon="11.632864"><ele>547.5</ele><time>2026-04-04T08:06:59.766Z</time></trkpt><trkpt lat="43.3217983" lon="11.6328327"><ele>545.0</ele><time>2026-04-04T08:07:00.766Z</time></trkpt><trkpt lat="43.3218696" lon="11.6327949"><ele>544.6666666666666</ele><time>2026-04-04T08:07:01.766Z</time></trkpt><trkpt lat="43.3219382" lon="11.6327124"><ele>544.3333333333333</ele><time>2026-04-04T08:07:02.766Z</time></trkpt><trkpt lat="43.3220007" lon="11.6326067"><ele>544.0</ele><time>2026-04-04T08:07:03.766Z</time></trkpt><trkpt lat="43.3220441" lon="11.632503"><ele>543.6666666666666</ele><time>2026-04-04T08:07:04.766Z</time></trkpt><trkpt lat="43.3220947" lon="11.6324262"><ele>543.3333333333334</ele><time>2026-04-04T08:07:05.766Z</time></trkpt><trkpt lat="43.3221553" lon="11.632337"><ele>543.0</ele><time>2026-04-04T08:07:07.766Z</time></trkpt><trkpt lat="43.3221558" lon="11.6322427"><ele>543.0</ele><time>2026-04-04T08:07:10.766Z</time></trkpt><trkpt lat="43.3221374" lon="11.6321481"><ele>543.0</ele><time>2026-04-04T08:07:12.767Z</time></trkpt><trkpt lat="43.3221805" lon="11.6320838"><ele>543.0</ele><time>2026-04-04T08:07:15.766Z</time></trkpt><trkpt lat="43.3222581" lon="11.6320798"><ele>543.0</ele><time>2026-04-04T08:07:29.766Z</time></trkpt><trkpt lat="43.3223705" lon="11.6320402"><ele>543.0</ele><time>2026-04-04T08:07:31.766Z</time></trkpt><trkpt lat="43.3224487" lon="11.6320114"><ele>543.0</ele><time>2026-04-04T08:07:32.766Z</time></trkpt><trkpt lat="43.3225314" lon="11.631973"><ele>540.1999999999999</ele><time>2026-04-04T08:07:33.766Z</time></trkpt><trkpt lat="43.3226198" lon="11.6319307"><ele>537.4</ele><time>2026-04-04T08:07:34.766Z</time></trkpt><trkpt lat="43.3227185" lon="11.6319025"><ele>534.5999999999999</ele><time>2026-04-04T08:07:35.766Z</time></trkpt><trkpt lat="43.3228217" lon="11.631893"><ele>531.8</ele><time>2026-04-04T08:07:36.766Z</time></trkpt><trkpt lat="43.3229373" lon="11.6318769"><ele>529.0</ele><time>2026-04-04T08:07:37.766Z</time></trkpt><trkpt lat="43.3230499" lon="11.6318504"><ele>528.6</ele><time>2026-04-04T08:07:38.766Z</time></trkpt><trkpt lat="43.3231639" lon="11.6318148"><ele>528.2</ele><time>2026-04-04T08:07:39.766Z</time></trkpt><trkpt lat="43.3232783" lon="11.6317773"><ele>527.8000000000001</ele><time>2026-04-04T08:07:40.766Z</time></trkpt><trkpt lat="43.3233846" lon="11.6317465"><ele>527.4</ele><time>2026-04-04T08:07:41.766Z</time></trkpt><trkpt lat="43.3234855" lon="11.6317186"><ele>527.0</ele><time>2026-04-04T08:07:42.766Z</time></trkpt><trkpt lat="43.3235859" lon="11.631698"><ele>527.0</ele><time>2026-04-04T08:07:43.766Z</time></trkpt><trkpt lat="43.3236883" lon="11.6316874"><ele>527.0</ele><time>2026-04-04T08:07:44.766Z</time></trkpt><trkpt lat="43.3237778" lon="11.6316776"><ele>527.0</ele><time>2026-04-04T08:07:45.766Z</time></trkpt><trkpt lat="43.3238764" lon="11.6316714"><ele>527.0</ele><time>2026-04-04T08:07:46.766Z</time></trkpt><trkpt lat="43.3239799" lon="11.6316718"><ele>527.0</ele><time>2026-04-04T08:07:47.766Z</time></trkpt><trkpt lat="43.3240938" lon="11.6316747"><ele>526.4</ele><time>2026-04-04T08:07:48.766Z</time></trkpt><trkpt lat="43.3241999" lon="11.6316822"><ele>525.8000000000001</ele><time>2026-04-04T08:07:49.766Z</time></trkpt><trkpt lat="43.3242994" lon="11.6317027"><ele>525.2</ele><time>2026-04-04T08:07:50.766Z</time></trkpt><trkpt lat="43.3244046" lon="11.6317346"><ele>524.6</ele><time>2026-04-04T08:07:51.766Z</time></trkpt><trkpt lat="43.3245109" lon="11.6317638"><ele>524.0</ele><time>2026-04-04T08:07:52.766Z</time></trkpt><trkpt lat="43.3246259" lon="11.631769"><ele>522.6</ele><time>2026-04-04T08:07:53.766Z</time></trkpt><trkpt lat="43.3247336" lon="11.6317665"><ele>521.2</ele><time>2026-04-04T08:07:54.766Z</time></trkpt><trkpt lat="43.3248332" lon="11.6317585"><ele>519.8000000000001</ele><time>2026-04-04T08:07:55.766Z</time></trkpt><trkpt lat="43.3249268" lon="11.6317514"><ele>518.4</ele><time>2026-04-04T08:07:56.766Z</time></trkpt><trkpt lat="43.3250248" lon="11.6317572"><ele>517.0</ele><time>2026-04-04T08:07:57.766Z</time></trkpt><trkpt lat="43.3251456" lon="11.6317761"><ele>517.0</ele><time>2026-04-04T08:07:58.766Z</time></trkpt><trkpt lat="43.3252739" lon="11.6318082"><ele>517.0</ele><time>2026-04-04T08:07:59.766Z</time></trkpt><trkpt lat="43.3253907" lon="11.6318447"><ele>517.0</ele><time>2026-04-04T08:08:00.766Z</time></trkpt><trkpt lat="43.3255074" lon="11.63185"><ele>517.0</ele><time>2026-04-04T08:08:01.766Z</time></trkpt><trkpt lat="43.3256346" lon="11.6318399"><ele>515.25</ele><time>2026-04-04T08:08:02.766Z</time></trkpt><trkpt lat="43.3257544" lon="11.6318277"><ele>513.5</ele><time>2026-04-04T08:08:03.766Z</time></trkpt><trkpt lat="43.3258585" lon="11.6318187"><ele>511.75</ele><time>2026-04-04T08:08:04.766Z</time></trkpt><trkpt lat="43.3259754" lon="11.6318072"><ele>510.0</ele><time>2026-04-04T08:08:05.766Z</time></trkpt><trkpt lat="43.3260994" lon="11.6318051"><ele>510.0</ele><time>2026-04-04T08:08:06.766Z</time></trkpt><trkpt lat="43.3262091" lon="11.6318395"><ele>510.0</ele><time>2026-04-04T08:08:07.766Z</time></trkpt><trkpt lat="43.3263188" lon="11.6318888"><ele>510.0</ele><time>2026-04-04T08:08:08.767Z</time></trkpt><trkpt lat="43.3264265" lon="11.6319383"><ele>510.0</ele><time>2026-04-04T08:08:09.767Z</time></trkpt><trkpt lat="43.3265319" lon="11.6319679"><ele>510.0</ele><time>2026-04-04T08:08:10.767Z</time></trkpt><trkpt lat="43.3266355" lon="11.6319791"><ele>510.1666666666667</ele><time>2026-04-04T08:08:11.768Z</time></trkpt><trkpt lat="43.3267477" lon="11.6319829"><ele>510.33333333333337</ele><time>2026-04-04T08:08:12.767Z</time></trkpt><trkpt lat="43.3268332" lon="11.6319844"><ele>510.5</ele><time>2026-04-04T08:08:13.767Z</time></trkpt><trkpt lat="43.3268972" lon="11.631978"><ele>510.6666666666667</ele><time>2026-04-04T08:08:14.767Z</time></trkpt><trkpt lat="43.3269593" lon="11.6319451"><ele>510.83333333333337</ele><time>2026-04-04T08:08:15.767Z</time></trkpt><trkpt lat="43.3270435" lon="11.6318866"><ele>511.0</ele><time>2026-04-04T08:08:16.767Z</time></trkpt><trkpt lat="43.3271514" lon="11.6318034"><ele>509.83333333333337</ele><time>2026-04-04T08:08:17.767Z</time></trkpt><trkpt lat="43.3272542" lon="11.6317228"><ele>508.6666666666667</ele><time>2026-04-04T08:08:18.767Z</time></trkpt><trkpt lat="43.3273379" lon="11.6316603"><ele>507.5</ele><time>2026-04-04T08:08:19.767Z</time></trkpt><trkpt lat="43.327417" lon="11.6316157"><ele>506.33333333333337</ele><time>2026-04-04T08:08:20.767Z</time></trkpt><trkpt lat="43.3274824" lon="11.6315752"><ele>505.1666666666667</ele><time>2026-04-04T08:08:21.768Z</time></trkpt><trkpt lat="43.3275405" lon="11.6315142"><ele>504.0</ele><time>2026-04-04T08:08:22.767Z</time></trkpt><trkpt lat="43.3275902" lon="11.6314397"><ele>504.0</ele><time>2026-04-04T08:08:23.767Z</time></trkpt><trkpt lat="43.3276374" lon="11.6313592"><ele>504.0</ele><time>2026-04-04T08:08:24.767Z</time></trkpt><trkpt lat="43.3276806" lon="11.6312729"><ele>504.0</ele><time>2026-04-04T08:08:25.767Z</time></trkpt><trkpt lat="43.3277171" lon="11.6311854"><ele>504.0</ele><time>2026-04-04T08:08:26.768Z</time></trkpt><trkpt lat="43.3277482" lon="11.6310827"><ele>504.0</ele><time>2026-04-04T08:08:27.767Z</time></trkpt><trkpt lat="43.3277831" lon="11.6309676"><ele>504.0</ele><time>2026-04-04T08:08:28.767Z</time></trkpt><trkpt lat="43.3278254" lon="11.6308456"><ele>503.2</ele><time>2026-04-04T08:08:29.767Z</time></trkpt><trkpt lat="43.327861" lon="11.6307222"><ele>502.4</ele><time>2026-04-04T08:08:30.767Z</time></trkpt><trkpt lat="43.3278979" lon="11.6306062"><ele>501.6</ele><time>2026-04-04T08:08:31.767Z</time></trkpt><trkpt lat="43.3279474" lon="11.6304925"><ele>500.8</ele><time>2026-04-04T08:08:32.767Z</time></trkpt><trkpt lat="43.3280028" lon="11.6303905"><ele>500.0</ele><time>2026-04-04T08:08:33.768Z</time></trkpt><trkpt lat="43.3280767" lon="11.6302771"><ele>499.3333333333333</ele><time>2026-04-04T08:08:34.767Z</time></trkpt><trkpt lat="43.3281396" lon="11.6301804"><ele>498.66666666666663</ele><time>2026-04-04T08:08:35.767Z</time></trkpt><trkpt lat="43.3281898" lon="11.6301082"><ele>498.0</ele><time>2026-04-04T08:08:36.767Z</time></trkpt><trkpt lat="43.3282469" lon="11.6300461"><ele>497.33333333333337</ele><time>2026-04-04T08:08:38.767Z</time></trkpt><trkpt lat="43.3283128" lon="11.6300927"><ele>496.6666666666667</ele><time>2026-04-04T08:08:40.767Z</time></trkpt><trkpt lat="43.3283876" lon="11.6302291"><ele>496.0</ele><time>2026-04-04T08:08:42.767Z</time></trkpt><trkpt lat="43.3284688" lon="11.6303434"><ele>495.6666666666667</ele><time>2026-04-04T08:08:44.767Z</time></trkpt><trkpt lat="43.3285181" lon="11.6304059"><ele>495.33333333333337</ele><time>2026-04-04T08:08:45.767Z</time></trkpt><trkpt lat="43.3286156" lon="11.6305194"><ele>495.0</ele><time>2026-04-04T08:08:47.767Z</time></trkpt><trkpt lat="43.3286686" lon="11.6306"><ele>494.66666666666663</ele><time>2026-04-04T08:08:48.767Z</time></trkpt><trkpt lat="43.3287239" lon="11.6306923"><ele>494.3333333333333</ele><time>2026-04-04T08:08:49.767Z</time></trkpt><trkpt lat="43.3287817" lon="11.630773"><ele>494.0</ele><time>2026-04-04T08:08:50.767Z</time></trkpt><trkpt lat="43.3288307" lon="11.6308389"><ele>493.8333333333333</ele><time>2026-04-04T08:08:51.767Z</time></trkpt><trkpt lat="43.3289361" lon="11.6309102"><ele>493.66666666666663</ele><time>2026-04-04T08:08:53.767Z</time></trkpt><trkpt lat="43.3290052" lon="11.6309482"><ele>493.5</ele><time>2026-04-04T08:08:54.767Z</time></trkpt><trkpt lat="43.3290883" lon="11.6309866"><ele>493.33333333333337</ele><time>2026-04-04T08:08:55.767Z</time></trkpt><trkpt lat="43.3291641" lon="11.6310208"><ele>493.1666666666667</ele><time>2026-04-04T08:08:56.767Z</time></trkpt><trkpt lat="43.3292359" lon="11.6310831"><ele>493.0</ele><time>2026-04-04T08:08:57.767Z</time></trkpt><trkpt lat="43.329302" lon="11.6311522"><ele>491.6666666666667</ele><time>2026-04-04T08:08:58.767Z</time></trkpt><trkpt lat="43.3293549" lon="11.6312181"><ele>490.33333333333337</ele><time>2026-04-04T08:08:59.767Z</time></trkpt><trkpt lat="43.3293803" lon="11.6312995"><ele>489.0</ele><time>2026-04-04T08:09:00.767Z</time></trkpt><trkpt lat="43.329371" lon="11.6314499"><ele>487.66666666666663</ele><time>2026-04-04T08:09:02.768Z</time></trkpt><trkpt lat="43.329402" lon="11.6316017"><ele>486.3333333333333</ele><time>2026-04-04T08:09:04.767Z</time></trkpt><trkpt lat="43.329423" lon="11.631708"><ele>485.0</ele><time>2026-04-04T08:09:05.768Z</time></trkpt><trkpt lat="43.3294405" lon="11.6318041"><ele>484.99999999999994</ele><time>2026-04-04T08:09:06.767Z</time></trkpt><trkpt lat="43.3294637" lon="11.6318895"><ele>485.0</ele><time>2026-04-04T08:09:07.767Z</time></trkpt><trkpt lat="43.3295354" lon="11.6320323"><ele>485.0</ele><time>2026-04-04T08:09:09.768Z</time></trkpt><trkpt lat="43.3295773" lon="11.6321103"><ele>485.0</ele><time>2026-04-04T08:09:10.767Z</time></trkpt><trkpt lat="43.3296206" lon="11.6321905"><ele>484.99999999999994</ele><time>2026-04-04T08:09:11.767Z</time></trkpt><trkpt lat="43.3296874" lon="11.6323152"><ele>485.0</ele><time>2026-04-04T08:09:13.767Z</time></trkpt><trkpt lat="43.3297642" lon="11.6324279"><ele>483.49999999999994</ele><time>2026-04-04T08:09:15.767Z</time></trkpt><trkpt lat="43.3298632" lon="11.6325188"><ele>482.0</ele><time>2026-04-04T08:09:17.767Z</time></trkpt><trkpt lat="43.3299338" lon="11.6325365"><ele>480.5</ele><time>2026-04-04T08:09:18.767Z</time></trkpt><trkpt lat="43.3300122" lon="11.6325532"><ele>479.0</ele><time>2026-04-04T08:09:19.767Z</time></trkpt><trkpt lat="43.3300718" lon="11.6325951"><ele>477.49999999999994</ele><time>2026-04-04T08:09:20.767Z</time></trkpt><trkpt lat="43.3301312" lon="11.6326252"><ele>476.0</ele><time>2026-04-04T08:09:21.767Z</time></trkpt><trkpt lat="43.3302077" lon="11.6326384"><ele>476.0</ele><time>2026-04-04T08:09:22.767Z</time></trkpt><trkpt lat="43.3303091" lon="11.6326446"><ele>476.0</ele><time>2026-04-04T08:09:23.767Z</time></trkpt><trkpt lat="43.3304074" lon="11.6326366"><ele>476.0</ele><time>2026-04-04T08:09:24.767Z</time></trkpt><trkpt lat="43.3305075" lon="11.6326278"><ele>476.0</ele><time>2026-04-04T08:09:25.767Z</time></trkpt><trkpt lat="43.3305928" lon="11.6326237"><ele>476.0</ele><time>2026-04-04T08:09:26.767Z</time></trkpt><trkpt lat="43.3306649" lon="11.6326162"><ele>475.4</ele><time>2026-04-04T08:09:27.767Z</time></trkpt><trkpt lat="43.3307296" lon="11.6326075"><ele>474.8</ele><time>2026-04-04T08:09:28.767Z</time></trkpt><trkpt lat="43.3308473" lon="11.6325082"><ele>474.19999999999993</ele><time>2026-04-04T08:09:30.767Z</time></trkpt><trkpt lat="43.3309343" lon="11.632453"><ele>473.59999999999997</ele><time>2026-04-04T08:09:31.767Z</time></trkpt><trkpt lat="43.3310435" lon="11.6324259"><ele>473.0</ele><time>2026-04-04T08:09:32.767Z</time></trkpt><trkpt lat="43.3311723" lon="11.6324136"><ele>473.0</ele><time>2026-04-04T08:09:33.767Z</time></trkpt><trkpt lat="43.3312938" lon="11.6324367"><ele>473.0</ele><time>2026-04-04T08:09:34.767Z</time></trkpt><trkpt lat="43.3314097" lon="11.6324966"><ele>473.0</ele><time>2026-04-04T08:09:35.767Z</time></trkpt><trkpt lat="43.331506" lon="11.6325701"><ele>473.0</ele><time>2026-04-04T08:09:36.768Z</time></trkpt><trkpt lat="43.3315865" lon="11.6326469"><ele>472.49999999999994</ele><time>2026-04-04T08:09:37.767Z</time></trkpt><trkpt lat="43.3316411" lon="11.6327204"><ele>472.0</ele><time>2026-04-04T08:09:38.768Z</time></trkpt><trkpt lat="43.3316939" lon="11.6327783"><ele>471.5</ele><time>2026-04-04T08:09:39.767Z</time></trkpt><trkpt lat="43.3317608" lon="11.6328286"><ele>471.0</ele><time>2026-04-04T08:09:40.767Z</time></trkpt><trkpt lat="43.3318377" lon="11.6328873"><ele>470.49999999999994</ele><time>2026-04-04T08:09:41.767Z</time></trkpt><trkpt lat="43.3319064" lon="11.6329319"><ele>470.0</ele><time>2026-04-04T08:09:42.767Z</time></trkpt><trkpt lat="43.3319882" lon="11.6329653"><ele>468.6</ele><time>2026-04-04T08:09:44.767Z</time></trkpt><trkpt lat="43.3321061" lon="11.6330257"><ele>467.2</ele><time>2026-04-04T08:10:06.767Z</time></trkpt><trkpt lat="43.3321702" lon="11.6330753"><ele>465.79999999999995</ele><time>2026-04-04T08:10:09.767Z</time></trkpt><trkpt lat="43.3322863" lon="11.6330799"><ele>464.4</ele><time>2026-04-04T08:10:11.767Z</time></trkpt><trkpt lat="43.3323581" lon="11.633091"><ele>463.0</ele><time>2026-04-04T08:10:12.768Z</time></trkpt><trkpt lat="43.3324343" lon="11.6331187"><ele>463.00000000000006</ele><time>2026-04-04T08:10:13.768Z</time></trkpt><trkpt lat="43.3324994" lon="11.63315"><ele>463.0</ele><time>2026-04-04T08:10:14.767Z</time></trkpt><trkpt lat="43.3326131" lon="11.6331881"><ele>463.0</ele><time>2026-04-04T08:10:16.767Z</time></trkpt><trkpt lat="43.3326785" lon="11.6332026"><ele>463.0</ele><time>2026-04-04T08:10:17.768Z</time></trkpt><trkpt lat="43.332756" lon="11.6332229"><ele>463.00000000000006</ele><time>2026-04-04T08:10:18.768Z</time></trkpt><trkpt lat="43.3328397" lon="11.6332588"><ele>463.0</ele><time>2026-04-04T08:10:19.767Z</time></trkpt><trkpt lat="43.3329295" lon="11.6333028"><ele>463.0</ele><time>2026-04-04T08:10:20.767Z</time></trkpt><trkpt lat="43.3330403" lon="11.6333509"><ele>462.99999999999994</ele><time>2026-04-04T08:10:21.767Z</time></trkpt><trkpt lat="43.3331604" lon="11.6333978"><ele>462.99999999999994</ele><time>2026-04-04T08:10:22.767Z</time></trkpt><trkpt lat="43.3332625" lon="11.6334418"><ele>463.0</ele><time>2026-04-04T08:10:23.767Z</time></trkpt><trkpt lat="43.3333313" lon="11.6334731"><ele>463.0</ele><time>2026-04-04T08:10:24.767Z</time></trkpt><trkpt lat="43.3333917" lon="11.6335077"><ele>463.4</ele><time>2026-04-04T08:10:25.768Z</time></trkpt><trkpt lat="43.3334808" lon="11.6335437"><ele>463.79999999999995</ele><time>2026-04-04T08:10:26.767Z</time></trkpt><trkpt lat="43.3335667" lon="11.6335719"><ele>464.2</ele><time>2026-04-04T08:10:27.767Z</time></trkpt><trkpt lat="43.333673" lon="11.6336054"><ele>464.6</ele><time>2026-04-04T08:10:28.767Z</time></trkpt><trkpt lat="43.3337986" lon="11.6336602"><ele>465.0</ele><time>2026-04-04T08:10:29.767Z</time></trkpt><trkpt lat="43.3339232" lon="11.6337105"><ele>465.0</ele><time>2026-04-04T08:10:30.767Z</time></trkpt><trkpt lat="43.3340314" lon="11.6337766"><ele>465.0</ele><time>2026-04-04T08:10:31.767Z</time></trkpt><trkpt lat="43.3341229" lon="11.6338726"><ele>465.0</ele><time>2026-04-04T08:10:32.767Z</time></trkpt><trkpt lat="43.3341909" lon="11.6339487"><ele>465.0</ele><time>2026-04-04T08:10:33.767Z</time></trkpt><trkpt lat="43.3342539" lon="11.6339864"><ele>465.0</ele><time>2026-04-04T08:10:34.767Z</time></trkpt><trkpt lat="43.3343234" lon="11.6340297"><ele>465.0</ele><time>2026-04-04T08:10:35.767Z</time></trkpt><trkpt lat="43.3343864" lon="11.6340592"><ele>465.0</ele><time>2026-04-04T08:10:36.767Z</time></trkpt><trkpt lat="43.334464" lon="11.6340876"><ele>465.0</ele><time>2026-04-04T08:10:37.767Z</time></trkpt><trkpt lat="43.3345288" lon="11.6341164"><ele>465.0</ele><time>2026-04-04T08:10:38.767Z</time></trkpt><trkpt lat="43.3346168" lon="11.6341886"><ele>465.0</ele><time>2026-04-04T08:10:40.767Z</time></trkpt><trkpt lat="43.3347057" lon="11.6342825"><ele>465.0</ele><time>2026-04-04T08:10:42.767Z</time></trkpt><trkpt lat="43.3348233" lon="11.6343652"><ele>467.0</ele><time>2026-04-04T08:10:44.767Z</time></trkpt><trkpt lat="43.3349325" lon="11.6343136"><ele>469.0</ele><time>2026-04-04T08:10:46.768Z</time></trkpt><trkpt lat="43.3350354" lon="11.6342532"><ele>471.0</ele><time>2026-04-04T08:10:48.767Z</time></trkpt><trkpt lat="43.3350988" lon="11.6342172"><ele>473.0</ele><time>2026-04-04T08:10:49.767Z</time></trkpt><trkpt lat="43.3351729" lon="11.6341668"><ele>475.0</ele><time>2026-04-04T08:10:51.767Z</time></trkpt><trkpt lat="43.3352633" lon="11.6340809"><ele>475.00000000000006</ele><time>2026-04-04T08:10:53.767Z</time></trkpt><trkpt lat="43.3353633" lon="11.6340179"><ele>475.0</ele><time>2026-04-04T08:10:55.767Z</time></trkpt><trkpt lat="43.3354268" lon="11.6339909"><ele>475.0</ele><time>2026-04-04T08:10:56.767Z</time></trkpt><trkpt lat="43.3354974" lon="11.6339651"><ele>475.0</ele><time>2026-04-04T08:10:57.767Z</time></trkpt><trkpt lat="43.3355583" lon="11.6339425"><ele>475.00000000000006</ele><time>2026-04-04T08:10:58.767Z</time></trkpt><trkpt lat="43.3356454" lon="11.6338834"><ele>475.0</ele><time>2026-04-04T08:11:00.767Z</time></trkpt><trkpt lat="43.3357329" lon="11.6338504"><ele>476.50000000000006</ele><time>2026-04-04T08:11:02.768Z</time></trkpt><trkpt lat="43.3358423" lon="11.6339695"><ele>478.0</ele><time>2026-04-04T08:11:04.767Z</time></trkpt><trkpt lat="43.3358823" lon="11.6340441"><ele>479.5</ele><time>2026-04-04T08:11:05.767Z</time></trkpt><trkpt lat="43.3359307" lon="11.6341124"><ele>481.0</ele><time>2026-04-04T08:11:06.767Z</time></trkpt><trkpt lat="43.3359927" lon="11.634173"><ele>482.50000000000006</ele><time>2026-04-04T08:11:07.767Z</time></trkpt><trkpt lat="43.3360511" lon="11.634236"><ele>484.0</ele><time>2026-04-04T08:11:08.767Z</time></trkpt><trkpt lat="43.3361088" lon="11.6342796"><ele>484.0</ele><time>2026-04-04T08:11:09.767Z</time></trkpt><trkpt lat="43.336198" lon="11.6343439"><ele>484.0</ele><time>2026-04-04T08:11:11.767Z</time></trkpt><trkpt lat="43.3362773" lon="11.634356"><ele>484.0</ele><time>2026-04-04T08:12:29.767Z</time></trkpt><trkpt lat="43.3363664" lon="11.6343839"><ele>484.0</ele><time>2026-04-04T08:12:31.768Z</time></trkpt><trkpt lat="43.3364733" lon="11.634403"><ele>484.0</ele><time>2026-04-04T08:12:33.767Z</time></trkpt><trkpt lat="43.3365619" lon="11.6343781"><ele>484.79999999999995</ele><time>2026-04-04T08:12:35.767Z</time></trkpt><trkpt lat="43.3366609" lon="11.6343398"><ele>485.59999999999997</ele><time>2026-04-04T08:12:37.767Z</time></trkpt><trkpt lat="43.3367799" lon="11.6342951"><ele>486.4</ele><time>2026-04-04T08:12:39.767Z</time></trkpt><trkpt lat="43.3368982" lon="11.6342688"><ele>487.2</ele><time>2026-04-04T08:12:41.767Z</time></trkpt><trkpt lat="43.336961" lon="11.6342749"><ele>488.0</ele><time>2026-04-04T08:12:42.767Z</time></trkpt><trkpt lat="43.3370843" lon="11.634329"><ele>487.99999999999994</ele><time>2026-04-04T08:12:44.768Z</time></trkpt><trkpt lat="43.3371406" lon="11.6343956"><ele>488.0</ele><time>2026-04-04T08:12:45.767Z</time></trkpt><trkpt lat="43.3371922" lon="11.634476"><ele>488.0</ele><time>2026-04-04T08:12:46.767Z</time></trkpt><trkpt lat="43.3372443" lon="11.6345557"><ele>488.0</ele><time>2026-04-04T08:12:47.767Z</time></trkpt><trkpt lat="43.3373181" lon="11.634603"><ele>487.99999999999994</ele><time>2026-04-04T08:12:48.767Z</time></trkpt><trkpt lat="43.3373954" lon="11.6346057"><ele>488.0</ele><time>2026-04-04T08:12:49.767Z</time></trkpt><trkpt lat="43.3374771" lon="11.6345952"><ele>487.8333333333333</ele><time>2026-04-04T08:12:50.767Z</time></trkpt><trkpt lat="43.3375521" lon="11.6345815"><ele>487.66666666666663</ele><time>2026-04-04T08:12:51.767Z</time></trkpt><trkpt lat="43.337629" lon="11.634558"><ele>487.5</ele><time>2026-04-04T08:12:52.767Z</time></trkpt><trkpt lat="43.3377101" lon="11.6345171"><ele>487.33333333333337</ele><time>2026-04-04T08:12:53.767Z</time></trkpt><trkpt lat="43.3377892" lon="11.6344755"><ele>487.1666666666667</ele><time>2026-04-04T08:12:54.767Z</time></trkpt><trkpt lat="43.3378642" lon="11.6344353"><ele>487.0</ele><time>2026-04-04T08:12:55.767Z</time></trkpt><trkpt lat="43.337933" lon="11.6343953"><ele>488.00000000000006</ele><time>2026-04-04T08:12:56.768Z</time></trkpt><trkpt lat="43.3380237" lon="11.6343424"><ele>489.0</ele><time>2026-04-04T08:12:58.767Z</time></trkpt><trkpt lat="43.3381006" lon="11.6343126"><ele>490.0</ele><time>2026-04-04T08:13:01.767Z</time></trkpt><trkpt lat="43.3381752" lon="11.6343341"><ele>491.0</ele><time>2026-04-04T08:13:04.767Z</time></trkpt><trkpt lat="43.338229" lon="11.6343805"><ele>492.00000000000006</ele><time>2026-04-04T08:13:05.767Z</time></trkpt><trkpt lat="43.3382788" lon="11.6344798"><ele>493.0</ele><time>2026-04-04T08:13:06.767Z</time></trkpt><trkpt lat="43.3383387" lon="11.6345762"><ele>493.0</ele><time>2026-04-04T08:13:07.767Z</time></trkpt><trkpt lat="43.3383868" lon="11.634688"><ele>492.99999999999994</ele><time>2026-04-04T08:13:08.767Z</time></trkpt><trkpt lat="43.3384383" lon="11.6348145"><ele>492.99999999999994</ele><time>2026-04-04T08:13:09.767Z</time></trkpt><trkpt lat="43.3384835" lon="11.6349382"><ele>493.0</ele><time>2026-04-04T08:13:10.767Z</time></trkpt><trkpt lat="43.3385394" lon="11.6350638"><ele>493.0</ele><time>2026-04-04T08:13:11.767Z</time></trkpt><trkpt lat="43.3385973" lon="11.6351542"><ele>493.00000000000006</ele><time>2026-04-04T08:13:12.767Z</time></trkpt><trkpt lat="43.3386582" lon="11.6352197"><ele>493.0</ele><time>2026-04-04T08:13:13.767Z</time></trkpt><trkpt lat="43.338767" lon="11.6352972"><ele>493.0</ele><time>2026-04-04T08:13:15.767Z</time></trkpt><trkpt lat="43.3388534" lon="11.6353097"><ele>493.0</ele><time>2026-04-04T08:13:16.767Z</time></trkpt><trkpt lat="43.3389441" lon="11.6353297"><ele>493.00000000000006</ele><time>2026-04-04T08:13:17.767Z</time></trkpt><trkpt lat="43.3390074" lon="11.63535"><ele>493.0</ele><time>2026-04-04T08:13:18.767Z</time></trkpt><trkpt lat="43.3390935" lon="11.6353246"><ele>493.00000000000006</ele><time>2026-04-04T08:13:20.767Z</time></trkpt><trkpt lat="43.3391583" lon="11.6352692"><ele>493.0</ele><time>2026-04-04T08:13:22.767Z</time></trkpt><trkpt lat="43.3392315" lon="11.6352503"><ele>493.0</ele><time>2026-04-04T08:13:24.768Z</time></trkpt><trkpt lat="43.339291" lon="11.6352846"><ele>493.0</ele><time>2026-04-04T08:13:26.767Z</time></trkpt><trkpt lat="43.3393628" lon="11.6353123"><ele>493.00000000000006</ele><time>2026-04-04T08:13:28.767Z</time></trkpt><trkpt lat="43.3394639" lon="11.6353382"><ele>493.0</ele><time>2026-04-04T08:13:30.768Z</time></trkpt><trkpt lat="43.3395331" lon="11.6353906"><ele>493.0</ele><time>2026-04-04T08:13:32.767Z</time></trkpt><trkpt lat="43.339587" lon="11.6354698"><ele>492.99999999999994</ele><time>2026-04-04T08:13:34.767Z</time></trkpt><trkpt lat="43.3396527" lon="11.6355203"><ele>492.99999999999994</ele><time>2026-04-04T08:13:38.767Z</time></trkpt><trkpt lat="43.339693" lon="11.6357245"><ele>493.0</ele><time>2026-04-04T08:15:04.767Z</time></trkpt><trkpt lat="43.339736" lon="11.6358497"><ele>493.0</ele><time>2026-04-04T08:15:05.767Z</time></trkpt><trkpt lat="43.3397987" lon="11.6359726"><ele>494.0</ele><time>2026-04-04T08:15:06.767Z</time></trkpt><trkpt lat="43.3398661" lon="11.6360949"><ele>495.0</ele><time>2026-04-04T08:15:07.767Z</time></trkpt><trkpt lat="43.339944" lon="11.6362233"><ele>496.0</ele><time>2026-04-04T08:15:08.768Z</time></trkpt><trkpt lat="43.3400226" lon="11.636362"><ele>497.0</ele><time>2026-04-04T08:15:09.767Z</time></trkpt><trkpt lat="43.3401107" lon="11.6365018"><ele>497.8</ele><time>2026-04-04T08:15:10.767Z</time></trkpt><trkpt lat="43.3401831" lon="11.6366356"><ele>498.6</ele><time>2026-04-04T08:15:11.767Z</time></trkpt><trkpt lat="43.3402488" lon="11.6367518"><ele>499.40000000000003</ele><time>2026-04-04T08:15:12.767Z</time></trkpt><trkpt lat="43.3402991" lon="11.6368672"><ele>500.20000000000005</ele><time>2026-04-04T08:15:13.767Z</time></trkpt><trkpt lat="43.3403458" lon="11.6369781"><ele>501.0</ele><time>2026-04-04T08:15:14.767Z</time></trkpt><trkpt lat="43.3403984" lon="11.6370864"><ele>501.6</ele><time>2026-04-04T08:15:15.767Z</time></trkpt><trkpt lat="43.3404698" lon="11.6371821"><ele>502.20000000000005</ele><time>2026-04-04T08:15:16.767Z</time></trkpt><trkpt lat="43.3405498" lon="11.6372605"><ele>502.79999999999995</ele><time>2026-04-04T08:15:17.767Z</time></trkpt><trkpt lat="43.3406381" lon="11.6373585"><ele>503.4</ele><time>2026-04-04T08:15:18.767Z</time></trkpt><trkpt lat="43.3407105" lon="11.6374637"><ele>504.0</ele><time>2026-04-04T08:15:19.767Z</time></trkpt><trkpt lat="43.3407723" lon="11.6375779"><ele>505.2</ele><time>2026-04-04T08:15:20.767Z</time></trkpt><trkpt lat="43.3408284" lon="11.6376997"><ele>506.4</ele><time>2026-04-04T08:15:21.767Z</time></trkpt><trkpt lat="43.3408756" lon="11.6378252"><ele>507.6</ele><time>2026-04-04T08:15:22.767Z</time></trkpt><trkpt lat="43.3409132" lon="11.6379465"><ele>508.8</ele><time>2026-04-04T08:15:23.767Z</time></trkpt><trkpt lat="43.3409575" lon="11.6380524"><ele>510.0</ele><time>2026-04-04T08:15:24.767Z</time></trkpt><trkpt lat="43.3410145" lon="11.6381446"><ele>510.0</ele><time>2026-04-04T08:15:25.768Z</time></trkpt><trkpt lat="43.3410922" lon="11.6382487"><ele>510.0</ele><time>2026-04-04T08:15:26.767Z</time></trkpt><trkpt lat="43.3411744" lon="11.6383617"><ele>510.0</ele><time>2026-04-04T08:15:27.767Z</time></trkpt><trkpt lat="43.3412553" lon="11.6384767"><ele>510.0</ele><time>2026-04-04T08:15:28.767Z</time></trkpt><trkpt lat="43.3413282" lon="11.6385918"><ele>512.8</ele><time>2026-04-04T08:15:29.767Z</time></trkpt><trkpt lat="43.3414011" lon="11.6386997"><ele>515.6</ele><time>2026-04-04T08:15:30.767Z</time></trkpt><trkpt lat="43.3414757" lon="11.6387939"><ele>518.4</ele><time>2026-04-04T08:15:31.767Z</time></trkpt><trkpt lat="43.3415469" lon="11.6388702"><ele>521.2</ele><time>2026-04-04T08:15:32.767Z</time></trkpt><trkpt lat="43.3416157" lon="11.6389118"><ele>524.0</ele><time>2026-04-04T08:15:33.767Z</time></trkpt><trkpt lat="43.3416927" lon="11.6389375"><ele>524.0</ele><time>2026-04-04T08:15:34.767Z</time></trkpt><trkpt lat="43.3417776" lon="11.6389367"><ele>524.0</ele><time>2026-04-04T08:15:35.767Z</time></trkpt><trkpt lat="43.341864" lon="11.6389341"><ele>524.0</ele><time>2026-04-04T08:15:36.768Z</time></trkpt><trkpt lat="43.341936" lon="11.6389144"><ele>524.0</ele><time>2026-04-04T08:15:37.767Z</time></trkpt><trkpt lat="43.3420012" lon="11.6388758"><ele>524.0</ele><time>2026-04-04T08:15:38.767Z</time></trkpt><trkpt lat="43.3420684" lon="11.6388228"><ele>524.0</ele><time>2026-04-04T08:15:39.767Z</time></trkpt><trkpt lat="43.342144" lon="11.638766"><ele>526.8333333333333</ele><time>2026-04-04T08:15:40.768Z</time></trkpt><trkpt lat="43.3422152" lon="11.6387284"><ele>529.6666666666666</ele><time>2026-04-04T08:15:41.767Z</time></trkpt><trkpt lat="43.3422873" lon="11.6387298"><ele>532.5</ele><time>2026-04-04T08:15:42.768Z</time></trkpt><trkpt lat="43.3423588" lon="11.6387539"><ele>535.3333333333334</ele><time>2026-04-04T08:15:43.767Z</time></trkpt><trkpt lat="43.3424408" lon="11.6387828"><ele>538.1666666666667</ele><time>2026-04-04T08:15:44.768Z</time></trkpt><trkpt lat="43.3425234" lon="11.6387926"><ele>541.0</ele><time>2026-04-04T08:15:45.767Z</time></trkpt><trkpt lat="43.3426158" lon="11.6387755"><ele>541.0</ele><time>2026-04-04T08:15:46.767Z</time></trkpt><trkpt lat="43.3427113" lon="11.6387585"><ele>541.0</ele><time>2026-04-04T08:15:47.767Z</time></trkpt><trkpt lat="43.3428101" lon="11.6387574"><ele>541.0</ele><time>2026-04-04T08:15:48.767Z</time></trkpt><trkpt lat="43.342911" lon="11.6387729"><ele>541.0</ele><time>2026-04-04T08:15:49.767Z</time></trkpt><trkpt lat="43.3430054" lon="11.638801"><ele>541.0</ele><time>2026-04-04T08:15:50.767Z</time></trkpt><trkpt lat="43.3430807" lon="11.638863"><ele>541.8</ele><time>2026-04-04T08:15:51.767Z</time></trkpt><trkpt lat="43.3431568" lon="11.6389434"><ele>542.6</ele><time>2026-04-04T08:15:52.767Z</time></trkpt><trkpt lat="43.3432261" lon="11.6390318"><ele>543.4</ele><time>2026-04-04T08:15:53.767Z</time></trkpt><trkpt lat="43.3432945" lon="11.6391268"><ele>544.2</ele><time>2026-04-04T08:15:54.768Z</time></trkpt><trkpt lat="43.3433636" lon="11.6392441"><ele>545.0</ele><time>2026-04-04T08:15:55.768Z</time></trkpt><trkpt lat="43.3434433" lon="11.6393687"><ele>546.8</ele><time>2026-04-04T08:15:56.767Z</time></trkpt><trkpt lat="43.3435201" lon="11.6394675"><ele>548.6</ele><time>2026-04-04T08:15:57.767Z</time></trkpt><trkpt lat="43.3435918" lon="11.6395504"><ele>550.4</ele><time>2026-04-04T08:15:58.768Z</time></trkpt><trkpt lat="43.3436685" lon="11.6396319"><ele>552.2</ele><time>2026-04-04T08:15:59.767Z</time></trkpt><trkpt lat="43.3437454" lon="11.6397196"><ele>554.0</ele><time>2026-04-04T08:16:00.768Z</time></trkpt><trkpt lat="43.343811" lon="11.6397981"><ele>554.0</ele><time>2026-04-04T08:16:01.767Z</time></trkpt><trkpt lat="43.3438717" lon="11.6398949"><ele>554.0</ele><time>2026-04-04T08:16:02.767Z</time></trkpt><trkpt lat="43.3439256" lon="11.6400022"><ele>554.0</ele><time>2026-04-04T08:16:03.767Z</time></trkpt><trkpt lat="43.3439751" lon="11.6401211"><ele>554.0</ele><time>2026-04-04T08:16:04.767Z</time></trkpt><trkpt lat="43.3440172" lon="11.640229"><ele>554.0</ele><time>2026-04-04T08:16:05.768Z</time></trkpt><trkpt lat="43.3440446" lon="11.6403115"><ele>554.0</ele><time>2026-04-04T08:16:06.767Z</time></trkpt><trkpt lat="43.3440705" lon="11.6403994"><ele>554.6</ele><time>2026-04-04T08:16:07.768Z</time></trkpt><trkpt lat="43.3441325" lon="11.6405549"><ele>555.2</ele><time>2026-04-04T08:16:09.767Z</time></trkpt><trkpt lat="43.3441712" lon="11.6406318"><ele>555.8000000000001</ele><time>2026-04-04T08:16:10.767Z</time></trkpt><trkpt lat="43.3442075" lon="11.6407033"><ele>556.4</ele><time>2026-04-04T08:16:11.768Z</time></trkpt><trkpt lat="43.3442799" lon="11.640821"><ele>557.0</ele><time>2026-04-04T08:16:13.767Z</time></trkpt><trkpt lat="43.3443477" lon="11.6408892"><ele>557.0</ele><time>2026-04-04T08:16:15.767Z</time></trkpt><trkpt lat="43.3444302" lon="11.6408869"><ele>557.0</ele><time>2026-04-04T08:16:18.767Z</time></trkpt><trkpt lat="43.3445054" lon="11.6408215"><ele>557.0</ele><time>2026-04-04T08:19:10.767Z</time></trkpt><trkpt lat="43.3445371" lon="11.6407462"><ele>557.0</ele><time>2026-04-04T08:19:34.767Z</time></trkpt><trkpt lat="43.3444716" lon="11.6407725"><ele>557.0</ele><time>2026-04-04T08:19:52.767Z</time></trkpt><trkpt lat="43.3445402" lon="11.6407692"><ele>557.0</ele><time>2026-04-04T08:29:06.767Z</time></trkpt><trkpt lat="43.3445969" lon="11.6406145"><ele>557.0</ele><time>2026-04-04T08:33:37.767Z</time></trkpt><trkpt lat="43.3446437" lon="11.6405453"><ele>557.0</ele><time>2026-04-04T08:33:38.767Z</time></trkpt><trkpt lat="43.3447056" lon="11.6404705"><ele>557.0</ele><time>2026-04-04T08:33:39.767Z</time></trkpt><trkpt lat="43.3447659" lon="11.6404008"><ele>557.0</ele><time>2026-04-04T08:33:40.767Z</time></trkpt><trkpt lat="43.3448199" lon="11.6403295"><ele>557.0</ele><time>2026-04-04T08:33:41.767Z</time></trkpt><trkpt lat="43.3448832" lon="11.6402628"><ele>557.0</ele><time>2026-04-04T08:33:42.767Z</time></trkpt><trkpt lat="43.3449496" lon="11.6402046"><ele>557.6666666666666</ele><time>2026-04-04T08:33:43.767Z</time></trkpt><trkpt lat="43.3450247" lon="11.640154"><ele>558.3333333333333</ele><time>2026-04-04T08:33:44.767Z</time></trkpt><trkpt lat="43.345104" lon="11.6401192"><ele>559.0</ele><time>2026-04-04T08:33:45.767Z</time></trkpt><trkpt lat="43.3451851" lon="11.6400887"><ele>559.6666666666666</ele><time>2026-04-04T08:33:46.767Z</time></trkpt><trkpt lat="43.3452793" lon="11.6400644"><ele>560.3333333333334</ele><time>2026-04-04T08:33:47.767Z</time></trkpt><trkpt lat="43.3453722" lon="11.6400466"><ele>561.0</ele><time>2026-04-04T08:33:48.767Z</time></trkpt><trkpt lat="43.3454701" lon="11.6400286"><ele>562.0</ele><time>2026-04-04T08:33:49.767Z</time></trkpt><trkpt lat="43.3455678" lon="11.6400079"><ele>563.0</ele><time>2026-04-04T08:33:50.767Z</time></trkpt><trkpt lat="43.3456596" lon="11.6399902"><ele>564.0</ele><time>2026-04-04T08:33:51.767Z</time></trkpt><trkpt lat="43.3457501" lon="11.639977"><ele>565.0</ele><time>2026-04-04T08:33:52.767Z</time></trkpt><trkpt lat="43.3458353" lon="11.6399582"><ele>566.0</ele><time>2026-04-04T08:33:53.768Z</time></trkpt><trkpt lat="43.3459196" lon="11.6399381"><ele>566.0</ele><time>2026-04-04T08:33:54.768Z</time></trkpt><trkpt lat="43.346011" lon="11.6399182"><ele>566.0</ele><time>2026-04-04T08:33:55.768Z</time></trkpt><trkpt lat="43.3461107" lon="11.6398939"><ele>566.0</ele><time>2026-04-04T08:33:56.767Z</time></trkpt><trkpt lat="43.3462041" lon="11.639866"><ele>566.0</ele><time>2026-04-04T08:33:57.767Z</time></trkpt><trkpt lat="43.3462925" lon="11.6398379"><ele>566.0</ele><time>2026-04-04T08:33:58.767Z</time></trkpt><trkpt lat="43.3463758" lon="11.6398128"><ele>566.6666666666666</ele><time>2026-04-04T08:33:59.767Z</time></trkpt><trkpt lat="43.3464648" lon="11.6397973"><ele>567.3333333333333</ele><time>2026-04-04T08:34:00.767Z</time></trkpt><trkpt lat="43.3465463" lon="11.6397839"><ele>568.0</ele><time>2026-04-04T08:34:01.767Z</time></trkpt><trkpt lat="43.3466332" lon="11.6397738"><ele>568.6666666666666</ele><time>2026-04-04T08:34:02.768Z</time></trkpt><trkpt lat="43.3467207" lon="11.63976"><ele>569.3333333333334</ele><time>2026-04-04T08:34:03.767Z</time></trkpt><trkpt lat="43.3467945" lon="11.6397445"><ele>570.0</ele><time>2026-04-04T08:34:04.767Z</time></trkpt><trkpt lat="43.3468941" lon="11.6397419"><ele>570.0</ele><time>2026-04-04T08:34:06.767Z</time></trkpt><trkpt lat="43.3469586" lon="11.6397629"><ele>570.0</ele><time>2026-04-04T08:34:07.767Z</time></trkpt><trkpt lat="43.347042" lon="11.6398002"><ele>570.0</ele><time>2026-04-04T08:34:08.767Z</time></trkpt><trkpt lat="43.347139" lon="11.6398552"><ele>570.0</ele><time>2026-04-04T08:34:09.768Z</time></trkpt><trkpt lat="43.3472336" lon="11.6398996"><ele>570.0</ele><time>2026-04-04T08:34:10.767Z</time></trkpt><trkpt lat="43.3473404" lon="11.6399492"><ele>570.5</ele><time>2026-04-04T08:34:11.767Z</time></trkpt><trkpt lat="43.3474516" lon="11.6399981"><ele>571.0</ele><time>2026-04-04T08:34:12.768Z</time></trkpt><trkpt lat="43.3475572" lon="11.6400457"><ele>571.5</ele><time>2026-04-04T08:34:13.767Z</time></trkpt><trkpt lat="43.3476644" lon="11.6400849"><ele>572.0</ele><time>2026-04-04T08:34:14.767Z</time></trkpt><trkpt lat="43.3477726" lon="11.6401232"><ele>572.0</ele><time>2026-04-04T08:34:15.767Z</time></trkpt><trkpt lat="43.3478794" lon="11.6401602"><ele>572.0</ele><time>2026-04-04T08:34:16.767Z</time></trkpt><trkpt lat="43.3479908" lon="11.6402053"><ele>572.0</ele><time>2026-04-04T08:34:17.767Z</time></trkpt><trkpt lat="43.3480996" lon="11.640255"><ele>572.0</ele><time>2026-04-04T08:34:18.767Z</time></trkpt><trkpt lat="43.3482149" lon="11.6403061"><ele>574.0</ele><time>2026-04-04T08:34:19.767Z</time></trkpt><trkpt lat="43.3483267" lon="11.6403627"><ele>576.0</ele><time>2026-04-04T08:34:20.767Z</time></trkpt><trkpt lat="43.3484412" lon="11.6404341"><ele>578.0</ele><time>2026-04-04T08:34:21.767Z</time></trkpt><trkpt lat="43.3485447" lon="11.6405225"><ele>580.0</ele><time>2026-04-04T08:34:22.768Z</time></trkpt><trkpt lat="43.3486394" lon="11.6406286"><ele>580.0</ele><time>2026-04-04T08:34:23.767Z</time></trkpt><trkpt lat="43.348742" lon="11.6407392"><ele>580.0</ele><time>2026-04-04T08:34:24.767Z</time></trkpt><trkpt lat="43.3488514" lon="11.640831"><ele>580.0</ele><time>2026-04-04T08:34:25.767Z</time></trkpt><trkpt lat="43.3489553" lon="11.6409124"><ele>580.0</ele><time>2026-04-04T08:34:26.767Z</time></trkpt><trkpt lat="43.3490613" lon="11.6409969"><ele>579.2</ele><time>2026-04-04T08:34:27.767Z</time></trkpt><trkpt lat="43.3491622" lon="11.6410769"><ele>578.4</ele><time>2026-04-04T08:34:28.767Z</time></trkpt><trkpt lat="43.3492552" lon="11.6411622"><ele>577.6</ele><time>2026-04-04T08:34:29.767Z</time></trkpt><trkpt lat="43.3493296" lon="11.6412601"><ele>576.8</ele><time>2026-04-04T08:34:30.767Z</time></trkpt><trkpt lat="43.3493707" lon="11.6413942"><ele>576.0</ele><time>2026-04-04T08:34:31.767Z</time></trkpt><trkpt lat="43.3493715" lon="11.6415429"><ele>576.0</ele><time>2026-04-04T08:34:32.767Z</time></trkpt><trkpt lat="43.3493473" lon="11.6416992"><ele>576.0</ele><time>2026-04-04T08:34:33.767Z</time></trkpt><trkpt lat="43.3493322" lon="11.64186"><ele>576.0</ele><time>2026-04-04T08:34:34.767Z</time></trkpt><trkpt lat="43.3493507" lon="11.6420215"><ele>576.0</ele><time>2026-04-04T08:34:35.767Z</time></trkpt><trkpt lat="43.3494244" lon="11.6421635"><ele>575.75</ele><time>2026-04-04T08:34:36.767Z</time></trkpt><trkpt lat="43.3495346" lon="11.6422811"><ele>575.5</ele><time>2026-04-04T08:34:37.767Z</time></trkpt><trkpt lat="43.3496603" lon="11.6423726"><ele>575.25</ele><time>2026-04-04T08:34:38.768Z</time></trkpt><trkpt lat="43.3497831" lon="11.6424638"><ele>575.0</ele><time>2026-04-04T08:34:39.767Z</time></trkpt><trkpt lat="43.349903" lon="11.6425547"><ele>571.75</ele><time>2026-04-04T08:34:40.767Z</time></trkpt><trkpt lat="43.3500198" lon="11.6426474"><ele>568.5</ele><time>2026-04-04T08:34:41.768Z</time></trkpt><trkpt lat="43.3501378" lon="11.642736"><ele>565.25</ele><time>2026-04-04T08:34:42.767Z</time></trkpt><trkpt lat="43.3502575" lon="11.6428367"><ele>562.0</ele><time>2026-04-04T08:34:43.767Z</time></trkpt><trkpt lat="43.3503765" lon="11.6429603"><ele>560.0</ele><time>2026-04-04T08:34:44.767Z</time></trkpt><trkpt lat="43.3504884" lon="11.6430986"><ele>558.0</ele><time>2026-04-04T08:34:45.767Z</time></trkpt><trkpt lat="43.3506029" lon="11.6432584"><ele>556.0</ele><time>2026-04-04T08:34:46.768Z</time></trkpt><trkpt lat="43.3507169" lon="11.6434309"><ele>555.6666666666667</ele><time>2026-04-04T08:34:47.767Z</time></trkpt><trkpt lat="43.3508334" lon="11.6436076"><ele>555.3333333333334</ele><time>2026-04-04T08:34:48.767Z</time></trkpt><trkpt lat="43.3509466" lon="11.6437856"><ele>555.0</ele><time>2026-04-04T08:34:49.767Z</time></trkpt><trkpt lat="43.3510595" lon="11.6439596"><ele>554.0</ele><time>2026-04-04T08:34:50.767Z</time></trkpt><trkpt lat="43.3511827" lon="11.6441167"><ele>553.0</ele><time>2026-04-04T08:34:51.767Z</time></trkpt><trkpt lat="43.351315" lon="11.6442604"><ele>552.0</ele><time>2026-04-04T08:34:52.767Z</time></trkpt><trkpt lat="43.3514625" lon="11.6443706"><ele>552.0</ele><time>2026-04-04T08:34:53.767Z</time></trkpt><trkpt lat="43.3516194" lon="11.6444368"><ele>552.0</ele><time>2026-04-04T08:34:54.767Z</time></trkpt><trkpt lat="43.3517821" lon="11.64445"><ele>552.0</ele><time>2026-04-04T08:34:55.767Z</time></trkpt><trkpt lat="43.3519505" lon="11.6443969"><ele>552.0</ele><time>2026-04-04T08:34:56.767Z</time></trkpt><trkpt lat="43.352107" lon="11.6443027"><ele>552.0</ele><time>2026-04-04T08:34:57.767Z</time></trkpt><trkpt lat="43.3522513" lon="11.6442141"><ele>552.0</ele><time>2026-04-04T08:34:58.767Z</time></trkpt><trkpt lat="43.3523991" lon="11.6441551"><ele>553.0</ele><time>2026-04-04T08:34:59.768Z</time></trkpt><trkpt lat="43.3525542" lon="11.6441237"><ele>554.0</ele><time>2026-04-04T08:35:00.767Z</time></trkpt><trkpt lat="43.3527139" lon="11.6441068"><ele>555.0</ele><time>2026-04-04T08:35:01.767Z</time></trkpt><trkpt lat="43.3528745" lon="11.6440862"><ele>555.0</ele><time>2026-04-04T08:35:02.767Z</time></trkpt><trkpt lat="43.3530229" lon="11.6440557"><ele>555.0</ele><time>2026-04-04T08:35:03.768Z</time></trkpt><trkpt lat="43.353162" lon="11.6440132"><ele>555.0</ele><time>2026-04-04T08:35:04.768Z</time></trkpt><trkpt lat="43.3532921" lon="11.643951"><ele>555.0</ele><time>2026-04-04T08:35:05.767Z</time></trkpt><trkpt lat="43.3534139" lon="11.6438491"><ele>554.75</ele><time>2026-04-04T08:35:06.767Z</time></trkpt><trkpt lat="43.3535259" lon="11.6437003"><ele>554.5</ele><time>2026-04-04T08:35:07.768Z</time></trkpt><trkpt lat="43.3536094" lon="11.6435481"><ele>554.25</ele><time>2026-04-04T08:35:08.767Z</time></trkpt><trkpt lat="43.3536965" lon="11.6434202"><ele>554.0</ele><time>2026-04-04T08:35:09.767Z</time></trkpt><trkpt lat="43.3538018" lon="11.643313"><ele>556.25</ele><time>2026-04-04T08:35:10.767Z</time></trkpt><trkpt lat="43.3539215" lon="11.6432405"><ele>558.5</ele><time>2026-04-04T08:35:11.767Z</time></trkpt><trkpt lat="43.35405" lon="11.6432064"><ele>560.75</ele><time>2026-04-04T08:35:12.767Z</time></trkpt><trkpt lat="43.3541878" lon="11.6432033"><ele>563.0</ele><time>2026-04-04T08:35:13.767Z</time></trkpt><trkpt lat="43.3543316" lon="11.6432089"><ele>563.0</ele><time>2026-04-04T08:35:14.767Z</time></trkpt><trkpt lat="43.3544731" lon="11.6432362"><ele>563.0</ele><time>2026-04-04T08:35:15.767Z</time></trkpt><trkpt lat="43.3546038" lon="11.6432991"><ele>563.0</ele><time>2026-04-04T08:35:16.767Z</time></trkpt><trkpt lat="43.3547191" lon="11.6433941"><ele>563.0</ele><time>2026-04-04T08:35:17.767Z</time></trkpt><trkpt lat="43.3548163" lon="11.6435155"><ele>564.4</ele><time>2026-04-04T08:35:18.767Z</time></trkpt><trkpt lat="43.3549044" lon="11.6436146"><ele>565.8</ele><time>2026-04-04T08:35:19.768Z</time></trkpt><trkpt lat="43.3549822" lon="11.6436992"><ele>567.2</ele><time>2026-04-04T08:35:20.767Z</time></trkpt><trkpt lat="43.3550457" lon="11.6437646"><ele>568.6</ele><time>2026-04-04T08:35:21.767Z</time></trkpt><trkpt lat="43.3551292" lon="11.6438503"><ele>570.0</ele><time>2026-04-04T08:35:23.767Z</time></trkpt><trkpt lat="43.3552156" lon="11.643966"><ele>571.0</ele><time>2026-04-04T08:39:42.768Z</time></trkpt><trkpt lat="43.355285" lon="11.6440844"><ele>572.0</ele><time>2026-04-04T08:39:44.768Z</time></trkpt><trkpt lat="43.3553287" lon="11.644164"><ele>573.0</ele><time>2026-04-04T08:39:45.768Z</time></trkpt><trkpt lat="43.3553553" lon="11.6442634"><ele>574.0</ele><time>2026-04-04T08:39:46.768Z</time></trkpt><trkpt lat="43.3553642" lon="11.6444092"><ele>575.0</ele><time>2026-04-04T08:39:47.768Z</time></trkpt><trkpt lat="43.3553317" lon="11.6445668"><ele>575.25</ele><time>2026-04-04T08:39:48.768Z</time></trkpt><trkpt lat="43.3552836" lon="11.6447327"><ele>575.5</ele><time>2026-04-04T08:39:49.769Z</time></trkpt><trkpt lat="43.3552263" lon="11.644897"><ele>575.75</ele><time>2026-04-04T08:39:50.768Z</time></trkpt><trkpt lat="43.3551709" lon="11.6450669"><ele>576.0</ele><time>2026-04-04T08:39:51.768Z</time></trkpt><trkpt lat="43.3551121" lon="11.6452363"><ele>576.6</ele><time>2026-04-04T08:39:52.768Z</time></trkpt><trkpt lat="43.3550629" lon="11.645389"><ele>577.2</ele><time>2026-04-04T08:39:53.768Z</time></trkpt><trkpt lat="43.355016" lon="11.6455206"><ele>577.8</ele><time>2026-04-04T08:39:54.768Z</time></trkpt><trkpt lat="43.3549707" lon="11.6456369"><ele>578.4</ele><time>2026-04-04T08:39:55.768Z</time></trkpt><trkpt lat="43.3549238" lon="11.6457432"><ele>579.0</ele><time>2026-04-04T08:39:56.769Z</time></trkpt><trkpt lat="43.3548764" lon="11.6458568"><ele>579.0</ele><time>2026-04-04T08:39:57.768Z</time></trkpt><trkpt lat="43.3548191" lon="11.6459761"><ele>579.0</ele><time>2026-04-04T08:39:58.768Z</time></trkpt><trkpt lat="43.3547468" lon="11.6461051"><ele>579.0</ele><time>2026-04-04T08:39:59.768Z</time></trkpt><trkpt lat="43.3546711" lon="11.6462385"><ele>579.0</ele><time>2026-04-04T08:40:00.768Z</time></trkpt><trkpt lat="43.3545886" lon="11.646363"><ele>579.5</ele><time>2026-04-04T08:40:01.768Z</time></trkpt><trkpt lat="43.3545023" lon="11.6464875"><ele>580.0</ele><time>2026-04-04T08:40:02.768Z</time></trkpt><trkpt lat="43.3544185" lon="11.6466117"><ele>580.5</ele><time>2026-04-04T08:40:03.768Z</time></trkpt><trkpt lat="43.3543378" lon="11.646731"><ele>581.0</ele><time>2026-04-04T08:40:04.768Z</time></trkpt><trkpt lat="43.3542445" lon="11.6468449"><ele>582.25</ele><time>2026-04-04T08:40:05.768Z</time></trkpt><trkpt lat="43.3541497" lon="11.6469737"><ele>583.5</ele><time>2026-04-04T08:40:06.768Z</time></trkpt><trkpt lat="43.3540562" lon="11.6471081"><ele>584.75</ele><time>2026-04-04T08:40:07.768Z</time></trkpt><trkpt lat="43.3539694" lon="11.6472504"><ele>586.0</ele><time>2026-04-04T08:40:08.768Z</time></trkpt><trkpt lat="43.3538883" lon="11.6474077"><ele>582.5</ele><time>2026-04-04T08:40:09.768Z</time></trkpt><trkpt lat="43.3538174" lon="11.6475703"><ele>579.0</ele><time>2026-04-04T08:40:10.768Z</time></trkpt><trkpt lat="43.3537532" lon="11.647734"><ele>575.5</ele><time>2026-04-04T08:40:11.768Z</time></trkpt><trkpt lat="43.3536935" lon="11.6478946"><ele>572.0</ele><time>2026-04-04T08:40:12.768Z</time></trkpt><trkpt lat="43.3536558" lon="11.6480585"><ele>572.0</ele><time>2026-04-04T08:40:13.769Z</time></trkpt><trkpt lat="43.3536404" lon="11.6482309"><ele>572.0</ele><time>2026-04-04T08:40:14.768Z</time></trkpt><trkpt lat="43.3536531" lon="11.6484251"><ele>572.0</ele><time>2026-04-04T08:40:15.768Z</time></trkpt><trkpt lat="43.3536854" lon="11.6486208"><ele>572.0</ele><time>2026-04-04T08:40:16.768Z</time></trkpt><trkpt lat="43.3537435" lon="11.6487904"><ele>570.5</ele><time>2026-04-04T08:40:17.768Z</time></trkpt><trkpt lat="43.3538064" lon="11.6489529"><ele>569.0</ele><time>2026-04-04T08:40:18.768Z</time></trkpt><trkpt lat="43.353863" lon="11.6490962"><ele>567.5</ele><time>2026-04-04T08:40:19.768Z</time></trkpt><trkpt lat="43.3539077" lon="11.6492306"><ele>566.0</ele><time>2026-04-04T08:40:20.768Z</time></trkpt><trkpt lat="43.3539482" lon="11.6493551"><ele>567.1666666666666</ele><time>2026-04-04T08:40:21.768Z</time></trkpt><trkpt lat="43.353964" lon="11.649468"><ele>568.3333333333333</ele><time>2026-04-04T08:40:22.768Z</time></trkpt><trkpt lat="43.3539721" lon="11.6495548"><ele>569.5</ele><time>2026-04-04T08:40:23.768Z</time></trkpt><trkpt lat="43.354017" lon="11.6496175"><ele>570.6666666666666</ele><time>2026-04-04T08:40:25.768Z</time></trkpt><trkpt lat="43.3541071" lon="11.6496835"><ele>571.8333333333334</ele><time>2026-04-04T08:40:27.768Z</time></trkpt><trkpt lat="43.3541587" lon="11.6497554"><ele>573.0</ele><time>2026-04-04T08:40:28.768Z</time></trkpt><trkpt lat="43.3542072" lon="11.6498581"><ele>573.0</ele><time>2026-04-04T08:40:29.768Z</time></trkpt><trkpt lat="43.354263" lon="11.6499649"><ele>573.0</ele><time>2026-04-04T08:40:30.768Z</time></trkpt><trkpt lat="43.3543353" lon="11.6500747"><ele>573.0</ele><time>2026-04-04T08:40:31.768Z</time></trkpt><trkpt lat="43.3544019" lon="11.6501791"><ele>573.0</ele><time>2026-04-04T08:40:32.768Z</time></trkpt><trkpt lat="43.3544584" lon="11.6502708"><ele>573.0</ele><time>2026-04-04T08:40:33.768Z</time></trkpt><trkpt lat="43.3544913" lon="11.6503508"><ele>572.6</ele><time>2026-04-04T08:40:34.768Z</time></trkpt><trkpt lat="43.3545305" lon="11.6504997"><ele>572.1999999999999</ele><time>2026-04-04T08:40:36.768Z</time></trkpt><trkpt lat="43.3546046" lon="11.6505599"><ele>571.8</ele><time>2026-04-04T08:40:38.768Z</time></trkpt><trkpt lat="43.3547265" lon="11.6505538"><ele>571.4</ele><time>2026-04-04T08:40:40.768Z</time></trkpt><trkpt lat="43.354793" lon="11.6505581"><ele>571.0</ele><time>2026-04-04T08:40:41.768Z</time></trkpt><trkpt lat="43.3548561" lon="11.6505945"><ele>569.8571428571429</ele><time>2026-04-04T08:40:42.768Z</time></trkpt><trkpt lat="43.3549163" lon="11.6506527"><ele>568.7142857142857</ele><time>2026-04-04T08:40:43.768Z</time></trkpt><trkpt lat="43.3549714" lon="11.6507302"><ele>567.5714285714286</ele><time>2026-04-04T08:40:44.768Z</time></trkpt><trkpt lat="43.3550327" lon="11.6507998"><ele>566.4285714285714</ele><time>2026-04-04T08:40:45.768Z</time></trkpt><trkpt lat="43.3550991" lon="11.6508408"><ele>565.2857142857143</ele><time>2026-04-04T08:40:46.768Z</time></trkpt><trkpt lat="43.3551626" lon="11.6508566"><ele>564.1428571428571</ele><time>2026-04-04T08:40:47.768Z</time></trkpt><trkpt lat="43.3552337" lon="11.6508548"><ele>563.0</ele><time>2026-04-04T08:40:48.768Z</time></trkpt><trkpt lat="43.3553089" lon="11.6508277"><ele>563.0</ele><time>2026-04-04T08:40:49.768Z</time></trkpt><trkpt lat="43.355386" lon="11.6507983"><ele>563.0</ele><time>2026-04-04T08:40:50.768Z</time></trkpt><trkpt lat="43.355463" lon="11.6507656"><ele>563.0</ele><time>2026-04-04T08:40:51.769Z</time></trkpt><trkpt lat="43.3555356" lon="11.6507113"><ele>563.0</ele><time>2026-04-04T08:40:52.768Z</time></trkpt><trkpt lat="43.3555884" lon="11.6506279"><ele>563.0</ele><time>2026-04-04T08:40:53.768Z</time></trkpt><trkpt lat="43.3556635" lon="11.6505405"><ele>563.0</ele><time>2026-04-04T08:40:55.768Z</time></trkpt><trkpt lat="43.3557347" lon="11.6505272"><ele>562.6</ele><time>2026-04-04T08:40:58.768Z</time></trkpt><trkpt lat="43.3557477" lon="11.65063"><ele>562.1999999999999</ele><time>2026-04-04T08:41:00.768Z</time></trkpt><trkpt lat="43.3557459" lon="11.6507765"><ele>561.8</ele><time>2026-04-04T08:41:01.768Z</time></trkpt><trkpt lat="43.3557533" lon="11.6509343"><ele>561.4</ele><time>2026-04-04T08:41:02.768Z</time></trkpt><trkpt lat="43.3557536" lon="11.6510728"><ele>561.0</ele><time>2026-04-04T08:41:03.768Z</time></trkpt><trkpt lat="43.3557526" lon="11.65119"><ele>558.8</ele><time>2026-04-04T08:41:04.768Z</time></trkpt><trkpt lat="43.3557694" lon="11.6513228"><ele>556.6</ele><time>2026-04-04T08:41:05.768Z</time></trkpt><trkpt lat="43.3558127" lon="11.6514644"><ele>554.4</ele><time>2026-04-04T08:41:06.768Z</time></trkpt><trkpt lat="43.3558589" lon="11.6516056"><ele>552.2</ele><time>2026-04-04T08:41:07.768Z</time></trkpt><trkpt lat="43.3559004" lon="11.6517559"><ele>550.0</ele><time>2026-04-04T08:41:08.769Z</time></trkpt><trkpt lat="43.3559435" lon="11.6518907"><ele>549.0</ele><time>2026-04-04T08:41:09.768Z</time></trkpt><trkpt lat="43.3559832" lon="11.6520025"><ele>548.0</ele><time>2026-04-04T08:41:10.768Z</time></trkpt><trkpt lat="43.3560243" lon="11.6521248"><ele>547.0</ele><time>2026-04-04T08:41:11.769Z</time></trkpt><trkpt lat="43.3560552" lon="11.6522466"><ele>546.0</ele><time>2026-04-04T08:41:12.769Z</time></trkpt><trkpt lat="43.3560638" lon="11.652368"><ele>545.0</ele><time>2026-04-04T08:41:13.768Z</time></trkpt><trkpt lat="43.356056" lon="11.652473"><ele>544.0</ele><time>2026-04-04T08:41:14.768Z</time></trkpt><trkpt lat="43.3560387" lon="11.6525679"><ele>544.0</ele><time>2026-04-04T08:41:15.768Z</time></trkpt><trkpt lat="43.3560255" lon="11.6526686"><ele>544.0</ele><time>2026-04-04T08:41:16.768Z</time></trkpt><trkpt lat="43.3559966" lon="11.6528085"><ele>544.0</ele><time>2026-04-04T08:41:18.768Z</time></trkpt><trkpt lat="43.3559276" lon="11.652917"><ele>544.0</ele><time>2026-04-04T08:41:20.768Z</time></trkpt><trkpt lat="43.3559368" lon="11.6530792"><ele>544.0</ele><time>2026-04-04T08:41:22.768Z</time></trkpt><trkpt lat="43.3559456" lon="11.6531797"><ele>544.0</ele><time>2026-04-04T08:41:23.769Z</time></trkpt><trkpt lat="43.355952" lon="11.6532819"><ele>544.0</ele><time>2026-04-04T08:41:24.769Z</time></trkpt><trkpt lat="43.3559464" lon="11.6533833"><ele>544.0</ele><time>2026-04-04T08:41:25.769Z</time></trkpt><trkpt lat="43.3559301" lon="11.653489"><ele>544.0</ele><time>2026-04-04T08:41:26.768Z</time></trkpt><trkpt lat="43.355908" lon="11.6536038"><ele>544.0</ele><time>2026-04-04T08:41:27.768Z</time></trkpt><trkpt lat="43.3558619" lon="11.6537471"><ele>544.0</ele><time>2026-04-04T08:41:28.768Z</time></trkpt><trkpt lat="43.3558085" lon="11.6538875"><ele>543.8333333333334</ele><time>2026-04-04T08:41:29.769Z</time></trkpt><trkpt lat="43.3557672" lon="11.6539891"><ele>543.6666666666667</ele><time>2026-04-04T08:41:30.768Z</time></trkpt><trkpt lat="43.3557437" lon="11.6540756"><ele>543.5</ele><time>2026-04-04T08:41:31.768Z</time></trkpt><trkpt lat="43.3557638" lon="11.6542402"><ele>543.3333333333334</ele><time>2026-04-04T08:41:33.768Z</time></trkpt><trkpt lat="43.3557904" lon="11.6543248"><ele>543.1666666666666</ele><time>2026-04-04T08:41:34.768Z</time></trkpt><trkpt lat="43.3558072" lon="11.6544144"><ele>543.0</ele><time>2026-04-04T08:41:35.769Z</time></trkpt><trkpt lat="43.3558303" lon="11.6545811"><ele>541.4285714285714</ele><time>2026-04-04T08:41:37.768Z</time></trkpt><trkpt lat="43.3558461" lon="11.6546774"><ele>539.8571428571429</ele><time>2026-04-04T08:41:38.768Z</time></trkpt><trkpt lat="43.3558709" lon="11.6547796"><ele>538.2857142857142</ele><time>2026-04-04T08:41:39.768Z</time></trkpt><trkpt lat="43.3559022" lon="11.6548757"><ele>536.7142857142858</ele><time>2026-04-04T08:41:40.768Z</time></trkpt><trkpt lat="43.3559363" lon="11.6549587"><ele>535.1428571428571</ele><time>2026-04-04T08:41:41.768Z</time></trkpt><trkpt lat="43.3559792" lon="11.6550381"><ele>533.5714285714286</ele><time>2026-04-04T08:41:42.768Z</time></trkpt><trkpt lat="43.3560262" lon="11.6551104"><ele>532.0</ele><time>2026-04-04T08:41:43.768Z</time></trkpt><trkpt lat="43.3560791" lon="11.6551764"><ele>530.4</ele><time>2026-04-04T08:41:44.768Z</time></trkpt><trkpt lat="43.3561717" lon="11.6553247"><ele>528.8000000000001</ele><time>2026-04-04T08:41:46.768Z</time></trkpt><trkpt lat="43.3562345" lon="11.6554292"><ele>527.2</ele><time>2026-04-04T08:41:47.768Z</time></trkpt><trkpt lat="43.3563068" lon="11.6555328"><ele>525.6</ele><time>2026-04-04T08:41:48.768Z</time></trkpt><trkpt lat="43.3563775" lon="11.6556377"><ele>524.0</ele><time>2026-04-04T08:41:49.768Z</time></trkpt><trkpt lat="43.3564506" lon="11.6557511"><ele>524.0</ele><time>2026-04-04T08:41:50.768Z</time></trkpt><trkpt lat="43.3565069" lon="11.6558634"><ele>524.0</ele><time>2026-04-04T08:41:51.768Z</time></trkpt><trkpt lat="43.3565494" lon="11.6560067"><ele>524.0</ele><time>2026-04-04T08:41:52.768Z</time></trkpt><trkpt lat="43.3565914" lon="11.6561485"><ele>524.0</ele><time>2026-04-04T08:41:53.768Z</time></trkpt><trkpt lat="43.3566363" lon="11.6562729"><ele>524.0</ele><time>2026-04-04T08:41:54.768Z</time></trkpt><trkpt lat="43.3566777" lon="11.6563801"><ele>523.8571428571429</ele><time>2026-04-04T08:41:55.768Z</time></trkpt><trkpt lat="43.3566997" lon="11.6564734"><ele>523.7142857142858</ele><time>2026-04-04T08:41:56.768Z</time></trkpt><trkpt lat="43.3567254" lon="11.6565631"><ele>523.5714285714286</ele><time>2026-04-04T08:41:57.768Z</time></trkpt><trkpt lat="43.3567669" lon="11.6566368"><ele>523.4285714285714</ele><time>2026-04-04T08:41:58.768Z</time></trkpt><trkpt lat="43.3568113" lon="11.6567318"><ele>523.2857142857142</ele><time>2026-04-04T08:41:59.768Z</time></trkpt><trkpt lat="43.3568327" lon="11.656824"><ele>523.1428571428571</ele><time>2026-04-04T08:42:00.768Z</time></trkpt><trkpt lat="43.3568638" lon="11.6569344"><ele>523.0</ele><time>2026-04-04T08:42:02.768Z</time></trkpt><trkpt lat="43.356929" lon="11.6570675"><ele>523.4</ele><time>2026-04-04T08:42:04.768Z</time></trkpt><trkpt lat="43.3569863" lon="11.6571639"><ele>523.8</ele><time>2026-04-04T08:42:05.768Z</time></trkpt><trkpt lat="43.3570378" lon="11.6572396"><ele>524.2</ele><time>2026-04-04T08:42:06.768Z</time></trkpt><trkpt lat="43.3571245" lon="11.6573256"><ele>524.6</ele><time>2026-04-04T08:42:08.768Z</time></trkpt><trkpt lat="43.357202" lon="11.6574473"><ele>525.0</ele><time>2026-04-04T08:42:10.768Z</time></trkpt><trkpt lat="43.357294" lon="11.6575702"><ele>525.0</ele><time>2026-04-04T08:42:12.769Z</time></trkpt><trkpt lat="43.3573574" lon="11.6576368"><ele>525.0</ele><time>2026-04-04T08:42:13.768Z</time></trkpt><trkpt lat="43.3574187" lon="11.6577015"><ele>525.0</ele><time>2026-04-04T08:42:14.768Z</time></trkpt><trkpt lat="43.3574844" lon="11.657791"><ele>525.0</ele><time>2026-04-04T08:42:15.768Z</time></trkpt><trkpt lat="43.3575604" lon="11.6578884"><ele>525.0</ele><time>2026-04-04T08:42:16.768Z</time></trkpt><trkpt lat="43.3576362" lon="11.6579792"><ele>524.6666666666666</ele><time>2026-04-04T08:42:17.768Z</time></trkpt><trkpt lat="43.3576967" lon="11.6580637"><ele>524.3333333333334</ele><time>2026-04-04T08:42:18.769Z</time></trkpt><trkpt lat="43.3577471" lon="11.6581551"><ele>524.0</ele><time>2026-04-04T08:42:19.769Z</time></trkpt><trkpt lat="43.3578026" lon="11.6582584"><ele>523.6666666666667</ele><time>2026-04-04T08:42:20.768Z</time></trkpt><trkpt lat="43.3578783" lon="11.6583334"><ele>523.3333333333334</ele><time>2026-04-04T08:42:21.768Z</time></trkpt><trkpt lat="43.3579538" lon="11.6584005"><ele>523.0</ele><time>2026-04-04T08:42:22.768Z</time></trkpt><trkpt lat="43.3580079" lon="11.6584929"><ele>524.0</ele><time>2026-04-04T08:42:23.769Z</time></trkpt><trkpt lat="43.3580529" lon="11.6586278"><ele>525.0</ele><time>2026-04-04T08:42:24.768Z</time></trkpt><trkpt lat="43.3580793" lon="11.6587702"><ele>526.0</ele><time>2026-04-04T08:42:25.768Z</time></trkpt><trkpt lat="43.3580992" lon="11.6588913"><ele>527.0</ele><time>2026-04-04T08:42:26.768Z</time></trkpt><trkpt lat="43.3581088" lon="11.6590047"><ele>528.0</ele><time>2026-04-04T08:42:27.768Z</time></trkpt><trkpt lat="43.3581123" lon="11.6591107"><ele>528.0</ele><time>2026-04-04T08:42:28.768Z</time></trkpt><trkpt lat="43.3581277" lon="11.6592131"><ele>528.0</ele><time>2026-04-04T08:42:29.768Z</time></trkpt><trkpt lat="43.358152" lon="11.6593007"><ele>528.0</ele><time>2026-04-04T08:42:30.768Z</time></trkpt><trkpt lat="43.3581819" lon="11.6593811"><ele>528.0</ele><time>2026-04-04T08:42:31.768Z</time></trkpt><trkpt lat="43.3582344" lon="11.6594476"><ele>528.0</ele><time>2026-04-04T08:42:32.768Z</time></trkpt><trkpt lat="43.3583089" lon="11.6594752"><ele>528.0</ele><time>2026-04-04T08:42:33.768Z</time></trkpt><trkpt lat="43.358397" lon="11.6594596"><ele>528.0</ele><time>2026-04-04T08:42:34.768Z</time></trkpt><trkpt lat="43.3584841" lon="11.6594521"><ele>527.0</ele><time>2026-04-04T08:42:35.768Z</time></trkpt><trkpt lat="43.358558" lon="11.6594584"><ele>526.0</ele><time>2026-04-04T08:42:36.768Z</time></trkpt><trkpt lat="43.3586183" lon="11.6594859"><ele>525.0</ele><time>2026-04-04T08:42:37.769Z</time></trkpt><trkpt lat="43.3586786" lon="11.6595281"><ele>524.0</ele><time>2026-04-04T08:42:38.768Z</time></trkpt><trkpt lat="43.3587408" lon="11.6595829"><ele>523.0</ele><time>2026-04-04T08:42:39.768Z</time></trkpt><trkpt lat="43.3588028" lon="11.6596501"><ele>522.0</ele><time>2026-04-04T08:42:40.768Z</time></trkpt><trkpt lat="43.3588664" lon="11.6597188"><ele>521.0</ele><time>2026-04-04T08:42:41.768Z</time></trkpt><trkpt lat="43.358932" lon="11.6597763"><ele>518.8</ele><time>2026-04-04T08:42:42.768Z</time></trkpt><trkpt lat="43.3590193" lon="11.6598141"><ele>516.6</ele><time>2026-04-04T08:42:43.768Z</time></trkpt><trkpt lat="43.3591069" lon="11.6598659"><ele>514.4</ele><time>2026-04-04T08:42:44.768Z</time></trkpt><trkpt lat="43.3591933" lon="11.6599384"><ele>512.2</ele><time>2026-04-04T08:42:45.768Z</time></trkpt><trkpt lat="43.3592742" lon="11.6600103"><ele>510.0</ele><time>2026-04-04T08:42:46.768Z</time></trkpt><trkpt lat="43.3593506" lon="11.6600653"><ele>510.0</ele><time>2026-04-04T08:42:47.768Z</time></trkpt><trkpt lat="43.3594198" lon="11.6600993"><ele>510.0</ele><time>2026-04-04T08:42:48.768Z</time></trkpt><trkpt lat="43.3594764" lon="11.6601466"><ele>510.0</ele><time>2026-04-04T08:42:49.768Z</time></trkpt><trkpt lat="43.3595226" lon="11.6603126"><ele>510.0</ele><time>2026-04-04T08:42:51.768Z</time></trkpt><trkpt lat="43.3595471" lon="11.6604033"><ele>510.0</ele><time>2026-04-04T08:42:52.768Z</time></trkpt><trkpt lat="43.3595625" lon="11.6604879"><ele>510.0</ele><time>2026-04-04T08:42:53.768Z</time></trkpt><trkpt lat="43.3595816" lon="11.6605712"><ele>509.1666666666667</ele><time>2026-04-04T08:42:54.768Z</time></trkpt><trkpt lat="43.3596234" lon="11.6606537"><ele>508.33333333333337</ele><time>2026-04-04T08:42:55.768Z</time></trkpt><trkpt lat="43.3596671" lon="11.6607413"><ele>507.5</ele><time>2026-04-04T08:42:56.768Z</time></trkpt><trkpt lat="43.359713" lon="11.6608319"><ele>506.6666666666667</ele><time>2026-04-04T08:42:57.768Z</time></trkpt><trkpt lat="43.3597624" lon="11.6609139"><ele>505.83333333333337</ele><time>2026-04-04T08:42:58.768Z</time></trkpt><trkpt lat="43.3598084" lon="11.6609891"><ele>505.0</ele><time>2026-04-04T08:42:59.768Z</time></trkpt><trkpt lat="43.3598625" lon="11.6610607"><ele>502.50000000000006</ele><time>2026-04-04T08:43:00.768Z</time></trkpt><trkpt lat="43.3599299" lon="11.6611312"><ele>500.0</ele><time>2026-04-04T08:43:01.768Z</time></trkpt><trkpt lat="43.3600002" lon="11.6612059"><ele>497.5</ele><time>2026-04-04T08:43:02.768Z</time></trkpt><trkpt lat="43.3600682" lon="11.6612696"><ele>495.0</ele><time>2026-04-04T08:43:03.768Z</time></trkpt><trkpt lat="43.3601294" lon="11.6613232"><ele>492.50000000000006</ele><time>2026-04-04T08:43:04.768Z</time></trkpt><trkpt lat="43.3602234" lon="11.6614241"><ele>490.0</ele><time>2026-04-04T08:43:06.768Z</time></trkpt><trkpt lat="43.3602894" lon="11.6615426"><ele>490.00000000000006</ele><time>2026-04-04T08:43:08.768Z</time></trkpt><trkpt lat="43.3602928" lon="11.6616413"><ele>490.0</ele><time>2026-04-04T08:43:09.769Z</time></trkpt><trkpt lat="43.3602881" lon="11.6617463"><ele>490.0</ele><time>2026-04-04T08:43:10.768Z</time></trkpt><trkpt lat="43.3602767" lon="11.6618604"><ele>490.0</ele><time>2026-04-04T08:43:11.768Z</time></trkpt><trkpt lat="43.3602604" lon="11.6619879"><ele>490.00000000000006</ele><time>2026-04-04T08:43:12.769Z</time></trkpt><trkpt lat="43.3602459" lon="11.6621534"><ele>490.0</ele><time>2026-04-04T08:43:13.768Z</time></trkpt><trkpt lat="43.3602264" lon="11.6623377"><ele>488.0</ele><time>2026-04-04T08:43:14.768Z</time></trkpt><trkpt lat="43.3601979" lon="11.6625268"><ele>486.0</ele><time>2026-04-04T08:43:15.768Z</time></trkpt><trkpt lat="43.3601682" lon="11.6626952"><ele>484.0</ele><time>2026-04-04T08:43:16.768Z</time></trkpt><trkpt lat="43.3601574" lon="11.6628527"><ele>482.0</ele><time>2026-04-04T08:43:17.768Z</time></trkpt><trkpt lat="43.3601554" lon="11.6629941"><ele>481.8</ele><time>2026-04-04T08:43:18.768Z</time></trkpt><trkpt lat="43.3601606" lon="11.663112"><ele>481.6</ele><time>2026-04-04T08:43:19.768Z</time></trkpt><trkpt lat="43.3601625" lon="11.6632381"><ele>481.40000000000003</ele><time>2026-04-04T08:43:20.768Z</time></trkpt><trkpt lat="43.3601841" lon="11.6633857"><ele>481.20000000000005</ele><time>2026-04-04T08:43:21.768Z</time></trkpt><trkpt lat="43.360218" lon="11.6635268"><ele>481.0</ele><time>2026-04-04T08:43:22.768Z</time></trkpt><trkpt lat="43.3602601" lon="11.6636552"><ele>479.6666666666667</ele><time>2026-04-04T08:43:23.768Z</time></trkpt><trkpt lat="43.3602935" lon="11.6637743"><ele>478.33333333333337</ele><time>2026-04-04T08:43:24.768Z</time></trkpt><trkpt lat="43.360325" lon="11.6638875"><ele>477.0</ele><time>2026-04-04T08:43:25.768Z</time></trkpt><trkpt lat="43.3603521" lon="11.6639888"><ele>475.66666666666663</ele><time>2026-04-04T08:43:26.768Z</time></trkpt><trkpt lat="43.360379" lon="11.664076"><ele>474.3333333333333</ele><time>2026-04-04T08:43:27.768Z</time></trkpt><trkpt lat="43.3604034" lon="11.6641621"><ele>473.0</ele><time>2026-04-04T08:43:28.768Z</time></trkpt><trkpt lat="43.36045" lon="11.6642408"><ele>472.79999999999995</ele><time>2026-04-04T08:43:29.768Z</time></trkpt><trkpt lat="43.3605341" lon="11.6642988"><ele>472.59999999999997</ele><time>2026-04-04T08:43:30.769Z</time></trkpt><trkpt lat="43.3606292" lon="11.6643637"><ele>472.40000000000003</ele><time>2026-04-04T08:43:31.768Z</time></trkpt><trkpt lat="43.3607118" lon="11.6644462"><ele>472.20000000000005</ele><time>2026-04-04T08:43:32.768Z</time></trkpt><trkpt lat="43.3607836" lon="11.6645416"><ele>472.0</ele><time>2026-04-04T08:43:33.768Z</time></trkpt><trkpt lat="43.3608532" lon="11.6646551"><ele>472.0</ele><time>2026-04-04T08:43:34.768Z</time></trkpt><trkpt lat="43.3609174" lon="11.664778"><ele>472.00000000000006</ele><time>2026-04-04T08:43:35.768Z</time></trkpt><trkpt lat="43.3609753" lon="11.6649047"><ele>472.00000000000006</ele><time>2026-04-04T08:43:36.768Z</time></trkpt><trkpt lat="43.3610348" lon="11.6650261"><ele>472.0</ele><time>2026-04-04T08:43:37.768Z</time></trkpt><trkpt lat="43.3610983" lon="11.6651372"><ele>472.0</ele><time>2026-04-04T08:43:38.768Z</time></trkpt><trkpt lat="43.3611465" lon="11.665235"><ele>470.40000000000003</ele><time>2026-04-04T08:43:39.768Z</time></trkpt><trkpt lat="43.3611521" lon="11.6653722"><ele>468.80000000000007</ele><time>2026-04-04T08:43:41.768Z</time></trkpt><trkpt lat="43.3610718" lon="11.6655303"><ele>467.2</ele><time>2026-04-04T08:43:43.768Z</time></trkpt><trkpt lat="43.3610457" lon="11.6656282"><ele>465.6</ele><time>2026-04-04T08:43:44.768Z</time></trkpt><trkpt lat="43.3610372" lon="11.6657359"><ele>464.0</ele><time>2026-04-04T08:43:45.768Z</time></trkpt><trkpt lat="43.3610446" lon="11.66586"><ele>464.0</ele><time>2026-04-04T08:43:46.768Z</time></trkpt><trkpt lat="43.3610562" lon="11.6660119"><ele>464.0</ele><time>2026-04-04T08:43:47.769Z</time></trkpt><trkpt lat="43.3610655" lon="11.6661684"><ele>464.0</ele><time>2026-04-04T08:43:48.768Z</time></trkpt><trkpt lat="43.3610709" lon="11.6663032"><ele>464.0</ele><time>2026-04-04T08:43:49.768Z</time></trkpt><trkpt lat="43.3610866" lon="11.666433"><ele>464.0</ele><time>2026-04-04T08:43:50.769Z</time></trkpt><trkpt lat="43.3611155" lon="11.6665466"><ele>463.2</ele><time>2026-04-04T08:43:51.768Z</time></trkpt><trkpt lat="43.3611581" lon="11.6666587"><ele>462.4</ele><time>2026-04-04T08:43:52.768Z</time></trkpt><trkpt lat="43.3612175" lon="11.6667663"><ele>461.6</ele><time>2026-04-04T08:43:53.768Z</time></trkpt><trkpt lat="43.361293" lon="11.6668702"><ele>460.8</ele><time>2026-04-04T08:43:54.768Z</time></trkpt><trkpt lat="43.3613696" lon="11.6669592"><ele>460.0</ele><time>2026-04-04T08:43:55.768Z</time></trkpt><trkpt lat="43.3614411" lon="11.6670309"><ele>460.00000000000006</ele><time>2026-04-04T08:43:56.768Z</time></trkpt><trkpt lat="43.3615207" lon="11.6670958"><ele>460.0</ele><time>2026-04-04T08:43:57.768Z</time></trkpt><trkpt lat="43.3615919" lon="11.6671696"><ele>460.0</ele><time>2026-04-04T08:43:58.768Z</time></trkpt><trkpt lat="43.3616475" lon="11.6672529"><ele>460.0</ele><time>2026-04-04T08:43:59.768Z</time></trkpt><trkpt lat="43.3616684" lon="11.6673605"><ele>460.00000000000006</ele><time>2026-04-04T08:44:00.769Z</time></trkpt><trkpt lat="43.3616839" lon="11.6674744"><ele>460.0</ele><time>2026-04-04T08:44:01.768Z</time></trkpt><trkpt lat="43.3617031" lon="11.667592"><ele>460.00000000000006</ele><time>2026-04-04T08:44:02.769Z</time></trkpt><trkpt lat="43.3617182" lon="11.6677082"><ele>460.0</ele><time>2026-04-04T08:44:03.769Z</time></trkpt><trkpt lat="43.3617318" lon="11.6678091"><ele>460.0</ele><time>2026-04-04T08:44:04.768Z</time></trkpt><trkpt lat="43.3617604" lon="11.6679002"><ele>460.0</ele><time>2026-04-04T08:44:05.768Z</time></trkpt><trkpt lat="43.3617992" lon="11.667976"><ele>460.00000000000006</ele><time>2026-04-04T08:44:06.768Z</time></trkpt><trkpt lat="43.3618645" lon="11.6680866"><ele>460.0</ele><time>2026-04-04T08:44:08.768Z</time></trkpt><trkpt lat="43.3618255" lon="11.6682105"><ele>458.4</ele><time>2026-04-04T08:44:10.768Z</time></trkpt><trkpt lat="43.3617075" lon="11.6682742"><ele>456.8</ele><time>2026-04-04T08:44:12.768Z</time></trkpt><trkpt lat="43.3616523" lon="11.6683619"><ele>455.20000000000005</ele><time>2026-04-04T08:44:14.769Z</time></trkpt><trkpt lat="43.3616894" lon="11.6685272"><ele>453.6</ele><time>2026-04-04T08:44:16.768Z</time></trkpt><trkpt lat="43.361708" lon="11.6686227"><ele>452.0</ele><time>2026-04-04T08:44:17.768Z</time></trkpt><trkpt lat="43.3616952" lon="11.6687833"><ele>450.3333333333333</ele><time>2026-04-04T08:44:19.768Z</time></trkpt><trkpt lat="43.3616779" lon="11.6688782"><ele>448.66666666666663</ele><time>2026-04-04T08:44:20.768Z</time></trkpt><trkpt lat="43.3616432" lon="11.6689723"><ele>447.0</ele><time>2026-04-04T08:44:21.768Z</time></trkpt><trkpt lat="43.3615936" lon="11.6690615"><ele>445.33333333333337</ele><time>2026-04-04T08:44:22.768Z</time></trkpt><trkpt lat="43.3615308" lon="11.6691298"><ele>443.6666666666667</ele><time>2026-04-04T08:44:23.768Z</time></trkpt><trkpt lat="43.3614744" lon="11.669199"><ele>442.0</ele><time>2026-04-04T08:44:24.768Z</time></trkpt><trkpt lat="43.3614422" lon="11.6692835"><ele>442.00000000000006</ele><time>2026-04-04T08:44:25.768Z</time></trkpt><trkpt lat="43.3614443" lon="11.6693991"><ele>442.0</ele><time>2026-04-04T08:44:26.768Z</time></trkpt><trkpt lat="43.3614526" lon="11.6695117"><ele>442.0</ele><time>2026-04-04T08:44:27.768Z</time></trkpt><trkpt lat="43.3614572" lon="11.6696197"><ele>442.0</ele><time>2026-04-04T08:44:28.768Z</time></trkpt><trkpt lat="43.3614405" lon="11.669731"><ele>442.00000000000006</ele><time>2026-04-04T08:44:29.768Z</time></trkpt><trkpt lat="43.3613962" lon="11.6698293"><ele>442.0</ele><time>2026-04-04T08:44:30.768Z</time></trkpt><trkpt lat="43.3613458" lon="11.6699046"><ele>440.33333333333337</ele><time>2026-04-04T08:44:31.768Z</time></trkpt><trkpt lat="43.3613009" lon="11.6699658"><ele>438.6666666666667</ele><time>2026-04-04T08:44:32.768Z</time></trkpt><trkpt lat="43.3612655" lon="11.6700931"><ele>437.0</ele><time>2026-04-04T08:44:34.768Z</time></trkpt><trkpt lat="43.3613389" lon="11.6701647"><ele>435.33333333333337</ele><time>2026-04-04T08:44:36.768Z</time></trkpt><trkpt lat="43.3614131" lon="11.6701316"><ele>433.6666666666667</ele><time>2026-04-04T08:44:37.768Z</time></trkpt><trkpt lat="43.3614976" lon="11.6700638"><ele>432.0</ele><time>2026-04-04T08:44:38.768Z</time></trkpt><trkpt lat="43.36158" lon="11.6699677"><ele>432.0</ele><time>2026-04-04T08:44:39.768Z</time></trkpt><trkpt lat="43.3616535" lon="11.6698917"><ele>432.0</ele><time>2026-04-04T08:44:40.768Z</time></trkpt><trkpt lat="43.3617331" lon="11.6698676"><ele>432.0</ele><time>2026-04-04T08:44:41.768Z</time></trkpt><trkpt lat="43.3618057" lon="11.6698744"><ele>432.0</ele><time>2026-04-04T08:44:42.768Z</time></trkpt><trkpt lat="43.3618642" lon="11.6699129"><ele>432.0</ele><time>2026-04-04T08:44:43.768Z</time></trkpt><trkpt lat="43.3619183" lon="11.6700028"><ele>432.0</ele><time>2026-04-04T08:44:44.768Z</time></trkpt><trkpt lat="43.3619686" lon="11.6701041"><ele>432.0</ele><time>2026-04-04T08:44:45.769Z</time></trkpt><trkpt lat="43.3620182" lon="11.6701849"><ele>432.0</ele><time>2026-04-04T08:44:46.768Z</time></trkpt><trkpt lat="43.3620896" lon="11.6702474"><ele>432.0</ele><time>2026-04-04T08:44:47.768Z</time></trkpt><trkpt lat="43.3621776" lon="11.6703118"><ele>432.0</ele><time>2026-04-04T08:44:48.768Z</time></trkpt><trkpt lat="43.3622527" lon="11.6703783"><ele>432.0</ele><time>2026-04-04T08:44:49.768Z</time></trkpt><trkpt lat="43.3623087" lon="11.6704425"><ele>432.0</ele><time>2026-04-04T08:44:50.768Z</time></trkpt><trkpt lat="43.3623865" lon="11.6705336"><ele>430.8</ele><time>2026-04-04T08:44:52.768Z</time></trkpt><trkpt lat="43.3624936" lon="11.6704503"><ele>429.6</ele><time>2026-04-04T08:44:54.768Z</time></trkpt><trkpt lat="43.362549" lon="11.6703196"><ele>428.40000000000003</ele><time>2026-04-04T08:44:55.768Z</time></trkpt><trkpt lat="43.3625775" lon="11.6701856"><ele>427.20000000000005</ele><time>2026-04-04T08:44:56.769Z</time></trkpt><trkpt lat="43.3625957" lon="11.6700673"><ele>426.0</ele><time>2026-04-04T08:44:57.768Z</time></trkpt><trkpt lat="43.3626111" lon="11.6699611"><ele>426.0</ele><time>2026-04-04T08:44:58.768Z</time></trkpt><trkpt lat="43.3626894" lon="11.6698515"><ele>426.0</ele><time>2026-04-04T08:45:00.768Z</time></trkpt><trkpt lat="43.3628246" lon="11.6698511"><ele>426.0</ele><time>2026-04-04T08:45:02.768Z</time></trkpt><trkpt lat="43.3629048" lon="11.6698696"><ele>426.0</ele><time>2026-04-04T08:45:03.768Z</time></trkpt><trkpt lat="43.3629968" lon="11.6698718"><ele>426.0</ele><time>2026-04-04T08:45:04.768Z</time></trkpt><trkpt lat="43.3630927" lon="11.6698501"><ele>425.0</ele><time>2026-04-04T08:45:05.768Z</time></trkpt><trkpt lat="43.3631715" lon="11.6698212"><ele>424.0</ele><time>2026-04-04T08:45:06.768Z</time></trkpt><trkpt lat="43.3632695" lon="11.6698961"><ele>423.0</ele><time>2026-04-04T08:45:08.768Z</time></trkpt><trkpt lat="43.3633137" lon="11.6699601"><ele>422.0</ele><time>2026-04-04T08:45:09.768Z</time></trkpt><trkpt lat="43.3633492" lon="11.6700382"><ele>421.0</ele><time>2026-04-04T08:45:10.768Z</time></trkpt><trkpt lat="43.3633968" lon="11.6701365"><ele>420.0</ele><time>2026-04-04T08:45:12.768Z</time></trkpt><trkpt lat="43.3634553" lon="11.6702369"><ele>418.5</ele><time>2026-04-04T08:45:23.768Z</time></trkpt><trkpt lat="43.3634964" lon="11.6703028"><ele>417.0</ele><time>2026-04-04T08:45:24.768Z</time></trkpt><trkpt lat="43.3635462" lon="11.6703632"><ele>415.5</ele><time>2026-04-04T08:45:25.768Z</time></trkpt><trkpt lat="43.3636421" lon="11.670447"><ele>414.0</ele><time>2026-04-04T08:45:27.768Z</time></trkpt><trkpt lat="43.3637129" lon="11.6705177"><ele>412.5</ele><time>2026-04-04T08:45:29.768Z</time></trkpt><trkpt lat="43.3638062" lon="11.6705803"><ele>411.0</ele><time>2026-04-04T08:45:31.768Z</time></trkpt><trkpt lat="43.3639072" lon="11.6706199"><ele>410.8</ele><time>2026-04-04T08:45:33.768Z</time></trkpt><trkpt lat="43.3640058" lon="11.6707148"><ele>410.6</ele><time>2026-04-04T08:45:35.768Z</time></trkpt><trkpt lat="43.3640538" lon="11.6708079"><ele>410.4</ele><time>2026-04-04T08:45:36.768Z</time></trkpt><trkpt lat="43.364102" lon="11.670911"><ele>410.2</ele><time>2026-04-04T08:45:37.768Z</time></trkpt><trkpt lat="43.364149" lon="11.6710113"><ele>410.0</ele><time>2026-04-04T08:45:38.768Z</time></trkpt><trkpt lat="43.3642066" lon="11.6711282"><ele>410.6</ele><time>2026-04-04T08:45:39.769Z</time></trkpt><trkpt lat="43.3642684" lon="11.6712454"><ele>411.2</ele><time>2026-04-04T08:45:40.768Z</time></trkpt><trkpt lat="43.3643374" lon="11.6713498"><ele>411.79999999999995</ele><time>2026-04-04T08:45:41.768Z</time></trkpt><trkpt lat="43.3643968" lon="11.6714454"><ele>412.4</ele><time>2026-04-04T08:45:42.768Z</time></trkpt><trkpt lat="43.3644551" lon="11.6715336"><ele>413.0</ele><time>2026-04-04T08:45:43.768Z</time></trkpt><trkpt lat="43.3645103" lon="11.6716221"><ele>413.0</ele><time>2026-04-04T08:45:44.769Z</time></trkpt><trkpt lat="43.3645674" lon="11.6717135"><ele>413.0</ele><time>2026-04-04T08:45:45.768Z</time></trkpt><trkpt lat="43.3646269" lon="11.6718113"><ele>413.0</ele><time>2026-04-04T08:45:46.768Z</time></trkpt><trkpt lat="43.3646866" lon="11.6719078"><ele>413.0</ele><time>2026-04-04T08:45:47.768Z</time></trkpt><trkpt lat="43.364751" lon="11.6720252"><ele>413.0</ele><time>2026-04-04T08:45:48.768Z</time></trkpt><trkpt lat="43.3648157" lon="11.672147"><ele>412.59999999999997</ele><time>2026-04-04T08:45:49.769Z</time></trkpt><trkpt lat="43.3648743" lon="11.6722702"><ele>412.2</ele><time>2026-04-04T08:45:50.768Z</time></trkpt><trkpt lat="43.3649206" lon="11.6723742"><ele>411.8</ele><time>2026-04-04T08:45:51.768Z</time></trkpt><trkpt lat="43.364964" lon="11.6724732"><ele>411.4</ele><time>2026-04-04T08:45:52.768Z</time></trkpt><trkpt lat="43.3650043" lon="11.6725732"><ele>411.0</ele><time>2026-04-04T08:45:53.768Z</time></trkpt><trkpt lat="43.3650457" lon="11.6726858"><ele>411.0</ele><time>2026-04-04T08:45:54.768Z</time></trkpt><trkpt lat="43.3650835" lon="11.6728124"><ele>411.0</ele><time>2026-04-04T08:45:55.768Z</time></trkpt><trkpt lat="43.3651244" lon="11.6729228"><ele>411.0</ele><time>2026-04-04T08:45:56.769Z</time></trkpt><trkpt lat="43.3651683" lon="11.6729916"><ele>411.0</ele><time>2026-04-04T08:45:57.768Z</time></trkpt><trkpt lat="43.3652066" lon="11.6730688"><ele>411.0</ele><time>2026-04-04T08:45:59.768Z</time></trkpt><trkpt lat="43.3652611" lon="11.6731631"><ele>411.0</ele><time>2026-04-04T08:46:10.768Z</time></trkpt><trkpt lat="43.3653108" lon="11.6732931"><ele>411.0</ele><time>2026-04-04T08:46:12.768Z</time></trkpt><trkpt lat="43.365358" lon="11.6733537"><ele>411.0</ele><time>2026-04-04T08:46:13.768Z</time></trkpt><trkpt lat="43.3654265" lon="11.673415"><ele>411.0</ele><time>2026-04-04T08:46:14.768Z</time></trkpt><trkpt lat="43.3654946" lon="11.6734615"><ele>411.0</ele><time>2026-04-04T08:46:15.768Z</time></trkpt><trkpt lat="43.3655547" lon="11.6735101"><ele>411.0</ele><time>2026-04-04T08:46:16.768Z</time></trkpt><trkpt lat="43.3656448" lon="11.6736225"><ele>411.0</ele><time>2026-04-04T08:46:18.768Z</time></trkpt><trkpt lat="43.3656745" lon="11.6737154"><ele>409.5</ele><time>2026-04-04T08:46:19.768Z</time></trkpt><trkpt lat="43.3656951" lon="11.673809"><ele>408.0</ele><time>2026-04-04T08:46:20.768Z</time></trkpt><trkpt lat="43.3657154" lon="11.6739192"><ele>406.5</ele><time>2026-04-04T08:46:21.768Z</time></trkpt><trkpt lat="43.3657403" lon="11.6740159"><ele>405.0</ele><time>2026-04-04T08:46:22.768Z</time></trkpt><trkpt lat="43.365783" lon="11.6740996"><ele>403.5</ele><time>2026-04-04T08:46:23.768Z</time></trkpt><trkpt lat="43.3658383" lon="11.6741915"><ele>402.0</ele><time>2026-04-04T08:46:24.768Z</time></trkpt><trkpt lat="43.3659005" lon="11.6743002"><ele>402.0</ele><time>2026-04-04T08:46:25.768Z</time></trkpt><trkpt lat="43.3659564" lon="11.6744096"><ele>402.0</ele><time>2026-04-04T08:46:26.768Z</time></trkpt><trkpt lat="43.3660083" lon="11.6745158"><ele>402.0</ele><time>2026-04-04T08:46:27.769Z</time></trkpt><trkpt lat="43.3660563" lon="11.6746074"><ele>402.0</ele><time>2026-04-04T08:46:28.769Z</time></trkpt><trkpt lat="43.3660914" lon="11.6747047"><ele>402.0</ele><time>2026-04-04T08:46:29.768Z</time></trkpt><trkpt lat="43.3661186" lon="11.6748079"><ele>402.0</ele><time>2026-04-04T08:46:30.768Z</time></trkpt><trkpt lat="43.3661419" lon="11.6749089"><ele>401.3333333333333</ele><time>2026-04-04T08:46:31.768Z</time></trkpt><trkpt lat="43.3661647" lon="11.6750124"><ele>400.66666666666663</ele><time>2026-04-04T08:46:32.768Z</time></trkpt><trkpt lat="43.3661789" lon="11.6751364"><ele>400.0</ele><time>2026-04-04T08:46:33.768Z</time></trkpt><trkpt lat="43.3661874" lon="11.6752594"><ele>399.3333333333333</ele><time>2026-04-04T08:46:34.768Z</time></trkpt><trkpt lat="43.3662048" lon="11.675364"><ele>398.66666666666663</ele><time>2026-04-04T08:46:35.768Z</time></trkpt><trkpt lat="43.3662273" lon="11.6754619"><ele>398.0</ele><time>2026-04-04T08:46:36.768Z</time></trkpt><trkpt lat="43.3662504" lon="11.6755646"><ele>396.1428571428571</ele><time>2026-04-04T08:46:37.768Z</time></trkpt><trkpt lat="43.3662682" lon="11.6756617"><ele>394.2857142857143</ele><time>2026-04-04T08:46:38.768Z</time></trkpt><trkpt lat="43.3662831" lon="11.675773"><ele>392.42857142857144</ele><time>2026-04-04T08:46:39.768Z</time></trkpt><trkpt lat="43.3662946" lon="11.6758922"><ele>390.57142857142856</ele><time>2026-04-04T08:46:40.768Z</time></trkpt><trkpt lat="43.3663094" lon="11.6759897"><ele>388.7142857142857</ele><time>2026-04-04T08:46:41.769Z</time></trkpt><trkpt lat="43.3663308" lon="11.6760754"><ele>386.85714285714283</ele><time>2026-04-04T08:46:42.768Z</time></trkpt><trkpt lat="43.3663581" lon="11.6761575"><ele>385.0</ele><time>2026-04-04T08:46:43.768Z</time></trkpt><trkpt lat="43.3663898" lon="11.6762379"><ele>382.0</ele><time>2026-04-04T08:46:44.768Z</time></trkpt><trkpt lat="43.3664219" lon="11.6763755"><ele>379.0</ele><time>2026-04-04T08:46:46.768Z</time></trkpt><trkpt lat="43.3664161" lon="11.6765018"><ele>376.0</ele><time>2026-04-04T08:46:48.768Z</time></trkpt><trkpt lat="43.3663786" lon="11.6766307"><ele>373.0</ele><time>2026-04-04T08:46:50.768Z</time></trkpt><trkpt lat="43.3663217" lon="11.6767641"><ele>370.0</ele><time>2026-04-04T08:46:52.768Z</time></trkpt><trkpt lat="43.3662566" lon="11.6768742"><ele>367.8333333333333</ele><time>2026-04-04T08:46:54.768Z</time></trkpt><trkpt lat="43.3661981" lon="11.6770103"><ele>365.66666666666663</ele><time>2026-04-04T08:46:56.768Z</time></trkpt><trkpt lat="43.3661673" lon="11.6771016"><ele>363.5</ele><time>2026-04-04T08:46:57.768Z</time></trkpt><trkpt lat="43.3661315" lon="11.6771927"><ele>361.3333333333333</ele><time>2026-04-04T08:46:58.768Z</time></trkpt><trkpt lat="43.3661046" lon="11.6772837"><ele>359.1666666666667</ele><time>2026-04-04T08:46:59.768Z</time></trkpt><trkpt lat="43.3660867" lon="11.677438"><ele>357.0</ele><time>2026-04-04T08:47:01.769Z</time></trkpt><trkpt lat="43.3660782" lon="11.6775251"><ele>357.0</ele><time>2026-04-04T08:47:02.768Z</time></trkpt><trkpt lat="43.3660673" lon="11.6776118"><ele>357.0</ele><time>2026-04-04T08:47:03.768Z</time></trkpt><trkpt lat="43.3660252" lon="11.6777599"><ele>357.0</ele><time>2026-04-04T08:47:05.768Z</time></trkpt><trkpt lat="43.3659732" lon="11.6779164"><ele>357.0</ele><time>2026-04-04T08:47:07.768Z</time></trkpt><trkpt lat="43.3659201" lon="11.6780573"><ele>357.0</ele><time>2026-04-04T08:47:09.768Z</time></trkpt><trkpt lat="43.3658688" lon="11.6782036"><ele>354.25</ele><time>2026-04-04T08:47:11.768Z</time></trkpt><trkpt lat="43.3658259" lon="11.6783636"><ele>351.5</ele><time>2026-04-04T08:47:13.768Z</time></trkpt><trkpt lat="43.3658123" lon="11.6785029"><ele>348.75</ele><time>2026-04-04T08:47:14.768Z</time></trkpt><trkpt lat="43.3657804" lon="11.6786572"><ele>346.0</ele><time>2026-04-04T08:47:15.769Z</time></trkpt><trkpt lat="43.3657508" lon="11.6787993"><ele>344.0</ele><time>2026-04-04T08:47:16.768Z</time></trkpt><trkpt lat="43.3657205" lon="11.6789333"><ele>342.0</ele><time>2026-04-04T08:47:17.768Z</time></trkpt><trkpt lat="43.3656912" lon="11.6790696"><ele>340.0</ele><time>2026-04-04T08:47:18.768Z</time></trkpt><trkpt lat="43.3656644" lon="11.6792007"><ele>338.0</ele><time>2026-04-04T08:47:19.769Z</time></trkpt><trkpt lat="43.3656216" lon="11.6793253"><ele>336.0</ele><time>2026-04-04T08:47:20.768Z</time></trkpt><trkpt lat="43.3655728" lon="11.6794362"><ele>333.3333333333333</ele><time>2026-04-04T08:47:21.768Z</time></trkpt><trkpt lat="43.3655065" lon="11.6795298"><ele>330.6666666666667</ele><time>2026-04-04T08:47:22.768Z</time></trkpt><trkpt lat="43.3654271" lon="11.6796103"><ele>328.0</ele><time>2026-04-04T08:47:23.769Z</time></trkpt><trkpt lat="43.3653513" lon="11.6796904"><ele>325.33333333333337</ele><time>2026-04-04T08:47:24.768Z</time></trkpt><trkpt lat="43.3652931" lon="11.6797714"><ele>322.6666666666667</ele><time>2026-04-04T08:47:25.768Z</time></trkpt><trkpt lat="43.3652544" lon="11.6798487"><ele>320.0</ele><time>2026-04-04T08:47:26.768Z</time></trkpt><trkpt lat="43.3652484" lon="11.6799363"><ele>320.0</ele><time>2026-04-04T08:47:27.768Z</time></trkpt><trkpt lat="43.3652799" lon="11.680019"><ele>320.0</ele><time>2026-04-04T08:47:28.768Z</time></trkpt><trkpt lat="43.3653535" lon="11.6801172"><ele>320.0</ele><time>2026-04-04T08:47:29.768Z</time></trkpt><trkpt lat="43.3654586" lon="11.68022"><ele>320.0</ele><time>2026-04-04T08:47:30.768Z</time></trkpt><trkpt lat="43.3655575" lon="11.680341"><ele>320.0</ele><time>2026-04-04T08:47:31.768Z</time></trkpt><trkpt lat="43.3656456" lon="11.6804739"><ele>318.2</ele><time>2026-04-04T08:47:32.768Z</time></trkpt><trkpt lat="43.3657269" lon="11.6805935"><ele>316.4</ele><time>2026-04-04T08:47:33.768Z</time></trkpt><trkpt lat="43.3657923" lon="11.6806892"><ele>314.6</ele><time>2026-04-04T08:47:34.768Z</time></trkpt><trkpt lat="43.3658333" lon="11.680777"><ele>312.8</ele><time>2026-04-04T08:47:35.768Z</time></trkpt><trkpt lat="43.3658591" lon="11.6808714"><ele>311.0</ele><time>2026-04-04T08:47:36.768Z</time></trkpt><trkpt lat="43.3658595" lon="11.6809989"><ele>308.40000000000003</ele><time>2026-04-04T08:47:37.768Z</time></trkpt><trkpt lat="43.3658646" lon="11.6811372"><ele>305.8</ele><time>2026-04-04T08:47:38.768Z</time></trkpt><trkpt lat="43.3658792" lon="11.6812602"><ele>303.20000000000005</ele><time>2026-04-04T08:47:39.768Z</time></trkpt><trkpt lat="43.3659185" lon="11.6813838"><ele>300.6</ele><time>2026-04-04T08:47:40.768Z</time></trkpt><trkpt lat="43.3659661" lon="11.681493"><ele>298.0</ele><time>2026-04-04T08:47:41.768Z</time></trkpt><trkpt lat="43.3660341" lon="11.6815956"><ele>298.0</ele><time>2026-04-04T08:47:42.769Z</time></trkpt><trkpt lat="43.3661144" lon="11.6816909"><ele>298.0</ele><time>2026-04-04T08:47:43.768Z</time></trkpt><trkpt lat="43.3661952" lon="11.681797"><ele>298.0</ele><time>2026-04-04T08:47:44.768Z</time></trkpt><trkpt lat="43.3662719" lon="11.6819083"><ele>298.0</ele><time>2026-04-04T08:47:45.768Z</time></trkpt><trkpt lat="43.3663274" lon="11.682007"><ele>298.0</ele><time>2026-04-04T08:47:46.768Z</time></trkpt><trkpt lat="43.3663807" lon="11.6820957"><ele>296.5</ele><time>2026-04-04T08:47:47.768Z</time></trkpt><trkpt lat="43.3664172" lon="11.6821672"><ele>295.0</ele><time>2026-04-04T08:47:48.768Z</time></trkpt><trkpt lat="43.3664437" lon="11.6822539"><ele>293.5</ele><time>2026-04-04T08:47:51.769Z</time></trkpt><trkpt lat="43.3665473" lon="11.6822115"><ele>292.0</ele><time>2026-04-04T08:49:12.769Z</time></trkpt><trkpt lat="43.3665932" lon="11.6821314"><ele>290.5</ele><time>2026-04-04T08:49:13.768Z</time></trkpt><trkpt lat="43.3666545" lon="11.6820405"><ele>289.0</ele><time>2026-04-04T08:49:14.768Z</time></trkpt><trkpt lat="43.3667292" lon="11.6819532"><ele>291.0</ele><time>2026-04-04T08:49:15.768Z</time></trkpt><trkpt lat="43.3668155" lon="11.6818567"><ele>293.0</ele><time>2026-04-04T08:49:16.768Z</time></trkpt><trkpt lat="43.3669064" lon="11.6817587"><ele>295.0</ele><time>2026-04-04T08:49:17.768Z</time></trkpt><trkpt lat="43.3669991" lon="11.6816607"><ele>297.0</ele><time>2026-04-04T08:49:18.768Z</time></trkpt><trkpt lat="43.3670961" lon="11.6815582"><ele>294.75</ele><time>2026-04-04T08:49:19.769Z</time></trkpt><trkpt lat="43.3671955" lon="11.6814469"><ele>292.5</ele><time>2026-04-04T08:49:20.769Z</time></trkpt><trkpt lat="43.367289" lon="11.6813383"><ele>290.25</ele><time>2026-04-04T08:49:21.768Z</time></trkpt><trkpt lat="43.3673838" lon="11.6812324"><ele>288.0</ele><time>2026-04-04T08:49:22.769Z</time></trkpt><trkpt lat="43.367479" lon="11.6811283"><ele>290.75</ele><time>2026-04-04T08:49:23.768Z</time></trkpt><trkpt lat="43.3675858" lon="11.6810105"><ele>293.5</ele><time>2026-04-04T08:49:24.769Z</time></trkpt><trkpt lat="43.367701" lon="11.6808812"><ele>296.25</ele><time>2026-04-04T08:49:25.768Z</time></trkpt><trkpt lat="43.3678146" lon="11.6807395"><ele>299.0</ele><time>2026-04-04T08:49:26.768Z</time></trkpt><trkpt lat="43.3679194" lon="11.6805899"><ele>299.0</ele><time>2026-04-04T08:49:27.769Z</time></trkpt><trkpt lat="43.3680165" lon="11.6804229"><ele>299.0</ele><time>2026-04-04T08:49:28.768Z</time></trkpt><trkpt lat="43.3680977" lon="11.680239"><ele>299.0</ele><time>2026-04-04T08:49:29.768Z</time></trkpt><trkpt lat="43.3681621" lon="11.6800404"><ele>297.0</ele><time>2026-04-04T08:49:30.768Z</time></trkpt><trkpt lat="43.3682219" lon="11.6798284"><ele>295.0</ele><time>2026-04-04T08:49:31.768Z</time></trkpt><trkpt lat="43.3682726" lon="11.6796278"><ele>293.0</ele><time>2026-04-04T08:49:32.768Z</time></trkpt><trkpt lat="43.3683272" lon="11.6794352"><ele>295.0</ele><time>2026-04-04T08:49:33.768Z</time></trkpt><trkpt lat="43.368368" lon="11.6792389"><ele>297.0</ele><time>2026-04-04T08:49:34.768Z</time></trkpt><trkpt lat="43.368396" lon="11.6790357"><ele>299.0</ele><time>2026-04-04T08:49:35.768Z</time></trkpt><trkpt lat="43.3684096" lon="11.6788183"><ele>300.0</ele><time>2026-04-04T08:49:36.768Z</time></trkpt><trkpt lat="43.3684052" lon="11.678594"><ele>301.0</ele><time>2026-04-04T08:49:37.768Z</time></trkpt><trkpt lat="43.3683893" lon="11.6783675"><ele>302.0</ele><time>2026-04-04T08:49:38.768Z</time></trkpt><trkpt lat="43.3683611" lon="11.6781338"><ele>302.0</ele><time>2026-04-04T08:49:39.768Z</time></trkpt><trkpt lat="43.3683278" lon="11.6779156"><ele>302.0</ele><time>2026-04-04T08:49:40.768Z</time></trkpt><trkpt lat="43.368297" lon="11.6777055"><ele>302.0</ele><time>2026-04-04T08:49:41.768Z</time></trkpt><trkpt lat="43.3682663" lon="11.6775035"><ele>301.5</ele><time>2026-04-04T08:49:42.768Z</time></trkpt><trkpt lat="43.3682386" lon="11.6773084"><ele>301.0</ele><time>2026-04-04T08:49:43.768Z</time></trkpt><trkpt lat="43.3682225" lon="11.6771141"><ele>300.5</ele><time>2026-04-04T08:49:44.768Z</time></trkpt><trkpt lat="43.3682196" lon="11.6769222"><ele>300.0</ele><time>2026-04-04T08:49:45.769Z</time></trkpt><trkpt lat="43.3682384" lon="11.6767137"><ele>299.6666666666667</ele><time>2026-04-04T08:49:46.768Z</time></trkpt><trkpt lat="43.3682779" lon="11.6764918"><ele>299.33333333333337</ele><time>2026-04-04T08:49:47.769Z</time></trkpt><trkpt lat="43.3683299" lon="11.6762538"><ele>299.0</ele><time>2026-04-04T08:49:48.769Z</time></trkpt><trkpt lat="43.3683874" lon="11.6760182"><ele>300.0</ele><time>2026-04-04T08:49:49.768Z</time></trkpt><trkpt lat="43.3684624" lon="11.6757985"><ele>301.0</ele><time>2026-04-04T08:49:50.769Z</time></trkpt><trkpt lat="43.368561" lon="11.6755848"><ele>302.0</ele><time>2026-04-04T08:49:51.768Z</time></trkpt><trkpt lat="43.3686818" lon="11.6753692"><ele>300.0</ele><time>2026-04-04T08:49:52.769Z</time></trkpt><trkpt lat="43.3687994" lon="11.6751641"><ele>298.0</ele><time>2026-04-04T08:49:53.769Z</time></trkpt><trkpt lat="43.3689093" lon="11.6749715"><ele>296.0</ele><time>2026-04-04T08:49:54.768Z</time></trkpt><trkpt lat="43.3690169" lon="11.674791"><ele>296.0</ele><time>2026-04-04T08:49:55.769Z</time></trkpt><trkpt lat="43.3691292" lon="11.6746025"><ele>296.0</ele><time>2026-04-04T08:49:56.768Z</time></trkpt><trkpt lat="43.3692382" lon="11.6744059"><ele>296.0</ele><time>2026-04-04T08:49:57.768Z</time></trkpt><trkpt lat="43.3693439" lon="11.6742159"><ele>299.33333333333337</ele><time>2026-04-04T08:49:58.768Z</time></trkpt><trkpt lat="43.3694442" lon="11.6740306"><ele>302.6666666666667</ele><time>2026-04-04T08:49:59.769Z</time></trkpt><trkpt lat="43.3695574" lon="11.6738574"><ele>306.0</ele><time>2026-04-04T08:50:00.768Z</time></trkpt><trkpt lat="43.3696635" lon="11.6736781"><ele>302.0</ele><time>2026-04-04T08:50:01.768Z</time></trkpt><trkpt lat="43.3697583" lon="11.6734959"><ele>298.0</ele><time>2026-04-04T08:50:02.768Z</time></trkpt><trkpt lat="43.3698497" lon="11.6733041"><ele>294.0</ele><time>2026-04-04T08:50:03.768Z</time></trkpt><trkpt lat="43.369934" lon="11.6731131"><ele>294.0</ele><time>2026-04-04T08:50:04.768Z</time></trkpt><trkpt lat="43.3699977" lon="11.6728912"><ele>294.0</ele><time>2026-04-04T08:50:05.768Z</time></trkpt><trkpt lat="43.3700381" lon="11.672664"><ele>294.0</ele><time>2026-04-04T08:50:06.768Z</time></trkpt><trkpt lat="43.3700666" lon="11.672436"><ele>294.0</ele><time>2026-04-04T08:50:07.768Z</time></trkpt><trkpt lat="43.3700904" lon="11.6722023"><ele>294.0</ele><time>2026-04-04T08:50:08.768Z</time></trkpt><trkpt lat="43.3701131" lon="11.6719702"><ele>294.0</ele><time>2026-04-04T08:50:09.768Z</time></trkpt><trkpt lat="43.3701285" lon="11.6717438"><ele>296.6666666666667</ele><time>2026-04-04T08:50:10.768Z</time></trkpt><trkpt lat="43.3701373" lon="11.6715247"><ele>299.33333333333337</ele><time>2026-04-04T08:50:11.768Z</time></trkpt><trkpt lat="43.3701298" lon="11.6713098"><ele>302.0</ele><time>2026-04-04T08:50:12.768Z</time></trkpt><trkpt lat="43.3700881" lon="11.6710987"><ele>302.0</ele><time>2026-04-04T08:50:13.768Z</time></trkpt><trkpt lat="43.3700186" lon="11.6708878"><ele>302.0</ele><time>2026-04-04T08:50:14.768Z</time></trkpt><trkpt lat="43.3699234" lon="11.6706842"><ele>302.0</ele><time>2026-04-04T08:50:15.768Z</time></trkpt><trkpt lat="43.3697998" lon="11.6705002"><ele>303.0</ele><time>2026-04-04T08:50:16.768Z</time></trkpt><trkpt lat="43.3696818" lon="11.670339"><ele>304.0</ele><time>2026-04-04T08:50:17.768Z</time></trkpt><trkpt lat="43.3695691" lon="11.6702168"><ele>305.0</ele><time>2026-04-04T08:50:18.768Z</time></trkpt><trkpt lat="43.3694369" lon="11.6701114"><ele>305.0</ele><time>2026-04-04T08:50:19.768Z</time></trkpt><trkpt lat="43.3692936" lon="11.6700291"><ele>305.0</ele><time>2026-04-04T08:50:20.768Z</time></trkpt><trkpt lat="43.3691474" lon="11.6699476"><ele>305.0</ele><time>2026-04-04T08:50:21.768Z</time></trkpt><trkpt lat="43.3690064" lon="11.6698686"><ele>305.0</ele><time>2026-04-04T08:50:22.768Z</time></trkpt><trkpt lat="43.3688802" lon="11.6697751"><ele>305.0</ele><time>2026-04-04T08:50:23.768Z</time></trkpt><trkpt lat="43.3687765" lon="11.6696572"><ele>305.0</ele><time>2026-04-04T08:50:24.768Z</time></trkpt><trkpt lat="43.3687026" lon="11.669511"><ele>305.0</ele><time>2026-04-04T08:50:25.768Z</time></trkpt><trkpt lat="43.3686679" lon="11.6693458"><ele>306.75</ele><time>2026-04-04T08:50:26.768Z</time></trkpt><trkpt lat="43.3686666" lon="11.6691723"><ele>308.5</ele><time>2026-04-04T08:50:27.769Z</time></trkpt><trkpt lat="43.3686994" lon="11.6689931"><ele>310.25</ele><time>2026-04-04T08:50:28.768Z</time></trkpt><trkpt lat="43.3687499" lon="11.6688134"><ele>312.0</ele><time>2026-04-04T08:50:29.768Z</time></trkpt><trkpt lat="43.3688149" lon="11.6686135"><ele>309.0</ele><time>2026-04-04T08:50:30.768Z</time></trkpt><trkpt lat="43.3688707" lon="11.668398"><ele>306.0</ele><time>2026-04-04T08:50:31.768Z</time></trkpt><trkpt lat="43.3689217" lon="11.6681866"><ele>303.0</ele><time>2026-04-04T08:50:32.768Z</time></trkpt><trkpt lat="43.3689531" lon="11.6679742"><ele>303.3333333333333</ele><time>2026-04-04T08:50:33.768Z</time></trkpt><trkpt lat="43.368965" lon="11.6677499"><ele>303.66666666666663</ele><time>2026-04-04T08:50:34.768Z</time></trkpt><trkpt lat="43.3689587" lon="11.6675171"><ele>304.0</ele><time>2026-04-04T08:50:35.768Z</time></trkpt><trkpt lat="43.3689454" lon="11.6672759"><ele>304.0</ele><time>2026-04-04T08:50:36.768Z</time></trkpt><trkpt lat="43.3689403" lon="11.667043"><ele>304.0</ele><time>2026-04-04T08:50:37.768Z</time></trkpt><trkpt lat="43.3689564" lon="11.6668112"><ele>304.0</ele><time>2026-04-04T08:50:38.768Z</time></trkpt><trkpt lat="43.3689862" lon="11.666591"><ele>304.66666666666663</ele><time>2026-04-04T08:50:39.768Z</time></trkpt><trkpt lat="43.3690337" lon="11.6663702"><ele>305.3333333333333</ele><time>2026-04-04T08:50:40.768Z</time></trkpt><trkpt lat="43.369104" lon="11.6661412"><ele>306.0</ele><time>2026-04-04T08:50:41.768Z</time></trkpt><trkpt lat="43.3691805" lon="11.6659166"><ele>307.6666666666667</ele><time>2026-04-04T08:50:42.768Z</time></trkpt><trkpt lat="43.3692566" lon="11.6656913"><ele>309.33333333333337</ele><time>2026-04-04T08:50:43.768Z</time></trkpt><trkpt lat="43.369333" lon="11.6654655"><ele>311.0</ele><time>2026-04-04T08:50:44.768Z</time></trkpt><trkpt lat="43.3694053" lon="11.6652383"><ele>316.0</ele><time>2026-04-04T08:50:45.768Z</time></trkpt><trkpt lat="43.3694696" lon="11.6650145"><ele>321.0</ele><time>2026-04-04T08:50:46.768Z</time></trkpt><trkpt lat="43.3695193" lon="11.6647974"><ele>326.0</ele><time>2026-04-04T08:50:47.768Z</time></trkpt><trkpt lat="43.3695503" lon="11.6645726"><ele>328.0</ele><time>2026-04-04T08:50:48.768Z</time></trkpt><trkpt lat="43.3695673" lon="11.6643314"><ele>330.0</ele><time>2026-04-04T08:50:49.769Z</time></trkpt><trkpt lat="43.3695717" lon="11.6640739"><ele>332.0</ele><time>2026-04-04T08:50:50.768Z</time></trkpt><trkpt lat="43.3695612" lon="11.6638193"><ele>332.0</ele><time>2026-04-04T08:50:51.768Z</time></trkpt><trkpt lat="43.3695275" lon="11.6635556"><ele>332.0</ele><time>2026-04-04T08:50:52.768Z</time></trkpt><trkpt lat="43.3694796" lon="11.6632829"><ele>332.0</ele><time>2026-04-04T08:50:53.768Z</time></trkpt><trkpt lat="43.3694373" lon="11.663022"><ele>332.0</ele><time>2026-04-04T08:50:54.768Z</time></trkpt><trkpt lat="43.369395" lon="11.662828"><ele>332.0</ele><time>2026-04-04T08:50:55.768Z</time></trkpt><trkpt lat="43.369376" lon="11.6626828"><ele>332.0</ele><time>2026-04-04T08:50:56.768Z</time></trkpt><trkpt lat="43.3693634" lon="11.6625714"><ele>332.0</ele><time>2026-04-04T08:50:57.768Z</time></trkpt><trkpt lat="43.3693488" lon="11.6624792"><ele>332.0</ele><time>2026-04-04T08:50:58.768Z</time></trkpt><trkpt lat="43.3693351" lon="11.6623649"><ele>331.0</ele><time>2026-04-04T08:51:00.768Z</time></trkpt><trkpt lat="43.3693351" lon="11.6622763"><ele>330.0</ele><time>2026-04-04T08:51:02.768Z</time></trkpt><trkpt lat="43.3693594" lon="11.6621939"><ele>329.0</ele><time>2026-04-04T08:51:07.768Z</time></trkpt><trkpt lat="43.3693416" lon="11.6622888"><ele>328.0</ele><time>2026-04-04T08:52:20.768Z</time></trkpt><trkpt lat="43.3693438" lon="11.6621996"><ele>327.0</ele><time>2026-04-04T08:54:46.829Z</time></trkpt><trkpt lat="43.3693433" lon="11.6619941"><ele>326.0</ele><time>2026-04-04T08:54:56.768Z</time></trkpt><trkpt lat="43.3693221" lon="11.661867"><ele>326.0</ele><time>2026-04-04T08:54:57.768Z</time></trkpt><trkpt lat="43.3693098" lon="11.6617279"><ele>326.0</ele><time>2026-04-04T08:54:58.768Z</time></trkpt><trkpt lat="43.3693047" lon="11.661571"><ele>326.0</ele><time>2026-04-04T08:54:59.768Z</time></trkpt><trkpt lat="43.3693053" lon="11.66141"><ele>326.0</ele><time>2026-04-04T08:55:00.769Z</time></trkpt><trkpt lat="43.3693126" lon="11.6612501"><ele>328.5</ele><time>2026-04-04T08:55:01.768Z</time></trkpt><trkpt lat="43.3693369" lon="11.6610878"><ele>331.0</ele><time>2026-04-04T08:55:02.768Z</time></trkpt><trkpt lat="43.3693769" lon="11.660926"><ele>333.5</ele><time>2026-04-04T08:55:03.768Z</time></trkpt><trkpt lat="43.3694281" lon="11.6607587"><ele>336.0</ele><time>2026-04-04T08:55:04.768Z</time></trkpt><trkpt lat="43.3694977" lon="11.6605866"><ele>336.0</ele><time>2026-04-04T08:55:05.768Z</time></trkpt><trkpt lat="43.3695722" lon="11.6604146"><ele>336.0</ele><time>2026-04-04T08:55:06.768Z</time></trkpt><trkpt lat="43.3696458" lon="11.6602465"><ele>336.0</ele><time>2026-04-04T08:55:07.768Z</time></trkpt><trkpt lat="43.3697152" lon="11.6600819"><ele>336.0</ele><time>2026-04-04T08:55:08.768Z</time></trkpt><trkpt lat="43.3697841" lon="11.65992"><ele>335.25</ele><time>2026-04-04T08:55:09.769Z</time></trkpt><trkpt lat="43.3698587" lon="11.6597556"><ele>334.5</ele><time>2026-04-04T08:55:10.768Z</time></trkpt><trkpt lat="43.3699427" lon="11.6596103"><ele>333.75</ele><time>2026-04-04T08:55:11.768Z</time></trkpt><trkpt lat="43.3700491" lon="11.659484"><ele>333.0</ele><time>2026-04-04T08:55:12.768Z</time></trkpt><trkpt lat="43.3701665" lon="11.659372"><ele>333.0</ele><time>2026-04-04T08:55:13.768Z</time></trkpt><trkpt lat="43.3702966" lon="11.6592708"><ele>333.0</ele><time>2026-04-04T08:55:14.769Z</time></trkpt><trkpt lat="43.3704174" lon="11.6591716"><ele>333.0</ele><time>2026-04-04T08:55:15.768Z</time></trkpt><trkpt lat="43.3705326" lon="11.6590586"><ele>333.0</ele><time>2026-04-04T08:55:16.768Z</time></trkpt><trkpt lat="43.3706391" lon="11.6589393"><ele>333.0</ele><time>2026-04-04T08:55:17.768Z</time></trkpt><trkpt lat="43.3707308" lon="11.6588159"><ele>333.0</ele><time>2026-04-04T08:55:18.768Z</time></trkpt><trkpt lat="43.3708201" lon="11.6586883"><ele>333.0</ele><time>2026-04-04T08:55:19.768Z</time></trkpt><trkpt lat="43.3709019" lon="11.6585575"><ele>333.0</ele><time>2026-04-04T08:55:20.769Z</time></trkpt><trkpt lat="43.3709886" lon="11.6584372"><ele>333.0</ele><time>2026-04-04T08:55:21.769Z</time></trkpt><trkpt lat="43.3710821" lon="11.658338"><ele>333.0</ele><time>2026-04-04T08:55:22.768Z</time></trkpt><trkpt lat="43.3711755" lon="11.6582559"><ele>333.0</ele><time>2026-04-04T08:55:23.768Z</time></trkpt><trkpt lat="43.3712624" lon="11.6581805"><ele>333.0</ele><time>2026-04-04T08:55:24.768Z</time></trkpt><trkpt lat="43.3713447" lon="11.658117"><ele>333.0</ele><time>2026-04-04T08:55:25.768Z</time></trkpt><trkpt lat="43.3714338" lon="11.6580773"><ele>330.4</ele><time>2026-04-04T08:55:26.768Z</time></trkpt><trkpt lat="43.3715343" lon="11.6580839"><ele>327.79999999999995</ele><time>2026-04-04T08:55:27.768Z</time></trkpt><trkpt lat="43.3716198" lon="11.6581386"><ele>325.2</ele><time>2026-04-04T08:55:28.768Z</time></trkpt><trkpt lat="43.371687" lon="11.6581885"><ele>322.6</ele><time>2026-04-04T08:55:29.768Z</time></trkpt><trkpt lat="43.3718007" lon="11.6582144"><ele>320.0</ele><time>2026-04-04T08:55:31.768Z</time></trkpt><trkpt lat="43.3718736" lon="11.6581408"><ele>320.0</ele><time>2026-04-04T08:55:34.768Z</time></trkpt><trkpt lat="43.3719089" lon="11.6580517"><ele>320.0</ele><time>2026-04-04T08:55:37.768Z</time></trkpt><trkpt lat="43.371982" lon="11.6578438"><ele>320.0</ele><time>2026-04-04T08:55:57.768Z</time></trkpt><trkpt lat="43.3720244" lon="11.657694"><ele>320.0</ele><time>2026-04-04T08:55:59.768Z</time></trkpt><trkpt lat="43.3720714" lon="11.6575674"><ele>321.6666666666667</ele><time>2026-04-04T08:56:01.768Z</time></trkpt><trkpt lat="43.3721321" lon="11.6574574"><ele>323.33333333333337</ele><time>2026-04-04T08:56:03.768Z</time></trkpt><trkpt lat="43.3721685" lon="11.6573711"><ele>325.0</ele><time>2026-04-04T08:56:05.768Z</time></trkpt><trkpt lat="43.3722048" lon="11.6572643"><ele>326.6666666666667</ele><time>2026-04-04T08:56:07.768Z</time></trkpt><trkpt lat="43.3722356" lon="11.6571765"><ele>328.3333333333333</ele><time>2026-04-04T08:56:09.768Z</time></trkpt><trkpt lat="43.3722946" lon="11.6570992"><ele>330.0</ele><time>2026-04-04T08:56:12.768Z</time></trkpt><trkpt lat="43.3723312" lon="11.6569794"><ele>331.0</ele><time>2026-04-04T08:56:16.768Z</time></trkpt><trkpt lat="43.3723566" lon="11.6568492"><ele>332.0</ele><time>2026-04-04T08:56:18.769Z</time></trkpt><trkpt lat="43.3723927" lon="11.6567125"><ele>333.0</ele><time>2026-04-04T08:56:20.768Z</time></trkpt><trkpt lat="43.372425" lon="11.6565669"><ele>334.0</ele><time>2026-04-04T08:56:22.768Z</time></trkpt><trkpt lat="43.3724681" lon="11.6564343"><ele>335.0</ele><time>2026-04-04T08:56:24.768Z</time></trkpt><trkpt lat="43.3724987" lon="11.6563473"><ele>335.0</ele><time>2026-04-04T08:56:26.768Z</time></trkpt><trkpt lat="43.372569" lon="11.6562633"><ele>335.0</ele><time>2026-04-04T08:56:28.768Z</time></trkpt><trkpt lat="43.3726442" lon="11.6561709"><ele>335.0</ele><time>2026-04-04T08:56:30.768Z</time></trkpt><trkpt lat="43.3727011" lon="11.6561087"><ele>335.0</ele><time>2026-04-04T08:56:43.768Z</time></trkpt><trkpt lat="43.372747" lon="11.6560486"><ele>335.0</ele><time>2026-04-04T08:56:49.768Z</time></trkpt><trkpt lat="43.3727035" lon="11.6561166"><ele>335.0</ele><time>2026-04-04T08:57:03.768Z</time></trkpt><trkpt lat="43.3726429" lon="11.6561931"><ele>335.0</ele><time>2026-04-04T08:57:05.768Z</time></trkpt><trkpt lat="43.3725644" lon="11.6562605"><ele>335.0</ele><time>2026-04-04T08:57:07.769Z</time></trkpt><trkpt lat="43.3724955" lon="11.6563577"><ele>335.0</ele><time>2026-04-04T08:57:09.768Z</time></trkpt><trkpt lat="43.3724452" lon="11.6564702"><ele>335.0</ele><time>2026-04-04T08:57:11.768Z</time></trkpt><trkpt lat="43.3724041" lon="11.6566101"><ele>335.0</ele><time>2026-04-04T08:57:13.768Z</time></trkpt><trkpt lat="43.3723764" lon="11.6567477"><ele>335.0</ele><time>2026-04-04T08:57:15.768Z</time></trkpt><trkpt lat="43.3723339" lon="11.6568872"><ele>335.0</ele><time>2026-04-04T08:57:17.768Z</time></trkpt><trkpt lat="43.3723194" lon="11.6570106"><ele>335.0</ele><time>2026-04-04T08:57:19.768Z</time></trkpt><trkpt lat="43.3722953" lon="11.6571069"><ele>335.0</ele><time>2026-04-04T08:57:22.768Z</time></trkpt><trkpt lat="43.3722312" lon="11.6571897"><ele>335.0</ele><time>2026-04-04T08:57:24.768Z</time></trkpt><trkpt lat="43.3721923" lon="11.6573198"><ele>334.0</ele><time>2026-04-04T08:57:26.768Z</time></trkpt><trkpt lat="43.3721594" lon="11.657435"><ele>333.0</ele><time>2026-04-04T08:57:28.768Z</time></trkpt><trkpt lat="43.3721106" lon="11.657548"><ele>332.0</ele><time>2026-04-04T08:57:30.768Z</time></trkpt><trkpt lat="43.3720409" lon="11.6576664"><ele>331.0</ele><time>2026-04-04T08:57:32.768Z</time></trkpt><trkpt lat="43.3720111" lon="11.657787"><ele>330.0</ele><time>2026-04-04T08:57:34.769Z</time></trkpt><trkpt lat="43.372005" lon="11.657905"><ele>328.3333333333333</ele><time>2026-04-04T08:57:36.768Z</time></trkpt><trkpt lat="43.3719903" lon="11.6579948"><ele>326.6666666666667</ele><time>2026-04-04T08:57:38.768Z</time></trkpt><trkpt lat="43.3719348" lon="11.6580792"><ele>325.0</ele><time>2026-04-04T08:57:40.768Z</time></trkpt><trkpt lat="43.3718789" lon="11.658159"><ele>323.33333333333337</ele><time>2026-04-04T08:57:42.768Z</time></trkpt><trkpt lat="43.37191" lon="11.6582637"><ele>321.6666666666667</ele><time>2026-04-04T08:57:46.768Z</time></trkpt><trkpt lat="43.3719798" lon="11.6583094"><ele>320.0</ele><time>2026-04-04T08:57:48.768Z</time></trkpt><trkpt lat="43.3720506" lon="11.6583382"><ele>320.0</ele><time>2026-04-04T08:57:50.768Z</time></trkpt><trkpt lat="43.3721188" lon="11.6582706"><ele>320.0</ele><time>2026-04-04T08:57:52.769Z</time></trkpt><trkpt lat="43.3721468" lon="11.6581518"><ele>320.0</ele><time>2026-04-04T08:57:54.769Z</time></trkpt><trkpt lat="43.3721958" lon="11.6580802"><ele>320.0</ele><time>2026-04-04T08:57:56.769Z</time></trkpt><trkpt lat="43.372279" lon="11.6581029"><ele>320.0</ele><time>2026-04-04T08:57:58.768Z</time></trkpt><trkpt lat="43.3723453" lon="11.6581507"><ele>320.0</ele><time>2026-04-04T08:57:59.768Z</time></trkpt><trkpt lat="43.3724081" lon="11.6580732"><ele>320.6666666666667</ele><time>2026-04-04T08:58:02.768Z</time></trkpt><trkpt lat="43.3724389" lon="11.6579484"><ele>321.33333333333337</ele><time>2026-04-04T08:58:04.768Z</time></trkpt><trkpt lat="43.3724701" lon="11.6578715"><ele>322.0</ele><time>2026-04-04T08:58:06.768Z</time></trkpt><trkpt lat="43.3725551" lon="11.6578218"><ele>322.6666666666667</ele><time>2026-04-04T08:58:09.769Z</time></trkpt><trkpt lat="43.3726425" lon="11.6577709"><ele>323.3333333333333</ele><time>2026-04-04T08:58:11.768Z</time></trkpt><trkpt lat="43.372712" lon="11.657671"><ele>324.0</ele><time>2026-04-04T08:58:13.768Z</time></trkpt><trkpt lat="43.3727716" lon="11.6575897"><ele>325.1666666666667</ele><time>2026-04-04T08:58:15.768Z</time></trkpt><trkpt lat="43.372812" lon="11.6575088"><ele>326.3333333333333</ele><time>2026-04-04T08:58:17.768Z</time></trkpt><trkpt lat="43.3728055" lon="11.6573618"><ele>327.5</ele><time>2026-04-04T08:58:19.768Z</time></trkpt><trkpt lat="43.3728403" lon="11.6572841"><ele>328.66666666666663</ele><time>2026-04-04T08:58:21.768Z</time></trkpt><trkpt lat="43.3729166" lon="11.6572415"><ele>329.8333333333333</ele><time>2026-04-04T08:58:23.768Z</time></trkpt><trkpt lat="43.3729745" lon="11.6572062"><ele>331.0</ele><time>2026-04-04T08:58:25.768Z</time></trkpt><trkpt lat="43.3729889" lon="11.6570929"><ele>331.0</ele><time>2026-04-04T08:58:27.768Z</time></trkpt><trkpt lat="43.3730032" lon="11.6569723"><ele>331.0</ele><time>2026-04-04T08:58:29.769Z</time></trkpt><trkpt lat="43.3730345" lon="11.6568718"><ele>331.0</ele><time>2026-04-04T08:58:31.768Z</time></trkpt><trkpt lat="43.3730632" lon="11.65678"><ele>331.0</ele><time>2026-04-04T08:58:33.768Z</time></trkpt><trkpt lat="43.373121" lon="11.6567257"><ele>331.0</ele><time>2026-04-04T08:58:35.813Z</time></trkpt><trkpt lat="43.3731774" lon="11.6566683"><ele>331.0</ele><time>2026-04-04T08:58:37.746Z</time></trkpt><trkpt lat="43.3732192" lon="11.6565119"><ele>335.0</ele><time>2026-04-04T08:58:39.768Z</time></trkpt><trkpt lat="43.3732974" lon="11.6563911"><ele>339.0</ele><time>2026-04-04T08:58:41.768Z</time></trkpt><trkpt lat="43.3733904" lon="11.6563268"><ele>343.0</ele><time>2026-04-04T08:58:43.768Z</time></trkpt><trkpt lat="43.3734967" lon="11.6563233"><ele>347.0</ele><time>2026-04-04T08:58:45.768Z</time></trkpt><trkpt lat="43.3735808" lon="11.6562787"><ele>351.0</ele><time>2026-04-04T08:58:47.768Z</time></trkpt><trkpt lat="43.3736676" lon="11.6561707"><ele>351.20000000000005</ele><time>2026-04-04T08:58:49.768Z</time></trkpt><trkpt lat="43.3737663" lon="11.6560604"><ele>351.40000000000003</ele><time>2026-04-04T08:58:51.768Z</time></trkpt><trkpt lat="43.3738073" lon="11.6559875"><ele>351.6</ele><time>2026-04-04T08:58:52.768Z</time></trkpt><trkpt lat="43.3738715" lon="11.655886"><ele>351.8</ele><time>2026-04-04T08:58:54.768Z</time></trkpt><trkpt lat="43.3739088" lon="11.6557701"><ele>352.0</ele><time>2026-04-04T08:58:56.768Z</time></trkpt><trkpt lat="43.3739656" lon="11.6556632"><ele>354.3333333333333</ele><time>2026-04-04T08:58:58.768Z</time></trkpt><trkpt lat="43.3740093" lon="11.6555379"><ele>356.66666666666663</ele><time>2026-04-04T08:59:00.768Z</time></trkpt><trkpt lat="43.3740865" lon="11.6554082"><ele>359.0</ele><time>2026-04-04T08:59:02.768Z</time></trkpt><trkpt lat="43.3741381" lon="11.6553332"><ele>361.3333333333333</ele><time>2026-04-04T08:59:03.768Z</time></trkpt><trkpt lat="43.3741892" lon="11.6552614"><ele>363.6666666666667</ele><time>2026-04-04T08:59:04.768Z</time></trkpt><trkpt lat="43.3742339" lon="11.6551873"><ele>366.0</ele><time>2026-04-04T08:59:05.769Z</time></trkpt><trkpt lat="43.3742738" lon="11.6551134"><ele>367.6</ele><time>2026-04-04T08:59:06.768Z</time></trkpt><trkpt lat="43.3743161" lon="11.6550435"><ele>369.20000000000005</ele><time>2026-04-04T08:59:07.768Z</time></trkpt><trkpt lat="43.3744174" lon="11.6549552"><ele>370.79999999999995</ele><time>2026-04-04T08:59:09.768Z</time></trkpt><trkpt lat="43.3745035" lon="11.6548653"><ele>372.4</ele><time>2026-04-04T08:59:11.768Z</time></trkpt><trkpt lat="43.3745532" lon="11.654735"><ele>374.0</ele><time>2026-04-04T08:59:13.768Z</time></trkpt><trkpt lat="43.3746314" lon="11.6546193"><ele>375.33333333333337</ele><time>2026-04-04T08:59:15.768Z</time></trkpt><trkpt lat="43.3747158" lon="11.6545347"><ele>376.6666666666667</ele><time>2026-04-04T08:59:17.768Z</time></trkpt><trkpt lat="43.3747713" lon="11.6544823"><ele>378.0</ele><time>2026-04-04T08:59:19.769Z</time></trkpt><trkpt lat="43.3748112" lon="11.6544059"><ele>379.3333333333333</ele><time>2026-04-04T08:59:20.768Z</time></trkpt><trkpt lat="43.3748514" lon="11.6543109"><ele>380.66666666666663</ele><time>2026-04-04T08:59:21.768Z</time></trkpt><trkpt lat="43.3749002" lon="11.6541857"><ele>382.0</ele><time>2026-04-04T08:59:23.768Z</time></trkpt><trkpt lat="43.3749747" lon="11.6541216"><ele>384.8</ele><time>2026-04-04T08:59:25.768Z</time></trkpt><trkpt lat="43.3750577" lon="11.6540553"><ele>387.6</ele><time>2026-04-04T08:59:27.768Z</time></trkpt><trkpt lat="43.375136" lon="11.6539674"><ele>390.40000000000003</ele><time>2026-04-04T08:59:29.768Z</time></trkpt><trkpt lat="43.3751947" lon="11.653838"><ele>393.20000000000005</ele><time>2026-04-04T08:59:31.768Z</time></trkpt><trkpt lat="43.3752234" lon="11.6537535"><ele>396.0</ele><time>2026-04-04T08:59:32.768Z</time></trkpt><trkpt lat="43.3752628" lon="11.6536292"><ele>396.2857142857143</ele><time>2026-04-04T08:59:34.769Z</time></trkpt><trkpt lat="43.3753051" lon="11.6535598"><ele>396.57142857142856</ele><time>2026-04-04T08:59:36.768Z</time></trkpt><trkpt lat="43.3752887" lon="11.653475"><ele>396.85714285714283</ele><time>2026-04-04T08:59:37.768Z</time></trkpt><trkpt lat="43.3752694" lon="11.6533766"><ele>397.1428571428571</ele><time>2026-04-04T08:59:38.768Z</time></trkpt><trkpt lat="43.3752729" lon="11.6532876"><ele>397.42857142857144</ele><time>2026-04-04T08:59:39.768Z</time></trkpt><trkpt lat="43.3753019" lon="11.6531879"><ele>397.71428571428567</ele><time>2026-04-04T08:59:40.769Z</time></trkpt><trkpt lat="43.375333" lon="11.6530815"><ele>398.0</ele><time>2026-04-04T08:59:41.768Z</time></trkpt><trkpt lat="43.3753708" lon="11.6529753"><ele>397.99999999999994</ele><time>2026-04-04T08:59:42.768Z</time></trkpt><trkpt lat="43.3754142" lon="11.6528721"><ele>398.0</ele><time>2026-04-04T08:59:43.768Z</time></trkpt><trkpt lat="43.375446" lon="11.6527854"><ele>398.0</ele><time>2026-04-04T08:59:44.768Z</time></trkpt><trkpt lat="43.3754681" lon="11.6526419"><ele>398.0</ele><time>2026-04-04T08:59:46.768Z</time></trkpt><trkpt lat="43.3754248" lon="11.65249"><ele>397.99999999999994</ele><time>2026-04-04T08:59:48.768Z</time></trkpt><trkpt lat="43.3754041" lon="11.6524062"><ele>398.0</ele><time>2026-04-04T08:59:49.768Z</time></trkpt><trkpt lat="43.3753793" lon="11.6522735"><ele>397.79999999999995</ele><time>2026-04-04T08:59:51.768Z</time></trkpt><trkpt lat="43.3753632" lon="11.6521612"><ele>397.6</ele><time>2026-04-04T08:59:53.768Z</time></trkpt><trkpt lat="43.375319" lon="11.6520669"><ele>397.4</ele><time>2026-04-04T08:59:55.768Z</time></trkpt><trkpt lat="43.3752885" lon="11.6519501"><ele>397.20000000000005</ele><time>2026-04-04T08:59:58.768Z</time></trkpt><trkpt lat="43.3753414" lon="11.6518056"><ele>397.0</ele><time>2026-04-04T09:00:00.768Z</time></trkpt><trkpt lat="43.3753639" lon="11.6516981"><ele>396.83333333333337</ele><time>2026-04-04T09:00:02.768Z</time></trkpt><trkpt lat="43.375361" lon="11.6516055"><ele>396.6666666666667</ele><time>2026-04-04T09:00:54.768Z</time></trkpt><trkpt lat="43.3753821" lon="11.6514702"><ele>396.5</ele><time>2026-04-04T09:00:56.768Z</time></trkpt><trkpt lat="43.3753927" lon="11.6513805"><ele>396.33333333333337</ele><time>2026-04-04T09:00:57.768Z</time></trkpt><trkpt lat="43.3754065" lon="11.6512214"><ele>396.1666666666667</ele><time>2026-04-04T09:00:59.768Z</time></trkpt><trkpt lat="43.3754031" lon="11.6511331"><ele>396.0</ele><time>2026-04-04T09:01:00.768Z</time></trkpt><trkpt lat="43.375406" lon="11.6510405"><ele>396.0</ele><time>2026-04-04T09:01:01.769Z</time></trkpt><trkpt lat="43.3754061" lon="11.6509452"><ele>396.0</ele><time>2026-04-04T09:01:02.768Z</time></trkpt><trkpt lat="43.3754083" lon="11.6508399"><ele>396.0</ele><time>2026-04-04T09:01:03.768Z</time></trkpt><trkpt lat="43.3754127" lon="11.6507375"><ele>396.0</ele><time>2026-04-04T09:01:04.768Z</time></trkpt><trkpt lat="43.3754008" lon="11.6506475"><ele>396.0</ele><time>2026-04-04T09:01:05.768Z</time></trkpt><trkpt lat="43.3753777" lon="11.6505509"><ele>396.0</ele><time>2026-04-04T09:01:06.769Z</time></trkpt><trkpt lat="43.3753458" lon="11.6504512"><ele>396.0</ele><time>2026-04-04T09:01:07.768Z</time></trkpt><trkpt lat="43.375313" lon="11.6503629"><ele>397.20000000000005</ele><time>2026-04-04T09:01:08.768Z</time></trkpt><trkpt lat="43.3752807" lon="11.6502857"><ele>398.40000000000003</ele><time>2026-04-04T09:01:09.768Z</time></trkpt><trkpt lat="43.3752293" lon="11.6501242"><ele>399.6</ele><time>2026-04-04T09:01:11.768Z</time></trkpt><trkpt lat="43.3752109" lon="11.6500174"><ele>400.8</ele><time>2026-04-04T09:01:12.768Z</time></trkpt><trkpt lat="43.3752015" lon="11.6499139"><ele>402.0</ele><time>2026-04-04T09:01:13.768Z</time></trkpt><trkpt lat="43.3751587" lon="11.649777"><ele>402.0</ele><time>2026-04-04T09:01:15.768Z</time></trkpt><trkpt lat="43.3750949" lon="11.6496827"><ele>402.0</ele><time>2026-04-04T09:01:17.768Z</time></trkpt><trkpt lat="43.3750421" lon="11.6495548"><ele>402.0</ele><time>2026-04-04T09:01:19.768Z</time></trkpt><trkpt lat="43.3749987" lon="11.6494186"><ele>402.0</ele><time>2026-04-04T09:01:21.768Z</time></trkpt><trkpt lat="43.3749366" lon="11.6493031"><ele>402.0</ele><time>2026-04-04T09:01:23.768Z</time></trkpt><trkpt lat="43.374884" lon="11.6491575"><ele>403.6</ele><time>2026-04-04T09:01:25.768Z</time></trkpt><trkpt lat="43.37488" lon="11.6490384"><ele>405.20000000000005</ele><time>2026-04-04T09:01:27.768Z</time></trkpt><trkpt lat="43.3748841" lon="11.6489049"><ele>406.8</ele><time>2026-04-04T09:01:29.768Z</time></trkpt><trkpt lat="43.3748832" lon="11.6487527"><ele>408.4</ele><time>2026-04-04T09:01:31.769Z</time></trkpt><trkpt lat="43.3748522" lon="11.6486195"><ele>410.0</ele><time>2026-04-04T09:01:33.768Z</time></trkpt><trkpt lat="43.3748419" lon="11.6484724"><ele>411.6</ele><time>2026-04-04T09:01:35.768Z</time></trkpt><trkpt lat="43.3748449" lon="11.6483146"><ele>413.2</ele><time>2026-04-04T09:01:37.769Z</time></trkpt><trkpt lat="43.3748265" lon="11.6482271"><ele>414.79999999999995</ele><time>2026-04-04T09:01:39.768Z</time></trkpt><trkpt lat="43.3747889" lon="11.6481294"><ele>416.4</ele><time>2026-04-04T09:01:41.768Z</time></trkpt><trkpt lat="43.3748391" lon="11.6480028"><ele>418.0</ele><time>2026-04-04T09:01:43.768Z</time></trkpt><trkpt lat="43.3748357" lon="11.6478566"><ele>419.2</ele><time>2026-04-04T09:01:45.768Z</time></trkpt><trkpt lat="43.3747904" lon="11.6477322"><ele>420.4</ele><time>2026-04-04T09:01:47.768Z</time></trkpt><trkpt lat="43.3747641" lon="11.6476196"><ele>421.59999999999997</ele><time>2026-04-04T09:01:49.768Z</time></trkpt><trkpt lat="43.3746899" lon="11.6475346"><ele>422.79999999999995</ele><time>2026-04-04T09:01:51.769Z</time></trkpt><trkpt lat="43.3746207" lon="11.6474249"><ele>424.0</ele><time>2026-04-04T09:01:53.768Z</time></trkpt><trkpt lat="43.374534" lon="11.647285"><ele>424.0</ele><time>2026-04-04T09:01:55.768Z</time></trkpt><trkpt lat="43.3745032" lon="11.6472078"><ele>424.0</ele><time>2026-04-04T09:01:56.769Z</time></trkpt><trkpt lat="43.3744525" lon="11.6470545"><ele>424.0</ele><time>2026-04-04T09:01:58.769Z</time></trkpt><trkpt lat="43.3744656" lon="11.6469321"><ele>424.0</ele><time>2026-04-04T09:02:00.768Z</time></trkpt><trkpt lat="43.3744989" lon="11.6467973"><ele>424.0</ele><time>2026-04-04T09:02:02.768Z</time></trkpt><trkpt lat="43.374539" lon="11.646676"><ele>426.2</ele><time>2026-04-04T09:02:04.768Z</time></trkpt><trkpt lat="43.3745136" lon="11.6465583"><ele>428.4</ele><time>2026-04-04T09:02:06.768Z</time></trkpt><trkpt lat="43.3745071" lon="11.6463993"><ele>430.6</ele><time>2026-04-04T09:02:08.768Z</time></trkpt><trkpt lat="43.3744922" lon="11.6462443"><ele>432.8</ele><time>2026-04-04T09:02:10.768Z</time></trkpt><trkpt lat="43.3744864" lon="11.6460791"><ele>435.0</ele><time>2026-04-04T09:02:12.768Z</time></trkpt><trkpt lat="43.3744978" lon="11.6459771"><ele>436.1666666666667</ele><time>2026-04-04T09:02:13.768Z</time></trkpt><trkpt lat="43.3745075" lon="11.645873"><ele>437.33333333333337</ele><time>2026-04-04T09:02:14.768Z</time></trkpt><trkpt lat="43.3745148" lon="11.6457765"><ele>438.5</ele><time>2026-04-04T09:02:15.768Z</time></trkpt><trkpt lat="43.3745135" lon="11.6456887"><ele>439.6666666666667</ele><time>2026-04-04T09:02:16.768Z</time></trkpt><trkpt lat="43.3745184" lon="11.6455506"><ele>440.83333333333337</ele><time>2026-04-04T09:02:18.768Z</time></trkpt><trkpt lat="43.3745504" lon="11.6454609"><ele>442.0</ele><time>2026-04-04T09:02:20.768Z</time></trkpt><trkpt lat="43.3745678" lon="11.6453361"><ele>444.1666666666667</ele><time>2026-04-04T09:02:22.769Z</time></trkpt><trkpt lat="43.3745176" lon="11.6451989"><ele>446.33333333333337</ele><time>2026-04-04T09:02:24.769Z</time></trkpt><trkpt lat="43.3744812" lon="11.6450395"><ele>448.5</ele><time>2026-04-04T09:02:26.768Z</time></trkpt><trkpt lat="43.3744842" lon="11.6449389"><ele>450.66666666666663</ele><time>2026-04-04T09:02:27.768Z</time></trkpt><trkpt lat="43.3744849" lon="11.6448391"><ele>452.8333333333333</ele><time>2026-04-04T09:02:28.768Z</time></trkpt><trkpt lat="43.3744825" lon="11.6447468"><ele>455.0</ele><time>2026-04-04T09:02:29.768Z</time></trkpt><trkpt lat="43.3744372" lon="11.6445768"><ele>454.99999999999994</ele><time>2026-04-04T09:02:31.768Z</time></trkpt><trkpt lat="43.3744023" lon="11.6444779"><ele>455.0</ele><time>2026-04-04T09:02:32.768Z</time></trkpt><trkpt lat="43.3743767" lon="11.6443731"><ele>455.0</ele><time>2026-04-04T09:02:33.768Z</time></trkpt><trkpt lat="43.3743827" lon="11.644268"><ele>455.0</ele><time>2026-04-04T09:02:34.768Z</time></trkpt><trkpt lat="43.3744161" lon="11.644168"><ele>454.99999999999994</ele><time>2026-04-04T09:02:35.768Z</time></trkpt><trkpt lat="43.3744599" lon="11.6440675"><ele>455.0</ele><time>2026-04-04T09:02:36.768Z</time></trkpt><trkpt lat="43.3745082" lon="11.64398"><ele>454.8</ele><time>2026-04-04T09:02:37.768Z</time></trkpt><trkpt lat="43.3745499" lon="11.6439044"><ele>454.6</ele><time>2026-04-04T09:02:38.768Z</time></trkpt><trkpt lat="43.3746377" lon="11.6438389"><ele>454.4</ele><time>2026-04-04T09:02:40.768Z</time></trkpt><trkpt lat="43.3747161" lon="11.6437844"><ele>454.2</ele><time>2026-04-04T09:02:42.768Z</time></trkpt><trkpt lat="43.3748144" lon="11.6437023"><ele>454.0</ele><time>2026-04-04T09:02:44.768Z</time></trkpt><trkpt lat="43.37493" lon="11.6436529"><ele>454.0</ele><time>2026-04-04T09:02:46.768Z</time></trkpt><trkpt lat="43.3749921" lon="11.643638"><ele>454.00000000000006</ele><time>2026-04-04T09:02:47.768Z</time></trkpt><trkpt lat="43.3750515" lon="11.6435998"><ele>454.0</ele><time>2026-04-04T09:02:48.768Z</time></trkpt><trkpt lat="43.3750935" lon="11.6435256"><ele>454.0</ele><time>2026-04-04T09:02:49.768Z</time></trkpt><trkpt lat="43.3751373" lon="11.6434016"><ele>454.00000000000006</ele><time>2026-04-04T09:02:51.768Z</time></trkpt><trkpt lat="43.3751335" lon="11.6433112"><ele>454.0</ele><time>2026-04-04T09:02:52.768Z</time></trkpt><trkpt lat="43.3751176" lon="11.6431967"><ele>454.0</ele><time>2026-04-04T09:02:53.768Z</time></trkpt><trkpt lat="43.3751117" lon="11.6430913"><ele>455.6</ele><time>2026-04-04T09:02:54.768Z</time></trkpt><trkpt lat="43.375141" lon="11.6429936"><ele>457.2</ele><time>2026-04-04T09:02:55.768Z</time></trkpt><trkpt lat="43.3751868" lon="11.6429161"><ele>458.80000000000007</ele><time>2026-04-04T09:02:56.768Z</time></trkpt><trkpt lat="43.3752587" lon="11.6427775"><ele>460.40000000000003</ele><time>2026-04-04T09:02:58.768Z</time></trkpt><trkpt lat="43.3752518" lon="11.6426442"><ele>462.0</ele><time>2026-04-04T09:03:00.768Z</time></trkpt><trkpt lat="43.3752283" lon="11.6425347"><ele>462.40000000000003</ele><time>2026-04-04T09:03:02.768Z</time></trkpt><trkpt lat="43.375252" lon="11.6423783"><ele>462.80000000000007</ele><time>2026-04-04T09:03:04.768Z</time></trkpt><trkpt lat="43.3752692" lon="11.6422876"><ele>463.2</ele><time>2026-04-04T09:03:05.768Z</time></trkpt><trkpt lat="43.3752619" lon="11.6421298"><ele>463.6</ele><time>2026-04-04T09:03:07.768Z</time></trkpt><trkpt lat="43.3752575" lon="11.642017"><ele>464.0</ele><time>2026-04-04T09:03:09.768Z</time></trkpt><trkpt lat="43.375329" lon="11.6419681"><ele>464.0</ele><time>2026-04-04T09:03:12.768Z</time></trkpt><trkpt lat="43.3754396" lon="11.6420288"><ele>464.0</ele><time>2026-04-04T09:03:14.768Z</time></trkpt><trkpt lat="43.3755288" lon="11.6420675"><ele>464.0</ele><time>2026-04-04T09:03:15.768Z</time></trkpt><trkpt lat="43.3756132" lon="11.642114"><ele>464.0</ele><time>2026-04-04T09:03:16.768Z</time></trkpt><trkpt lat="43.3757015" lon="11.6421738"><ele>464.0</ele><time>2026-04-04T09:03:17.768Z</time></trkpt><trkpt lat="43.3757924" lon="11.6422509"><ele>461.8333333333333</ele><time>2026-04-04T09:03:18.768Z</time></trkpt><trkpt lat="43.375885" lon="11.6423167"><ele>459.66666666666663</ele><time>2026-04-04T09:03:19.769Z</time></trkpt><trkpt lat="43.3759615" lon="11.6423665"><ele>457.5</ele><time>2026-04-04T09:03:20.768Z</time></trkpt><trkpt lat="43.3760262" lon="11.6424044"><ele>455.33333333333337</ele><time>2026-04-04T09:03:21.768Z</time></trkpt><trkpt lat="43.3760958" lon="11.6424259"><ele>453.1666666666667</ele><time>2026-04-04T09:03:22.768Z</time></trkpt><trkpt lat="43.3761704" lon="11.6424344"><ele>451.0</ele><time>2026-04-04T09:03:23.768Z</time></trkpt><trkpt lat="43.3762764" lon="11.642362"><ele>451.00000000000006</ele><time>2026-04-04T09:03:25.768Z</time></trkpt><trkpt lat="43.3763225" lon="11.6422814"><ele>451.0</ele><time>2026-04-04T09:03:26.768Z</time></trkpt><trkpt lat="43.3763873" lon="11.6422073"><ele>451.0</ele><time>2026-04-04T09:03:27.768Z</time></trkpt><trkpt lat="43.3764473" lon="11.6421368"><ele>451.0</ele><time>2026-04-04T09:03:28.768Z</time></trkpt><trkpt lat="43.3765094" lon="11.6420775"><ele>451.00000000000006</ele><time>2026-04-04T09:03:29.768Z</time></trkpt><trkpt lat="43.3765988" lon="11.6420178"><ele>451.0</ele><time>2026-04-04T09:03:31.768Z</time></trkpt><trkpt lat="43.376673" lon="11.6420403"><ele>451.1666666666667</ele><time>2026-04-04T09:03:33.768Z</time></trkpt><trkpt lat="43.3767492" lon="11.6420784"><ele>451.33333333333337</ele><time>2026-04-04T09:03:35.768Z</time></trkpt><trkpt lat="43.3768275" lon="11.6421479"><ele>451.5</ele><time>2026-04-04T09:03:37.768Z</time></trkpt><trkpt lat="43.3769457" lon="11.6421986"><ele>451.66666666666663</ele><time>2026-04-04T09:03:39.768Z</time></trkpt><trkpt lat="43.3770134" lon="11.6422258"><ele>451.8333333333333</ele><time>2026-04-04T09:03:40.769Z</time></trkpt><trkpt lat="43.3770795" lon="11.6422598"><ele>452.0</ele><time>2026-04-04T09:03:41.768Z</time></trkpt><trkpt lat="43.3771941" lon="11.6423216"><ele>452.8</ele><time>2026-04-04T09:03:43.768Z</time></trkpt><trkpt lat="43.3773178" lon="11.6422959"><ele>453.6</ele><time>2026-04-04T09:03:45.768Z</time></trkpt><trkpt lat="43.3774004" lon="11.6422561"><ele>454.40000000000003</ele><time>2026-04-04T09:03:46.768Z</time></trkpt><trkpt lat="43.3774888" lon="11.6421903"><ele>455.20000000000005</ele><time>2026-04-04T09:03:47.769Z</time></trkpt><trkpt lat="43.3775735" lon="11.6421245"><ele>456.0</ele><time>2026-04-04T09:03:48.768Z</time></trkpt><trkpt lat="43.3776594" lon="11.6420533"><ele>456.0</ele><time>2026-04-04T09:03:49.768Z</time></trkpt><trkpt lat="43.3777514" lon="11.6419997"><ele>456.0</ele><time>2026-04-04T09:03:50.768Z</time></trkpt><trkpt lat="43.377861" lon="11.6419487"><ele>456.0</ele><time>2026-04-04T09:03:51.768Z</time></trkpt><trkpt lat="43.3779846" lon="11.6419075"><ele>456.0</ele><time>2026-04-04T09:03:52.769Z</time></trkpt><trkpt lat="43.378118" lon="11.6418738"><ele>454.8</ele><time>2026-04-04T09:03:53.769Z</time></trkpt><trkpt lat="43.3782364" lon="11.64182"><ele>453.6</ele><time>2026-04-04T09:03:54.768Z</time></trkpt><trkpt lat="43.3783464" lon="11.6417535"><ele>452.4</ele><time>2026-04-04T09:03:55.768Z</time></trkpt><trkpt lat="43.3784356" lon="11.6416889"><ele>451.2</ele><time>2026-04-04T09:03:56.768Z</time></trkpt><trkpt lat="43.3785093" lon="11.6416359"><ele>450.0</ele><time>2026-04-04T09:03:57.768Z</time></trkpt><trkpt lat="43.3786047" lon="11.641626"><ele>450.0</ele><time>2026-04-04T09:03:58.768Z</time></trkpt><trkpt lat="43.3787139" lon="11.6416298"><ele>450.0</ele><time>2026-04-04T09:03:59.768Z</time></trkpt><trkpt lat="43.3788398" lon="11.6416461"><ele>450.0</ele><time>2026-04-04T09:04:00.768Z</time></trkpt><trkpt lat="43.3789705" lon="11.6416588"><ele>450.0</ele><time>2026-04-04T09:04:01.768Z</time></trkpt><trkpt lat="43.3790921" lon="11.6416735"><ele>449.4</ele><time>2026-04-04T09:04:02.768Z</time></trkpt><trkpt lat="43.3791959" lon="11.6416825"><ele>448.8</ele><time>2026-04-04T09:04:03.768Z</time></trkpt><trkpt lat="43.3792926" lon="11.6416857"><ele>448.20000000000005</ele><time>2026-04-04T09:04:04.768Z</time></trkpt><trkpt lat="43.3793829" lon="11.6416699"><ele>447.6</ele><time>2026-04-04T09:04:05.768Z</time></trkpt><trkpt lat="43.3794879" lon="11.6416267"><ele>447.0</ele><time>2026-04-04T09:04:06.768Z</time></trkpt><trkpt lat="43.3796088" lon="11.6415517"><ele>445.75</ele><time>2026-04-04T09:04:07.768Z</time></trkpt><trkpt lat="43.3797337" lon="11.6414717"><ele>444.5</ele><time>2026-04-04T09:04:08.768Z</time></trkpt><trkpt lat="43.3798595" lon="11.6414111"><ele>443.25</ele><time>2026-04-04T09:04:09.768Z</time></trkpt><trkpt lat="43.3799822" lon="11.641375"><ele>442.0</ele><time>2026-04-04T09:04:10.768Z</time></trkpt><trkpt lat="43.3800841" lon="11.6413579"><ele>442.0</ele><time>2026-04-04T09:04:11.768Z</time></trkpt><trkpt lat="43.3801771" lon="11.6413468"><ele>442.00000000000006</ele><time>2026-04-04T09:04:12.768Z</time></trkpt><trkpt lat="43.3802646" lon="11.6413542"><ele>442.00000000000006</ele><time>2026-04-04T09:04:13.769Z</time></trkpt><trkpt lat="43.3803581" lon="11.6413728"><ele>442.0</ele><time>2026-04-04T09:04:14.768Z</time></trkpt><trkpt lat="43.3804606" lon="11.6413853"><ele>442.0</ele><time>2026-04-04T09:04:15.768Z</time></trkpt><trkpt lat="43.3805672" lon="11.6413833"><ele>441.75</ele><time>2026-04-04T09:04:16.768Z</time></trkpt><trkpt lat="43.3806828" lon="11.6413821"><ele>441.5</ele><time>2026-04-04T09:04:17.768Z</time></trkpt><trkpt lat="43.3808106" lon="11.6413846"><ele>441.25</ele><time>2026-04-04T09:04:18.768Z</time></trkpt><trkpt lat="43.3809404" lon="11.641392"><ele>441.0</ele><time>2026-04-04T09:04:19.768Z</time></trkpt><trkpt lat="43.3810707" lon="11.6414036"><ele>441.0</ele><time>2026-04-04T09:04:20.768Z</time></trkpt><trkpt lat="43.3812061" lon="11.6414191"><ele>441.0</ele><time>2026-04-04T09:04:21.768Z</time></trkpt><trkpt lat="43.3813492" lon="11.6414279"><ele>441.0</ele><time>2026-04-04T09:04:22.769Z</time></trkpt><trkpt lat="43.38149" lon="11.6414279"><ele>441.0</ele><time>2026-04-04T09:04:23.768Z</time></trkpt><trkpt lat="43.3816238" lon="11.6414232"><ele>441.8</ele><time>2026-04-04T09:04:24.768Z</time></trkpt><trkpt lat="43.3817461" lon="11.6414127"><ele>442.6</ele><time>2026-04-04T09:04:25.768Z</time></trkpt><trkpt lat="43.3818567" lon="11.6414001"><ele>443.4</ele><time>2026-04-04T09:04:26.768Z</time></trkpt><trkpt lat="43.3819557" lon="11.6413924"><ele>444.2</ele><time>2026-04-04T09:04:27.768Z</time></trkpt><trkpt lat="43.3820486" lon="11.6413783"><ele>445.0</ele><time>2026-04-04T09:04:28.769Z</time></trkpt><trkpt lat="43.3821296" lon="11.6413664"><ele>445.6666666666667</ele><time>2026-04-04T09:04:29.768Z</time></trkpt><trkpt lat="43.3822018" lon="11.6413605"><ele>446.33333333333337</ele><time>2026-04-04T09:04:30.768Z</time></trkpt><trkpt lat="43.3822964" lon="11.6413537"><ele>447.0</ele><time>2026-04-04T09:04:32.768Z</time></trkpt><trkpt lat="43.3824265" lon="11.6413549"><ele>447.66666666666663</ele><time>2026-04-04T09:06:35.768Z</time></trkpt><trkpt lat="43.3824957" lon="11.6413551"><ele>448.3333333333333</ele><time>2026-04-04T09:06:36.768Z</time></trkpt><trkpt lat="43.3825727" lon="11.6413493"><ele>449.0</ele><time>2026-04-04T09:06:37.768Z</time></trkpt><trkpt lat="43.3826477" lon="11.6413355"><ele>449.0</ele><time>2026-04-04T09:06:38.768Z</time></trkpt><trkpt lat="43.382725" lon="11.6413276"><ele>449.0</ele><time>2026-04-04T09:06:39.768Z</time></trkpt><trkpt lat="43.3828088" lon="11.6413233"><ele>449.0</ele><time>2026-04-04T09:06:40.768Z</time></trkpt><trkpt lat="43.3828977" lon="11.6413273"><ele>449.0</ele><time>2026-04-04T09:06:41.768Z</time></trkpt><trkpt lat="43.3829974" lon="11.6413474"><ele>449.0</ele><time>2026-04-04T09:06:42.769Z</time></trkpt><trkpt lat="43.383109" lon="11.6413781"><ele>449.6</ele><time>2026-04-04T09:06:43.768Z</time></trkpt><trkpt lat="43.3832236" lon="11.6414148"><ele>450.2</ele><time>2026-04-04T09:06:44.769Z</time></trkpt><trkpt lat="43.3833281" lon="11.6414468"><ele>450.80000000000007</ele><time>2026-04-04T09:06:45.769Z</time></trkpt><trkpt lat="43.3834174" lon="11.6414731"><ele>451.40000000000003</ele><time>2026-04-04T09:06:46.768Z</time></trkpt><trkpt lat="43.383504" lon="11.6415026"><ele>452.0</ele><time>2026-04-04T09:06:47.768Z</time></trkpt><trkpt lat="43.3835843" lon="11.6415288"><ele>452.0</ele><time>2026-04-04T09:06:48.768Z</time></trkpt><trkpt lat="43.3836613" lon="11.6415506"><ele>452.00000000000006</ele><time>2026-04-04T09:06:49.768Z</time></trkpt><trkpt lat="43.3837466" lon="11.6415761"><ele>452.00000000000006</ele><time>2026-04-04T09:06:50.768Z</time></trkpt><trkpt lat="43.3838387" lon="11.6416029"><ele>452.0</ele><time>2026-04-04T09:06:51.768Z</time></trkpt><trkpt lat="43.3839393" lon="11.6416433"><ele>452.0</ele><time>2026-04-04T09:06:52.768Z</time></trkpt><trkpt lat="43.384043" lon="11.6417083"><ele>451.6</ele><time>2026-04-04T09:06:53.768Z</time></trkpt><trkpt lat="43.3841398" lon="11.6417762"><ele>451.20000000000005</ele><time>2026-04-04T09:06:54.768Z</time></trkpt><trkpt lat="43.3842302" lon="11.6418355"><ele>450.8</ele><time>2026-04-04T09:06:55.768Z</time></trkpt><trkpt lat="43.3843175" lon="11.6418877"><ele>450.4</ele><time>2026-04-04T09:06:56.768Z</time></trkpt><trkpt lat="43.3844089" lon="11.6419108"><ele>450.0</ele><time>2026-04-04T09:06:57.768Z</time></trkpt><trkpt lat="43.3845217" lon="11.6419075"><ele>450.0</ele><time>2026-04-04T09:06:58.768Z</time></trkpt><trkpt lat="43.3846333" lon="11.6418849"><ele>450.0</ele><time>2026-04-04T09:06:59.768Z</time></trkpt><trkpt lat="43.3847296" lon="11.6418664"><ele>450.0</ele><time>2026-04-04T09:07:00.768Z</time></trkpt><trkpt lat="43.3848145" lon="11.6418381"><ele>450.0</ele><time>2026-04-04T09:07:01.768Z</time></trkpt><trkpt lat="43.3848959" lon="11.6418032"><ele>450.0</ele><time>2026-04-04T09:07:02.768Z</time></trkpt><trkpt lat="43.3849965" lon="11.6417706"><ele>449.0</ele><time>2026-04-04T09:07:03.768Z</time></trkpt><trkpt lat="43.3850928" lon="11.641741"><ele>448.0</ele><time>2026-04-04T09:07:04.768Z</time></trkpt><trkpt lat="43.3851722" lon="11.6417282"><ele>447.0</ele><time>2026-04-04T09:07:05.768Z</time></trkpt><trkpt lat="43.3852552" lon="11.6417338"><ele>446.0</ele><time>2026-04-04T09:07:06.768Z</time></trkpt><trkpt lat="43.3853416" lon="11.6417409"><ele>445.0</ele><time>2026-04-04T09:07:07.768Z</time></trkpt><trkpt lat="43.3854192" lon="11.641779"><ele>444.0</ele><time>2026-04-04T09:07:08.768Z</time></trkpt><trkpt lat="43.3854833" lon="11.6418401"><ele>443.2</ele><time>2026-04-04T09:07:09.769Z</time></trkpt><trkpt lat="43.3855664" lon="11.641905"><ele>442.4</ele><time>2026-04-04T09:07:10.768Z</time></trkpt><trkpt lat="43.3856501" lon="11.641971"><ele>441.6</ele><time>2026-04-04T09:07:11.768Z</time></trkpt><trkpt lat="43.3857479" lon="11.6420174"><ele>440.8</ele><time>2026-04-04T09:07:12.768Z</time></trkpt><trkpt lat="43.385841" lon="11.64203"><ele>440.0</ele><time>2026-04-04T09:07:13.768Z</time></trkpt><trkpt lat="43.3859312" lon="11.6420175"><ele>440.0</ele><time>2026-04-04T09:07:14.768Z</time></trkpt><trkpt lat="43.3860218" lon="11.6419789"><ele>440.0</ele><time>2026-04-04T09:07:15.769Z</time></trkpt><trkpt lat="43.3861215" lon="11.641908"><ele>440.0</ele><time>2026-04-04T09:07:16.768Z</time></trkpt><trkpt lat="43.386238" lon="11.6418354"><ele>440.0</ele><time>2026-04-04T09:07:17.769Z</time></trkpt><trkpt lat="43.3863714" lon="11.6417603"><ele>440.0</ele><time>2026-04-04T09:07:18.769Z</time></trkpt><trkpt lat="43.3865146" lon="11.641674"><ele>440.0</ele><time>2026-04-04T09:07:19.769Z</time></trkpt><trkpt lat="43.3866437" lon="11.641588"><ele>440.0</ele><time>2026-04-04T09:07:20.769Z</time></trkpt><trkpt lat="43.3867561" lon="11.6414946"><ele>440.0</ele><time>2026-04-04T09:07:21.769Z</time></trkpt><trkpt lat="43.3868529" lon="11.6414342"><ele>439.99999999999994</ele><time>2026-04-04T09:07:22.769Z</time></trkpt><trkpt lat="43.3869405" lon="11.6413983"><ele>440.0</ele><time>2026-04-04T09:07:23.769Z</time></trkpt><trkpt lat="43.3870334" lon="11.6413881"><ele>440.0</ele><time>2026-04-04T09:07:24.769Z</time></trkpt><trkpt lat="43.3871248" lon="11.6413931"><ele>440.0</ele><time>2026-04-04T09:07:25.769Z</time></trkpt><trkpt lat="43.3872091" lon="11.6413889"><ele>439.99999999999994</ele><time>2026-04-04T09:07:26.769Z</time></trkpt><trkpt lat="43.3872848" lon="11.641377"><ele>440.0</ele><time>2026-04-04T09:07:27.769Z</time></trkpt><trkpt lat="43.3873676" lon="11.6413658"><ele>440.4</ele><time>2026-04-04T09:07:28.769Z</time></trkpt><trkpt lat="43.3874618" lon="11.6413641"><ele>440.8</ele><time>2026-04-04T09:07:29.769Z</time></trkpt><trkpt lat="43.3875663" lon="11.6413516"><ele>441.20000000000005</ele><time>2026-04-04T09:07:30.769Z</time></trkpt><trkpt lat="43.3876846" lon="11.6413511"><ele>441.6</ele><time>2026-04-04T09:07:31.769Z</time></trkpt><trkpt lat="43.3877974" lon="11.6413596"><ele>442.0</ele><time>2026-04-04T09:07:32.769Z</time></trkpt><trkpt lat="43.3879063" lon="11.6413828"><ele>442.00000000000006</ele><time>2026-04-04T09:07:33.769Z</time></trkpt><trkpt lat="43.3880013" lon="11.6414125"><ele>442.0</ele><time>2026-04-04T09:07:34.769Z</time></trkpt><trkpt lat="43.3880895" lon="11.6414361"><ele>442.0</ele><time>2026-04-04T09:07:35.769Z</time></trkpt><trkpt lat="43.3881695" lon="11.641435"><ele>442.0</ele><time>2026-04-04T09:07:36.77Z</time></trkpt><trkpt lat="43.3882456" lon="11.6414038"><ele>442.00000000000006</ele><time>2026-04-04T09:07:37.769Z</time></trkpt><trkpt lat="43.3883265" lon="11.6413615"><ele>442.0</ele><time>2026-04-04T09:07:38.77Z</time></trkpt><trkpt lat="43.3884069" lon="11.6413035"><ele>442.20000000000005</ele><time>2026-04-04T09:07:39.769Z</time></trkpt><trkpt lat="43.388506" lon="11.641248"><ele>442.40000000000003</ele><time>2026-04-04T09:07:40.769Z</time></trkpt><trkpt lat="43.3886016" lon="11.6411979"><ele>442.59999999999997</ele><time>2026-04-04T09:07:41.77Z</time></trkpt><trkpt lat="43.3886889" lon="11.6411573"><ele>442.79999999999995</ele><time>2026-04-04T09:07:42.769Z</time></trkpt><trkpt lat="43.3887709" lon="11.6411273"><ele>443.0</ele><time>2026-04-04T09:07:43.769Z</time></trkpt><trkpt lat="43.3888519" lon="11.6411164"><ele>444.59999999999997</ele><time>2026-04-04T09:07:44.769Z</time></trkpt><trkpt lat="43.3889211" lon="11.6410993"><ele>446.19999999999993</ele><time>2026-04-04T09:07:45.769Z</time></trkpt><trkpt lat="43.3890351" lon="11.6410476"><ele>447.8</ele><time>2026-04-04T09:07:47.769Z</time></trkpt><trkpt lat="43.3891294" lon="11.6410589"><ele>449.4</ele><time>2026-04-04T09:07:49.769Z</time></trkpt><trkpt lat="43.3892018" lon="11.6410574"><ele>451.0</ele><time>2026-04-04T09:07:51.769Z</time></trkpt><trkpt lat="43.3893026" lon="11.6410727"><ele>451.00000000000006</ele><time>2026-04-04T09:11:50.769Z</time></trkpt><trkpt lat="43.3894204" lon="11.6410481"><ele>451.0</ele><time>2026-04-04T09:11:52.769Z</time></trkpt><trkpt lat="43.3894911" lon="11.641061"><ele>451.0</ele><time>2026-04-04T09:11:53.77Z</time></trkpt><trkpt lat="43.3895689" lon="11.6410895"><ele>451.0</ele><time>2026-04-04T09:11:54.77Z</time></trkpt><trkpt lat="43.3896497" lon="11.6411227"><ele>451.00000000000006</ele><time>2026-04-04T09:11:55.769Z</time></trkpt><trkpt lat="43.3897265" lon="11.6411567"><ele>451.0</ele><time>2026-04-04T09:11:56.769Z</time></trkpt><trkpt lat="43.3897976" lon="11.6411946"><ele>451.6666666666667</ele><time>2026-04-04T09:11:57.77Z</time></trkpt><trkpt lat="43.3898709" lon="11.6412312"><ele>452.33333333333337</ele><time>2026-04-04T09:11:58.77Z</time></trkpt><trkpt lat="43.3899486" lon="11.6412579"><ele>453.0</ele><time>2026-04-04T09:11:59.769Z</time></trkpt><trkpt lat="43.3900264" lon="11.6412734"><ele>453.66666666666663</ele><time>2026-04-04T09:12:00.769Z</time></trkpt><trkpt lat="43.3901016" lon="11.6412911"><ele>454.3333333333333</ele><time>2026-04-04T09:12:01.769Z</time></trkpt><trkpt lat="43.3901815" lon="11.6413086"><ele>455.0</ele><time>2026-04-04T09:12:02.769Z</time></trkpt><trkpt lat="43.3902692" lon="11.6413176"><ele>454.99999999999994</ele><time>2026-04-04T09:12:03.769Z</time></trkpt><trkpt lat="43.3903494" lon="11.6413198"><ele>455.0</ele><time>2026-04-04T09:12:04.769Z</time></trkpt><trkpt lat="43.3904326" lon="11.6413185"><ele>455.0</ele><time>2026-04-04T09:12:05.769Z</time></trkpt><trkpt lat="43.3905147" lon="11.6413159"><ele>455.0</ele><time>2026-04-04T09:12:06.769Z</time></trkpt><trkpt lat="43.3905954" lon="11.6413198"><ele>454.99999999999994</ele><time>2026-04-04T09:12:07.769Z</time></trkpt><trkpt lat="43.3906737" lon="11.641313"><ele>455.0</ele><time>2026-04-04T09:12:08.769Z</time></trkpt><trkpt lat="43.3907534" lon="11.6413099"><ele>456.3333333333333</ele><time>2026-04-04T09:12:09.769Z</time></trkpt><trkpt lat="43.3908379" lon="11.6413254"><ele>457.66666666666663</ele><time>2026-04-04T09:12:10.769Z</time></trkpt><trkpt lat="43.3909137" lon="11.6413456"><ele>459.0</ele><time>2026-04-04T09:12:11.769Z</time></trkpt><trkpt lat="43.3909885" lon="11.6413695"><ele>460.33333333333337</ele><time>2026-04-04T09:12:12.77Z</time></trkpt><trkpt lat="43.3910682" lon="11.6413955"><ele>461.6666666666667</ele><time>2026-04-04T09:12:13.769Z</time></trkpt><trkpt lat="43.3911439" lon="11.6414395"><ele>463.0</ele><time>2026-04-04T09:12:14.769Z</time></trkpt><trkpt lat="43.3912154" lon="11.6414985"><ele>463.0</ele><time>2026-04-04T09:12:15.769Z</time></trkpt><trkpt lat="43.3912845" lon="11.6415658"><ele>462.99999999999994</ele><time>2026-04-04T09:12:16.769Z</time></trkpt><trkpt lat="43.3913472" lon="11.6416481"><ele>462.99999999999994</ele><time>2026-04-04T09:12:17.769Z</time></trkpt><trkpt lat="43.3914072" lon="11.6417366"><ele>463.0</ele><time>2026-04-04T09:12:18.769Z</time></trkpt><trkpt lat="43.3914683" lon="11.6418329"><ele>463.0</ele><time>2026-04-04T09:12:19.769Z</time></trkpt><trkpt lat="43.3915305" lon="11.6419435"><ele>464.4</ele><time>2026-04-04T09:12:20.769Z</time></trkpt><trkpt lat="43.3915917" lon="11.6420709"><ele>465.79999999999995</ele><time>2026-04-04T09:12:21.769Z</time></trkpt><trkpt lat="43.3916476" lon="11.6421884"><ele>467.2</ele><time>2026-04-04T09:12:22.769Z</time></trkpt><trkpt lat="43.3916966" lon="11.6423029"><ele>468.6</ele><time>2026-04-04T09:12:23.769Z</time></trkpt><trkpt lat="43.391752" lon="11.6424187"><ele>470.0</ele><time>2026-04-04T09:12:24.769Z</time></trkpt><trkpt lat="43.3918137" lon="11.6425368"><ele>470.0</ele><time>2026-04-04T09:12:25.769Z</time></trkpt><trkpt lat="43.3918756" lon="11.6426478"><ele>470.0</ele><time>2026-04-04T09:12:26.769Z</time></trkpt><trkpt lat="43.3919427" lon="11.6427612"><ele>470.0</ele><time>2026-04-04T09:12:27.769Z</time></trkpt><trkpt lat="43.3920156" lon="11.6428808"><ele>470.0</ele><time>2026-04-04T09:12:28.769Z</time></trkpt><trkpt lat="43.3920872" lon="11.6429915"><ele>470.0</ele><time>2026-04-04T09:12:29.769Z</time></trkpt><trkpt lat="43.3921537" lon="11.6430859"><ele>470.2</ele><time>2026-04-04T09:12:30.769Z</time></trkpt><trkpt lat="43.3922282" lon="11.6431706"><ele>470.4</ele><time>2026-04-04T09:12:31.769Z</time></trkpt><trkpt lat="43.3923153" lon="11.6432436"><ele>470.6</ele><time>2026-04-04T09:12:32.769Z</time></trkpt><trkpt lat="43.3924147" lon="11.6433153"><ele>470.8</ele><time>2026-04-04T09:12:33.769Z</time></trkpt><trkpt lat="43.3925166" lon="11.6433864"><ele>471.0</ele><time>2026-04-04T09:12:34.769Z</time></trkpt><trkpt lat="43.3926179" lon="11.643471"><ele>471.0</ele><time>2026-04-04T09:12:35.769Z</time></trkpt><trkpt lat="43.3927199" lon="11.6435708"><ele>471.0</ele><time>2026-04-04T09:12:36.769Z</time></trkpt><trkpt lat="43.3928179" lon="11.6436887"><ele>471.0</ele><time>2026-04-04T09:12:37.769Z</time></trkpt><trkpt lat="43.392909" lon="11.6438051"><ele>471.0</ele><time>2026-04-04T09:12:38.769Z</time></trkpt><trkpt lat="43.392989" lon="11.6439151"><ele>470.6</ele><time>2026-04-04T09:12:39.769Z</time></trkpt><trkpt lat="43.3930675" lon="11.6440235"><ele>470.20000000000005</ele><time>2026-04-04T09:12:40.769Z</time></trkpt><trkpt lat="43.3931464" lon="11.6441292"><ele>469.79999999999995</ele><time>2026-04-04T09:12:41.769Z</time></trkpt><trkpt lat="43.3932182" lon="11.6442305"><ele>469.4</ele><time>2026-04-04T09:12:42.769Z</time></trkpt><trkpt lat="43.3932838" lon="11.6443452"><ele>469.0</ele><time>2026-04-04T09:12:43.769Z</time></trkpt><trkpt lat="43.393341" lon="11.644474"><ele>469.0</ele><time>2026-04-04T09:12:44.769Z</time></trkpt><trkpt lat="43.3933767" lon="11.6446104"><ele>469.0</ele><time>2026-04-04T09:12:45.769Z</time></trkpt><trkpt lat="43.3934001" lon="11.6447477"><ele>469.0</ele><time>2026-04-04T09:12:46.769Z</time></trkpt><trkpt lat="43.3934201" lon="11.6448762"><ele>469.0</ele><time>2026-04-04T09:12:47.769Z</time></trkpt><trkpt lat="43.3934586" lon="11.6449921"><ele>469.0</ele><time>2026-04-04T09:12:48.769Z</time></trkpt><trkpt lat="43.393515" lon="11.6451087"><ele>469.0</ele><time>2026-04-04T09:12:49.769Z</time></trkpt><trkpt lat="43.3935876" lon="11.6452259"><ele>469.0</ele><time>2026-04-04T09:12:50.769Z</time></trkpt><trkpt lat="43.3936774" lon="11.6453433"><ele>469.0</ele><time>2026-04-04T09:12:51.769Z</time></trkpt><trkpt lat="43.3937687" lon="11.6454523"><ele>469.0</ele><time>2026-04-04T09:12:52.769Z</time></trkpt><trkpt lat="43.3938495" lon="11.6455453"><ele>469.25</ele><time>2026-04-04T09:12:53.769Z</time></trkpt><trkpt lat="43.393938" lon="11.6456537"><ele>469.5</ele><time>2026-04-04T09:12:54.769Z</time></trkpt><trkpt lat="43.3940203" lon="11.6457724"><ele>469.75</ele><time>2026-04-04T09:12:55.769Z</time></trkpt><trkpt lat="43.3940896" lon="11.6458933"><ele>470.0</ele><time>2026-04-04T09:12:56.769Z</time></trkpt><trkpt lat="43.3941555" lon="11.6460115"><ele>469.99999999999994</ele><time>2026-04-04T09:12:57.769Z</time></trkpt><trkpt lat="43.394215" lon="11.6461215"><ele>470.0</ele><time>2026-04-04T09:12:58.769Z</time></trkpt><trkpt lat="43.3942705" lon="11.64622"><ele>470.0</ele><time>2026-04-04T09:12:59.769Z</time></trkpt><trkpt lat="43.3943324" lon="11.6463022"><ele>470.0</ele><time>2026-04-04T09:13:00.769Z</time></trkpt><trkpt lat="43.3943869" lon="11.6463592"><ele>469.99999999999994</ele><time>2026-04-04T09:13:01.77Z</time></trkpt><trkpt lat="43.3944476" lon="11.6463978"><ele>470.0</ele><time>2026-04-04T09:13:02.77Z</time></trkpt><trkpt lat="43.3945214" lon="11.6464185"><ele>468.49999999999994</ele><time>2026-04-04T09:13:03.769Z</time></trkpt><trkpt lat="43.3946038" lon="11.6464152"><ele>467.0</ele><time>2026-04-04T09:13:04.769Z</time></trkpt><trkpt lat="43.394687" lon="11.6463856"><ele>465.5</ele><time>2026-04-04T09:13:05.769Z</time></trkpt><trkpt lat="43.3947679" lon="11.6463442"><ele>464.0</ele><time>2026-04-04T09:13:06.769Z</time></trkpt><trkpt lat="43.3948588" lon="11.6463139"><ele>462.49999999999994</ele><time>2026-04-04T09:13:07.77Z</time></trkpt><trkpt lat="43.3949531" lon="11.646325"><ele>461.0</ele><time>2026-04-04T09:13:08.769Z</time></trkpt><trkpt lat="43.3950474" lon="11.6463487"><ele>460.4</ele><time>2026-04-04T09:13:09.769Z</time></trkpt><trkpt lat="43.3951407" lon="11.6463614"><ele>459.8</ele><time>2026-04-04T09:13:10.769Z</time></trkpt><trkpt lat="43.3952436" lon="11.6463401"><ele>459.19999999999993</ele><time>2026-04-04T09:13:11.77Z</time></trkpt><trkpt lat="43.3953406" lon="11.646308"><ele>458.59999999999997</ele><time>2026-04-04T09:13:12.769Z</time></trkpt><trkpt lat="43.395448" lon="11.6462642"><ele>458.0</ele><time>2026-04-04T09:13:13.769Z</time></trkpt><trkpt lat="43.395564" lon="11.6462171"><ele>459.75</ele><time>2026-04-04T09:13:14.769Z</time></trkpt><trkpt lat="43.3956907" lon="11.6461696"><ele>461.5</ele><time>2026-04-04T09:13:15.77Z</time></trkpt><trkpt lat="43.3958215" lon="11.6461215"><ele>463.25</ele><time>2026-04-04T09:13:16.769Z</time></trkpt><trkpt lat="43.3959496" lon="11.646074"><ele>465.0</ele><time>2026-04-04T09:13:17.769Z</time></trkpt><trkpt lat="43.3960751" lon="11.6460358"><ele>465.0</ele><time>2026-04-04T09:13:18.769Z</time></trkpt><trkpt lat="43.3961981" lon="11.6460044"><ele>465.0</ele><time>2026-04-04T09:13:19.77Z</time></trkpt><trkpt lat="43.3963191" lon="11.6459487"><ele>465.0</ele><time>2026-04-04T09:13:20.769Z</time></trkpt><trkpt lat="43.3964371" lon="11.6458805"><ele>465.0</ele><time>2026-04-04T09:13:21.769Z</time></trkpt><trkpt lat="43.3965595" lon="11.6458306"><ele>463.0</ele><time>2026-04-04T09:13:22.769Z</time></trkpt><trkpt lat="43.396668" lon="11.6457915"><ele>461.0</ele><time>2026-04-04T09:13:23.769Z</time></trkpt><trkpt lat="43.3967752" lon="11.645764"><ele>459.0</ele><time>2026-04-04T09:13:24.769Z</time></trkpt><trkpt lat="43.3968813" lon="11.6457423"><ele>457.0</ele><time>2026-04-04T09:13:25.769Z</time></trkpt><trkpt lat="43.3969902" lon="11.6457365"><ele>455.0</ele><time>2026-04-04T09:13:26.769Z</time></trkpt><trkpt lat="43.3971047" lon="11.6457447"><ele>453.5</ele><time>2026-04-04T09:13:27.769Z</time></trkpt><trkpt lat="43.3972298" lon="11.645762"><ele>452.0</ele><time>2026-04-04T09:13:28.769Z</time></trkpt><trkpt lat="43.397363" lon="11.645802"><ele>450.5</ele><time>2026-04-04T09:13:29.769Z</time></trkpt><trkpt lat="43.3975008" lon="11.6458093"><ele>449.0</ele><time>2026-04-04T09:13:30.769Z</time></trkpt><trkpt lat="43.3976477" lon="11.6457927"><ele>449.0</ele><time>2026-04-04T09:13:31.769Z</time></trkpt><trkpt lat="43.3977904" lon="11.6457686"><ele>449.0</ele><time>2026-04-04T09:13:32.77Z</time></trkpt><trkpt lat="43.3979284" lon="11.6457578"><ele>449.0</ele><time>2026-04-04T09:13:33.769Z</time></trkpt><trkpt lat="43.3980635" lon="11.6457656"><ele>449.0</ele><time>2026-04-04T09:13:34.769Z</time></trkpt><trkpt lat="43.3981901" lon="11.6457727"><ele>449.25</ele><time>2026-04-04T09:13:35.769Z</time></trkpt><trkpt lat="43.3983224" lon="11.6457897"><ele>449.5</ele><time>2026-04-04T09:13:36.769Z</time></trkpt><trkpt lat="43.3984621" lon="11.6458121"><ele>449.75</ele><time>2026-04-04T09:13:37.769Z</time></trkpt><trkpt lat="43.3986019" lon="11.6458396"><ele>450.0</ele><time>2026-04-04T09:13:38.769Z</time></trkpt><trkpt lat="43.3987354" lon="11.645862"><ele>451.5</ele><time>2026-04-04T09:13:39.769Z</time></trkpt><trkpt lat="43.3988653" lon="11.6458828"><ele>453.0</ele><time>2026-04-04T09:13:40.769Z</time></trkpt><trkpt lat="43.3989837" lon="11.6459085"><ele>454.5</ele><time>2026-04-04T09:13:41.769Z</time></trkpt><trkpt lat="43.3990998" lon="11.6459411"><ele>456.0</ele><time>2026-04-04T09:13:42.769Z</time></trkpt><trkpt lat="43.3992202" lon="11.6459702"><ele>456.0</ele><time>2026-04-04T09:13:43.77Z</time></trkpt><trkpt lat="43.3993444" lon="11.6460058"><ele>456.0</ele><time>2026-04-04T09:13:44.769Z</time></trkpt><trkpt lat="43.3994621" lon="11.6460681"><ele>456.0</ele><time>2026-04-04T09:13:45.769Z</time></trkpt><trkpt lat="43.3995771" lon="11.6461415"><ele>456.0</ele><time>2026-04-04T09:13:46.769Z</time></trkpt><trkpt lat="43.399702" lon="11.6462295"><ele>456.75</ele><time>2026-04-04T09:13:47.769Z</time></trkpt><trkpt lat="43.3998341" lon="11.6463157"><ele>457.5</ele><time>2026-04-04T09:13:48.769Z</time></trkpt><trkpt lat="43.3999689" lon="11.6463982"><ele>458.25</ele><time>2026-04-04T09:13:49.769Z</time></trkpt><trkpt lat="43.4001026" lon="11.6464794"><ele>459.0</ele><time>2026-04-04T09:13:50.769Z</time></trkpt><trkpt lat="43.4002313" lon="11.6465615"><ele>459.0</ele><time>2026-04-04T09:13:51.769Z</time></trkpt><trkpt lat="43.4003564" lon="11.6466396"><ele>459.0</ele><time>2026-04-04T09:13:52.769Z</time></trkpt><trkpt lat="43.4004807" lon="11.6467135"><ele>459.0</ele><time>2026-04-04T09:13:53.769Z</time></trkpt><trkpt lat="43.4006005" lon="11.6467881"><ele>459.0</ele><time>2026-04-04T09:13:54.77Z</time></trkpt><trkpt lat="43.4007179" lon="11.646862"><ele>459.6</ele><time>2026-04-04T09:13:55.769Z</time></trkpt><trkpt lat="43.4008247" lon="11.6469323"><ele>460.2</ele><time>2026-04-04T09:13:56.769Z</time></trkpt><trkpt lat="43.4009149" lon="11.6470074"><ele>460.80000000000007</ele><time>2026-04-04T09:13:57.769Z</time></trkpt><trkpt lat="43.4009886" lon="11.6471033"><ele>461.40000000000003</ele><time>2026-04-04T09:13:58.769Z</time></trkpt><trkpt lat="43.4010577" lon="11.6472108"><ele>462.0</ele><time>2026-04-04T09:13:59.769Z</time></trkpt><trkpt lat="43.4011281" lon="11.6473344"><ele>464.0</ele><time>2026-04-04T09:14:00.769Z</time></trkpt><trkpt lat="43.4011957" lon="11.6474723"><ele>466.0</ele><time>2026-04-04T09:14:01.769Z</time></trkpt><trkpt lat="43.4012671" lon="11.6476201"><ele>468.0</ele><time>2026-04-04T09:14:02.769Z</time></trkpt><trkpt lat="43.4013363" lon="11.6477568"><ele>470.0</ele><time>2026-04-04T09:14:03.769Z</time></trkpt><trkpt lat="43.4014134" lon="11.6478864"><ele>471.25</ele><time>2026-04-04T09:14:04.769Z</time></trkpt><trkpt lat="43.4014866" lon="11.6480053"><ele>472.5</ele><time>2026-04-04T09:14:05.769Z</time></trkpt><trkpt lat="43.4015573" lon="11.6481179"><ele>473.75</ele><time>2026-04-04T09:14:06.77Z</time></trkpt><trkpt lat="43.4016341" lon="11.648241"><ele>475.0</ele><time>2026-04-04T09:14:07.769Z</time></trkpt><trkpt lat="43.4017029" lon="11.6483601"><ele>475.00000000000006</ele><time>2026-04-04T09:14:08.769Z</time></trkpt><trkpt lat="43.4017644" lon="11.6484701"><ele>475.0</ele><time>2026-04-04T09:14:09.769Z</time></trkpt><trkpt lat="43.4018237" lon="11.648568"><ele>475.0</ele><time>2026-04-04T09:14:10.769Z</time></trkpt><trkpt lat="43.4018728" lon="11.6486569"><ele>475.0</ele><time>2026-04-04T09:14:11.769Z</time></trkpt><trkpt lat="43.4019205" lon="11.6487422"><ele>475.00000000000006</ele><time>2026-04-04T09:14:12.769Z</time></trkpt><trkpt lat="43.4019725" lon="11.6488203"><ele>475.0</ele><time>2026-04-04T09:14:13.77Z</time></trkpt><trkpt lat="43.4020115" lon="11.6489013"><ele>474.6666666666667</ele><time>2026-04-04T09:14:14.769Z</time></trkpt><trkpt lat="43.4020413" lon="11.6489959"><ele>474.33333333333337</ele><time>2026-04-04T09:14:15.77Z</time></trkpt><trkpt lat="43.4020509" lon="11.6491029"><ele>474.0</ele><time>2026-04-04T09:14:16.769Z</time></trkpt><trkpt lat="43.4020371" lon="11.6492193"><ele>473.66666666666663</ele><time>2026-04-04T09:14:17.77Z</time></trkpt><trkpt lat="43.4020152" lon="11.6493519"><ele>473.3333333333333</ele><time>2026-04-04T09:14:18.769Z</time></trkpt><trkpt lat="43.4019916" lon="11.6494953"><ele>473.0</ele><time>2026-04-04T09:14:19.769Z</time></trkpt><trkpt lat="43.4019699" lon="11.6496448"><ele>472.5</ele><time>2026-04-04T09:14:20.769Z</time></trkpt><trkpt lat="43.4019461" lon="11.6498018"><ele>472.0</ele><time>2026-04-04T09:14:21.769Z</time></trkpt><trkpt lat="43.4019272" lon="11.6499739"><ele>471.5</ele><time>2026-04-04T09:14:22.77Z</time></trkpt><trkpt lat="43.4019166" lon="11.65015"><ele>471.0</ele><time>2026-04-04T09:14:23.769Z</time></trkpt><trkpt lat="43.4019177" lon="11.6503244"><ele>470.0</ele><time>2026-04-04T09:14:24.769Z</time></trkpt><trkpt lat="43.4019628" lon="11.6506475"><ele>469.0</ele><time>2026-04-04T09:14:26.769Z</time></trkpt><trkpt lat="43.4019733" lon="11.6508203"><ele>468.0</ele><time>2026-04-04T09:14:27.769Z</time></trkpt><trkpt lat="43.4020116" lon="11.6510075"><ele>468.0</ele><time>2026-04-04T09:14:28.769Z</time></trkpt><trkpt lat="43.402068" lon="11.6511814"><ele>468.0</ele><time>2026-04-04T09:14:29.769Z</time></trkpt><trkpt lat="43.4021476" lon="11.6513478"><ele>468.0</ele><time>2026-04-04T09:14:30.769Z</time></trkpt><trkpt lat="43.4022362" lon="11.651488"><ele>468.0</ele><time>2026-04-04T09:14:31.769Z</time></trkpt><trkpt lat="43.4023269" lon="11.6516143"><ele>468.0</ele><time>2026-04-04T09:14:32.769Z</time></trkpt><trkpt lat="43.4024049" lon="11.6517279"><ele>467.99999999999994</ele><time>2026-04-04T09:14:33.769Z</time></trkpt><trkpt lat="43.4024824" lon="11.6518356"><ele>467.99999999999994</ele><time>2026-04-04T09:14:34.769Z</time></trkpt><trkpt lat="43.4025555" lon="11.6519236"><ele>468.0</ele><time>2026-04-04T09:14:35.769Z</time></trkpt><trkpt lat="43.4026139" lon="11.6519915"><ele>468.0</ele><time>2026-04-04T09:14:36.769Z</time></trkpt><trkpt lat="43.4026859" lon="11.6520639"><ele>467.79999999999995</ele><time>2026-04-04T09:14:38.769Z</time></trkpt><trkpt lat="43.4027641" lon="11.6521222"><ele>467.59999999999997</ele><time>2026-04-04T09:14:41.77Z</time></trkpt><trkpt lat="43.4028436" lon="11.652122"><ele>467.40000000000003</ele><time>2026-04-04T09:14:42.77Z</time></trkpt><trkpt lat="43.4029369" lon="11.6521139"><ele>467.20000000000005</ele><time>2026-04-04T09:14:43.769Z</time></trkpt><trkpt lat="43.4030449" lon="11.6521045"><ele>467.0</ele><time>2026-04-04T09:14:44.77Z</time></trkpt><trkpt lat="43.4031639" lon="11.652092"><ele>467.75</ele><time>2026-04-04T09:14:45.77Z</time></trkpt><trkpt lat="43.4032923" lon="11.6520903"><ele>468.5</ele><time>2026-04-04T09:14:46.769Z</time></trkpt><trkpt lat="43.4034343" lon="11.6521046"><ele>469.25</ele><time>2026-04-04T09:14:47.769Z</time></trkpt><trkpt lat="43.4035814" lon="11.652128"><ele>470.0</ele><time>2026-04-04T09:14:48.769Z</time></trkpt><trkpt lat="43.4037292" lon="11.6521537"><ele>472.25</ele><time>2026-04-04T09:14:49.769Z</time></trkpt><trkpt lat="43.4038641" lon="11.6521867"><ele>474.5</ele><time>2026-04-04T09:14:50.769Z</time></trkpt><trkpt lat="43.4039894" lon="11.6522165"><ele>476.75</ele><time>2026-04-04T09:14:51.769Z</time></trkpt><trkpt lat="43.4041058" lon="11.6522449"><ele>479.0</ele><time>2026-04-04T09:14:52.769Z</time></trkpt><trkpt lat="43.4042097" lon="11.6522938"><ele>479.0</ele><time>2026-04-04T09:14:53.769Z</time></trkpt><trkpt lat="43.4043037" lon="11.6523657"><ele>479.0</ele><time>2026-04-04T09:14:54.769Z</time></trkpt><trkpt lat="43.4043733" lon="11.6524842"><ele>479.0</ele><time>2026-04-04T09:14:55.77Z</time></trkpt><trkpt lat="43.4044357" lon="11.6526103"><ele>479.0</ele><time>2026-04-04T09:14:56.769Z</time></trkpt><trkpt lat="43.4045168" lon="11.6527364"><ele>478.25</ele><time>2026-04-04T09:14:57.769Z</time></trkpt><trkpt lat="43.4046099" lon="11.6528576"><ele>477.5</ele><time>2026-04-04T09:14:58.769Z</time></trkpt><trkpt lat="43.4047151" lon="11.6529828"><ele>476.75</ele><time>2026-04-04T09:14:59.769Z</time></trkpt><trkpt lat="43.4048186" lon="11.6530838"><ele>476.0</ele><time>2026-04-04T09:15:00.769Z</time></trkpt><trkpt lat="43.4049212" lon="11.6531437"><ele>479.75</ele><time>2026-04-04T09:15:01.769Z</time></trkpt><trkpt lat="43.4050345" lon="11.653145"><ele>483.5</ele><time>2026-04-04T09:15:02.769Z</time></trkpt><trkpt lat="43.4051513" lon="11.6530913"><ele>487.25</ele><time>2026-04-04T09:15:03.77Z</time></trkpt><trkpt lat="43.4052638" lon="11.6530196"><ele>491.0</ele><time>2026-04-04T09:15:04.769Z</time></trkpt><trkpt lat="43.4053708" lon="11.6529267"><ele>491.0</ele><time>2026-04-04T09:15:05.769Z</time></trkpt><trkpt lat="43.4054807" lon="11.6528228"><ele>491.0</ele><time>2026-04-04T09:15:06.769Z</time></trkpt><trkpt lat="43.4055864" lon="11.6527312"><ele>491.0</ele><time>2026-04-04T09:15:07.769Z</time></trkpt><trkpt lat="43.405679" lon="11.6526524"><ele>491.0</ele><time>2026-04-04T09:15:08.769Z</time></trkpt><trkpt lat="43.4057651" lon="11.6525933"><ele>492.8333333333333</ele><time>2026-04-04T09:15:09.77Z</time></trkpt><trkpt lat="43.4058532" lon="11.6525476"><ele>494.66666666666663</ele><time>2026-04-04T09:15:10.769Z</time></trkpt><trkpt lat="43.4059477" lon="11.6525148"><ele>496.5</ele><time>2026-04-04T09:15:11.77Z</time></trkpt><trkpt lat="43.4060324" lon="11.6524926"><ele>498.33333333333337</ele><time>2026-04-04T09:15:12.769Z</time></trkpt><trkpt lat="43.4061182" lon="11.6525043"><ele>500.1666666666667</ele><time>2026-04-04T09:15:13.77Z</time></trkpt><trkpt lat="43.4061854" lon="11.6525453"><ele>502.0</ele><time>2026-04-04T09:15:14.769Z</time></trkpt><trkpt lat="43.4062373" lon="11.6526034"><ele>501.99999999999994</ele><time>2026-04-04T09:15:15.769Z</time></trkpt><trkpt lat="43.4062462" lon="11.6526997"><ele>502.0</ele><time>2026-04-04T09:15:16.769Z</time></trkpt><trkpt lat="43.4062272" lon="11.6528099"><ele>501.99999999999994</ele><time>2026-04-04T09:15:17.769Z</time></trkpt><trkpt lat="43.4061927" lon="11.6529028"><ele>501.99999999999994</ele><time>2026-04-04T09:15:18.769Z</time></trkpt><trkpt lat="43.4061656" lon="11.6529959"><ele>502.0</ele><time>2026-04-04T09:15:19.769Z</time></trkpt><trkpt lat="43.4061648" lon="11.6530852"><ele>501.99999999999994</ele><time>2026-04-04T09:15:20.769Z</time></trkpt><trkpt lat="43.4061892" lon="11.6531656"><ele>501.99999999999994</ele><time>2026-04-04T09:15:21.769Z</time></trkpt><trkpt lat="43.4062608" lon="11.653289"><ele>502.71428571428567</ele><time>2026-04-04T09:15:23.769Z</time></trkpt><trkpt lat="43.4063068" lon="11.653357"><ele>503.42857142857144</ele><time>2026-04-04T09:15:24.769Z</time></trkpt><trkpt lat="43.4063522" lon="11.6534238"><ele>504.1428571428571</ele><time>2026-04-04T09:15:25.769Z</time></trkpt><trkpt lat="43.4064058" lon="11.6534924"><ele>504.85714285714283</ele><time>2026-04-04T09:15:26.769Z</time></trkpt><trkpt lat="43.4064612" lon="11.6535653"><ele>505.57142857142856</ele><time>2026-04-04T09:15:27.769Z</time></trkpt><trkpt lat="43.4065183" lon="11.6536353"><ele>506.2857142857143</ele><time>2026-04-04T09:15:28.769Z</time></trkpt><trkpt lat="43.4065766" lon="11.6537182"><ele>507.0</ele><time>2026-04-04T09:15:29.769Z</time></trkpt><trkpt lat="43.4066415" lon="11.6537906"><ele>507.20000000000005</ele><time>2026-04-04T09:15:30.769Z</time></trkpt><trkpt lat="43.4067151" lon="11.653871"><ele>507.40000000000003</ele><time>2026-04-04T09:15:31.769Z</time></trkpt><trkpt lat="43.4067959" lon="11.6539378"><ele>507.59999999999997</ele><time>2026-04-04T09:15:32.769Z</time></trkpt><trkpt lat="43.4068736" lon="11.6540061"><ele>507.79999999999995</ele><time>2026-04-04T09:15:33.769Z</time></trkpt><trkpt lat="43.4069516" lon="11.6540611"><ele>508.0</ele><time>2026-04-04T09:15:34.769Z</time></trkpt><trkpt lat="43.4070372" lon="11.654108"><ele>508.0</ele><time>2026-04-04T09:15:35.769Z</time></trkpt><trkpt lat="43.4071366" lon="11.6541548"><ele>507.99999999999994</ele><time>2026-04-04T09:15:36.77Z</time></trkpt><trkpt lat="43.407238" lon="11.6542009"><ele>507.99999999999994</ele><time>2026-04-04T09:15:37.77Z</time></trkpt><trkpt lat="43.4073415" lon="11.6542428"><ele>508.0</ele><time>2026-04-04T09:15:38.769Z</time></trkpt><trkpt lat="43.4074345" lon="11.6542869"><ele>508.0</ele><time>2026-04-04T09:15:39.769Z</time></trkpt><trkpt lat="43.4075246" lon="11.6543308"><ele>507.4</ele><time>2026-04-04T09:15:40.769Z</time></trkpt><trkpt lat="43.4076137" lon="11.6543756"><ele>506.79999999999995</ele><time>2026-04-04T09:15:41.769Z</time></trkpt><trkpt lat="43.4077046" lon="11.6544194"><ele>506.2</ele><time>2026-04-04T09:15:42.769Z</time></trkpt><trkpt lat="43.4077927" lon="11.6544581"><ele>505.6</ele><time>2026-04-04T09:15:43.769Z</time></trkpt><trkpt lat="43.4078797" lon="11.6544975"><ele>505.0</ele><time>2026-04-04T09:15:44.769Z</time></trkpt><trkpt lat="43.4079607" lon="11.6545376"><ele>505.33333333333337</ele><time>2026-04-04T09:15:45.769Z</time></trkpt><trkpt lat="43.4080346" lon="11.6545756"><ele>505.6666666666667</ele><time>2026-04-04T09:15:46.769Z</time></trkpt><trkpt lat="43.4081102" lon="11.6546127"><ele>506.0</ele><time>2026-04-04T09:15:47.769Z</time></trkpt><trkpt lat="43.4081823" lon="11.6546455"><ele>506.33333333333337</ele><time>2026-04-04T09:15:48.769Z</time></trkpt><trkpt lat="43.4082464" lon="11.6546806"><ele>506.6666666666667</ele><time>2026-04-04T09:15:49.769Z</time></trkpt><trkpt lat="43.4083027" lon="11.6547209"><ele>507.0</ele><time>2026-04-04T09:15:50.769Z</time></trkpt><trkpt lat="43.4083949" lon="11.6548406"><ele>507.0</ele><time>2026-04-04T09:15:52.769Z</time></trkpt><trkpt lat="43.4084407" lon="11.6549411"><ele>507.00000000000006</ele><time>2026-04-04T09:15:53.769Z</time></trkpt><trkpt lat="43.4084711" lon="11.6550483"><ele>507.00000000000006</ele><time>2026-04-04T09:15:54.769Z</time></trkpt><trkpt lat="43.4084918" lon="11.6551732"><ele>507.0</ele><time>2026-04-04T09:15:55.769Z</time></trkpt><trkpt lat="43.4085082" lon="11.6553028"><ele>507.0</ele><time>2026-04-04T09:15:56.769Z</time></trkpt><trkpt lat="43.4085268" lon="11.6554308"><ele>506.0</ele><time>2026-04-04T09:15:57.769Z</time></trkpt><trkpt lat="43.4085415" lon="11.6555573"><ele>505.0</ele><time>2026-04-04T09:15:58.769Z</time></trkpt><trkpt lat="43.4085566" lon="11.6556804"><ele>504.0</ele><time>2026-04-04T09:15:59.77Z</time></trkpt><trkpt lat="43.4085733" lon="11.6557934"><ele>503.0</ele><time>2026-04-04T09:16:00.769Z</time></trkpt><trkpt lat="43.4085909" lon="11.6558897"><ele>502.0</ele><time>2026-04-04T09:16:01.769Z</time></trkpt><trkpt lat="43.4085963" lon="11.6559803"><ele>501.0</ele><time>2026-04-04T09:16:02.769Z</time></trkpt><trkpt lat="43.408534" lon="11.6561396"><ele>500.0</ele><time>2026-04-04T09:16:04.769Z</time></trkpt><trkpt lat="43.4084619" lon="11.6562299"><ele>499.0</ele><time>2026-04-04T09:16:05.769Z</time></trkpt><trkpt lat="43.4083683" lon="11.6563107"><ele>498.0</ele><time>2026-04-04T09:16:06.769Z</time></trkpt><trkpt lat="43.4082727" lon="11.6563893"><ele>497.0</ele><time>2026-04-04T09:16:07.769Z</time></trkpt><trkpt lat="43.4081694" lon="11.6564635"><ele>496.0</ele><time>2026-04-04T09:16:08.769Z</time></trkpt><trkpt lat="43.4080596" lon="11.6565288"><ele>494.75</ele><time>2026-04-04T09:16:09.769Z</time></trkpt><trkpt lat="43.4079511" lon="11.6566055"><ele>493.5</ele><time>2026-04-04T09:16:10.769Z</time></trkpt><trkpt lat="43.4078466" lon="11.6566919"><ele>492.25</ele><time>2026-04-04T09:16:11.769Z</time></trkpt><trkpt lat="43.4077474" lon="11.6567877"><ele>491.0</ele><time>2026-04-04T09:16:12.769Z</time></trkpt><trkpt lat="43.4076501" lon="11.6568797"><ele>489.5</ele><time>2026-04-04T09:16:13.77Z</time></trkpt><trkpt lat="43.4075572" lon="11.6569791"><ele>488.0</ele><time>2026-04-04T09:16:14.769Z</time></trkpt><trkpt lat="43.4074662" lon="11.6570872"><ele>486.5</ele><time>2026-04-04T09:16:15.769Z</time></trkpt><trkpt lat="43.40738" lon="11.6572048"><ele>485.0</ele><time>2026-04-04T09:16:16.769Z</time></trkpt><trkpt lat="43.4073021" lon="11.6573338"><ele>485.0</ele><time>2026-04-04T09:16:17.769Z</time></trkpt><trkpt lat="43.4072303" lon="11.6574624"><ele>485.0</ele><time>2026-04-04T09:16:18.769Z</time></trkpt><trkpt lat="43.407171" lon="11.6576032"><ele>485.0</ele><time>2026-04-04T09:16:19.77Z</time></trkpt><trkpt lat="43.4071191" lon="11.6577454"><ele>485.0</ele><time>2026-04-04T09:16:20.769Z</time></trkpt><trkpt lat="43.4070832" lon="11.6578761"><ele>485.0</ele><time>2026-04-04T09:16:21.769Z</time></trkpt><trkpt lat="43.4070525" lon="11.6579848"><ele>485.0</ele><time>2026-04-04T09:16:22.769Z</time></trkpt><trkpt lat="43.4070097" lon="11.6580776"><ele>485.0</ele><time>2026-04-04T09:16:23.769Z</time></trkpt><trkpt lat="43.4069131" lon="11.6581734"><ele>485.0</ele><time>2026-04-04T09:16:25.769Z</time></trkpt><trkpt lat="43.4068291" lon="11.6581931"><ele>485.0</ele><time>2026-04-04T09:16:26.769Z</time></trkpt><trkpt lat="43.4067389" lon="11.6582056"><ele>484.99999999999994</ele><time>2026-04-04T09:16:27.769Z</time></trkpt><trkpt lat="43.4066678" lon="11.6581987"><ele>485.0</ele><time>2026-04-04T09:16:28.769Z</time></trkpt><trkpt lat="43.4065627" lon="11.6581844"><ele>485.0</ele><time>2026-04-04T09:16:30.769Z</time></trkpt><trkpt lat="43.4064764" lon="11.6581778"><ele>485.0</ele><time>2026-04-04T09:16:32.769Z</time></trkpt><trkpt lat="43.4064115" lon="11.6581737"><ele>484.99999999999994</ele><time>2026-04-04T09:16:34.769Z</time></trkpt><trkpt lat="43.4063373" lon="11.6581919"><ele>485.0</ele><time>2026-04-04T09:17:48.769Z</time></trkpt><trkpt lat="43.4062268" lon="11.6582222"><ele>483.2</ele><time>2026-04-04T09:17:50.769Z</time></trkpt><trkpt lat="43.4060978" lon="11.6582522"><ele>481.4</ele><time>2026-04-04T09:17:52.77Z</time></trkpt><trkpt lat="43.4060119" lon="11.6582843"><ele>479.6</ele><time>2026-04-04T09:17:53.769Z</time></trkpt><trkpt lat="43.4059137" lon="11.6583135"><ele>477.8</ele><time>2026-04-04T09:17:54.769Z</time></trkpt><trkpt lat="43.4058174" lon="11.6583594"><ele>476.0</ele><time>2026-04-04T09:17:55.769Z</time></trkpt><trkpt lat="43.4057242" lon="11.6584068"><ele>476.0</ele><time>2026-04-04T09:17:56.769Z</time></trkpt><trkpt lat="43.4056321" lon="11.658459"><ele>476.0</ele><time>2026-04-04T09:17:57.769Z</time></trkpt><trkpt lat="43.4055323" lon="11.6585042"><ele>476.0</ele><time>2026-04-04T09:17:58.769Z</time></trkpt><trkpt lat="43.4054219" lon="11.658564"><ele>476.0</ele><time>2026-04-04T09:17:59.77Z</time></trkpt><trkpt lat="43.4053051" lon="11.6586267"><ele>476.0</ele><time>2026-04-04T09:18:00.769Z</time></trkpt><trkpt lat="43.4051967" lon="11.6586868"><ele>474.5</ele><time>2026-04-04T09:18:01.769Z</time></trkpt><trkpt lat="43.4050876" lon="11.658745"><ele>473.0</ele><time>2026-04-04T09:18:02.769Z</time></trkpt><trkpt lat="43.4049777" lon="11.6587929"><ele>471.5</ele><time>2026-04-04T09:18:03.77Z</time></trkpt><trkpt lat="43.4048668" lon="11.6588294"><ele>470.0</ele><time>2026-04-04T09:18:04.769Z</time></trkpt><trkpt lat="43.4047594" lon="11.6588573"><ele>471.75</ele><time>2026-04-04T09:18:05.769Z</time></trkpt><trkpt lat="43.4046523" lon="11.6589056"><ele>473.5</ele><time>2026-04-04T09:18:06.769Z</time></trkpt><trkpt lat="43.4045396" lon="11.6589699"><ele>475.25</ele><time>2026-04-04T09:18:07.769Z</time></trkpt><trkpt lat="43.4044326" lon="11.6590472"><ele>477.0</ele><time>2026-04-04T09:18:08.769Z</time></trkpt><trkpt lat="43.4043314" lon="11.6591221"><ele>477.0</ele><time>2026-04-04T09:18:09.769Z</time></trkpt><trkpt lat="43.4042215" lon="11.659209"><ele>477.0</ele><time>2026-04-04T09:18:10.769Z</time></trkpt><trkpt lat="43.4041175" lon="11.6593214"><ele>477.0</ele><time>2026-04-04T09:18:11.769Z</time></trkpt><trkpt lat="43.4040211" lon="11.6594494"><ele>477.0</ele><time>2026-04-04T09:18:12.769Z</time></trkpt><trkpt lat="43.4039333" lon="11.6595721"><ele>476.20000000000005</ele><time>2026-04-04T09:18:13.769Z</time></trkpt><trkpt lat="43.4038602" lon="11.659697"><ele>475.40000000000003</ele><time>2026-04-04T09:18:14.769Z</time></trkpt><trkpt lat="43.4037905" lon="11.6598243"><ele>474.59999999999997</ele><time>2026-04-04T09:18:15.769Z</time></trkpt><trkpt lat="43.4037298" lon="11.6599357"><ele>473.79999999999995</ele><time>2026-04-04T09:18:16.769Z</time></trkpt><trkpt lat="43.4036766" lon="11.6600227"><ele>473.0</ele><time>2026-04-04T09:18:17.77Z</time></trkpt><trkpt lat="43.4036122" lon="11.6600954"><ele>473.59999999999997</ele><time>2026-04-04T09:18:18.769Z</time></trkpt><trkpt lat="43.4035358" lon="11.6601536"><ele>474.19999999999993</ele><time>2026-04-04T09:18:19.769Z</time></trkpt><trkpt lat="43.4034386" lon="11.6601969"><ele>474.8</ele><time>2026-04-04T09:18:20.769Z</time></trkpt><trkpt lat="43.4033264" lon="11.6602437"><ele>475.4</ele><time>2026-04-04T09:18:21.769Z</time></trkpt><trkpt lat="43.4032175" lon="11.660293"><ele>476.0</ele><time>2026-04-04T09:18:22.77Z</time></trkpt><trkpt lat="43.4031018" lon="11.6603398"><ele>477.66666666666663</ele><time>2026-04-04T09:18:23.769Z</time></trkpt><trkpt lat="43.4029963" lon="11.6603742"><ele>479.3333333333333</ele><time>2026-04-04T09:18:24.769Z</time></trkpt><trkpt lat="43.4029069" lon="11.6604122"><ele>481.0</ele><time>2026-04-04T09:18:25.769Z</time></trkpt><trkpt lat="43.4028294" lon="11.6604453"><ele>482.66666666666663</ele><time>2026-04-04T09:18:26.769Z</time></trkpt><trkpt lat="43.4027602" lon="11.660462"><ele>484.3333333333333</ele><time>2026-04-04T09:18:27.77Z</time></trkpt><trkpt lat="43.4026974" lon="11.6604714"><ele>486.0</ele><time>2026-04-04T09:18:28.769Z</time></trkpt><trkpt lat="43.4026316" lon="11.6604865"><ele>486.0</ele><time>2026-04-04T09:18:29.769Z</time></trkpt><trkpt lat="43.4025688" lon="11.6604971"><ele>486.0</ele><time>2026-04-04T09:18:30.77Z</time></trkpt><trkpt lat="43.402468" lon="11.6605099"><ele>486.0</ele><time>2026-04-04T09:18:32.769Z</time></trkpt><trkpt lat="43.4023758" lon="11.6605573"><ele>486.0</ele><time>2026-04-04T09:18:34.769Z</time></trkpt><trkpt lat="43.4023093" lon="11.6606573"><ele>486.0</ele><time>2026-04-04T09:18:36.769Z</time></trkpt><trkpt lat="43.4023189" lon="11.6608152"><ele>486.0</ele><time>2026-04-04T09:18:38.769Z</time></trkpt><trkpt lat="43.4023582" lon="11.6608868"><ele>486.0</ele><time>2026-04-04T09:18:39.769Z</time></trkpt><trkpt lat="43.4024255" lon="11.6610125"><ele>486.0</ele><time>2026-04-04T09:18:41.769Z</time></trkpt><trkpt lat="43.4024352" lon="11.6611898"><ele>486.0</ele><time>2026-04-04T09:18:43.769Z</time></trkpt><trkpt lat="43.4024346" lon="11.6612831"><ele>486.0</ele><time>2026-04-04T09:18:44.769Z</time></trkpt><trkpt lat="43.4024292" lon="11.6613767"><ele>486.0</ele><time>2026-04-04T09:18:45.769Z</time></trkpt><trkpt lat="43.4024342" lon="11.6614857"><ele>485.1666666666667</ele><time>2026-04-04T09:18:46.769Z</time></trkpt><trkpt lat="43.402438" lon="11.6615931"><ele>484.33333333333337</ele><time>2026-04-04T09:18:47.769Z</time></trkpt><trkpt lat="43.4024392" lon="11.661697"><ele>483.5</ele><time>2026-04-04T09:18:48.769Z</time></trkpt><trkpt lat="43.4024323" lon="11.6618058"><ele>482.6666666666667</ele><time>2026-04-04T09:18:49.769Z</time></trkpt><trkpt lat="43.402412" lon="11.6619139"><ele>481.83333333333337</ele><time>2026-04-04T09:18:50.769Z</time></trkpt><trkpt lat="43.4023919" lon="11.6620091"><ele>481.0</ele><time>2026-04-04T09:18:51.769Z</time></trkpt><trkpt lat="43.4023558" lon="11.6621087"><ele>480.00000000000006</ele><time>2026-04-04T09:18:52.77Z</time></trkpt><trkpt lat="43.4023212" lon="11.6622126"><ele>479.0</ele><time>2026-04-04T09:18:53.769Z</time></trkpt><trkpt lat="43.4022899" lon="11.6623333"><ele>478.0</ele><time>2026-04-04T09:18:54.769Z</time></trkpt><trkpt lat="43.4022709" lon="11.6624587"><ele>477.0</ele><time>2026-04-04T09:18:55.769Z</time></trkpt><trkpt lat="43.4022681" lon="11.6625815"><ele>476.00000000000006</ele><time>2026-04-04T09:18:56.769Z</time></trkpt><trkpt lat="43.4022534" lon="11.6626999"><ele>475.0</ele><time>2026-04-04T09:18:57.769Z</time></trkpt><trkpt lat="43.4022433" lon="11.6628129"><ele>474.7142857142857</ele><time>2026-04-04T09:18:58.769Z</time></trkpt><trkpt lat="43.4022342" lon="11.6629294"><ele>474.42857142857144</ele><time>2026-04-04T09:18:59.769Z</time></trkpt><trkpt lat="43.4022268" lon="11.6630386"><ele>474.14285714285717</ele><time>2026-04-04T09:19:00.769Z</time></trkpt><trkpt lat="43.4022274" lon="11.6631387"><ele>473.8571428571429</ele><time>2026-04-04T09:19:01.769Z</time></trkpt><trkpt lat="43.4022313" lon="11.6632328"><ele>473.57142857142856</ele><time>2026-04-04T09:19:02.77Z</time></trkpt><trkpt lat="43.4022325" lon="11.6633204"><ele>473.28571428571433</ele><time>2026-04-04T09:19:03.769Z</time></trkpt><trkpt lat="43.4022309" lon="11.663409"><ele>473.0</ele><time>2026-04-04T09:19:04.769Z</time></trkpt><trkpt lat="43.4022302" lon="11.663526"><ele>472.59999999999997</ele><time>2026-04-04T09:19:05.769Z</time></trkpt><trkpt lat="43.4022436" lon="11.6636484"><ele>472.19999999999993</ele><time>2026-04-04T09:19:06.769Z</time></trkpt><trkpt lat="43.4022749" lon="11.6637874"><ele>471.8</ele><time>2026-04-04T09:19:07.77Z</time></trkpt><trkpt lat="43.4023136" lon="11.6639436"><ele>471.4</ele><time>2026-04-04T09:19:08.77Z</time></trkpt><trkpt lat="43.4023513" lon="11.6641012"><ele>471.0</ele><time>2026-04-04T09:19:09.769Z</time></trkpt><trkpt lat="43.4023917" lon="11.6642584"><ele>471.0</ele><time>2026-04-04T09:19:10.769Z</time></trkpt><trkpt lat="43.4024352" lon="11.6644127"><ele>471.0</ele><time>2026-04-04T09:19:11.769Z</time></trkpt><trkpt lat="43.4024772" lon="11.6645615"><ele>471.0</ele><time>2026-04-04T09:19:12.769Z</time></trkpt><trkpt lat="43.4025167" lon="11.6646938"><ele>471.0</ele><time>2026-04-04T09:19:13.769Z</time></trkpt><trkpt lat="43.4025546" lon="11.6648172"><ele>471.0</ele><time>2026-04-04T09:19:14.769Z</time></trkpt><trkpt lat="43.4025877" lon="11.6649277"><ele>471.6666666666667</ele><time>2026-04-04T09:19:15.769Z</time></trkpt><trkpt lat="43.4026123" lon="11.6650319"><ele>472.33333333333337</ele><time>2026-04-04T09:19:16.769Z</time></trkpt><trkpt lat="43.4026362" lon="11.6651225"><ele>473.0</ele><time>2026-04-04T09:19:17.769Z</time></trkpt><trkpt lat="43.4026748" lon="11.6652007"><ele>473.6666666666667</ele><time>2026-04-04T09:19:18.77Z</time></trkpt><trkpt lat="43.4027272" lon="11.6652876"><ele>474.33333333333337</ele><time>2026-04-04T09:19:19.769Z</time></trkpt><trkpt lat="43.4027895" lon="11.665376"><ele>475.0</ele><time>2026-04-04T09:19:21.769Z</time></trkpt><trkpt lat="43.4028635" lon="11.6654267"><ele>476.4</ele><time>2026-04-04T09:19:32.769Z</time></trkpt><trkpt lat="43.4029353" lon="11.6654752"><ele>477.8</ele><time>2026-04-04T09:19:34.769Z</time></trkpt><trkpt lat="43.403024" lon="11.6655441"><ele>479.20000000000005</ele><time>2026-04-04T09:19:36.769Z</time></trkpt><trkpt lat="43.4031012" lon="11.665652"><ele>480.6</ele><time>2026-04-04T09:19:38.77Z</time></trkpt><trkpt lat="43.4032072" lon="11.6657066"><ele>482.0</ele><time>2026-04-04T09:19:40.769Z</time></trkpt><trkpt lat="43.4033333" lon="11.6657722"><ele>479.66666666666663</ele><time>2026-04-04T09:19:42.77Z</time></trkpt><trkpt lat="43.4034045" lon="11.6657898"><ele>477.3333333333333</ele><time>2026-04-04T09:19:43.769Z</time></trkpt><trkpt lat="43.4034677" lon="11.665798"><ele>475.0</ele><time>2026-04-04T09:19:44.769Z</time></trkpt><trkpt lat="43.4035359" lon="11.6658104"><ele>472.66666666666663</ele><time>2026-04-04T09:19:45.769Z</time></trkpt><trkpt lat="43.4036517" lon="11.6658134"><ele>470.3333333333333</ele><time>2026-04-04T09:19:47.769Z</time></trkpt><trkpt lat="43.403724" lon="11.6658675"><ele>468.0</ele><time>2026-04-04T09:19:49.769Z</time></trkpt><trkpt lat="43.4037853" lon="11.6658985"><ele>467.2</ele><time>2026-04-04T09:19:51.769Z</time></trkpt><trkpt lat="43.4038588" lon="11.6660104"><ele>466.4</ele><time>2026-04-04T09:19:53.769Z</time></trkpt><trkpt lat="43.4039159" lon="11.6661436"><ele>465.59999999999997</ele><time>2026-04-04T09:19:55.769Z</time></trkpt><trkpt lat="43.4039677" lon="11.6662638"><ele>464.79999999999995</ele><time>2026-04-04T09:19:57.769Z</time></trkpt><trkpt lat="43.4040001" lon="11.6663678"><ele>464.0</ele><time>2026-04-04T09:20:00.769Z</time></trkpt><trkpt lat="43.4040317" lon="11.6664449"><ele>464.00000000000006</ele><time>2026-04-04T09:20:25.769Z</time></trkpt><trkpt lat="43.4040959" lon="11.6664104"><ele>464.0</ele><time>2026-04-04T09:20:27.769Z</time></trkpt><trkpt lat="43.4041638" lon="11.6663923"><ele>464.00000000000006</ele><time>2026-04-04T09:20:28.769Z</time></trkpt><trkpt lat="43.4042429" lon="11.666397"><ele>464.00000000000006</ele><time>2026-04-04T09:20:29.769Z</time></trkpt><trkpt lat="43.4043268" lon="11.6664185"><ele>464.0</ele><time>2026-04-04T09:20:30.769Z</time></trkpt><trkpt lat="43.4043956" lon="11.6664396"><ele>464.00000000000006</ele><time>2026-04-04T09:20:31.769Z</time></trkpt><trkpt lat="43.4044597" lon="11.6664606"><ele>464.00000000000006</ele><time>2026-04-04T09:20:32.769Z</time></trkpt><trkpt lat="43.4045245" lon="11.666499"><ele>463.99999999999994</ele><time>2026-04-04T09:20:33.769Z</time></trkpt><trkpt lat="43.4045746" lon="11.6665854"><ele>464.0</ele><time>2026-04-04T09:20:34.769Z</time></trkpt><trkpt lat="43.4046164" lon="11.6666892"><ele>464.0</ele><time>2026-04-04T09:20:35.769Z</time></trkpt><trkpt lat="43.4046874" lon="11.6667771"><ele>464.0</ele><time>2026-04-04T09:20:36.769Z</time></trkpt><trkpt lat="43.4047437" lon="11.6668419"><ele>463.99999999999994</ele><time>2026-04-04T09:20:37.769Z</time></trkpt><trkpt lat="43.4048444" lon="11.6668999"><ele>464.0</ele><time>2026-04-04T09:21:06.769Z</time></trkpt><trkpt lat="43.4049121" lon="11.6668358"><ele>459.4</ele><time>2026-04-04T09:21:08.769Z</time></trkpt><trkpt lat="43.404991" lon="11.666734"><ele>454.79999999999995</ele><time>2026-04-04T09:21:10.769Z</time></trkpt><trkpt lat="43.4050638" lon="11.6666438"><ele>450.20000000000005</ele><time>2026-04-04T09:21:12.769Z</time></trkpt><trkpt lat="43.4051485" lon="11.6665927"><ele>445.6</ele><time>2026-04-04T09:21:15.769Z</time></trkpt><trkpt lat="43.4051983" lon="11.6665243"><ele>441.0</ele><time>2026-04-04T09:21:17.769Z</time></trkpt><trkpt lat="43.4052587" lon="11.6664507"><ele>441.0</ele><time>2026-04-04T09:21:19.77Z</time></trkpt><trkpt lat="43.4053378" lon="11.6663863"><ele>441.0</ele><time>2026-04-04T09:21:21.769Z</time></trkpt><trkpt lat="43.4054049" lon="11.6663555"><ele>441.0</ele><time>2026-04-04T09:21:23.769Z</time></trkpt><trkpt lat="43.4055029" lon="11.6663083"><ele>441.0</ele><time>2026-04-04T09:21:25.769Z</time></trkpt><trkpt lat="43.4055897" lon="11.6662418"><ele>441.0</ele><time>2026-04-04T09:21:27.769Z</time></trkpt><trkpt lat="43.405646" lon="11.6662976"><ele>441.0</ele><time>2026-04-04T09:21:29.77Z</time></trkpt><trkpt lat="43.4056669" lon="11.6664477"><ele>437.5</ele><time>2026-04-04T09:21:31.769Z</time></trkpt><trkpt lat="43.4056397" lon="11.666598"><ele>434.0</ele><time>2026-04-04T09:21:33.769Z</time></trkpt><trkpt lat="43.4056953" lon="11.6666827"><ele>430.5</ele><time>2026-04-04T09:21:35.769Z</time></trkpt><trkpt lat="43.405775" lon="11.6666445"><ele>427.0</ele><time>2026-04-04T09:21:37.769Z</time></trkpt><trkpt lat="43.405853" lon="11.6665962"><ele>423.5</ele><time>2026-04-04T09:21:40.769Z</time></trkpt><trkpt lat="43.4059256" lon="11.6665904"><ele>420.0</ele><time>2026-04-04T09:21:42.769Z</time></trkpt><trkpt lat="43.4060085" lon="11.6666003"><ele>420.0</ele><time>2026-04-04T09:21:43.769Z</time></trkpt><trkpt lat="43.4060971" lon="11.6666224"><ele>420.0</ele><time>2026-04-04T09:21:44.769Z</time></trkpt><trkpt lat="43.4061781" lon="11.6666752"><ele>420.0</ele><time>2026-04-04T09:21:45.769Z</time></trkpt><trkpt lat="43.4062514" lon="11.6667434"><ele>420.0</ele><time>2026-04-04T09:21:46.769Z</time></trkpt><trkpt lat="43.4063503" lon="11.6667875"><ele>420.0</ele><time>2026-04-04T09:21:48.769Z</time></trkpt><trkpt lat="43.4064164" lon="11.6667678"><ele>420.0</ele><time>2026-04-04T09:21:50.769Z</time></trkpt><trkpt lat="43.4064834" lon="11.6666979"><ele>417.1666666666667</ele><time>2026-04-04T09:23:03.77Z</time></trkpt><trkpt lat="43.4065562" lon="11.6666225"><ele>414.33333333333337</ele><time>2026-04-04T09:23:06.769Z</time></trkpt><trkpt lat="43.4066464" lon="11.6665783"><ele>411.5</ele><time>2026-04-04T09:23:09.769Z</time></trkpt><trkpt lat="43.40673" lon="11.6665673"><ele>408.6666666666667</ele><time>2026-04-04T09:23:11.769Z</time></trkpt><trkpt lat="43.4067993" lon="11.6665129"><ele>405.83333333333337</ele><time>2026-04-04T09:23:13.769Z</time></trkpt><trkpt lat="43.406839" lon="11.6664093"><ele>403.0</ele><time>2026-04-04T09:23:16.769Z</time></trkpt><trkpt lat="43.4068331" lon="11.6663106"><ele>403.00000000000006</ele><time>2026-04-04T09:23:19.769Z</time></trkpt><trkpt lat="43.4068207" lon="11.6662105"><ele>403.0</ele><time>2026-04-04T09:23:22.769Z</time></trkpt><trkpt lat="43.4067697" lon="11.6661186"><ele>403.0</ele><time>2026-04-04T09:23:24.77Z</time></trkpt><trkpt lat="43.4067095" lon="11.6660159"><ele>403.0</ele><time>2026-04-04T09:23:26.769Z</time></trkpt><trkpt lat="43.4066875" lon="11.6659134"><ele>403.00000000000006</ele><time>2026-04-04T09:23:28.769Z</time></trkpt><trkpt lat="43.4066986" lon="11.6657641"><ele>403.0</ele><time>2026-04-04T09:23:30.769Z</time></trkpt><trkpt lat="43.4067477" lon="11.6656329"><ele>401.50000000000006</ele><time>2026-04-04T09:23:32.769Z</time></trkpt><trkpt lat="43.4067976" lon="11.6655522"><ele>400.0</ele><time>2026-04-04T09:23:34.769Z</time></trkpt><trkpt lat="43.4068531" lon="11.6654943"><ele>398.5</ele><time>2026-04-04T09:23:36.769Z</time></trkpt><trkpt lat="43.406931" lon="11.6654469"><ele>397.0</ele><time>2026-04-04T09:23:39.769Z</time></trkpt><trkpt lat="43.4070121" lon="11.6654238"><ele>395.50000000000006</ele><time>2026-04-04T09:23:41.769Z</time></trkpt><trkpt lat="43.4071379" lon="11.6654271"><ele>394.0</ele><time>2026-04-04T09:23:43.769Z</time></trkpt><trkpt lat="43.4072121" lon="11.6654663"><ele>391.1666666666667</ele><time>2026-04-04T09:23:44.769Z</time></trkpt><trkpt lat="43.4072867" lon="11.6655191"><ele>388.33333333333337</ele><time>2026-04-04T09:23:45.769Z</time></trkpt><trkpt lat="43.407356" lon="11.665576"><ele>385.5</ele><time>2026-04-04T09:23:46.769Z</time></trkpt><trkpt lat="43.4074173" lon="11.6656394"><ele>382.6666666666667</ele><time>2026-04-04T09:23:47.769Z</time></trkpt><trkpt lat="43.4074696" lon="11.665697"><ele>379.83333333333337</ele><time>2026-04-04T09:23:48.769Z</time></trkpt><trkpt lat="43.4075676" lon="11.6657791"><ele>377.0</ele><time>2026-04-04T09:23:50.769Z</time></trkpt><trkpt lat="43.4076324" lon="11.6658051"><ele>377.0</ele><time>2026-04-04T09:23:53.769Z</time></trkpt><trkpt lat="43.4076773" lon="11.6659135"><ele>377.0</ele><time>2026-04-04T09:23:56.769Z</time></trkpt><trkpt lat="43.4077335" lon="11.6659815"><ele>377.0</ele><time>2026-04-04T09:23:58.769Z</time></trkpt><trkpt lat="43.4078079" lon="11.6660035"><ele>377.0</ele><time>2026-04-04T09:24:00.769Z</time></trkpt><trkpt lat="43.4078735" lon="11.666029"><ele>377.0</ele><time>2026-04-04T09:24:02.769Z</time></trkpt><trkpt lat="43.4079399" lon="11.6660739"><ele>377.0</ele><time>2026-04-04T09:24:05.769Z</time></trkpt><trkpt lat="43.4080179" lon="11.6660172"><ele>373.5</ele><time>2026-04-04T09:24:08.769Z</time></trkpt><trkpt lat="43.4081181" lon="11.6660384"><ele>370.0</ele><time>2026-04-04T09:24:10.769Z</time></trkpt><trkpt lat="43.408185" lon="11.6661057"><ele>366.5</ele><time>2026-04-04T09:24:12.769Z</time></trkpt><trkpt lat="43.40825" lon="11.6661205"><ele>363.0</ele><time>2026-04-04T09:24:15.769Z</time></trkpt><trkpt lat="43.4083336" lon="11.6661249"><ele>359.5</ele><time>2026-04-04T09:24:19.769Z</time></trkpt><trkpt lat="43.4084006" lon="11.6661911"><ele>356.0</ele><time>2026-04-04T09:24:25.769Z</time></trkpt><trkpt lat="43.4084417" lon="11.6662653"><ele>355.5</ele><time>2026-04-04T09:24:30.769Z</time></trkpt><trkpt lat="43.4085183" lon="11.6662642"><ele>355.0</ele><time>2026-04-04T09:24:37.769Z</time></trkpt><trkpt lat="43.4085808" lon="11.6663101"><ele>354.5</ele><time>2026-04-04T09:24:40.769Z</time></trkpt><trkpt lat="43.4086593" lon="11.6663865"><ele>354.0</ele><time>2026-04-04T09:24:43.77Z</time></trkpt><trkpt lat="43.408727" lon="11.666445"><ele>353.5</ele><time>2026-04-04T09:24:45.769Z</time></trkpt><trkpt lat="43.4088187" lon="11.666464"><ele>353.0</ele><time>2026-04-04T09:24:47.769Z</time></trkpt><trkpt lat="43.4088905" lon="11.666457"><ele>350.83333333333337</ele><time>2026-04-04T09:24:49.769Z</time></trkpt><trkpt lat="43.408968" lon="11.6664744"><ele>348.6666666666667</ele><time>2026-04-04T09:24:51.769Z</time></trkpt><trkpt lat="43.4090318" lon="11.6664619"><ele>346.5</ele><time>2026-04-04T09:24:53.769Z</time></trkpt><trkpt lat="43.4091116" lon="11.6664325"><ele>344.3333333333333</ele><time>2026-04-04T09:24:56.769Z</time></trkpt><trkpt lat="43.4091849" lon="11.6663648"><ele>342.16666666666663</ele><time>2026-04-04T09:24:59.769Z</time></trkpt><trkpt lat="43.4092907" lon="11.6663577"><ele>340.0</ele><time>2026-04-04T09:25:01.769Z</time></trkpt><trkpt lat="43.4093553" lon="11.6663598"><ele>340.0</ele><time>2026-04-04T09:25:02.769Z</time></trkpt><trkpt lat="43.4094687" lon="11.6663637"><ele>340.0</ele><time>2026-04-04T09:25:04.769Z</time></trkpt><trkpt lat="43.4095828" lon="11.6663902"><ele>340.0</ele><time>2026-04-04T09:25:06.769Z</time></trkpt><trkpt lat="43.4096417" lon="11.6664227"><ele>340.0</ele><time>2026-04-04T09:25:07.769Z</time></trkpt><trkpt lat="43.4097067" lon="11.6664761"><ele>340.0</ele><time>2026-04-04T09:25:08.769Z</time></trkpt><trkpt lat="43.4097836" lon="11.6665231"><ele>339.16666666666663</ele><time>2026-04-04T09:25:09.769Z</time></trkpt><trkpt lat="43.4098575" lon="11.6665595"><ele>338.3333333333333</ele><time>2026-04-04T09:25:10.769Z</time></trkpt><trkpt lat="43.409932" lon="11.666591"><ele>337.5</ele><time>2026-04-04T09:25:11.769Z</time></trkpt><trkpt lat="43.4099983" lon="11.6666324"><ele>336.6666666666667</ele><time>2026-04-04T09:25:12.77Z</time></trkpt><trkpt lat="43.4100521" lon="11.6666843"><ele>335.83333333333337</ele><time>2026-04-04T09:25:13.769Z</time></trkpt><trkpt lat="43.4101277" lon="11.6667494"><ele>335.0</ele><time>2026-04-04T09:25:15.769Z</time></trkpt><trkpt lat="43.41019" lon="11.6668091"><ele>335.0</ele><time>2026-04-04T09:25:17.769Z</time></trkpt><trkpt lat="43.410243" lon="11.6668574"><ele>335.0</ele><time>2026-04-04T09:25:20.769Z</time></trkpt><trkpt lat="43.410328" lon="11.6668734"><ele>335.0</ele><time>2026-04-04T09:25:24.77Z</time></trkpt><trkpt lat="43.4103952" lon="11.6669107"><ele>335.0</ele><time>2026-04-04T09:25:26.769Z</time></trkpt><trkpt lat="43.4104644" lon="11.6669389"><ele>335.0</ele><time>2026-04-04T09:25:28.769Z</time></trkpt><trkpt lat="43.4105733" lon="11.6669824"><ele>335.0</ele><time>2026-04-04T09:25:30.769Z</time></trkpt><trkpt lat="43.410669" lon="11.6670161"><ele>334.8</ele><time>2026-04-04T09:25:32.77Z</time></trkpt><trkpt lat="43.410754" lon="11.6669999"><ele>334.6</ele><time>2026-04-04T09:25:34.769Z</time></trkpt><trkpt lat="43.4108579" lon="11.6669779"><ele>334.4</ele><time>2026-04-04T09:25:36.769Z</time></trkpt><trkpt lat="43.4109571" lon="11.66689"><ele>334.2</ele><time>2026-04-04T09:25:38.769Z</time></trkpt><trkpt lat="43.4110461" lon="11.6668415"><ele>334.0</ele><time>2026-04-04T09:25:40.77Z</time></trkpt><trkpt lat="43.4111567" lon="11.6668399"><ele>334.0</ele><time>2026-04-04T09:25:42.769Z</time></trkpt><trkpt lat="43.4112269" lon="11.666889"><ele>334.0</ele><time>2026-04-04T09:25:45.783Z</time></trkpt><trkpt lat="43.4112972" lon="11.6668763"><ele>334.0</ele><time>2026-04-04T09:25:48.81Z</time></trkpt><trkpt lat="43.4113325" lon="11.6667678"><ele>334.0</ele><time>2026-04-04T09:25:51.84Z</time></trkpt><trkpt lat="43.4114354" lon="11.666706"><ele>334.0</ele><time>2026-04-04T09:25:53.769Z</time></trkpt><trkpt lat="43.4115338" lon="11.6666883"><ele>334.0</ele><time>2026-04-04T09:25:54.769Z</time></trkpt><trkpt lat="43.4116088" lon="11.6666905"><ele>332.5</ele><time>2026-04-04T09:25:55.77Z</time></trkpt><trkpt lat="43.4116743" lon="11.666686"><ele>331.0</ele><time>2026-04-04T09:25:56.769Z</time></trkpt><trkpt lat="43.4117852" lon="11.6666751"><ele>329.5</ele><time>2026-04-04T09:25:58.769Z</time></trkpt><trkpt lat="43.4119103" lon="11.6666657"><ele>328.0</ele><time>2026-04-04T09:26:00.769Z</time></trkpt><trkpt lat="43.4119739" lon="11.6666855"><ele>326.5</ele><time>2026-04-04T09:26:01.769Z</time></trkpt><trkpt lat="43.4120528" lon="11.6667113"><ele>325.0</ele><time>2026-04-04T09:26:02.769Z</time></trkpt><trkpt lat="43.4121373" lon="11.6667273"><ele>324.5</ele><time>2026-04-04T09:26:03.769Z</time></trkpt><trkpt lat="43.4122132" lon="11.6667338"><ele>324.0</ele><time>2026-04-04T09:26:04.769Z</time></trkpt><trkpt lat="43.4123016" lon="11.6667636"><ele>323.5</ele><time>2026-04-04T09:26:05.769Z</time></trkpt><trkpt lat="43.4123808" lon="11.6667852"><ele>323.0</ele><time>2026-04-04T09:26:06.769Z</time></trkpt><trkpt lat="43.4124733" lon="11.6668322"><ele>322.5</ele><time>2026-04-04T09:26:07.769Z</time></trkpt><trkpt lat="43.4125542" lon="11.666859"><ele>322.0</ele><time>2026-04-04T09:26:08.769Z</time></trkpt><trkpt lat="43.412641" lon="11.6668833"><ele>322.0</ele><time>2026-04-04T09:26:09.769Z</time></trkpt><trkpt lat="43.4127345" lon="11.6669061"><ele>322.0</ele><time>2026-04-04T09:26:10.769Z</time></trkpt><trkpt lat="43.412811" lon="11.6669174"><ele>322.0</ele><time>2026-04-04T09:26:11.769Z</time></trkpt><trkpt lat="43.4128836" lon="11.6669222"><ele>322.0</ele><time>2026-04-04T09:26:12.769Z</time></trkpt><trkpt lat="43.4129518" lon="11.666926"><ele>322.0</ele><time>2026-04-04T09:26:13.769Z</time></trkpt><trkpt lat="43.4130155" lon="11.6669346"><ele>322.0</ele><time>2026-04-04T09:26:14.769Z</time></trkpt><trkpt lat="43.4131078" lon="11.6669232"><ele>320.6</ele><time>2026-04-04T09:26:16.769Z</time></trkpt><trkpt lat="43.4132241" lon="11.6668916"><ele>319.20000000000005</ele><time>2026-04-04T09:26:18.769Z</time></trkpt><trkpt lat="43.4133322" lon="11.666874"><ele>317.8</ele><time>2026-04-04T09:26:20.769Z</time></trkpt><trkpt lat="43.413447" lon="11.6668294"><ele>316.4</ele><time>2026-04-04T09:26:22.77Z</time></trkpt><trkpt lat="43.4135084" lon="11.6667924"><ele>315.0</ele><time>2026-04-04T09:26:23.769Z</time></trkpt><trkpt lat="43.4135621" lon="11.6667429"><ele>315.0</ele><time>2026-04-04T09:26:24.769Z</time></trkpt><trkpt lat="43.4136181" lon="11.6666605"><ele>315.0</ele><time>2026-04-04T09:26:25.769Z</time></trkpt><trkpt lat="43.4136671" lon="11.6665715"><ele>315.0</ele><time>2026-04-04T09:26:26.769Z</time></trkpt><trkpt lat="43.4137163" lon="11.6664937"><ele>315.0</ele><time>2026-04-04T09:26:27.77Z</time></trkpt><trkpt lat="43.4137902" lon="11.6664162"><ele>315.0</ele><time>2026-04-04T09:26:29.769Z</time></trkpt><trkpt lat="43.4138594" lon="11.6663782"><ele>315.0</ele><time>2026-04-04T09:26:32.769Z</time></trkpt><trkpt lat="43.4139479" lon="11.6664005"><ele>314.0</ele><time>2026-04-04T09:26:35.769Z</time></trkpt><trkpt lat="43.414015" lon="11.6664055"><ele>313.0</ele><time>2026-04-04T09:26:36.769Z</time></trkpt><trkpt lat="43.4141049" lon="11.6664039"><ele>312.0</ele><time>2026-04-04T09:26:37.769Z</time></trkpt><trkpt lat="43.4141891" lon="11.6664151"><ele>311.0</ele><time>2026-04-04T09:26:38.769Z</time></trkpt><trkpt lat="43.4142741" lon="11.6664326"><ele>310.0</ele><time>2026-04-04T09:26:39.769Z</time></trkpt><trkpt lat="43.4143575" lon="11.6664709"><ele>309.0</ele><time>2026-04-04T09:26:40.769Z</time></trkpt><trkpt lat="43.4144326" lon="11.6665098"><ele>309.0</ele><time>2026-04-04T09:26:41.769Z</time></trkpt><trkpt lat="43.4145196" lon="11.6665258"><ele>309.0</ele><time>2026-04-04T09:26:42.769Z</time></trkpt><trkpt lat="43.4145927" lon="11.6665234"><ele>309.0</ele><time>2026-04-04T09:26:43.769Z</time></trkpt><trkpt lat="43.4147041" lon="11.666525"><ele>309.0</ele><time>2026-04-04T09:26:45.769Z</time></trkpt><trkpt lat="43.4148174" lon="11.6665067"><ele>309.0</ele><time>2026-04-04T09:26:47.77Z</time></trkpt><trkpt lat="43.4148804" lon="11.6665025"><ele>309.0</ele><time>2026-04-04T09:26:48.769Z</time></trkpt><trkpt lat="43.4149455" lon="11.6665015"><ele>308.6666666666667</ele><time>2026-04-04T09:26:49.769Z</time></trkpt><trkpt lat="43.415027" lon="11.6665015"><ele>308.3333333333333</ele><time>2026-04-04T09:26:51.769Z</time></trkpt><trkpt lat="43.4151039" lon="11.6664708"><ele>308.0</ele><time>2026-04-04T09:26:54.769Z</time></trkpt><trkpt lat="43.4151889" lon="11.6664798"><ele>307.66666666666663</ele><time>2026-04-04T09:26:57.77Z</time></trkpt><trkpt lat="43.4152593" lon="11.6665315"><ele>307.3333333333333</ele><time>2026-04-04T09:27:00.77Z</time></trkpt><trkpt lat="43.4153127" lon="11.6666185"><ele>307.0</ele><time>2026-04-04T09:27:05.769Z</time></trkpt><trkpt lat="43.4154136" lon="11.6665896"><ele>306.3333333333333</ele><time>2026-04-04T09:27:08.769Z</time></trkpt><trkpt lat="43.4154892" lon="11.6665672"><ele>305.66666666666663</ele><time>2026-04-04T09:27:09.77Z</time></trkpt><trkpt lat="43.4155771" lon="11.6665704"><ele>305.0</ele><time>2026-04-04T09:27:10.769Z</time></trkpt><trkpt lat="43.4156712" lon="11.6666051"><ele>304.3333333333333</ele><time>2026-04-04T09:27:11.769Z</time></trkpt><trkpt lat="43.415759" lon="11.6666496"><ele>303.6666666666667</ele><time>2026-04-04T09:27:12.769Z</time></trkpt><trkpt lat="43.4158391" lon="11.6666825"><ele>303.0</ele><time>2026-04-04T09:27:13.769Z</time></trkpt><trkpt lat="43.4159141" lon="11.6667047"><ele>303.0</ele><time>2026-04-04T09:27:14.77Z</time></trkpt><trkpt lat="43.4159874" lon="11.6667084"><ele>303.0</ele><time>2026-04-04T09:27:15.77Z</time></trkpt><trkpt lat="43.4160695" lon="11.6667126"><ele>303.0</ele><time>2026-04-04T09:27:16.769Z</time></trkpt><trkpt lat="43.4161633" lon="11.6667097"><ele>303.0</ele><time>2026-04-04T09:27:17.77Z</time></trkpt><trkpt lat="43.4162512" lon="11.6667168"><ele>303.0</ele><time>2026-04-04T09:27:18.77Z</time></trkpt><trkpt lat="43.4163294" lon="11.6667213"><ele>303.0</ele><time>2026-04-04T09:27:19.769Z</time></trkpt><trkpt lat="43.4164158" lon="11.6667262"><ele>302.3333333333333</ele><time>2026-04-04T09:27:20.769Z</time></trkpt><trkpt lat="43.4164997" lon="11.6667212"><ele>301.6666666666667</ele><time>2026-04-04T09:27:21.769Z</time></trkpt><trkpt lat="43.4165709" lon="11.6667072"><ele>301.0</ele><time>2026-04-04T09:27:22.769Z</time></trkpt><trkpt lat="43.4166367" lon="11.6666941"><ele>300.33333333333337</ele><time>2026-04-04T09:27:23.769Z</time></trkpt><trkpt lat="43.4167141" lon="11.6666851"><ele>299.6666666666667</ele><time>2026-04-04T09:27:24.769Z</time></trkpt><trkpt lat="43.4167924" lon="11.6666979"><ele>299.0</ele><time>2026-04-04T09:27:25.769Z</time></trkpt><trkpt lat="43.4168814" lon="11.6667132"><ele>299.0</ele><time>2026-04-04T09:27:26.769Z</time></trkpt><trkpt lat="43.4169681" lon="11.6667344"><ele>299.0</ele><time>2026-04-04T09:27:27.769Z</time></trkpt><trkpt lat="43.4170401" lon="11.6667494"><ele>299.0</ele><time>2026-04-04T09:27:28.769Z</time></trkpt><trkpt lat="43.4171107" lon="11.6667469"><ele>299.0</ele><time>2026-04-04T09:27:29.769Z</time></trkpt><trkpt lat="43.4171995" lon="11.666737"><ele>299.0</ele><time>2026-04-04T09:27:30.769Z</time></trkpt><trkpt lat="43.4173021" lon="11.6667258"><ele>299.0</ele><time>2026-04-04T09:27:31.769Z</time></trkpt><trkpt lat="43.4173991" lon="11.6667335"><ele>298.5</ele><time>2026-04-04T09:27:32.769Z</time></trkpt><trkpt lat="43.4174858" lon="11.6667507"><ele>298.0</ele><time>2026-04-04T09:27:33.769Z</time></trkpt><trkpt lat="43.4175566" lon="11.6667364"><ele>297.5</ele><time>2026-04-04T09:27:34.769Z</time></trkpt><trkpt lat="43.4176235" lon="11.6666973"><ele>297.0</ele><time>2026-04-04T09:27:35.769Z</time></trkpt><trkpt lat="43.4176955" lon="11.6666524"><ele>296.5</ele><time>2026-04-04T09:27:36.769Z</time></trkpt><trkpt lat="43.4177625" lon="11.6665814"><ele>296.0</ele><time>2026-04-04T09:27:37.769Z</time></trkpt><trkpt lat="43.4178342" lon="11.6665087"><ele>296.0</ele><time>2026-04-04T09:27:38.769Z</time></trkpt><trkpt lat="43.4179101" lon="11.6664243"><ele>296.0</ele><time>2026-04-04T09:27:39.769Z</time></trkpt><trkpt lat="43.4179862" lon="11.666333"><ele>296.0</ele><time>2026-04-04T09:27:40.769Z</time></trkpt><trkpt lat="43.4180621" lon="11.6662496"><ele>296.0</ele><time>2026-04-04T09:27:41.769Z</time></trkpt><trkpt lat="43.4181361" lon="11.6661819"><ele>296.0</ele><time>2026-04-04T09:27:42.769Z</time></trkpt><trkpt lat="43.4182029" lon="11.666149"><ele>295.83333333333337</ele><time>2026-04-04T09:27:43.77Z</time></trkpt><trkpt lat="43.418271" lon="11.6661505"><ele>295.6666666666667</ele><time>2026-04-04T09:27:44.769Z</time></trkpt><trkpt lat="43.4183643" lon="11.666178"><ele>295.5</ele><time>2026-04-04T09:27:46.769Z</time></trkpt><trkpt lat="43.4184399" lon="11.6662496"><ele>295.3333333333333</ele><time>2026-04-04T09:27:48.769Z</time></trkpt><trkpt lat="43.4185108" lon="11.6663024"><ele>295.16666666666663</ele><time>2026-04-04T09:27:49.769Z</time></trkpt><trkpt lat="43.4185801" lon="11.6663503"><ele>295.0</ele><time>2026-04-04T09:27:50.769Z</time></trkpt><trkpt lat="43.4186425" lon="11.6663976"><ele>295.0</ele><time>2026-04-04T09:27:51.769Z</time></trkpt><trkpt lat="43.4187562" lon="11.6664644"><ele>295.0</ele><time>2026-04-04T09:27:53.769Z</time></trkpt><trkpt lat="43.4188683" lon="11.6665245"><ele>295.0</ele><time>2026-04-04T09:27:55.769Z</time></trkpt><trkpt lat="43.4189678" lon="11.6665511"><ele>295.0</ele><time>2026-04-04T09:27:57.769Z</time></trkpt><trkpt lat="43.4190367" lon="11.6665413"><ele>295.0</ele><time>2026-04-04T09:27:59.769Z</time></trkpt><trkpt lat="43.4191079" lon="11.6665399"><ele>294.16666666666663</ele><time>2026-04-04T09:28:01.769Z</time></trkpt><trkpt lat="43.4191808" lon="11.666569"><ele>293.3333333333333</ele><time>2026-04-04T09:28:03.769Z</time></trkpt><trkpt lat="43.419248" lon="11.6666126"><ele>292.5</ele><time>2026-04-04T09:28:05.77Z</time></trkpt><trkpt lat="43.4193337" lon="11.6666507"><ele>291.6666666666667</ele><time>2026-04-04T09:28:07.769Z</time></trkpt><trkpt lat="43.419422" lon="11.6666842"><ele>290.83333333333337</ele><time>2026-04-04T09:28:09.769Z</time></trkpt><trkpt lat="43.4195234" lon="11.6667154"><ele>290.0</ele><time>2026-04-04T09:28:11.769Z</time></trkpt><trkpt lat="43.4196202" lon="11.6667486"><ele>289.0</ele><time>2026-04-04T09:28:13.77Z</time></trkpt><trkpt lat="43.4196868" lon="11.6667714"><ele>288.0</ele><time>2026-04-04T09:28:15.769Z</time></trkpt><trkpt lat="43.4197556" lon="11.6667382"><ele>287.0</ele><time>2026-04-04T09:28:22.769Z</time></trkpt><trkpt lat="43.4198467" lon="11.6667229"><ele>286.0</ele><time>2026-04-04T09:28:24.769Z</time></trkpt><trkpt lat="43.4199201" lon="11.666721"><ele>285.0</ele><time>2026-04-04T09:28:25.769Z</time></trkpt><trkpt lat="43.4199939" lon="11.6667228"><ele>284.0</ele><time>2026-04-04T09:28:26.769Z</time></trkpt><trkpt lat="43.4200594" lon="11.6667307"><ele>283.0</ele><time>2026-04-04T09:28:27.769Z</time></trkpt><trkpt lat="43.4201198" lon="11.6667675"><ele>283.0</ele><time>2026-04-04T09:28:28.769Z</time></trkpt><trkpt lat="43.4201872" lon="11.6668139"><ele>283.0</ele><time>2026-04-04T09:28:29.769Z</time></trkpt><trkpt lat="43.420254" lon="11.6668725"><ele>283.0</ele><time>2026-04-04T09:28:30.769Z</time></trkpt><trkpt lat="43.4203162" lon="11.6669007"><ele>283.0</ele><time>2026-04-04T09:28:31.77Z</time></trkpt><trkpt lat="43.4203803" lon="11.6668993"><ele>283.0</ele><time>2026-04-04T09:28:32.769Z</time></trkpt><trkpt lat="43.4205014" lon="11.6669464"><ele>283.0</ele><time>2026-04-04T09:28:34.769Z</time></trkpt><trkpt lat="43.4205589" lon="11.6669843"><ele>282.0</ele><time>2026-04-04T09:28:35.769Z</time></trkpt><trkpt lat="43.4206291" lon="11.6669999"><ele>281.0</ele><time>2026-04-04T09:28:36.77Z</time></trkpt><trkpt lat="43.4207093" lon="11.6669793"><ele>280.0</ele><time>2026-04-04T09:28:37.769Z</time></trkpt><trkpt lat="43.4208045" lon="11.6669243"><ele>279.0</ele><time>2026-04-04T09:28:38.769Z</time></trkpt><trkpt lat="43.4209043" lon="11.6668607"><ele>278.0</ele><time>2026-04-04T09:28:39.769Z</time></trkpt><trkpt lat="43.4210001" lon="11.6667999"><ele>277.33333333333337</ele><time>2026-04-04T09:28:40.769Z</time></trkpt><trkpt lat="43.4210852" lon="11.6667542"><ele>276.6666666666667</ele><time>2026-04-04T09:28:41.77Z</time></trkpt><trkpt lat="43.4211599" lon="11.6667372"><ele>276.0</ele><time>2026-04-04T09:28:42.769Z</time></trkpt><trkpt lat="43.4212274" lon="11.6667534"><ele>275.3333333333333</ele><time>2026-04-04T09:28:43.769Z</time></trkpt><trkpt lat="43.421287" lon="11.6667978"><ele>274.66666666666663</ele><time>2026-04-04T09:28:44.769Z</time></trkpt><trkpt lat="43.4213399" lon="11.6668666"><ele>274.0</ele><time>2026-04-04T09:28:45.77Z</time></trkpt><trkpt lat="43.4213928" lon="11.6669553"><ele>273.8333333333333</ele><time>2026-04-04T09:28:46.769Z</time></trkpt><trkpt lat="43.4214235" lon="11.6670723"><ele>273.66666666666663</ele><time>2026-04-04T09:28:47.77Z</time></trkpt><trkpt lat="43.421434" lon="11.6671926"><ele>273.5</ele><time>2026-04-04T09:28:48.77Z</time></trkpt><trkpt lat="43.4214443" lon="11.667305"><ele>273.3333333333333</ele><time>2026-04-04T09:28:49.769Z</time></trkpt><trkpt lat="43.4214627" lon="11.6674049"><ele>273.1666666666667</ele><time>2026-04-04T09:28:50.769Z</time></trkpt><trkpt lat="43.4214935" lon="11.667484"><ele>273.0</ele><time>2026-04-04T09:28:51.769Z</time></trkpt><trkpt lat="43.4216195" lon="11.6675593"><ele>273.0</ele><time>2026-04-04T09:28:53.769Z</time></trkpt><trkpt lat="43.4217143" lon="11.6675785"><ele>273.0</ele><time>2026-04-04T09:28:54.769Z</time></trkpt><trkpt lat="43.421838" lon="11.6676076"><ele>273.0</ele><time>2026-04-04T09:28:55.769Z</time></trkpt><trkpt lat="43.4219777" lon="11.6676335"><ele>273.0</ele><time>2026-04-04T09:28:56.769Z</time></trkpt><trkpt lat="43.4221075" lon="11.6676433"><ele>273.2</ele><time>2026-04-04T09:28:57.769Z</time></trkpt><trkpt lat="43.4222272" lon="11.6676541"><ele>273.4</ele><time>2026-04-04T09:28:58.769Z</time></trkpt><trkpt lat="43.4223325" lon="11.667676"><ele>273.59999999999997</ele><time>2026-04-04T09:28:59.769Z</time></trkpt><trkpt lat="43.4224112" lon="11.6676974"><ele>273.8</ele><time>2026-04-04T09:29:00.769Z</time></trkpt><trkpt lat="43.4224734" lon="11.667722"><ele>274.0</ele><time>2026-04-04T09:29:01.769Z</time></trkpt><trkpt lat="43.4225521" lon="11.6677434"><ele>274.0</ele><time>2026-04-04T09:29:03.769Z</time></trkpt><trkpt lat="43.4226607" lon="11.667728"><ele>274.0</ele><time>2026-04-04T09:30:07.77Z</time></trkpt><trkpt lat="43.422714" lon="11.667657"><ele>274.0</ele><time>2026-04-04T09:30:08.769Z</time></trkpt><trkpt lat="43.4227669" lon="11.6675337"><ele>274.0</ele><time>2026-04-04T09:30:09.769Z</time></trkpt><trkpt lat="43.4228295" lon="11.667375"><ele>274.0</ele><time>2026-04-04T09:30:10.769Z</time></trkpt><trkpt lat="43.4229037" lon="11.6672118"><ele>274.0</ele><time>2026-04-04T09:30:11.769Z</time></trkpt><trkpt lat="43.4229779" lon="11.6670426"><ele>274.0</ele><time>2026-04-04T09:30:12.769Z</time></trkpt><trkpt lat="43.4230598" lon="11.6668503"><ele>274.0</ele><time>2026-04-04T09:30:13.769Z</time></trkpt><trkpt lat="43.4231479" lon="11.666647"><ele>274.3333333333333</ele><time>2026-04-04T09:30:14.769Z</time></trkpt><trkpt lat="43.423259" lon="11.6664241"><ele>274.6666666666667</ele><time>2026-04-04T09:30:15.769Z</time></trkpt><trkpt lat="43.4233673" lon="11.666206"><ele>275.0</ele><time>2026-04-04T09:30:16.769Z</time></trkpt><trkpt lat="43.4234912" lon="11.6659856"><ele>275.0</ele><time>2026-04-04T09:30:17.769Z</time></trkpt><trkpt lat="43.4236203" lon="11.6657636"><ele>275.0</ele><time>2026-04-04T09:30:18.769Z</time></trkpt><trkpt lat="43.4237557" lon="11.6655546"><ele>275.0</ele><time>2026-04-04T09:30:19.77Z</time></trkpt><trkpt lat="43.4238931" lon="11.6653645"><ele>272.33333333333337</ele><time>2026-04-04T09:30:20.769Z</time></trkpt><trkpt lat="43.4240252" lon="11.6651881"><ele>269.6666666666667</ele><time>2026-04-04T09:30:21.77Z</time></trkpt><trkpt lat="43.424156" lon="11.6650467"><ele>267.0</ele><time>2026-04-04T09:30:22.77Z</time></trkpt><trkpt lat="43.4242954" lon="11.6649454"><ele>267.0</ele><time>2026-04-04T09:30:23.769Z</time></trkpt><trkpt lat="43.4244531" lon="11.6648685"><ele>267.0</ele><time>2026-04-04T09:30:24.769Z</time></trkpt><trkpt lat="43.4246306" lon="11.6648023"><ele>267.0</ele><time>2026-04-04T09:30:25.769Z</time></trkpt><trkpt lat="43.4248183" lon="11.6647368"><ele>267.6666666666667</ele><time>2026-04-04T09:30:26.769Z</time></trkpt><trkpt lat="43.425006" lon="11.664674"><ele>268.33333333333337</ele><time>2026-04-04T09:30:27.769Z</time></trkpt><trkpt lat="43.4251871" lon="11.6646128"><ele>269.0</ele><time>2026-04-04T09:30:28.769Z</time></trkpt><trkpt lat="43.4253603" lon="11.6645533"><ele>269.33333333333337</ele><time>2026-04-04T09:30:29.769Z</time></trkpt><trkpt lat="43.425538" lon="11.6644891"><ele>269.6666666666667</ele><time>2026-04-04T09:30:30.769Z</time></trkpt><trkpt lat="43.4257244" lon="11.6644217"><ele>270.0</ele><time>2026-04-04T09:30:31.769Z</time></trkpt><trkpt lat="43.4259142" lon="11.6643544"><ele>268.3333333333333</ele><time>2026-04-04T09:30:32.769Z</time></trkpt><trkpt lat="43.4261029" lon="11.6642822"><ele>266.66666666666663</ele><time>2026-04-04T09:30:33.769Z</time></trkpt><trkpt lat="43.4262919" lon="11.6641976"><ele>265.0</ele><time>2026-04-04T09:30:34.769Z</time></trkpt><trkpt lat="43.4264809" lon="11.6641038"><ele>265.0</ele><time>2026-04-04T09:30:35.769Z</time></trkpt><trkpt lat="43.4266744" lon="11.6639958"><ele>265.0</ele><time>2026-04-04T09:30:36.769Z</time></trkpt><trkpt lat="43.4268731" lon="11.6638755"><ele>265.0</ele><time>2026-04-04T09:30:37.769Z</time></trkpt><trkpt lat="43.427075" lon="11.663743"><ele>264.66666666666663</ele><time>2026-04-04T09:30:38.769Z</time></trkpt><trkpt lat="43.4272788" lon="11.6636152"><ele>264.3333333333333</ele><time>2026-04-04T09:30:39.769Z</time></trkpt><trkpt lat="43.4274772" lon="11.6634832"><ele>264.0</ele><time>2026-04-04T09:30:40.769Z</time></trkpt><trkpt lat="43.4276691" lon="11.6633631"><ele>263.0</ele><time>2026-04-04T09:30:41.769Z</time></trkpt><trkpt lat="43.4278483" lon="11.6632468"><ele>262.0</ele><time>2026-04-04T09:30:42.769Z</time></trkpt><trkpt lat="43.4280303" lon="11.6631369"><ele>261.0</ele><time>2026-04-04T09:30:43.769Z</time></trkpt><trkpt lat="43.4282115" lon="11.6630228"><ele>260.6666666666667</ele><time>2026-04-04T09:30:44.77Z</time></trkpt><trkpt lat="43.4283919" lon="11.6629107"><ele>260.33333333333337</ele><time>2026-04-04T09:30:45.77Z</time></trkpt><trkpt lat="43.4285775" lon="11.6627933"><ele>260.0</ele><time>2026-04-04T09:30:46.77Z</time></trkpt><trkpt lat="43.4287603" lon="11.6626727"><ele>259.33333333333337</ele><time>2026-04-04T09:30:47.769Z</time></trkpt><trkpt lat="43.4289259" lon="11.6625516"><ele>258.6666666666667</ele><time>2026-04-04T09:30:48.769Z</time></trkpt><trkpt lat="43.4290845" lon="11.6624192"><ele>258.0</ele><time>2026-04-04T09:30:49.769Z</time></trkpt><trkpt lat="43.4292452" lon="11.6622642"><ele>258.0</ele><time>2026-04-04T09:30:50.769Z</time></trkpt><trkpt lat="43.4294023" lon="11.6621046"><ele>258.0</ele><time>2026-04-04T09:30:51.769Z</time></trkpt><trkpt lat="43.4295475" lon="11.6619518"><ele>258.0</ele><time>2026-04-04T09:30:52.769Z</time></trkpt><trkpt lat="43.4296893" lon="11.6618093"><ele>257.6666666666667</ele><time>2026-04-04T09:30:53.769Z</time></trkpt><trkpt lat="43.4298254" lon="11.6616809"><ele>257.33333333333337</ele><time>2026-04-04T09:30:54.769Z</time></trkpt><trkpt lat="43.4299725" lon="11.6615657"><ele>257.0</ele><time>2026-04-04T09:30:55.769Z</time></trkpt><trkpt lat="43.4301293" lon="11.661466"><ele>257.0</ele><time>2026-04-04T09:30:56.77Z</time></trkpt><trkpt lat="43.4302881" lon="11.6613819"><ele>257.0</ele><time>2026-04-04T09:30:57.769Z</time></trkpt><trkpt lat="43.4304566" lon="11.6613108"><ele>257.0</ele><time>2026-04-04T09:30:58.769Z</time></trkpt><trkpt lat="43.4306367" lon="11.6612569"><ele>257.33333333333337</ele><time>2026-04-04T09:30:59.769Z</time></trkpt><trkpt lat="43.4308103" lon="11.6612275"><ele>257.6666666666667</ele><time>2026-04-04T09:31:00.769Z</time></trkpt><trkpt lat="43.4309793" lon="11.6612095"><ele>258.0</ele><time>2026-04-04T09:31:01.769Z</time></trkpt><trkpt lat="43.4311477" lon="11.6611902"><ele>257.6666666666667</ele><time>2026-04-04T09:31:02.769Z</time></trkpt><trkpt lat="43.4313163" lon="11.6611647"><ele>257.33333333333337</ele><time>2026-04-04T09:31:03.769Z</time></trkpt><trkpt lat="43.4314896" lon="11.6611419"><ele>257.0</ele><time>2026-04-04T09:31:04.769Z</time></trkpt><trkpt lat="43.4316647" lon="11.6611154"><ele>257.0</ele><time>2026-04-04T09:31:05.769Z</time></trkpt><trkpt lat="43.431844" lon="11.6610868"><ele>257.0</ele><time>2026-04-04T09:31:06.769Z</time></trkpt><trkpt lat="43.4320258" lon="11.6610583"><ele>257.0</ele><time>2026-04-04T09:31:07.769Z</time></trkpt><trkpt lat="43.4322054" lon="11.6610308"><ele>256.6666666666667</ele><time>2026-04-04T09:31:08.769Z</time></trkpt><trkpt lat="43.4323795" lon="11.660991"><ele>256.3333333333333</ele><time>2026-04-04T09:31:09.769Z</time></trkpt><trkpt lat="43.4325471" lon="11.6609384"><ele>256.0</ele><time>2026-04-04T09:31:10.769Z</time></trkpt><trkpt lat="43.4327184" lon="11.6608787"><ele>256.0</ele><time>2026-04-04T09:31:11.769Z</time></trkpt><trkpt lat="43.4328903" lon="11.6608145"><ele>256.0</ele><time>2026-04-04T09:31:12.769Z</time></trkpt><trkpt lat="43.4330628" lon="11.6607537"><ele>256.0</ele><time>2026-04-04T09:31:13.769Z</time></trkpt><trkpt lat="43.4332423" lon="11.660687"><ele>256.3333333333333</ele><time>2026-04-04T09:31:14.769Z</time></trkpt><trkpt lat="43.433427" lon="11.6606216"><ele>256.6666666666667</ele><time>2026-04-04T09:31:15.769Z</time></trkpt><trkpt lat="43.433616" lon="11.6605555"><ele>257.0</ele><time>2026-04-04T09:31:16.769Z</time></trkpt><trkpt lat="43.4338002" lon="11.6605011"><ele>258.0</ele><time>2026-04-04T09:31:17.769Z</time></trkpt><trkpt lat="43.4339663" lon="11.6604393"><ele>259.0</ele><time>2026-04-04T09:31:18.769Z</time></trkpt><trkpt lat="43.4341213" lon="11.6603824"><ele>260.0</ele><time>2026-04-04T09:31:19.769Z</time></trkpt><trkpt lat="43.4342735" lon="11.6603211"><ele>258.33333333333337</ele><time>2026-04-04T09:31:20.769Z</time></trkpt><trkpt lat="43.4344303" lon="11.6602652"><ele>256.6666666666667</ele><time>2026-04-04T09:31:21.769Z</time></trkpt><trkpt lat="43.4345913" lon="11.6602044"><ele>255.0</ele><time>2026-04-04T09:31:22.769Z</time></trkpt><trkpt lat="43.4347506" lon="11.6601424"><ele>255.0</ele><time>2026-04-04T09:31:23.769Z</time></trkpt><trkpt lat="43.4349032" lon="11.6600778"><ele>255.0</ele><time>2026-04-04T09:31:24.769Z</time></trkpt><trkpt lat="43.4350561" lon="11.6600128"><ele>255.0</ele><time>2026-04-04T09:31:25.769Z</time></trkpt><trkpt lat="43.4352122" lon="11.659952"><ele>255.0</ele><time>2026-04-04T09:31:26.769Z</time></trkpt><trkpt lat="43.4353594" lon="11.6598913"><ele>255.0</ele><time>2026-04-04T09:31:27.769Z</time></trkpt><trkpt lat="43.4354976" lon="11.6598356"><ele>255.0</ele><time>2026-04-04T09:31:28.769Z</time></trkpt><trkpt lat="43.4356277" lon="11.6597823"><ele>255.0</ele><time>2026-04-04T09:31:29.769Z</time></trkpt><trkpt lat="43.4357492" lon="11.6597343"><ele>254.6</ele><time>2026-04-04T09:31:30.769Z</time></trkpt><trkpt lat="43.4358625" lon="11.6596857"><ele>254.2</ele><time>2026-04-04T09:31:31.769Z</time></trkpt><trkpt lat="43.4359652" lon="11.6596484"><ele>253.8</ele><time>2026-04-04T09:31:32.769Z</time></trkpt><trkpt lat="43.4360564" lon="11.6596196"><ele>253.4</ele><time>2026-04-04T09:31:33.77Z</time></trkpt><trkpt lat="43.4361192" lon="11.6595717"><ele>253.0</ele><time>2026-04-04T09:31:34.769Z</time></trkpt><trkpt lat="43.4361649" lon="11.6594837"><ele>253.2</ele><time>2026-04-04T09:31:35.769Z</time></trkpt><trkpt lat="43.4361802" lon="11.6593882"><ele>253.4</ele><time>2026-04-04T09:31:36.769Z</time></trkpt><trkpt lat="43.4361128" lon="11.6592222"><ele>253.59999999999997</ele><time>2026-04-04T09:31:38.769Z</time></trkpt><trkpt lat="43.4360217" lon="11.6591396"><ele>253.79999999999998</ele><time>2026-04-04T09:31:39.769Z</time></trkpt><trkpt lat="43.4359062" lon="11.6590644"><ele>254.0</ele><time>2026-04-04T09:31:40.769Z</time></trkpt><trkpt lat="43.4357906" lon="11.6589928"><ele>254.0</ele><time>2026-04-04T09:31:41.769Z</time></trkpt><trkpt lat="43.4356825" lon="11.6589032"><ele>254.0</ele><time>2026-04-04T09:31:42.77Z</time></trkpt><trkpt lat="43.4355822" lon="11.6587904"><ele>254.0</ele><time>2026-04-04T09:31:43.769Z</time></trkpt><trkpt lat="43.4354774" lon="11.6586524"><ele>254.0</ele><time>2026-04-04T09:31:44.769Z</time></trkpt><trkpt lat="43.4353785" lon="11.6584891"><ele>253.66666666666669</ele><time>2026-04-04T09:31:45.769Z</time></trkpt><trkpt lat="43.4352866" lon="11.658324"><ele>253.33333333333331</ele><time>2026-04-04T09:31:46.769Z</time></trkpt><trkpt lat="43.4352081" lon="11.6581427"><ele>253.0</ele><time>2026-04-04T09:31:47.77Z</time></trkpt><trkpt lat="43.4351461" lon="11.6579358"><ele>253.66666666666666</ele><time>2026-04-04T09:31:48.769Z</time></trkpt><trkpt lat="43.4351031" lon="11.6577136"><ele>254.33333333333331</ele><time>2026-04-04T09:31:49.769Z</time></trkpt><trkpt lat="43.4350806" lon="11.6574721"><ele>255.0</ele><time>2026-04-04T09:31:50.769Z</time></trkpt><trkpt lat="43.4350901" lon="11.6572307"><ele>255.0</ele><time>2026-04-04T09:31:51.769Z</time></trkpt><trkpt lat="43.4351242" lon="11.6569829"><ele>255.0</ele><time>2026-04-04T09:31:52.769Z</time></trkpt><trkpt lat="43.4351656" lon="11.6567506"><ele>255.0</ele><time>2026-04-04T09:31:53.769Z</time></trkpt><trkpt lat="43.4352077" lon="11.656526"><ele>255.66666666666669</ele><time>2026-04-04T09:31:54.769Z</time></trkpt><trkpt lat="43.4352556" lon="11.6562947"><ele>256.33333333333337</ele><time>2026-04-04T09:31:55.769Z</time></trkpt><trkpt lat="43.435307" lon="11.6560641"><ele>257.0</ele><time>2026-04-04T09:31:56.769Z</time></trkpt><trkpt lat="43.4353563" lon="11.6558359"><ele>258.33333333333337</ele><time>2026-04-04T09:31:57.769Z</time></trkpt><trkpt lat="43.4354044" lon="11.655609"><ele>259.6666666666667</ele><time>2026-04-04T09:31:58.769Z</time></trkpt><trkpt lat="43.4354534" lon="11.6553804"><ele>261.0</ele><time>2026-04-04T09:31:59.769Z</time></trkpt><trkpt lat="43.435499" lon="11.655157"><ele>261.0</ele><time>2026-04-04T09:32:00.769Z</time></trkpt><trkpt lat="43.4355449" lon="11.6549514"><ele>261.0</ele><time>2026-04-04T09:32:01.769Z</time></trkpt><trkpt lat="43.4355818" lon="11.6547703"><ele>261.0</ele><time>2026-04-04T09:32:02.769Z</time></trkpt><trkpt lat="43.4356159" lon="11.6545979"><ele>261.0</ele><time>2026-04-04T09:32:03.769Z</time></trkpt><trkpt lat="43.4356459" lon="11.6544391"><ele>262.2</ele><time>2026-04-04T09:32:04.769Z</time></trkpt><trkpt lat="43.4356716" lon="11.6542902"><ele>263.40000000000003</ele><time>2026-04-04T09:32:05.769Z</time></trkpt><trkpt lat="43.4356966" lon="11.6541457"><ele>264.6</ele><time>2026-04-04T09:32:06.769Z</time></trkpt><trkpt lat="43.4357231" lon="11.6540006"><ele>265.8</ele><time>2026-04-04T09:32:07.769Z</time></trkpt><trkpt lat="43.4357422" lon="11.6538622"><ele>267.0</ele><time>2026-04-04T09:32:08.769Z</time></trkpt><trkpt lat="43.4357611" lon="11.6537364"><ele>267.3333333333333</ele><time>2026-04-04T09:32:09.769Z</time></trkpt><trkpt lat="43.4357705" lon="11.6536217"><ele>267.6666666666667</ele><time>2026-04-04T09:32:10.769Z</time></trkpt><trkpt lat="43.4357676" lon="11.6535307"><ele>268.0</ele><time>2026-04-04T09:32:11.769Z</time></trkpt><trkpt lat="43.4357421" lon="11.6534035"><ele>268.33333333333337</ele><time>2026-04-04T09:32:13.769Z</time></trkpt><trkpt lat="43.4357067" lon="11.6533208"><ele>268.6666666666667</ele><time>2026-04-04T09:32:16.769Z</time></trkpt><trkpt lat="43.4356637" lon="11.6532467"><ele>269.0</ele><time>2026-04-04T09:35:35.769Z</time></trkpt><trkpt lat="43.4357694" lon="11.6531773"><ele>269.0</ele><time>2026-04-04T09:43:07.769Z</time></trkpt><trkpt lat="43.4357652" lon="11.6533011"><ele>269.0</ele><time>2026-04-04T09:44:22.769Z</time></trkpt><trkpt lat="43.4357575" lon="11.6533952"><ele>269.0</ele><time>2026-04-04T09:44:27.769Z</time></trkpt><trkpt lat="43.4358248" lon="11.653371"><ele>269.0</ele><time>2026-04-04T09:44:44.77Z</time></trkpt><trkpt lat="43.4358524" lon="11.653275"><ele>269.0</ele><time>2026-04-04T09:44:46.769Z</time></trkpt><trkpt lat="43.4358547" lon="11.6531768"><ele>269.0</ele><time>2026-04-04T09:44:49.769Z</time></trkpt><trkpt lat="43.4358028" lon="11.6532379"><ele>269.0</ele><time>2026-04-04T09:44:54.769Z</time></trkpt><trkpt lat="43.4357805" lon="11.6533443"><ele>269.0</ele><time>2026-04-04T09:47:43.769Z</time></trkpt><trkpt lat="43.4357659" lon="11.6534622"><ele>269.0</ele><time>2026-04-04T09:47:45.769Z</time></trkpt><trkpt lat="43.4357559" lon="11.6536267"><ele>269.0</ele><time>2026-04-04T09:47:47.769Z</time></trkpt><trkpt lat="43.4357386" lon="11.6537484"><ele>269.0</ele><time>2026-04-04T09:47:48.769Z</time></trkpt><trkpt lat="43.4357165" lon="11.6538979"><ele>269.0</ele><time>2026-04-04T09:47:49.769Z</time></trkpt><trkpt lat="43.4356893" lon="11.6540584"><ele>268.5</ele><time>2026-04-04T09:47:50.769Z</time></trkpt><trkpt lat="43.4356613" lon="11.6542359"><ele>268.0</ele><time>2026-04-04T09:47:51.769Z</time></trkpt><trkpt lat="43.4356338" lon="11.654419"><ele>267.5</ele><time>2026-04-04T09:47:52.769Z</time></trkpt><trkpt lat="43.4355966" lon="11.6545924"><ele>267.0</ele><time>2026-04-04T09:47:53.769Z</time></trkpt><trkpt lat="43.4355597" lon="11.6547636"><ele>267.25</ele><time>2026-04-04T09:47:54.77Z</time></trkpt><trkpt lat="43.4355201" lon="11.6549385"><ele>267.5</ele><time>2026-04-04T09:47:55.77Z</time></trkpt><trkpt lat="43.4354868" lon="11.6551097"><ele>267.75</ele><time>2026-04-04T09:47:56.769Z</time></trkpt><trkpt lat="43.4354503" lon="11.6552823"><ele>268.0</ele><time>2026-04-04T09:47:57.769Z</time></trkpt><trkpt lat="43.4354102" lon="11.6554664"><ele>266.0</ele><time>2026-04-04T09:47:58.769Z</time></trkpt><trkpt lat="43.4353657" lon="11.655674"><ele>264.0</ele><time>2026-04-04T09:47:59.769Z</time></trkpt><trkpt lat="43.4353192" lon="11.6558973"><ele>262.0</ele><time>2026-04-04T09:48:00.769Z</time></trkpt><trkpt lat="43.4352734" lon="11.6561267"><ele>260.3333333333333</ele><time>2026-04-04T09:48:01.769Z</time></trkpt><trkpt lat="43.4352215" lon="11.6563635"><ele>258.6666666666667</ele><time>2026-04-04T09:48:02.77Z</time></trkpt><trkpt lat="43.435168" lon="11.6566156"><ele>257.0</ele><time>2026-04-04T09:48:03.769Z</time></trkpt><trkpt lat="43.4351157" lon="11.6568614"><ele>256.33333333333337</ele><time>2026-04-04T09:48:04.769Z</time></trkpt><trkpt lat="43.4350786" lon="11.6570882"><ele>255.66666666666669</ele><time>2026-04-04T09:48:05.769Z</time></trkpt><trkpt lat="43.435063" lon="11.6573149"><ele>255.0</ele><time>2026-04-04T09:48:06.769Z</time></trkpt><trkpt lat="43.4350675" lon="11.6575489"><ele>255.0</ele><time>2026-04-04T09:48:07.769Z</time></trkpt><trkpt lat="43.4350906" lon="11.6577715"><ele>255.0</ele><time>2026-04-04T09:48:08.769Z</time></trkpt><trkpt lat="43.4351382" lon="11.6579948"><ele>255.0</ele><time>2026-04-04T09:48:09.769Z</time></trkpt><trkpt lat="43.4352076" lon="11.6582155"><ele>254.66666666666669</ele><time>2026-04-04T09:48:10.769Z</time></trkpt><trkpt lat="43.4352989" lon="11.6584154"><ele>254.33333333333334</ele><time>2026-04-04T09:48:11.769Z</time></trkpt><trkpt lat="43.4354109" lon="11.6585973"><ele>254.0</ele><time>2026-04-04T09:48:12.769Z</time></trkpt><trkpt lat="43.4355314" lon="11.658751"><ele>254.0</ele><time>2026-04-04T09:48:13.77Z</time></trkpt><trkpt lat="43.4356551" lon="11.6588837"><ele>254.0</ele><time>2026-04-04T09:48:14.769Z</time></trkpt><trkpt lat="43.4357771" lon="11.6589868"><ele>254.0</ele><time>2026-04-04T09:48:15.769Z</time></trkpt><trkpt lat="43.4358868" lon="11.6590752"><ele>254.0</ele><time>2026-04-04T09:48:16.769Z</time></trkpt><trkpt lat="43.4359843" lon="11.6591473"><ele>254.00000000000003</ele><time>2026-04-04T09:48:17.77Z</time></trkpt><trkpt lat="43.4360577" lon="11.6592162"><ele>254.0</ele><time>2026-04-04T09:48:18.769Z</time></trkpt><trkpt lat="43.4361118" lon="11.6593043"><ele>254.0</ele><time>2026-04-04T09:48:19.769Z</time></trkpt><trkpt lat="43.4361344" lon="11.65942"><ele>254.0</ele><time>2026-04-04T09:48:20.769Z</time></trkpt><trkpt lat="43.4361076" lon="11.6595139"><ele>254.00000000000003</ele><time>2026-04-04T09:48:21.769Z</time></trkpt><trkpt lat="43.4360437" lon="11.6595756"><ele>254.0</ele><time>2026-04-04T09:48:22.769Z</time></trkpt><trkpt lat="43.4359548" lon="11.6596218"><ele>253.75</ele><time>2026-04-04T09:48:23.769Z</time></trkpt><trkpt lat="43.4358452" lon="11.6596661"><ele>253.5</ele><time>2026-04-04T09:48:24.769Z</time></trkpt><trkpt lat="43.435715" lon="11.6597223"><ele>253.25</ele><time>2026-04-04T09:48:25.769Z</time></trkpt><trkpt lat="43.4355597" lon="11.6597793"><ele>253.0</ele><time>2026-04-04T09:48:26.77Z</time></trkpt><trkpt lat="43.4353902" lon="11.6598458"><ele>253.66666666666666</ele><time>2026-04-04T09:48:27.769Z</time></trkpt><trkpt lat="43.435218" lon="11.6599169"><ele>254.33333333333331</ele><time>2026-04-04T09:48:28.769Z</time></trkpt><trkpt lat="43.4350382" lon="11.6599868"><ele>255.0</ele><time>2026-04-04T09:48:29.769Z</time></trkpt><trkpt lat="43.4348447" lon="11.6600668"><ele>255.0</ele><time>2026-04-04T09:48:30.769Z</time></trkpt><trkpt lat="43.4346519" lon="11.6601433"><ele>255.0</ele><time>2026-04-04T09:48:31.769Z</time></trkpt><trkpt lat="43.4344624" lon="11.6602191"><ele>255.0</ele><time>2026-04-04T09:48:32.769Z</time></trkpt><trkpt lat="43.4342792" lon="11.6602837"><ele>255.66666666666669</ele><time>2026-04-04T09:48:33.769Z</time></trkpt><trkpt lat="43.4340976" lon="11.660353"><ele>256.33333333333337</ele><time>2026-04-04T09:48:34.769Z</time></trkpt><trkpt lat="43.4339106" lon="11.6604219"><ele>257.0</ele><time>2026-04-04T09:48:35.769Z</time></trkpt><trkpt lat="43.4337185" lon="11.6604922"><ele>257.0</ele><time>2026-04-04T09:48:36.769Z</time></trkpt><trkpt lat="43.433518" lon="11.6605582"><ele>257.0</ele><time>2026-04-04T09:48:37.769Z</time></trkpt><trkpt lat="43.4333128" lon="11.6606209"><ele>257.0</ele><time>2026-04-04T09:48:38.769Z</time></trkpt><trkpt lat="43.4331028" lon="11.6606857"><ele>256.6666666666667</ele><time>2026-04-04T09:48:39.769Z</time></trkpt><trkpt lat="43.4329003" lon="11.6607554"><ele>256.3333333333333</ele><time>2026-04-04T09:48:40.769Z</time></trkpt><trkpt lat="43.432707" lon="11.660822"><ele>256.0</ele><time>2026-04-04T09:48:41.769Z</time></trkpt><trkpt lat="43.4325204" lon="11.6608893"><ele>256.0</ele><time>2026-04-04T09:48:42.769Z</time></trkpt><trkpt lat="43.4323414" lon="11.6609479"><ele>256.0</ele><time>2026-04-04T09:48:43.769Z</time></trkpt><trkpt lat="43.4321589" lon="11.6609934"><ele>256.0</ele><time>2026-04-04T09:48:44.769Z</time></trkpt><trkpt lat="43.4319693" lon="11.6610231"><ele>256.3333333333333</ele><time>2026-04-04T09:48:45.769Z</time></trkpt><trkpt lat="43.431776" lon="11.6610508"><ele>256.6666666666667</ele><time>2026-04-04T09:48:46.769Z</time></trkpt><trkpt lat="43.4315719" lon="11.6610768"><ele>257.0</ele><time>2026-04-04T09:48:47.77Z</time></trkpt><trkpt lat="43.4313633" lon="11.6611136"><ele>257.33333333333337</ele><time>2026-04-04T09:48:48.769Z</time></trkpt><trkpt lat="43.4311528" lon="11.6611465"><ele>257.6666666666667</ele><time>2026-04-04T09:48:49.77Z</time></trkpt><trkpt lat="43.4309442" lon="11.6611775"><ele>258.0</ele><time>2026-04-04T09:48:50.769Z</time></trkpt><trkpt lat="43.43074" lon="11.6612059"><ele>258.0</ele><time>2026-04-04T09:48:51.769Z</time></trkpt><trkpt lat="43.4305516" lon="11.6612472"><ele>258.0</ele><time>2026-04-04T09:48:52.77Z</time></trkpt><trkpt lat="43.4303653" lon="11.6613168"><ele>258.0</ele><time>2026-04-04T09:48:53.769Z</time></trkpt><trkpt lat="43.4301875" lon="11.6614005"><ele>257.6666666666667</ele><time>2026-04-04T09:48:54.769Z</time></trkpt><trkpt lat="43.4300195" lon="11.661511"><ele>257.33333333333337</ele><time>2026-04-04T09:48:55.77Z</time></trkpt><trkpt lat="43.4298647" lon="11.6616412"><ele>257.0</ele><time>2026-04-04T09:48:56.77Z</time></trkpt><trkpt lat="43.4297135" lon="11.661784"><ele>257.33333333333337</ele><time>2026-04-04T09:48:57.769Z</time></trkpt><trkpt lat="43.4295588" lon="11.6619373"><ele>257.6666666666667</ele><time>2026-04-04T09:48:58.769Z</time></trkpt><trkpt lat="43.4294033" lon="11.6620836"><ele>258.0</ele><time>2026-04-04T09:48:59.77Z</time></trkpt><trkpt lat="43.429242" lon="11.6622415"><ele>258.0</ele><time>2026-04-04T09:49:00.769Z</time></trkpt><trkpt lat="43.4290738" lon="11.6623945"><ele>258.0</ele><time>2026-04-04T09:49:01.77Z</time></trkpt><trkpt lat="43.4288976" lon="11.6625337"><ele>258.0</ele><time>2026-04-04T09:49:02.769Z</time></trkpt><trkpt lat="43.4287118" lon="11.6626558"><ele>257.6666666666667</ele><time>2026-04-04T09:49:03.769Z</time></trkpt><trkpt lat="43.4285174" lon="11.6627715"><ele>257.33333333333337</ele><time>2026-04-04T09:49:04.769Z</time></trkpt><trkpt lat="43.4283269" lon="11.6628875"><ele>257.0</ele><time>2026-04-04T09:49:05.769Z</time></trkpt><trkpt lat="43.4281411" lon="11.6630034"><ele>258.33333333333337</ele><time>2026-04-04T09:49:06.769Z</time></trkpt><trkpt lat="43.4279554" lon="11.6631211"><ele>259.6666666666667</ele><time>2026-04-04T09:49:07.769Z</time></trkpt><trkpt lat="43.4277645" lon="11.6632428"><ele>261.0</ele><time>2026-04-04T09:49:08.77Z</time></trkpt><trkpt lat="43.4275736" lon="11.663364"><ele>261.0</ele><time>2026-04-04T09:49:09.769Z</time></trkpt><trkpt lat="43.4273818" lon="11.6634907"><ele>261.0</ele><time>2026-04-04T09:49:10.769Z</time></trkpt><trkpt lat="43.4271914" lon="11.6636152"><ele>261.0</ele><time>2026-04-04T09:49:11.769Z</time></trkpt><trkpt lat="43.4270114" lon="11.6637381"><ele>262.3333333333333</ele><time>2026-04-04T09:49:12.769Z</time></trkpt><trkpt lat="43.4268432" lon="11.6638454"><ele>263.66666666666663</ele><time>2026-04-04T09:49:13.769Z</time></trkpt><trkpt lat="43.4266847" lon="11.6639463"><ele>265.0</ele><time>2026-04-04T09:49:14.769Z</time></trkpt><trkpt lat="43.4265488" lon="11.6640317"><ele>265.0</ele><time>2026-04-04T09:49:15.769Z</time></trkpt><trkpt lat="43.4264363" lon="11.6641003"><ele>265.0</ele><time>2026-04-04T09:49:16.769Z</time></trkpt><trkpt lat="43.4263374" lon="11.6641498"><ele>265.0</ele><time>2026-04-04T09:49:17.769Z</time></trkpt><trkpt lat="43.4262499" lon="11.6641917"><ele>265.0</ele><time>2026-04-04T09:49:18.769Z</time></trkpt><trkpt lat="43.4261846" lon="11.6642455"><ele>265.0</ele><time>2026-04-04T09:49:19.769Z</time></trkpt><trkpt lat="43.426122" lon="11.66438"><ele>266.0</ele><time>2026-04-04T09:49:21.769Z</time></trkpt><trkpt lat="43.4261136" lon="11.6644782"><ele>267.0</ele><time>2026-04-04T09:49:22.769Z</time></trkpt><trkpt lat="43.426101" lon="11.664608"><ele>268.0</ele><time>2026-04-04T09:49:23.77Z</time></trkpt><trkpt lat="43.4260942" lon="11.6647819"><ele>269.0</ele><time>2026-04-04T09:49:24.769Z</time></trkpt><trkpt lat="43.4260845" lon="11.6649608"><ele>270.0</ele><time>2026-04-04T09:49:25.769Z</time></trkpt><trkpt lat="43.4260786" lon="11.6651218"><ele>270.0</ele><time>2026-04-04T09:49:26.769Z</time></trkpt><trkpt lat="43.426079" lon="11.6652556"><ele>270.0</ele><time>2026-04-04T09:49:27.769Z</time></trkpt><trkpt lat="43.426095" lon="11.6653707"><ele>270.0</ele><time>2026-04-04T09:49:28.769Z</time></trkpt><trkpt lat="43.4261186" lon="11.6654687"><ele>270.0</ele><time>2026-04-04T09:49:29.769Z</time></trkpt><trkpt lat="43.4262194" lon="11.6653892"><ele>270.0</ele><time>2026-04-04T09:49:32.769Z</time></trkpt><trkpt lat="43.4262802" lon="11.665355"><ele>270.0</ele><time>2026-04-04T09:49:33.769Z</time></trkpt><trkpt lat="43.4263565" lon="11.6653363"><ele>272.6</ele><time>2026-04-04T09:49:34.769Z</time></trkpt><trkpt lat="43.4264473" lon="11.665338"><ele>275.2</ele><time>2026-04-04T09:49:35.769Z</time></trkpt><trkpt lat="43.4265446" lon="11.6653565"><ele>277.8</ele><time>2026-04-04T09:49:36.769Z</time></trkpt><trkpt lat="43.4266124" lon="11.665363"><ele>280.4</ele><time>2026-04-04T09:49:37.769Z</time></trkpt><trkpt lat="43.4267332" lon="11.6653151"><ele>283.0</ele><time>2026-04-04T09:49:39.769Z</time></trkpt><trkpt lat="43.4268301" lon="11.6653438"><ele>283.0</ele><time>2026-04-04T09:49:41.77Z</time></trkpt><trkpt lat="43.4268742" lon="11.6654267"><ele>283.0</ele><time>2026-04-04T09:49:42.769Z</time></trkpt><trkpt lat="43.4269145" lon="11.6655661"><ele>283.0</ele><time>2026-04-04T09:49:44.769Z</time></trkpt><trkpt lat="43.4269298" lon="11.6656844"><ele>283.0</ele><time>2026-04-04T09:49:46.769Z</time></trkpt><trkpt lat="43.4269709" lon="11.6658358"><ele>283.0</ele><time>2026-04-04T09:49:48.769Z</time></trkpt><trkpt lat="43.4269804" lon="11.6659258"><ele>283.0</ele><time>2026-04-04T09:49:49.769Z</time></trkpt><trkpt lat="43.42697" lon="11.6660242"><ele>283.0</ele><time>2026-04-04T09:49:50.769Z</time></trkpt><trkpt lat="43.4269627" lon="11.6661146"><ele>283.0</ele><time>2026-04-04T09:49:51.769Z</time></trkpt><trkpt lat="43.4269527" lon="11.6662629"><ele>283.0</ele><time>2026-04-04T09:49:53.769Z</time></trkpt><trkpt lat="43.4269784" lon="11.6664198"><ele>283.0</ele><time>2026-04-04T09:49:55.769Z</time></trkpt><trkpt lat="43.4269845" lon="11.666514"><ele>283.0</ele><time>2026-04-04T09:49:56.769Z</time></trkpt><trkpt lat="43.4269739" lon="11.6666301"><ele>284.16666666666663</ele><time>2026-04-04T09:49:57.769Z</time></trkpt><trkpt lat="43.4269529" lon="11.6667362"><ele>285.3333333333333</ele><time>2026-04-04T09:49:58.769Z</time></trkpt><trkpt lat="43.4269635" lon="11.6668308"><ele>286.5</ele><time>2026-04-04T09:49:59.769Z</time></trkpt><trkpt lat="43.4270066" lon="11.6669075"><ele>287.6666666666667</ele><time>2026-04-04T09:50:00.769Z</time></trkpt><trkpt lat="43.4270722" lon="11.6669962"><ele>288.83333333333337</ele><time>2026-04-04T09:50:01.769Z</time></trkpt><trkpt lat="43.4271349" lon="11.667099"><ele>290.0</ele><time>2026-04-04T09:50:02.769Z</time></trkpt><trkpt lat="43.4271855" lon="11.6672115"><ele>291.8</ele><time>2026-04-04T09:50:03.769Z</time></trkpt><trkpt lat="43.4272289" lon="11.6673349"><ele>293.6</ele><time>2026-04-04T09:50:04.769Z</time></trkpt><trkpt lat="43.4272747" lon="11.667475"><ele>295.4</ele><time>2026-04-04T09:50:05.77Z</time></trkpt><trkpt lat="43.4273173" lon="11.6676007"><ele>297.2</ele><time>2026-04-04T09:50:06.769Z</time></trkpt><trkpt lat="43.4273543" lon="11.6677079"><ele>299.0</ele><time>2026-04-04T09:50:07.769Z</time></trkpt><trkpt lat="43.4273838" lon="11.6678405"><ele>299.59999999999997</ele><time>2026-04-04T09:50:09.769Z</time></trkpt><trkpt lat="43.4274754" lon="11.6679321"><ele>300.2</ele><time>2026-04-04T09:50:11.769Z</time></trkpt><trkpt lat="43.4275361" lon="11.6680132"><ele>300.79999999999995</ele><time>2026-04-04T09:50:12.769Z</time></trkpt><trkpt lat="43.4275897" lon="11.6681353"><ele>301.4</ele><time>2026-04-04T09:50:13.769Z</time></trkpt><trkpt lat="43.4276314" lon="11.6682547"><ele>302.0</ele><time>2026-04-04T09:50:14.769Z</time></trkpt><trkpt lat="43.4276593" lon="11.6683607"><ele>302.0</ele><time>2026-04-04T09:50:15.769Z</time></trkpt><trkpt lat="43.4276905" lon="11.6684482"><ele>302.0</ele><time>2026-04-04T09:50:16.77Z</time></trkpt><trkpt lat="43.4277892" lon="11.6685568"><ele>302.0</ele><time>2026-04-04T09:50:18.769Z</time></trkpt><trkpt lat="43.4278469" lon="11.6686098"><ele>302.0</ele><time>2026-04-04T09:50:19.769Z</time></trkpt><trkpt lat="43.4279086" lon="11.6686594"><ele>302.0</ele><time>2026-04-04T09:50:20.769Z</time></trkpt><trkpt lat="43.4279658" lon="11.6687032"><ele>302.0</ele><time>2026-04-04T09:50:21.769Z</time></trkpt><trkpt lat="43.4280334" lon="11.6687468"><ele>302.5</ele><time>2026-04-04T09:50:22.769Z</time></trkpt><trkpt lat="43.4280868" lon="11.6688062"><ele>303.0</ele><time>2026-04-04T09:50:23.769Z</time></trkpt><trkpt lat="43.428144" lon="11.6688828"><ele>303.5</ele><time>2026-04-04T09:50:24.769Z</time></trkpt><trkpt lat="43.4281968" lon="11.6689856"><ele>304.0</ele><time>2026-04-04T09:50:25.77Z</time></trkpt><trkpt lat="43.428236" lon="11.6690808"><ele>304.5</ele><time>2026-04-04T09:50:26.769Z</time></trkpt><trkpt lat="43.4282695" lon="11.669163"><ele>305.0</ele><time>2026-04-04T09:50:27.769Z</time></trkpt><trkpt lat="43.4282915" lon="11.6692459"><ele>305.0</ele><time>2026-04-04T09:50:28.769Z</time></trkpt><trkpt lat="43.4283031" lon="11.6693728"><ele>305.0</ele><time>2026-04-04T09:50:30.769Z</time></trkpt><trkpt lat="43.4283712" lon="11.6694248"><ele>305.0</ele><time>2026-04-04T09:50:33.769Z</time></trkpt><trkpt lat="43.4284711" lon="11.6693646"><ele>305.0</ele><time>2026-04-04T09:50:35.769Z</time></trkpt><trkpt lat="43.4285535" lon="11.6692977"><ele>305.0</ele><time>2026-04-04T09:50:37.77Z</time></trkpt><trkpt lat="43.4286395" lon="11.6692915"><ele>305.0</ele><time>2026-04-04T09:50:39.769Z</time></trkpt><trkpt lat="43.4286734" lon="11.6694065"><ele>305.0</ele><time>2026-04-04T09:50:42.769Z</time></trkpt><trkpt lat="43.4286748" lon="11.6695602"><ele>305.0</ele><time>2026-04-04T09:50:44.769Z</time></trkpt><trkpt lat="43.4286693" lon="11.6696511"><ele>305.0</ele><time>2026-04-04T09:50:46.769Z</time></trkpt><trkpt lat="43.4286443" lon="11.6697639"><ele>305.0</ele><time>2026-04-04T09:50:48.769Z</time></trkpt><trkpt lat="43.4286131" lon="11.6698686"><ele>305.0</ele><time>2026-04-04T09:50:50.769Z</time></trkpt><trkpt lat="43.42864" lon="11.6700173"><ele>306.8</ele><time>2026-04-04T09:50:52.77Z</time></trkpt><trkpt lat="43.4286364" lon="11.6701153"><ele>308.6</ele><time>2026-04-04T09:50:54.769Z</time></trkpt><trkpt lat="43.428631" lon="11.6702764"><ele>310.4</ele><time>2026-04-04T09:50:57.769Z</time></trkpt><trkpt lat="43.4285734" lon="11.6703682"><ele>312.2</ele><time>2026-04-04T09:50:59.769Z</time></trkpt><trkpt lat="43.4285056" lon="11.6703833"><ele>314.0</ele><time>2026-04-04T09:51:00.769Z</time></trkpt><trkpt lat="43.428407" lon="11.6704306"><ele>315.33333333333337</ele><time>2026-04-04T09:51:02.769Z</time></trkpt><trkpt lat="43.4283538" lon="11.6705358"><ele>316.6666666666667</ele><time>2026-04-04T09:51:04.769Z</time></trkpt><trkpt lat="43.4283463" lon="11.6706279"><ele>318.0</ele><time>2026-04-04T09:51:06.769Z</time></trkpt><trkpt lat="43.4283621" lon="11.6707306"><ele>319.3333333333333</ele><time>2026-04-04T09:51:08.769Z</time></trkpt><trkpt lat="43.4283863" lon="11.6708416"><ele>320.66666666666663</ele><time>2026-04-04T09:51:10.769Z</time></trkpt><trkpt lat="43.4284295" lon="11.6709397"><ele>322.0</ele><time>2026-04-04T09:51:12.769Z</time></trkpt><trkpt lat="43.4284754" lon="11.6710134"><ele>322.0</ele><time>2026-04-04T09:51:14.769Z</time></trkpt><trkpt lat="43.4284113" lon="11.6710129"><ele>322.0</ele><time>2026-04-04T09:51:15.818Z</time></trkpt><trkpt lat="43.4284892" lon="11.6710858"><ele>322.0</ele><time>2026-04-04T09:51:17.759Z</time></trkpt><trkpt lat="43.4285214" lon="11.6711804"><ele>322.0</ele><time>2026-04-04T09:51:18.858Z</time></trkpt><trkpt lat="43.4285604" lon="11.6712581"><ele>322.0</ele><time>2026-04-04T09:51:20.769Z</time></trkpt><trkpt lat="43.4286266" lon="11.6713291"><ele>322.0</ele><time>2026-04-04T09:51:22.769Z</time></trkpt><trkpt lat="43.4286068" lon="11.6714712"><ele>323.8333333333333</ele><time>2026-04-04T09:51:24.77Z</time></trkpt><trkpt lat="43.4286031" lon="11.671561"><ele>325.66666666666663</ele><time>2026-04-04T09:51:26.769Z</time></trkpt><trkpt lat="43.4286305" lon="11.6716726"><ele>327.5</ele><time>2026-04-04T09:51:28.877Z</time></trkpt><trkpt lat="43.4287279" lon="11.6717142"><ele>329.3333333333333</ele><time>2026-04-04T09:51:30.802Z</time></trkpt><trkpt lat="43.4287644" lon="11.6718024"><ele>331.1666666666667</ele><time>2026-04-04T09:51:32.82Z</time></trkpt><trkpt lat="43.4287582" lon="11.671913"><ele>333.0</ele><time>2026-04-04T09:51:35.755Z</time></trkpt><trkpt lat="43.4287684" lon="11.6720103"><ele>337.0</ele><time>2026-04-04T09:51:38.774Z</time></trkpt><trkpt lat="43.4288525" lon="11.6721385"><ele>341.0</ele><time>2026-04-04T09:51:41.769Z</time></trkpt><trkpt lat="43.4289085" lon="11.6721829"><ele>345.0</ele><time>2026-04-04T09:51:43.769Z</time></trkpt><trkpt lat="43.4288715" lon="11.6723062"><ele>349.0</ele><time>2026-04-04T09:51:46.769Z</time></trkpt><trkpt lat="43.428834" lon="11.6724027"><ele>353.0</ele><time>2026-04-04T09:51:48.769Z</time></trkpt><trkpt lat="43.4288336" lon="11.6725197"><ele>353.0</ele><time>2026-04-04T09:51:50.77Z</time></trkpt><trkpt lat="43.4288661" lon="11.6726282"><ele>353.0</ele><time>2026-04-04T09:51:52.769Z</time></trkpt><trkpt lat="43.4288983" lon="11.6727467"><ele>353.0</ele><time>2026-04-04T09:51:54.769Z</time></trkpt><trkpt lat="43.4288945" lon="11.6728438"><ele>353.0</ele><time>2026-04-04T09:51:56.769Z</time></trkpt><trkpt lat="43.4289237" lon="11.672924"><ele>353.0</ele><time>2026-04-04T09:51:58.769Z</time></trkpt><trkpt lat="43.4289821" lon="11.672999"><ele>353.0</ele><time>2026-04-04T09:52:00.769Z</time></trkpt><trkpt lat="43.4290529" lon="11.6730032"><ele>355.5</ele><time>2026-04-04T09:52:02.769Z</time></trkpt><trkpt lat="43.4291203" lon="11.6730303"><ele>358.0</ele><time>2026-04-04T09:52:04.769Z</time></trkpt><trkpt lat="43.4291586" lon="11.6731093"><ele>360.5</ele><time>2026-04-04T09:52:06.769Z</time></trkpt><trkpt lat="43.4292241" lon="11.6732027"><ele>363.0</ele><time>2026-04-04T09:52:08.769Z</time></trkpt><trkpt lat="43.4292959" lon="11.6732859"><ele>365.5</ele><time>2026-04-04T09:52:10.769Z</time></trkpt><trkpt lat="43.4293261" lon="11.6733627"><ele>368.0</ele><time>2026-04-04T09:52:12.769Z</time></trkpt><trkpt lat="43.4293786" lon="11.6734708"><ele>368.0</ele><time>2026-04-04T09:52:18.77Z</time></trkpt><trkpt lat="43.4294027" lon="11.6735518"><ele>368.0</ele><time>2026-04-04T09:52:20.874Z</time></trkpt><trkpt lat="43.429457" lon="11.6736148"><ele>368.0</ele><time>2026-04-04T09:52:23.156Z</time></trkpt><trkpt lat="43.429507" lon="11.6736707"><ele>368.0</ele><time>2026-04-04T09:52:25.888Z</time></trkpt><trkpt lat="43.429544" lon="11.6737715"><ele>368.0</ele><time>2026-04-04T09:52:28.843Z</time></trkpt><trkpt lat="43.4295562" lon="11.6738893"><ele>368.0</ele><time>2026-04-04T09:52:30.863Z</time></trkpt><trkpt lat="43.4295459" lon="11.6739883"><ele>368.0</ele><time>2026-04-04T09:52:33.086Z</time></trkpt><trkpt lat="43.4295304" lon="11.6740814"><ele>370.0</ele><time>2026-04-04T09:52:37.605Z</time></trkpt><trkpt lat="43.429553" lon="11.6741803"><ele>372.0</ele><time>2026-04-04T09:52:39.866Z</time></trkpt><trkpt lat="43.4295665" lon="11.6742872"><ele>374.0</ele><time>2026-04-04T09:52:41.86Z</time></trkpt><trkpt lat="43.4296228" lon="11.6743931"><ele>376.0</ele><time>2026-04-04T09:52:43.769Z</time></trkpt><trkpt lat="43.4296473" lon="11.6744771"><ele>378.0</ele><time>2026-04-04T09:52:45.789Z</time></trkpt><trkpt lat="43.4297028" lon="11.6745393"><ele>380.0</ele><time>2026-04-04T09:52:47.786Z</time></trkpt><trkpt lat="43.4297048" lon="11.6746466"><ele>384.33333333333337</ele><time>2026-04-04T09:52:49.83Z</time></trkpt><trkpt lat="43.429698" lon="11.6747735"><ele>388.6666666666667</ele><time>2026-04-04T09:52:51.78Z</time></trkpt><trkpt lat="43.4297286" lon="11.6748788"><ele>393.0</ele><time>2026-04-04T09:52:54.77Z</time></trkpt><trkpt lat="43.4297069" lon="11.6749863"><ele>397.33333333333337</ele><time>2026-04-04T09:52:57.769Z</time></trkpt><trkpt lat="43.4297758" lon="11.6750249"><ele>401.6666666666667</ele><time>2026-04-04T09:55:48.77Z</time></trkpt><trkpt lat="43.4298721" lon="11.6750114"><ele>406.0</ele><time>2026-04-04T09:55:51.769Z</time></trkpt><trkpt lat="43.4299596" lon="11.6749692"><ele>406.0</ele><time>2026-04-04T09:55:53.769Z</time></trkpt><trkpt lat="43.4300606" lon="11.6749425"><ele>406.0</ele><time>2026-04-04T09:55:55.769Z</time></trkpt><trkpt lat="43.4301767" lon="11.6749023"><ele>406.0</ele><time>2026-04-04T09:55:57.769Z</time></trkpt><trkpt lat="43.4302906" lon="11.6748359"><ele>406.0</ele><time>2026-04-04T09:55:59.77Z</time></trkpt><trkpt lat="43.4303501" lon="11.6747901"><ele>406.0</ele><time>2026-04-04T09:56:00.77Z</time></trkpt><trkpt lat="43.4304571" lon="11.674766"><ele>405.50000000000006</ele><time>2026-04-04T09:56:02.769Z</time></trkpt><trkpt lat="43.4305398" lon="11.6747565"><ele>405.0</ele><time>2026-04-04T09:56:04.769Z</time></trkpt><trkpt lat="43.4306059" lon="11.6747788"><ele>404.5</ele><time>2026-04-04T09:56:06.769Z</time></trkpt><trkpt lat="43.4307036" lon="11.6748513"><ele>404.0</ele><time>2026-04-04T09:56:08.769Z</time></trkpt><trkpt lat="43.4308028" lon="11.6749189"><ele>403.50000000000006</ele><time>2026-04-04T09:56:10.769Z</time></trkpt><trkpt lat="43.4308715" lon="11.674912"><ele>403.0</ele><time>2026-04-04T09:56:11.769Z</time></trkpt><trkpt lat="43.4309549" lon="11.6749051"><ele>403.00000000000006</ele><time>2026-04-04T09:56:12.769Z</time></trkpt><trkpt lat="43.4310308" lon="11.6748947"><ele>403.0</ele><time>2026-04-04T09:56:13.769Z</time></trkpt><trkpt lat="43.4310992" lon="11.674851"><ele>403.0</ele><time>2026-04-04T09:56:14.77Z</time></trkpt><trkpt lat="43.4311706" lon="11.6747769"><ele>403.0</ele><time>2026-04-04T09:56:15.77Z</time></trkpt><trkpt lat="43.4312464" lon="11.674694"><ele>403.00000000000006</ele><time>2026-04-04T09:56:16.769Z</time></trkpt><trkpt lat="43.4313167" lon="11.6745954"><ele>403.0</ele><time>2026-04-04T09:56:17.769Z</time></trkpt><trkpt lat="43.4313768" lon="11.6744892"><ele>401.50000000000006</ele><time>2026-04-04T09:56:18.769Z</time></trkpt><trkpt lat="43.4314342" lon="11.6743918"><ele>400.0</ele><time>2026-04-04T09:56:19.769Z</time></trkpt><trkpt lat="43.4314899" lon="11.6743147"><ele>398.5</ele><time>2026-04-04T09:56:20.769Z</time></trkpt><trkpt lat="43.4315404" lon="11.6742357"><ele>397.0</ele><time>2026-04-04T09:56:21.769Z</time></trkpt><trkpt lat="43.4315879" lon="11.6741261"><ele>395.50000000000006</ele><time>2026-04-04T09:56:22.769Z</time></trkpt><trkpt lat="43.4316193" lon="11.6740327"><ele>394.0</ele><time>2026-04-04T09:56:23.769Z</time></trkpt><trkpt lat="43.4316568" lon="11.673934"><ele>394.0</ele><time>2026-04-04T09:56:25.769Z</time></trkpt><trkpt lat="43.4317611" lon="11.6739531"><ele>394.0</ele><time>2026-04-04T09:56:28.769Z</time></trkpt><trkpt lat="43.4318455" lon="11.6740425"><ele>394.0</ele><time>2026-04-04T09:56:30.769Z</time></trkpt><trkpt lat="43.4319234" lon="11.6741556"><ele>394.0</ele><time>2026-04-04T09:56:32.769Z</time></trkpt><trkpt lat="43.4319511" lon="11.6742868"><ele>394.0</ele><time>2026-04-04T09:56:34.769Z</time></trkpt><trkpt lat="43.4319213" lon="11.6743652"><ele>397.1666666666667</ele><time>2026-04-04T09:56:36.769Z</time></trkpt><trkpt lat="43.431909" lon="11.6744664"><ele>400.33333333333337</ele><time>2026-04-04T09:56:38.769Z</time></trkpt><trkpt lat="43.4319307" lon="11.6745786"><ele>403.5</ele><time>2026-04-04T09:56:40.769Z</time></trkpt><trkpt lat="43.4319177" lon="11.674701"><ele>406.66666666666663</ele><time>2026-04-04T09:56:42.769Z</time></trkpt><trkpt lat="43.4319397" lon="11.6748289"><ele>409.8333333333333</ele><time>2026-04-04T09:56:44.769Z</time></trkpt><trkpt lat="43.432017" lon="11.6748917"><ele>413.0</ele><time>2026-04-04T09:56:46.769Z</time></trkpt><trkpt lat="43.4320871" lon="11.6749485"><ele>413.3333333333333</ele><time>2026-04-04T09:56:48.769Z</time></trkpt><trkpt lat="43.4321503" lon="11.6750112"><ele>413.66666666666663</ele><time>2026-04-04T09:56:50.769Z</time></trkpt><trkpt lat="43.4321995" lon="11.6751015"><ele>414.0</ele><time>2026-04-04T09:56:52.769Z</time></trkpt><trkpt lat="43.4322548" lon="11.6751945"><ele>414.33333333333337</ele><time>2026-04-04T09:56:54.769Z</time></trkpt><trkpt lat="43.4322902" lon="11.675316"><ele>414.6666666666667</ele><time>2026-04-04T09:56:56.769Z</time></trkpt><trkpt lat="43.4323435" lon="11.675395"><ele>415.0</ele><time>2026-04-04T09:56:58.77Z</time></trkpt><trkpt lat="43.4323933" lon="11.6754983"><ele>418.83333333333337</ele><time>2026-04-04T09:57:01.853Z</time></trkpt><trkpt lat="43.4324371" lon="11.6755862"><ele>422.6666666666667</ele><time>2026-04-04T09:57:03.823Z</time></trkpt><trkpt lat="43.4324496" lon="11.6756832"><ele>426.5</ele><time>2026-04-04T09:57:05.843Z</time></trkpt><trkpt lat="43.4323835" lon="11.6757135"><ele>430.33333333333337</ele><time>2026-04-04T09:57:08.769Z</time></trkpt><trkpt lat="43.4323048" lon="11.6757208"><ele>434.1666666666667</ele><time>2026-04-04T09:57:10.83Z</time></trkpt><trkpt lat="43.4322365" lon="11.6757893"><ele>438.0</ele><time>2026-04-04T09:57:12.769Z</time></trkpt><trkpt lat="43.4322871" lon="11.6759007"><ele>438.0</ele><time>2026-04-04T09:57:14.769Z</time></trkpt><trkpt lat="43.4323174" lon="11.6759816"><ele>438.0</ele><time>2026-04-04T09:57:16.769Z</time></trkpt><trkpt lat="43.4322192" lon="11.6760814"><ele>438.0</ele><time>2026-04-04T09:57:18.77Z</time></trkpt><trkpt lat="43.4321596" lon="11.6761152"><ele>438.0</ele><time>2026-04-04T09:57:19.769Z</time></trkpt><trkpt lat="43.432115" lon="11.6762113"><ele>438.0</ele><time>2026-04-04T09:57:21.769Z</time></trkpt><trkpt lat="43.4321968" lon="11.676258"><ele>438.0</ele><time>2026-04-04T09:57:23.769Z</time></trkpt><trkpt lat="43.4322704" lon="11.6763515"><ele>440.6666666666667</ele><time>2026-04-04T09:57:25.77Z</time></trkpt><trkpt lat="43.4322901" lon="11.6765126"><ele>443.33333333333337</ele><time>2026-04-04T09:57:27.769Z</time></trkpt><trkpt lat="43.4322999" lon="11.6766037"><ele>446.0</ele><time>2026-04-04T09:57:28.769Z</time></trkpt><trkpt lat="43.4323206" lon="11.6767061"><ele>448.6666666666667</ele><time>2026-04-04T09:57:29.769Z</time></trkpt><trkpt lat="43.4323451" lon="11.6768105"><ele>451.33333333333337</ele><time>2026-04-04T09:57:30.769Z</time></trkpt><trkpt lat="43.4323561" lon="11.6769062"><ele>454.0</ele><time>2026-04-04T09:57:31.769Z</time></trkpt><trkpt lat="43.4323673" lon="11.6769939"><ele>455.33333333333337</ele><time>2026-04-04T09:57:32.769Z</time></trkpt><trkpt lat="43.4323918" lon="11.6770742"><ele>456.6666666666667</ele><time>2026-04-04T09:57:33.769Z</time></trkpt><trkpt lat="43.4324474" lon="11.6772067"><ele>458.0</ele><time>2026-04-04T09:57:35.769Z</time></trkpt><trkpt lat="43.4324879" lon="11.6772767"><ele>459.33333333333337</ele><time>2026-04-04T09:57:37.77Z</time></trkpt><trkpt lat="43.4325552" lon="11.6773854"><ele>460.6666666666667</ele><time>2026-04-04T09:57:39.769Z</time></trkpt><trkpt lat="43.4326042" lon="11.6774541"><ele>462.0</ele><time>2026-04-04T09:57:40.769Z</time></trkpt><trkpt lat="43.4326721" lon="11.6775206"><ele>462.0</ele><time>2026-04-04T09:57:41.769Z</time></trkpt><trkpt lat="43.4327596" lon="11.6775976"><ele>462.00000000000006</ele><time>2026-04-04T09:57:42.77Z</time></trkpt><trkpt lat="43.4328526" lon="11.6776742"><ele>462.00000000000006</ele><time>2026-04-04T09:57:43.769Z</time></trkpt><trkpt lat="43.432943" lon="11.6777356"><ele>462.0</ele><time>2026-04-04T09:57:44.77Z</time></trkpt><trkpt lat="43.4330331" lon="11.6777869"><ele>462.0</ele><time>2026-04-04T09:57:45.769Z</time></trkpt><trkpt lat="43.433112" lon="11.6778232"><ele>464.3333333333333</ele><time>2026-04-04T09:57:46.77Z</time></trkpt><trkpt lat="43.4331882" lon="11.6778627"><ele>466.66666666666663</ele><time>2026-04-04T09:57:47.769Z</time></trkpt><trkpt lat="43.4332615" lon="11.6779027"><ele>469.0</ele><time>2026-04-04T09:57:48.769Z</time></trkpt><trkpt lat="43.4333305" lon="11.677923"><ele>471.3333333333333</ele><time>2026-04-04T09:57:49.769Z</time></trkpt><trkpt lat="43.4333979" lon="11.6779288"><ele>473.66666666666663</ele><time>2026-04-04T09:57:50.769Z</time></trkpt><trkpt lat="43.4335197" lon="11.6779903"><ele>476.0</ele><time>2026-04-04T09:57:52.77Z</time></trkpt><trkpt lat="43.4335896" lon="11.6780352"><ele>475.99999999999994</ele><time>2026-04-04T09:57:53.769Z</time></trkpt><trkpt lat="43.4336807" lon="11.6781476"><ele>476.0</ele><time>2026-04-04T09:57:55.77Z</time></trkpt><trkpt lat="43.4337317" lon="11.6782111"><ele>476.0</ele><time>2026-04-04T09:57:56.769Z</time></trkpt><trkpt lat="43.4338037" lon="11.6782676"><ele>476.0</ele><time>2026-04-04T09:57:57.769Z</time></trkpt><trkpt lat="43.4338795" lon="11.6783252"><ele>475.99999999999994</ele><time>2026-04-04T09:57:58.769Z</time></trkpt><trkpt lat="43.4339453" lon="11.6783906"><ele>476.0</ele><time>2026-04-04T09:57:59.769Z</time></trkpt><trkpt lat="43.43401" lon="11.678455"><ele>478.3333333333333</ele><time>2026-04-04T09:58:00.769Z</time></trkpt><trkpt lat="43.4340765" lon="11.6784854"><ele>480.66666666666663</ele><time>2026-04-04T09:58:01.77Z</time></trkpt><trkpt lat="43.4341499" lon="11.6785083"><ele>483.0</ele><time>2026-04-04T09:58:02.769Z</time></trkpt><trkpt lat="43.4342268" lon="11.678529"><ele>485.33333333333337</ele><time>2026-04-04T09:58:03.769Z</time></trkpt><trkpt lat="43.4343154" lon="11.6785473"><ele>487.6666666666667</ele><time>2026-04-04T09:58:04.769Z</time></trkpt><trkpt lat="43.4344072" lon="11.6785707"><ele>490.0</ele><time>2026-04-04T09:58:05.77Z</time></trkpt><trkpt lat="43.4344911" lon="11.6786079"><ele>490.50000000000006</ele><time>2026-04-04T09:58:06.769Z</time></trkpt><trkpt lat="43.434554" lon="11.6786417"><ele>491.0</ele><time>2026-04-04T09:58:07.77Z</time></trkpt><trkpt lat="43.4346667" lon="11.6786888"><ele>491.5</ele><time>2026-04-04T09:58:09.769Z</time></trkpt><trkpt lat="43.4347359" lon="11.67871"><ele>492.0</ele><time>2026-04-04T09:58:10.769Z</time></trkpt><trkpt lat="43.4348064" lon="11.6787408"><ele>492.50000000000006</ele><time>2026-04-04T09:58:11.769Z</time></trkpt><trkpt lat="43.4348731" lon="11.6787712"><ele>493.0</ele><time>2026-04-04T09:58:12.769Z</time></trkpt><trkpt lat="43.4349806" lon="11.6788284"><ele>495.83333333333337</ele><time>2026-04-04T09:58:14.769Z</time></trkpt><trkpt lat="43.4350475" lon="11.6788612"><ele>498.6666666666667</ele><time>2026-04-04T09:58:15.77Z</time></trkpt><trkpt lat="43.4351168" lon="11.6788949"><ele>501.5</ele><time>2026-04-04T09:58:16.769Z</time></trkpt><trkpt lat="43.435185" lon="11.6789235"><ele>504.33333333333337</ele><time>2026-04-04T09:58:17.769Z</time></trkpt><trkpt lat="43.435305" lon="11.678967"><ele>507.1666666666667</ele><time>2026-04-04T09:58:19.769Z</time></trkpt><trkpt lat="43.4353709" lon="11.6789863"><ele>510.0</ele><time>2026-04-04T09:58:20.77Z</time></trkpt><trkpt lat="43.4354756" lon="11.6790355"><ele>510.0</ele><time>2026-04-04T09:58:22.769Z</time></trkpt><trkpt lat="43.4355165" lon="11.6791111"><ele>510.0</ele><time>2026-04-04T09:58:25.769Z</time></trkpt><trkpt lat="43.4354232" lon="11.6791145"><ele>510.0</ele><time>2026-04-04T09:58:28.769Z</time></trkpt><trkpt lat="43.4353689" lon="11.6791804"><ele>510.0</ele><time>2026-04-04T09:58:30.769Z</time></trkpt><trkpt lat="43.4353536" lon="11.6793044"><ele>510.0</ele><time>2026-04-04T09:58:32.769Z</time></trkpt><trkpt lat="43.4353789" lon="11.6793976"><ele>510.0</ele><time>2026-04-04T09:58:34.769Z</time></trkpt><trkpt lat="43.4354407" lon="11.679453"><ele>510.0</ele><time>2026-04-04T09:58:37.769Z</time></trkpt></trkseg></trk></gpx>